<?xml version="1.0" encoding="UTF-8" standalone="no" ?>
<gpx xmlns="http://www.topografix.com/GPX/1/1" xmlns:xsi="http://www.w3.org/2001/XMLSchema-instance" xsi:schemaLocation="http://www.topografix.com/GPX/1/1 http://www.topografix.com/GPX/1/1/gpx.xsd" version="1.1" creator="VisuGPX - https://www.visugpx.com">
  <metadata>
    <name>Ballon d'Alsace gravel</name>
    <desc><![CDATA[Montée par la tassion, wissgrut et tour du sommet par la vierge et la Jeanne d'arc]]></desc>
  </metadata>
  <trk>
    <name><![CDATA[Ballon d'Alsace gravel]]></name>
    <trkseg>
      <trkpt lat="47.73118" lon="6.83082">
        <ele>456.4</ele>
        <time>2019-05-17T06:00:50Z</time>
      </trkpt>
      <trkpt lat="47.73122" lon="6.83092">
        <ele>456.4</ele>
        <time>2019-05-17T06:00:53Z</time>
      </trkpt>
      <trkpt lat="47.73125" lon="6.83096">
        <ele>456.4</ele>
        <time>2019-05-17T06:00:54Z</time>
      </trkpt>
      <trkpt lat="47.73127" lon="6.83103">
        <ele>456.4</ele>
        <time>2019-05-17T06:00:55Z</time>
      </trkpt>
      <trkpt lat="47.73126" lon="6.83127">
        <ele>456</ele>
        <time>2019-05-17T06:00:58Z</time>
      </trkpt>
      <trkpt lat="47.73123" lon="6.83135">
        <ele>455.6</ele>
        <time>2019-05-17T06:00:59Z</time>
      </trkpt>
      <trkpt lat="47.73118" lon="6.83143">
        <ele>455.2</ele>
        <time>2019-05-17T06:01:00Z</time>
      </trkpt>
      <trkpt lat="47.73114" lon="6.83151">
        <ele>454.8</ele>
        <time>2019-05-17T06:01:01Z</time>
      </trkpt>
      <trkpt lat="47.73111" lon="6.83161">
        <ele>454.2</ele>
        <time>2019-05-17T06:01:02Z</time>
      </trkpt>
      <trkpt lat="47.73109" lon="6.83172">
        <ele>453.6</ele>
        <time>2019-05-17T06:01:03Z</time>
      </trkpt>
      <trkpt lat="47.73108" lon="6.83182">
        <ele>453.2</ele>
        <time>2019-05-17T06:01:04Z</time>
      </trkpt>
      <trkpt lat="47.73108" lon="6.83192">
        <ele>452.6</ele>
        <time>2019-05-17T06:01:05Z</time>
      </trkpt>
      <trkpt lat="47.7311" lon="6.83202">
        <ele>452</ele>
        <time>2019-05-17T06:01:06Z</time>
      </trkpt>
      <trkpt lat="47.73112" lon="6.83211">
        <ele>452</ele>
        <time>2019-05-17T06:01:07Z</time>
      </trkpt>
      <trkpt lat="47.7313" lon="6.83226">
        <ele>452</ele>
        <time>2019-05-17T06:01:10Z</time>
      </trkpt>
      <trkpt lat="47.7315" lon="6.83224">
        <ele>452</ele>
        <time>2019-05-17T06:01:13Z</time>
      </trkpt>
      <trkpt lat="47.73157" lon="6.83225">
        <ele>452</ele>
        <time>2019-05-17T06:01:14Z</time>
      </trkpt>
      <trkpt lat="47.7317" lon="6.83222">
        <ele>452</ele>
        <time>2019-05-17T06:01:16Z</time>
      </trkpt>
      <trkpt lat="47.73191" lon="6.83218">
        <ele>452</ele>
        <time>2019-05-17T06:01:19Z</time>
      </trkpt>
      <trkpt lat="47.73245" lon="6.83214">
        <ele>452</ele>
        <time>2019-05-17T06:01:27Z</time>
      </trkpt>
      <trkpt lat="47.73277" lon="6.83211">
        <ele>452</ele>
        <time>2019-05-17T06:01:32Z</time>
      </trkpt>
      <trkpt lat="47.73322" lon="6.83201">
        <ele>452</ele>
        <time>2019-05-17T06:01:39Z</time>
      </trkpt>
      <trkpt lat="47.73334" lon="6.83201">
        <ele>452</ele>
        <time>2019-05-17T06:01:41Z</time>
      </trkpt>
      <trkpt lat="47.73346" lon="6.83207">
        <ele>452.4</ele>
        <time>2019-05-17T06:01:43Z</time>
      </trkpt>
      <trkpt lat="47.73352" lon="6.8321">
        <ele>452.8</ele>
        <time>2019-05-17T06:01:44Z</time>
      </trkpt>
      <trkpt lat="47.73358" lon="6.83213">
        <ele>453.2</ele>
        <time>2019-05-17T06:01:45Z</time>
      </trkpt>
      <trkpt lat="47.73364" lon="6.83215">
        <ele>453.6</ele>
        <time>2019-05-17T06:01:46Z</time>
      </trkpt>
      <trkpt lat="47.73371" lon="6.83217">
        <ele>454</ele>
        <time>2019-05-17T06:01:47Z</time>
      </trkpt>
      <trkpt lat="47.73377" lon="6.83218">
        <ele>454</ele>
        <time>2019-05-17T06:01:48Z</time>
      </trkpt>
      <trkpt lat="47.7339" lon="6.83218">
        <ele>454</ele>
        <time>2019-05-17T06:01:50Z</time>
      </trkpt>
      <trkpt lat="47.73435" lon="6.83216">
        <ele>454</ele>
        <time>2019-05-17T06:01:57Z</time>
      </trkpt>
      <trkpt lat="47.73479" lon="6.83212">
        <ele>454</ele>
        <time>2019-05-17T06:02:04Z</time>
      </trkpt>
      <trkpt lat="47.73485" lon="6.83211">
        <ele>454.4</ele>
        <time>2019-05-17T06:02:05Z</time>
      </trkpt>
      <trkpt lat="47.73491" lon="6.83209">
        <ele>454.8</ele>
        <time>2019-05-17T06:02:06Z</time>
      </trkpt>
      <trkpt lat="47.73497" lon="6.83207">
        <ele>455.2</ele>
        <time>2019-05-17T06:02:07Z</time>
      </trkpt>
      <trkpt lat="47.73503" lon="6.83204">
        <ele>455.6</ele>
        <time>2019-05-17T06:02:08Z</time>
      </trkpt>
      <trkpt lat="47.73508" lon="6.83201">
        <ele>456</ele>
        <time>2019-05-17T06:02:09Z</time>
      </trkpt>
      <trkpt lat="47.73513" lon="6.83198">
        <ele>456</ele>
        <time>2019-05-17T06:02:10Z</time>
      </trkpt>
      <trkpt lat="47.73535" lon="6.8318">
        <ele>456</ele>
        <time>2019-05-17T06:02:14Z</time>
      </trkpt>
      <trkpt lat="47.73539" lon="6.83173">
        <ele>456</ele>
        <time>2019-05-17T06:02:15Z</time>
      </trkpt>
      <trkpt lat="47.73575" lon="6.83123">
        <ele>456.4</ele>
        <time>2019-05-17T06:02:23Z</time>
      </trkpt>
      <trkpt lat="47.73581" lon="6.83118">
        <ele>457.2</ele>
        <time>2019-05-17T06:02:24Z</time>
      </trkpt>
      <trkpt lat="47.73586" lon="6.83113">
        <ele>457.6</ele>
        <time>2019-05-17T06:02:25Z</time>
      </trkpt>
      <trkpt lat="47.73591" lon="6.83109">
        <ele>458</ele>
        <time>2019-05-17T06:02:26Z</time>
      </trkpt>
      <trkpt lat="47.73601" lon="6.83102">
        <ele>458</ele>
        <time>2019-05-17T06:02:28Z</time>
      </trkpt>
      <trkpt lat="47.73606" lon="6.83098">
        <ele>458</ele>
        <time>2019-05-17T06:02:29Z</time>
      </trkpt>
      <trkpt lat="47.73619" lon="6.83094">
        <ele>458</ele>
        <time>2019-05-17T06:02:31Z</time>
      </trkpt>
      <trkpt lat="47.73637" lon="6.83092">
        <ele>458</ele>
        <time>2019-05-17T06:02:34Z</time>
      </trkpt>
      <trkpt lat="47.73654" lon="6.83099">
        <ele>458.4</ele>
        <time>2019-05-17T06:02:37Z</time>
      </trkpt>
      <trkpt lat="47.73659" lon="6.83101">
        <ele>458.8</ele>
        <time>2019-05-17T06:02:38Z</time>
      </trkpt>
      <trkpt lat="47.73664" lon="6.83104">
        <ele>459.2</ele>
        <time>2019-05-17T06:02:39Z</time>
      </trkpt>
      <trkpt lat="47.73669" lon="6.83107">
        <ele>459.6</ele>
        <time>2019-05-17T06:02:40Z</time>
      </trkpt>
      <trkpt lat="47.73674" lon="6.8311">
        <ele>460</ele>
        <time>2019-05-17T06:02:41Z</time>
      </trkpt>
      <trkpt lat="47.73691" lon="6.83119">
        <ele>460</ele>
        <time>2019-05-17T06:02:44Z</time>
      </trkpt>
      <trkpt lat="47.73696" lon="6.83121">
        <ele>460</ele>
        <time>2019-05-17T06:02:45Z</time>
      </trkpt>
      <trkpt lat="47.73711" lon="6.83126">
        <ele>460</ele>
        <time>2019-05-17T06:02:48Z</time>
      </trkpt>
      <trkpt lat="47.73734" lon="6.83124">
        <ele>460</ele>
        <time>2019-05-17T06:02:53Z</time>
      </trkpt>
      <trkpt lat="47.73757" lon="6.83119">
        <ele>460</ele>
        <time>2019-05-17T06:02:57Z</time>
      </trkpt>
      <trkpt lat="47.73763" lon="6.83116">
        <ele>460</ele>
        <time>2019-05-17T06:02:58Z</time>
      </trkpt>
      <trkpt lat="47.73781" lon="6.8311">
        <ele>460</ele>
        <time>2019-05-17T06:03:01Z</time>
      </trkpt>
      <trkpt lat="47.73791" lon="6.83105">
        <ele>460</ele>
        <time>2019-05-17T06:03:03Z</time>
      </trkpt>
      <trkpt lat="47.73803" lon="6.83098">
        <ele>460</ele>
        <time>2019-05-17T06:03:06Z</time>
      </trkpt>
      <trkpt lat="47.73827" lon="6.83105">
        <ele>462.4</ele>
        <time>2019-05-17T06:04:17Z</time>
      </trkpt>
      <trkpt lat="47.73826" lon="6.83133">
        <ele>462.4</ele>
        <time>2019-05-17T06:04:22Z</time>
      </trkpt>
      <trkpt lat="47.73826" lon="6.83159">
        <ele>462.4</ele>
        <time>2019-05-17T06:04:25Z</time>
      </trkpt>
      <trkpt lat="47.73823" lon="6.83176">
        <ele>462.4</ele>
        <time>2019-05-17T06:04:27Z</time>
      </trkpt>
      <trkpt lat="47.73816" lon="6.83217">
        <ele>462.4</ele>
        <time>2019-05-17T06:04:32Z</time>
      </trkpt>
      <trkpt lat="47.73819" lon="6.83222">
        <ele>462.4</ele>
        <time>2019-05-17T06:04:33Z</time>
      </trkpt>
      <trkpt lat="47.73828" lon="6.83223">
        <ele>462.4</ele>
        <time>2019-05-17T06:04:35Z</time>
      </trkpt>
      <trkpt lat="47.73843" lon="6.83214">
        <ele>462.8</ele>
        <time>2019-05-17T06:04:38Z</time>
      </trkpt>
      <trkpt lat="47.73848" lon="6.8321">
        <ele>463.2</ele>
        <time>2019-05-17T06:04:39Z</time>
      </trkpt>
      <trkpt lat="47.73853" lon="6.83206">
        <ele>463.6</ele>
        <time>2019-05-17T06:04:40Z</time>
      </trkpt>
      <trkpt lat="47.73858" lon="6.83203">
        <ele>464</ele>
        <time>2019-05-17T06:04:41Z</time>
      </trkpt>
      <trkpt lat="47.73864" lon="6.83201">
        <ele>464.4</ele>
        <time>2019-05-17T06:04:42Z</time>
      </trkpt>
      <trkpt lat="47.73875" lon="6.83196">
        <ele>464.4</ele>
        <time>2019-05-17T06:04:44Z</time>
      </trkpt>
      <trkpt lat="47.73882" lon="6.83197">
        <ele>464.4</ele>
        <time>2019-05-17T06:04:45Z</time>
      </trkpt>
      <trkpt lat="47.73888" lon="6.832">
        <ele>464.4</ele>
        <time>2019-05-17T06:04:46Z</time>
      </trkpt>
      <trkpt lat="47.73895" lon="6.83212">
        <ele>464.4</ele>
        <time>2019-05-17T06:04:48Z</time>
      </trkpt>
      <trkpt lat="47.73899" lon="6.83226">
        <ele>464.4</ele>
        <time>2019-05-17T06:04:50Z</time>
      </trkpt>
      <trkpt lat="47.73914" lon="6.83283">
        <ele>464.4</ele>
        <time>2019-05-17T06:04:57Z</time>
      </trkpt>
      <trkpt lat="47.73918" lon="6.83291">
        <ele>464.8</ele>
        <time>2019-05-17T06:04:58Z</time>
      </trkpt>
      <trkpt lat="47.73921" lon="6.83298">
        <ele>465.2</ele>
        <time>2019-05-17T06:04:59Z</time>
      </trkpt>
      <trkpt lat="47.73925" lon="6.83305">
        <ele>465.6</ele>
        <time>2019-05-17T06:05:00Z</time>
      </trkpt>
      <trkpt lat="47.73929" lon="6.83312">
        <ele>466</ele>
        <time>2019-05-17T06:05:01Z</time>
      </trkpt>
      <trkpt lat="47.73931" lon="6.83318">
        <ele>466.6</ele>
        <time>2019-05-17T06:05:02Z</time>
      </trkpt>
      <trkpt lat="47.73939" lon="6.83325">
        <ele>466.6</ele>
        <time>2019-05-17T06:05:04Z</time>
      </trkpt>
      <trkpt lat="47.73943" lon="6.83324">
        <ele>466.6</ele>
        <time>2019-05-17T06:05:05Z</time>
      </trkpt>
      <trkpt lat="47.73958" lon="6.83305">
        <ele>466.6</ele>
        <time>2019-05-17T06:05:08Z</time>
      </trkpt>
      <trkpt lat="47.73962" lon="6.83298">
        <ele>466.6</ele>
        <time>2019-05-17T06:05:09Z</time>
      </trkpt>
      <trkpt lat="47.73984" lon="6.83255">
        <ele>466.6</ele>
        <time>2019-05-17T06:05:15Z</time>
      </trkpt>
      <trkpt lat="47.74015" lon="6.83199">
        <ele>466.6</ele>
        <time>2019-05-17T06:05:23Z</time>
      </trkpt>
      <trkpt lat="47.74049" lon="6.83143">
        <ele>466.6</ele>
        <time>2019-05-17T06:05:31Z</time>
      </trkpt>
      <trkpt lat="47.74057" lon="6.83128">
        <ele>467</ele>
        <time>2019-05-17T06:05:33Z</time>
      </trkpt>
      <trkpt lat="47.74061" lon="6.83121">
        <ele>467.4</ele>
        <time>2019-05-17T06:05:34Z</time>
      </trkpt>
      <trkpt lat="47.74065" lon="6.83114">
        <ele>467.8</ele>
        <time>2019-05-17T06:05:35Z</time>
      </trkpt>
      <trkpt lat="47.74069" lon="6.83106">
        <ele>468.2</ele>
        <time>2019-05-17T06:05:36Z</time>
      </trkpt>
      <trkpt lat="47.74073" lon="6.831">
        <ele>468.6</ele>
        <time>2019-05-17T06:05:37Z</time>
      </trkpt>
      <trkpt lat="47.74076" lon="6.83092">
        <ele>468.6</ele>
        <time>2019-05-17T06:05:38Z</time>
      </trkpt>
      <trkpt lat="47.74105" lon="6.83043">
        <ele>468.6</ele>
        <time>2019-05-17T06:05:45Z</time>
      </trkpt>
      <trkpt lat="47.74121" lon="6.83015">
        <ele>468.6</ele>
        <time>2019-05-17T06:05:49Z</time>
      </trkpt>
      <trkpt lat="47.74137" lon="6.82986">
        <ele>468.6</ele>
        <time>2019-05-17T06:05:53Z</time>
      </trkpt>
      <trkpt lat="47.74157" lon="6.82952">
        <ele>469</ele>
        <time>2019-05-17T06:05:58Z</time>
      </trkpt>
      <trkpt lat="47.74161" lon="6.82945">
        <ele>469.6</ele>
        <time>2019-05-17T06:05:59Z</time>
      </trkpt>
      <trkpt lat="47.74165" lon="6.82937">
        <ele>470</ele>
        <time>2019-05-17T06:06:00Z</time>
      </trkpt>
      <trkpt lat="47.74169" lon="6.8293">
        <ele>470.4</ele>
        <time>2019-05-17T06:06:01Z</time>
      </trkpt>
      <trkpt lat="47.74172" lon="6.82922">
        <ele>471</ele>
        <time>2019-05-17T06:06:02Z</time>
      </trkpt>
      <trkpt lat="47.74182" lon="6.82899">
        <ele>471</ele>
        <time>2019-05-17T06:06:05Z</time>
      </trkpt>
      <trkpt lat="47.74185" lon="6.82892">
        <ele>471</ele>
        <time>2019-05-17T06:06:06Z</time>
      </trkpt>
      <trkpt lat="47.74187" lon="6.82885">
        <ele>471</ele>
        <time>2019-05-17T06:06:07Z</time>
      </trkpt>
      <trkpt lat="47.74195" lon="6.82875">
        <ele>471</ele>
        <time>2019-05-17T06:06:09Z</time>
      </trkpt>
      <trkpt lat="47.74199" lon="6.82872">
        <ele>471</ele>
        <time>2019-05-17T06:06:10Z</time>
      </trkpt>
      <trkpt lat="47.74208" lon="6.82856">
        <ele>471</ele>
        <time>2019-05-17T06:06:13Z</time>
      </trkpt>
      <trkpt lat="47.7421" lon="6.82848">
        <ele>471</ele>
        <time>2019-05-17T06:06:14Z</time>
      </trkpt>
      <trkpt lat="47.74221" lon="6.82824">
        <ele>471</ele>
        <time>2019-05-17T06:06:17Z</time>
      </trkpt>
      <trkpt lat="47.7422" lon="6.82812">
        <ele>471</ele>
        <time>2019-05-17T06:06:18Z</time>
      </trkpt>
      <trkpt lat="47.74219" lon="6.82803">
        <ele>470.6</ele>
        <time>2019-05-17T06:06:19Z</time>
      </trkpt>
      <trkpt lat="47.74215" lon="6.82794">
        <ele>470.2</ele>
        <time>2019-05-17T06:06:20Z</time>
      </trkpt>
      <trkpt lat="47.7421" lon="6.82786">
        <ele>469.8</ele>
        <time>2019-05-17T06:06:21Z</time>
      </trkpt>
      <trkpt lat="47.74205" lon="6.82778">
        <ele>469.2</ele>
        <time>2019-05-17T06:06:22Z</time>
      </trkpt>
      <trkpt lat="47.742" lon="6.8277">
        <ele>468.8</ele>
        <time>2019-05-17T06:06:23Z</time>
      </trkpt>
      <trkpt lat="47.74188" lon="6.82752">
        <ele>468.4</ele>
        <time>2019-05-17T06:06:25Z</time>
      </trkpt>
      <trkpt lat="47.74182" lon="6.82744">
        <ele>467.8</ele>
        <time>2019-05-17T06:06:26Z</time>
      </trkpt>
      <trkpt lat="47.74177" lon="6.82736">
        <ele>467.4</ele>
        <time>2019-05-17T06:06:27Z</time>
      </trkpt>
      <trkpt lat="47.74172" lon="6.82728">
        <ele>467</ele>
        <time>2019-05-17T06:06:28Z</time>
      </trkpt>
      <trkpt lat="47.74167" lon="6.82719">
        <ele>466.4</ele>
        <time>2019-05-17T06:06:29Z</time>
      </trkpt>
      <trkpt lat="47.74154" lon="6.82698">
        <ele>466.4</ele>
        <time>2019-05-17T06:06:32Z</time>
      </trkpt>
      <trkpt lat="47.74152" lon="6.82671">
        <ele>466.4</ele>
        <time>2019-05-17T06:06:35Z</time>
      </trkpt>
      <trkpt lat="47.74155" lon="6.82663">
        <ele>466.8</ele>
        <time>2019-05-17T06:06:36Z</time>
      </trkpt>
      <trkpt lat="47.74158" lon="6.82657">
        <ele>467.2</ele>
        <time>2019-05-17T06:06:37Z</time>
      </trkpt>
      <trkpt lat="47.74162" lon="6.82649">
        <ele>467.6</ele>
        <time>2019-05-17T06:06:38Z</time>
      </trkpt>
      <trkpt lat="47.74165" lon="6.82643">
        <ele>468.2</ele>
        <time>2019-05-17T06:06:39Z</time>
      </trkpt>
      <trkpt lat="47.74168" lon="6.82636">
        <ele>468.6</ele>
        <time>2019-05-17T06:06:40Z</time>
      </trkpt>
      <trkpt lat="47.7417" lon="6.82629">
        <ele>468.6</ele>
        <time>2019-05-17T06:06:41Z</time>
      </trkpt>
      <trkpt lat="47.74173" lon="6.82622">
        <ele>469</ele>
        <time>2019-05-17T06:06:42Z</time>
      </trkpt>
      <trkpt lat="47.74176" lon="6.82615">
        <ele>469.4</ele>
        <time>2019-05-17T06:06:43Z</time>
      </trkpt>
      <trkpt lat="47.74178" lon="6.82608">
        <ele>469.8</ele>
        <time>2019-05-17T06:06:44Z</time>
      </trkpt>
      <trkpt lat="47.74181" lon="6.82601">
        <ele>470.2</ele>
        <time>2019-05-17T06:06:45Z</time>
      </trkpt>
      <trkpt lat="47.74183" lon="6.82594">
        <ele>470.6</ele>
        <time>2019-05-17T06:06:46Z</time>
      </trkpt>
      <trkpt lat="47.74186" lon="6.82586">
        <ele>470.6</ele>
        <time>2019-05-17T06:06:47Z</time>
      </trkpt>
      <trkpt lat="47.74191" lon="6.82563">
        <ele>470.6</ele>
        <time>2019-05-17T06:06:50Z</time>
      </trkpt>
      <trkpt lat="47.74195" lon="6.82549">
        <ele>470.6</ele>
        <time>2019-05-17T06:06:52Z</time>
      </trkpt>
      <trkpt lat="47.74202" lon="6.82538">
        <ele>471</ele>
        <time>2019-05-17T06:06:54Z</time>
      </trkpt>
      <trkpt lat="47.74206" lon="6.82533">
        <ele>471.6</ele>
        <time>2019-05-17T06:06:55Z</time>
      </trkpt>
      <trkpt lat="47.74211" lon="6.82528">
        <ele>472.4</ele>
        <time>2019-05-17T06:06:56Z</time>
      </trkpt>
      <trkpt lat="47.74215" lon="6.82525">
        <ele>472.8</ele>
        <time>2019-05-17T06:06:57Z</time>
      </trkpt>
      <trkpt lat="47.74224" lon="6.82518">
        <ele>472.8</ele>
        <time>2019-05-17T06:06:59Z</time>
      </trkpt>
      <trkpt lat="47.74235" lon="6.82513">
        <ele>472.8</ele>
        <time>2019-05-17T06:07:01Z</time>
      </trkpt>
      <trkpt lat="47.74263" lon="6.82507">
        <ele>472.8</ele>
        <time>2019-05-17T06:07:06Z</time>
      </trkpt>
      <trkpt lat="47.74268" lon="6.82507">
        <ele>472.8</ele>
        <time>2019-05-17T06:07:07Z</time>
      </trkpt>
      <trkpt lat="47.74274" lon="6.82506">
        <ele>472.8</ele>
        <time>2019-05-17T06:07:08Z</time>
      </trkpt>
      <trkpt lat="47.74297" lon="6.825">
        <ele>472.8</ele>
        <time>2019-05-17T06:07:12Z</time>
      </trkpt>
      <trkpt lat="47.74308" lon="6.82496">
        <ele>472.8</ele>
        <time>2019-05-17T06:07:14Z</time>
      </trkpt>
      <trkpt lat="47.74319" lon="6.82493">
        <ele>472.8</ele>
        <time>2019-05-17T06:07:16Z</time>
      </trkpt>
      <trkpt lat="47.74324" lon="6.82492">
        <ele>473.2</ele>
        <time>2019-05-17T06:07:17Z</time>
      </trkpt>
      <trkpt lat="47.7433" lon="6.8249">
        <ele>473.8</ele>
        <time>2019-05-17T06:07:18Z</time>
      </trkpt>
      <trkpt lat="47.74336" lon="6.82488">
        <ele>474.2</ele>
        <time>2019-05-17T06:07:19Z</time>
      </trkpt>
      <trkpt lat="47.74342" lon="6.82487">
        <ele>474.6</ele>
        <time>2019-05-17T06:07:20Z</time>
      </trkpt>
      <trkpt lat="47.74347" lon="6.82486">
        <ele>475</ele>
        <time>2019-05-17T06:07:21Z</time>
      </trkpt>
      <trkpt lat="47.74353" lon="6.82486">
        <ele>475</ele>
        <time>2019-05-17T06:07:22Z</time>
      </trkpt>
      <trkpt lat="47.74376" lon="6.82486">
        <ele>475</ele>
        <time>2019-05-17T06:07:26Z</time>
      </trkpt>
      <trkpt lat="47.74392" lon="6.82485">
        <ele>475.4</ele>
        <time>2019-05-17T06:07:29Z</time>
      </trkpt>
      <trkpt lat="47.74397" lon="6.82484">
        <ele>476</ele>
        <time>2019-05-17T06:07:30Z</time>
      </trkpt>
      <trkpt lat="47.74402" lon="6.82483">
        <ele>476.4</ele>
        <time>2019-05-17T06:07:31Z</time>
      </trkpt>
      <trkpt lat="47.74406" lon="6.82482">
        <ele>476.8</ele>
        <time>2019-05-17T06:07:32Z</time>
      </trkpt>
      <trkpt lat="47.74412" lon="6.82481">
        <ele>477.2</ele>
        <time>2019-05-17T06:07:33Z</time>
      </trkpt>
      <trkpt lat="47.74421" lon="6.82479">
        <ele>477.2</ele>
        <time>2019-05-17T06:07:35Z</time>
      </trkpt>
      <trkpt lat="47.74425" lon="6.82478">
        <ele>477.6</ele>
        <time>2019-05-17T06:07:36Z</time>
      </trkpt>
      <trkpt lat="47.7443" lon="6.82477">
        <ele>478</ele>
        <time>2019-05-17T06:07:37Z</time>
      </trkpt>
      <trkpt lat="47.74434" lon="6.82476">
        <ele>478.4</ele>
        <time>2019-05-17T06:07:38Z</time>
      </trkpt>
      <trkpt lat="47.74439" lon="6.82475">
        <ele>478.8</ele>
        <time>2019-05-17T06:07:39Z</time>
      </trkpt>
      <trkpt lat="47.74444" lon="6.82474">
        <ele>479.2</ele>
        <time>2019-05-17T06:07:40Z</time>
      </trkpt>
      <trkpt lat="47.74449" lon="6.82472">
        <ele>479.2</ele>
        <time>2019-05-17T06:07:41Z</time>
      </trkpt>
      <trkpt lat="47.74464" lon="6.82467">
        <ele>479.2</ele>
        <time>2019-05-17T06:07:44Z</time>
      </trkpt>
      <trkpt lat="47.74473" lon="6.82462">
        <ele>479.8</ele>
        <time>2019-05-17T06:07:46Z</time>
      </trkpt>
      <trkpt lat="47.74478" lon="6.8246">
        <ele>480.2</ele>
        <time>2019-05-17T06:07:47Z</time>
      </trkpt>
      <trkpt lat="47.74483" lon="6.82458">
        <ele>480.6</ele>
        <time>2019-05-17T06:07:48Z</time>
      </trkpt>
      <trkpt lat="47.74488" lon="6.82456">
        <ele>481</ele>
        <time>2019-05-17T06:07:49Z</time>
      </trkpt>
      <trkpt lat="47.74493" lon="6.82454">
        <ele>481.4</ele>
        <time>2019-05-17T06:07:50Z</time>
      </trkpt>
      <trkpt lat="47.74528" lon="6.8244">
        <ele>481.4</ele>
        <time>2019-05-17T06:07:57Z</time>
      </trkpt>
      <trkpt lat="47.74538" lon="6.82436">
        <ele>481.4</ele>
        <time>2019-05-17T06:07:59Z</time>
      </trkpt>
      <trkpt lat="47.74548" lon="6.82432">
        <ele>481.8</ele>
        <time>2019-05-17T06:08:01Z</time>
      </trkpt>
      <trkpt lat="47.74553" lon="6.8243">
        <ele>482.2</ele>
        <time>2019-05-17T06:08:02Z</time>
      </trkpt>
      <trkpt lat="47.74557" lon="6.82428">
        <ele>482.6</ele>
        <time>2019-05-17T06:08:03Z</time>
      </trkpt>
      <trkpt lat="47.74562" lon="6.82426">
        <ele>483</ele>
        <time>2019-05-17T06:08:04Z</time>
      </trkpt>
      <trkpt lat="47.74566" lon="6.82424">
        <ele>483.6</ele>
        <time>2019-05-17T06:08:05Z</time>
      </trkpt>
      <trkpt lat="47.74579" lon="6.82417">
        <ele>483.6</ele>
        <time>2019-05-17T06:08:08Z</time>
      </trkpt>
      <trkpt lat="47.74583" lon="6.82415">
        <ele>483.6</ele>
        <time>2019-05-17T06:08:09Z</time>
      </trkpt>
      <trkpt lat="47.74588" lon="6.82412">
        <ele>484</ele>
        <time>2019-05-17T06:08:10Z</time>
      </trkpt>
      <trkpt lat="47.74592" lon="6.82409">
        <ele>484.8</ele>
        <time>2019-05-17T06:08:11Z</time>
      </trkpt>
      <trkpt lat="47.74596" lon="6.82406">
        <ele>485.4</ele>
        <time>2019-05-17T06:08:12Z</time>
      </trkpt>
      <trkpt lat="47.746" lon="6.82402">
        <ele>485.8</ele>
        <time>2019-05-17T06:08:13Z</time>
      </trkpt>
      <trkpt lat="47.74605" lon="6.82399">
        <ele>485.8</ele>
        <time>2019-05-17T06:08:14Z</time>
      </trkpt>
      <trkpt lat="47.74617" lon="6.82389">
        <ele>486.2</ele>
        <time>2019-05-17T06:08:17Z</time>
      </trkpt>
      <trkpt lat="47.74621" lon="6.82385">
        <ele>486.6</ele>
        <time>2019-05-17T06:08:18Z</time>
      </trkpt>
      <trkpt lat="47.74624" lon="6.82381">
        <ele>487</ele>
        <time>2019-05-17T06:08:19Z</time>
      </trkpt>
      <trkpt lat="47.74628" lon="6.82377">
        <ele>487.4</ele>
        <time>2019-05-17T06:08:20Z</time>
      </trkpt>
      <trkpt lat="47.74632" lon="6.82372">
        <ele>488</ele>
        <time>2019-05-17T06:08:21Z</time>
      </trkpt>
      <trkpt lat="47.74635" lon="6.82367">
        <ele>488.6</ele>
        <time>2019-05-17T06:08:22Z</time>
      </trkpt>
      <trkpt lat="47.74638" lon="6.82363">
        <ele>489</ele>
        <time>2019-05-17T06:08:23Z</time>
      </trkpt>
      <trkpt lat="47.74642" lon="6.82358">
        <ele>489.6</ele>
        <time>2019-05-17T06:08:24Z</time>
      </trkpt>
      <trkpt lat="47.74645" lon="6.82353">
        <ele>490.2</ele>
        <time>2019-05-17T06:08:25Z</time>
      </trkpt>
      <trkpt lat="47.74649" lon="6.82348">
        <ele>490.8</ele>
        <time>2019-05-17T06:08:26Z</time>
      </trkpt>
      <trkpt lat="47.74653" lon="6.82343">
        <ele>490.8</ele>
        <time>2019-05-17T06:08:27Z</time>
      </trkpt>
      <trkpt lat="47.74673" lon="6.8231">
        <ele>490.8</ele>
        <time>2019-05-17T06:08:33Z</time>
      </trkpt>
      <trkpt lat="47.74677" lon="6.82304">
        <ele>491.2</ele>
        <time>2019-05-17T06:08:34Z</time>
      </trkpt>
      <trkpt lat="47.74681" lon="6.82298">
        <ele>491.6</ele>
        <time>2019-05-17T06:08:35Z</time>
      </trkpt>
      <trkpt lat="47.74685" lon="6.82293">
        <ele>492</ele>
        <time>2019-05-17T06:08:36Z</time>
      </trkpt>
      <trkpt lat="47.7469" lon="6.82287">
        <ele>493</ele>
        <time>2019-05-17T06:08:37Z</time>
      </trkpt>
      <trkpt lat="47.74695" lon="6.82282">
        <ele>492.2</ele>
        <time>2019-05-17T06:08:38Z</time>
      </trkpt>
      <trkpt lat="47.747" lon="6.82277">
        <ele>491.6</ele>
        <time>2019-05-17T06:08:39Z</time>
      </trkpt>
      <trkpt lat="47.74704" lon="6.82273">
        <ele>491</ele>
        <time>2019-05-17T06:08:40Z</time>
      </trkpt>
      <trkpt lat="47.74709" lon="6.82268">
        <ele>490.4</ele>
        <time>2019-05-17T06:08:41Z</time>
      </trkpt>
      <trkpt lat="47.74714" lon="6.82263">
        <ele>489.8</ele>
        <time>2019-05-17T06:08:42Z</time>
      </trkpt>
      <trkpt lat="47.74728" lon="6.82248">
        <ele>489.8</ele>
        <time>2019-05-17T06:08:45Z</time>
      </trkpt>
      <trkpt lat="47.74764" lon="6.82203">
        <ele>489.8</ele>
        <time>2019-05-17T06:08:53Z</time>
      </trkpt>
      <trkpt lat="47.74779" lon="6.82184">
        <ele>489.8</ele>
        <time>2019-05-17T06:08:56Z</time>
      </trkpt>
      <trkpt lat="47.74793" lon="6.82167">
        <ele>489.8</ele>
        <time>2019-05-17T06:08:59Z</time>
      </trkpt>
      <trkpt lat="47.74807" lon="6.82149">
        <ele>490.2</ele>
        <time>2019-05-17T06:09:02Z</time>
      </trkpt>
      <trkpt lat="47.74812" lon="6.82144">
        <ele>490.6</ele>
        <time>2019-05-17T06:09:03Z</time>
      </trkpt>
      <trkpt lat="47.74816" lon="6.82138">
        <ele>491</ele>
        <time>2019-05-17T06:09:04Z</time>
      </trkpt>
      <trkpt lat="47.74821" lon="6.82132">
        <ele>491.4</ele>
        <time>2019-05-17T06:09:05Z</time>
      </trkpt>
      <trkpt lat="47.74826" lon="6.82126">
        <ele>491.8</ele>
        <time>2019-05-17T06:09:06Z</time>
      </trkpt>
      <trkpt lat="47.7483" lon="6.8212">
        <ele>491.8</ele>
        <time>2019-05-17T06:09:07Z</time>
      </trkpt>
      <trkpt lat="47.74868" lon="6.82078">
        <ele>491.8</ele>
        <time>2019-05-17T06:09:15Z</time>
      </trkpt>
      <trkpt lat="47.74902" lon="6.82046">
        <ele>491.8</ele>
        <time>2019-05-17T06:09:22Z</time>
      </trkpt>
      <trkpt lat="47.74928" lon="6.82026">
        <ele>491.8</ele>
        <time>2019-05-17T06:09:27Z</time>
      </trkpt>
      <trkpt lat="47.7496" lon="6.82">
        <ele>491.8</ele>
        <time>2019-05-17T06:09:33Z</time>
      </trkpt>
      <trkpt lat="47.74995" lon="6.81972">
        <ele>491.8</ele>
        <time>2019-05-17T06:09:39Z</time>
      </trkpt>
      <trkpt lat="47.75029" lon="6.8195">
        <ele>491.8</ele>
        <time>2019-05-17T06:09:44Z</time>
      </trkpt>
      <trkpt lat="47.75052" lon="6.81944">
        <ele>491.8</ele>
        <time>2019-05-17T06:09:47Z</time>
      </trkpt>
      <trkpt lat="47.75067" lon="6.81944">
        <ele>491.4</ele>
        <time>2019-05-17T06:09:49Z</time>
      </trkpt>
      <trkpt lat="47.75075" lon="6.81945">
        <ele>491</ele>
        <time>2019-05-17T06:09:50Z</time>
      </trkpt>
      <trkpt lat="47.75083" lon="6.81946">
        <ele>490.2</ele>
        <time>2019-05-17T06:09:51Z</time>
      </trkpt>
      <trkpt lat="47.7509" lon="6.81947">
        <ele>489.6</ele>
        <time>2019-05-17T06:09:52Z</time>
      </trkpt>
      <trkpt lat="47.75111" lon="6.81955">
        <ele>489.6</ele>
        <time>2019-05-17T06:09:55Z</time>
      </trkpt>
      <trkpt lat="47.75159" lon="6.81974">
        <ele>489.6</ele>
        <time>2019-05-17T06:10:02Z</time>
      </trkpt>
      <trkpt lat="47.75186" lon="6.8197">
        <ele>489.6</ele>
        <time>2019-05-17T06:10:06Z</time>
      </trkpt>
      <trkpt lat="47.75192" lon="6.81967">
        <ele>489.6</ele>
        <time>2019-05-17T06:10:07Z</time>
      </trkpt>
      <trkpt lat="47.75231" lon="6.81947">
        <ele>489.6</ele>
        <time>2019-05-17T06:10:13Z</time>
      </trkpt>
      <trkpt lat="47.75281" lon="6.81918">
        <ele>489.6</ele>
        <time>2019-05-17T06:10:21Z</time>
      </trkpt>
      <trkpt lat="47.753" lon="6.81907">
        <ele>490.2</ele>
        <time>2019-05-17T06:10:24Z</time>
      </trkpt>
      <trkpt lat="47.75306" lon="6.81903">
        <ele>490.6</ele>
        <time>2019-05-17T06:10:25Z</time>
      </trkpt>
      <trkpt lat="47.75313" lon="6.819">
        <ele>491</ele>
        <time>2019-05-17T06:10:26Z</time>
      </trkpt>
      <trkpt lat="47.75319" lon="6.81896">
        <ele>491.4</ele>
        <time>2019-05-17T06:10:27Z</time>
      </trkpt>
      <trkpt lat="47.75325" lon="6.81893">
        <ele>491.8</ele>
        <time>2019-05-17T06:10:28Z</time>
      </trkpt>
      <trkpt lat="47.75331" lon="6.8189">
        <ele>491.8</ele>
        <time>2019-05-17T06:10:29Z</time>
      </trkpt>
      <trkpt lat="47.75351" lon="6.81887">
        <ele>491.8</ele>
        <time>2019-05-17T06:10:32Z</time>
      </trkpt>
      <trkpt lat="47.75398" lon="6.81886">
        <ele>491.8</ele>
        <time>2019-05-17T06:10:39Z</time>
      </trkpt>
      <trkpt lat="47.75412" lon="6.81888">
        <ele>491.8</ele>
        <time>2019-05-17T06:10:41Z</time>
      </trkpt>
      <trkpt lat="47.75424" lon="6.81894">
        <ele>491.8</ele>
        <time>2019-05-17T06:10:43Z</time>
      </trkpt>
      <trkpt lat="47.75436" lon="6.81904">
        <ele>491.8</ele>
        <time>2019-05-17T06:10:45Z</time>
      </trkpt>
      <trkpt lat="47.75452" lon="6.8192">
        <ele>491.8</ele>
        <time>2019-05-17T06:10:48Z</time>
      </trkpt>
      <trkpt lat="47.75469" lon="6.81933">
        <ele>492.2</ele>
        <time>2019-05-17T06:10:51Z</time>
      </trkpt>
      <trkpt lat="47.75475" lon="6.81936">
        <ele>492.6</ele>
        <time>2019-05-17T06:10:52Z</time>
      </trkpt>
      <trkpt lat="47.75481" lon="6.81938">
        <ele>493</ele>
        <time>2019-05-17T06:10:53Z</time>
      </trkpt>
      <trkpt lat="47.75487" lon="6.8194">
        <ele>493.4</ele>
        <time>2019-05-17T06:10:54Z</time>
      </trkpt>
      <trkpt lat="47.75493" lon="6.81941">
        <ele>494</ele>
        <time>2019-05-17T06:10:55Z</time>
      </trkpt>
      <trkpt lat="47.75505" lon="6.81941">
        <ele>494</ele>
        <time>2019-05-17T06:10:57Z</time>
      </trkpt>
      <trkpt lat="47.75512" lon="6.81939">
        <ele>494</ele>
        <time>2019-05-17T06:10:58Z</time>
      </trkpt>
      <trkpt lat="47.7555" lon="6.81927">
        <ele>494</ele>
        <time>2019-05-17T06:11:04Z</time>
      </trkpt>
      <trkpt lat="47.75602" lon="6.81908">
        <ele>494</ele>
        <time>2019-05-17T06:11:12Z</time>
      </trkpt>
      <trkpt lat="47.75648" lon="6.81899">
        <ele>494</ele>
        <time>2019-05-17T06:11:19Z</time>
      </trkpt>
      <trkpt lat="47.75667" lon="6.81897">
        <ele>494</ele>
        <time>2019-05-17T06:11:22Z</time>
      </trkpt>
      <trkpt lat="47.75679" lon="6.81898">
        <ele>494</ele>
        <time>2019-05-17T06:11:24Z</time>
      </trkpt>
      <trkpt lat="47.75698" lon="6.81899">
        <ele>494</ele>
        <time>2019-05-17T06:11:27Z</time>
      </trkpt>
      <trkpt lat="47.7571" lon="6.81901">
        <ele>494</ele>
        <time>2019-05-17T06:11:29Z</time>
      </trkpt>
      <trkpt lat="47.75742" lon="6.81907">
        <ele>494</ele>
        <time>2019-05-17T06:11:34Z</time>
      </trkpt>
      <trkpt lat="47.75774" lon="6.81919">
        <ele>494</ele>
        <time>2019-05-17T06:11:39Z</time>
      </trkpt>
      <trkpt lat="47.75805" lon="6.8193">
        <ele>494</ele>
        <time>2019-05-17T06:11:44Z</time>
      </trkpt>
      <trkpt lat="47.75811" lon="6.81932">
        <ele>494.4</ele>
        <time>2019-05-17T06:11:45Z</time>
      </trkpt>
      <trkpt lat="47.75817" lon="6.81933">
        <ele>494.8</ele>
        <time>2019-05-17T06:11:46Z</time>
      </trkpt>
      <trkpt lat="47.75823" lon="6.81934">
        <ele>495.2</ele>
        <time>2019-05-17T06:11:47Z</time>
      </trkpt>
      <trkpt lat="47.75829" lon="6.81934">
        <ele>495.6</ele>
        <time>2019-05-17T06:11:48Z</time>
      </trkpt>
      <trkpt lat="47.75835" lon="6.81934">
        <ele>496</ele>
        <time>2019-05-17T06:11:49Z</time>
      </trkpt>
      <trkpt lat="47.7584" lon="6.81934">
        <ele>496</ele>
        <time>2019-05-17T06:11:50Z</time>
      </trkpt>
      <trkpt lat="47.75846" lon="6.81933">
        <ele>496</ele>
        <time>2019-05-17T06:11:51Z</time>
      </trkpt>
      <trkpt lat="47.75856" lon="6.81925">
        <ele>497</ele>
        <time>2019-05-17T06:11:53Z</time>
      </trkpt>
      <trkpt lat="47.7586" lon="6.81919">
        <ele>497.4</ele>
        <time>2019-05-17T06:11:54Z</time>
      </trkpt>
      <trkpt lat="47.75864" lon="6.81912">
        <ele>497.8</ele>
        <time>2019-05-17T06:11:55Z</time>
      </trkpt>
      <trkpt lat="47.75869" lon="6.81907">
        <ele>498.2</ele>
        <time>2019-05-17T06:11:56Z</time>
      </trkpt>
      <trkpt lat="47.75874" lon="6.81904">
        <ele>498.2</ele>
        <time>2019-05-17T06:11:57Z</time>
      </trkpt>
      <trkpt lat="47.75886" lon="6.81906">
        <ele>498.2</ele>
        <time>2019-05-17T06:11:59Z</time>
      </trkpt>
      <trkpt lat="47.75892" lon="6.81907">
        <ele>498.2</ele>
        <time>2019-05-17T06:12:00Z</time>
      </trkpt>
      <trkpt lat="47.75905" lon="6.8191">
        <ele>498.2</ele>
        <time>2019-05-17T06:12:02Z</time>
      </trkpt>
      <trkpt lat="47.75917" lon="6.81917">
        <ele>498.2</ele>
        <time>2019-05-17T06:12:04Z</time>
      </trkpt>
      <trkpt lat="47.75929" lon="6.81927">
        <ele>498.2</ele>
        <time>2019-05-17T06:12:06Z</time>
      </trkpt>
      <trkpt lat="47.75938" lon="6.81943">
        <ele>498.2</ele>
        <time>2019-05-17T06:12:08Z</time>
      </trkpt>
      <trkpt lat="47.75952" lon="6.81961">
        <ele>498.2</ele>
        <time>2019-05-17T06:12:11Z</time>
      </trkpt>
      <trkpt lat="47.7597" lon="6.81973">
        <ele>498.2</ele>
        <time>2019-05-17T06:12:14Z</time>
      </trkpt>
      <trkpt lat="47.75982" lon="6.81979">
        <ele>498.2</ele>
        <time>2019-05-17T06:12:16Z</time>
      </trkpt>
      <trkpt lat="47.75994" lon="6.81985">
        <ele>498.2</ele>
        <time>2019-05-17T06:12:18Z</time>
      </trkpt>
      <trkpt lat="47.76006" lon="6.8198">
        <ele>498.2</ele>
        <time>2019-05-17T06:12:20Z</time>
      </trkpt>
      <trkpt lat="47.7602" lon="6.81964">
        <ele>498.2</ele>
        <time>2019-05-17T06:12:23Z</time>
      </trkpt>
      <trkpt lat="47.76042" lon="6.81957">
        <ele>498.2</ele>
        <time>2019-05-17T06:12:27Z</time>
      </trkpt>
      <trkpt lat="47.76048" lon="6.81955">
        <ele>498.2</ele>
        <time>2019-05-17T06:12:28Z</time>
      </trkpt>
      <trkpt lat="47.76059" lon="6.81952">
        <ele>498.2</ele>
        <time>2019-05-17T06:12:30Z</time>
      </trkpt>
      <trkpt lat="47.76065" lon="6.81952">
        <ele>498.6</ele>
        <time>2019-05-17T06:12:31Z</time>
      </trkpt>
      <trkpt lat="47.7607" lon="6.81952">
        <ele>499</ele>
        <time>2019-05-17T06:12:32Z</time>
      </trkpt>
      <trkpt lat="47.76076" lon="6.8195">
        <ele>499.6</ele>
        <time>2019-05-17T06:12:33Z</time>
      </trkpt>
      <trkpt lat="47.76081" lon="6.81948">
        <ele>500</ele>
        <time>2019-05-17T06:12:34Z</time>
      </trkpt>
      <trkpt lat="47.76087" lon="6.81947">
        <ele>500.4</ele>
        <time>2019-05-17T06:12:35Z</time>
      </trkpt>
      <trkpt lat="47.76093" lon="6.81946">
        <ele>500.4</ele>
        <time>2019-05-17T06:12:36Z</time>
      </trkpt>
      <trkpt lat="47.76126" lon="6.81938">
        <ele>500.4</ele>
        <time>2019-05-17T06:12:42Z</time>
      </trkpt>
      <trkpt lat="47.76154" lon="6.81928">
        <ele>500.8</ele>
        <time>2019-05-17T06:12:47Z</time>
      </trkpt>
      <trkpt lat="47.76159" lon="6.81925">
        <ele>501.2</ele>
        <time>2019-05-17T06:12:48Z</time>
      </trkpt>
      <trkpt lat="47.76164" lon="6.81921">
        <ele>501.6</ele>
        <time>2019-05-17T06:12:49Z</time>
      </trkpt>
      <trkpt lat="47.76169" lon="6.81917">
        <ele>502</ele>
        <time>2019-05-17T06:12:50Z</time>
      </trkpt>
      <trkpt lat="47.76174" lon="6.81912">
        <ele>502.6</ele>
        <time>2019-05-17T06:12:51Z</time>
      </trkpt>
      <trkpt lat="47.76186" lon="6.81896">
        <ele>502.6</ele>
        <time>2019-05-17T06:12:54Z</time>
      </trkpt>
      <trkpt lat="47.7621" lon="6.8185">
        <ele>502.6</ele>
        <time>2019-05-17T06:13:01Z</time>
      </trkpt>
      <trkpt lat="47.76217" lon="6.81838">
        <ele>503</ele>
        <time>2019-05-17T06:13:03Z</time>
      </trkpt>
      <trkpt lat="47.76221" lon="6.81831">
        <ele>503.4</ele>
        <time>2019-05-17T06:13:04Z</time>
      </trkpt>
      <trkpt lat="47.76224" lon="6.81825">
        <ele>503.8</ele>
        <time>2019-05-17T06:13:05Z</time>
      </trkpt>
      <trkpt lat="47.76227" lon="6.81818">
        <ele>504.2</ele>
        <time>2019-05-17T06:13:06Z</time>
      </trkpt>
      <trkpt lat="47.7623" lon="6.81811">
        <ele>504.8</ele>
        <time>2019-05-17T06:13:07Z</time>
      </trkpt>
      <trkpt lat="47.76237" lon="6.81798">
        <ele>504.8</ele>
        <time>2019-05-17T06:13:09Z</time>
      </trkpt>
      <trkpt lat="47.7625" lon="6.81773">
        <ele>504.8</ele>
        <time>2019-05-17T06:13:13Z</time>
      </trkpt>
      <trkpt lat="47.76254" lon="6.81769">
        <ele>504.8</ele>
        <time>2019-05-17T06:13:14Z</time>
      </trkpt>
      <trkpt lat="47.76271" lon="6.81775">
        <ele>504.8</ele>
        <time>2019-05-17T06:13:17Z</time>
      </trkpt>
      <trkpt lat="47.76276" lon="6.81779">
        <ele>504.8</ele>
        <time>2019-05-17T06:13:18Z</time>
      </trkpt>
      <trkpt lat="47.76303" lon="6.81797">
        <ele>504.8</ele>
        <time>2019-05-17T06:13:23Z</time>
      </trkpt>
      <trkpt lat="47.76348" lon="6.81831">
        <ele>504.8</ele>
        <time>2019-05-17T06:13:31Z</time>
      </trkpt>
      <trkpt lat="47.76391" lon="6.81867">
        <ele>505.2</ele>
        <time>2019-05-17T06:13:39Z</time>
      </trkpt>
      <trkpt lat="47.76395" lon="6.81871">
        <ele>505.6</ele>
        <time>2019-05-17T06:13:40Z</time>
      </trkpt>
      <trkpt lat="47.764" lon="6.81876">
        <ele>506</ele>
        <time>2019-05-17T06:13:41Z</time>
      </trkpt>
      <trkpt lat="47.76406" lon="6.8188">
        <ele>506.4</ele>
        <time>2019-05-17T06:13:42Z</time>
      </trkpt>
      <trkpt lat="47.76411" lon="6.81884">
        <ele>506.8</ele>
        <time>2019-05-17T06:13:43Z</time>
      </trkpt>
      <trkpt lat="47.76442" lon="6.8191">
        <ele>506.8</ele>
        <time>2019-05-17T06:13:49Z</time>
      </trkpt>
      <trkpt lat="47.76464" lon="6.81923">
        <ele>507.2</ele>
        <time>2019-05-17T06:13:53Z</time>
      </trkpt>
      <trkpt lat="47.76469" lon="6.81926">
        <ele>507.8</ele>
        <time>2019-05-17T06:13:54Z</time>
      </trkpt>
      <trkpt lat="47.76474" lon="6.8193">
        <ele>508.6</ele>
        <time>2019-05-17T06:13:55Z</time>
      </trkpt>
      <trkpt lat="47.7648" lon="6.81933">
        <ele>509</ele>
        <time>2019-05-17T06:13:56Z</time>
      </trkpt>
      <trkpt lat="47.76485" lon="6.81935">
        <ele>509</ele>
        <time>2019-05-17T06:13:57Z</time>
      </trkpt>
      <trkpt lat="47.76503" lon="6.81939">
        <ele>509</ele>
        <time>2019-05-17T06:14:00Z</time>
      </trkpt>
      <trkpt lat="47.76508" lon="6.81941">
        <ele>509.4</ele>
        <time>2019-05-17T06:14:01Z</time>
      </trkpt>
      <trkpt lat="47.76514" lon="6.81943">
        <ele>509.8</ele>
        <time>2019-05-17T06:14:02Z</time>
      </trkpt>
      <trkpt lat="47.76519" lon="6.81944">
        <ele>510.4</ele>
        <time>2019-05-17T06:14:03Z</time>
      </trkpt>
      <trkpt lat="47.76525" lon="6.81945">
        <ele>510.8</ele>
        <time>2019-05-17T06:14:04Z</time>
      </trkpt>
      <trkpt lat="47.76531" lon="6.81945">
        <ele>511.2</ele>
        <time>2019-05-17T06:14:05Z</time>
      </trkpt>
      <trkpt lat="47.76537" lon="6.81946">
        <ele>511.2</ele>
        <time>2019-05-17T06:14:06Z</time>
      </trkpt>
      <trkpt lat="47.7656" lon="6.8195">
        <ele>511.2</ele>
        <time>2019-05-17T06:14:10Z</time>
      </trkpt>
      <trkpt lat="47.76571" lon="6.81951">
        <ele>511.2</ele>
        <time>2019-05-17T06:14:12Z</time>
      </trkpt>
      <trkpt lat="47.76612" lon="6.81958">
        <ele>511.2</ele>
        <time>2019-05-17T06:14:19Z</time>
      </trkpt>
      <trkpt lat="47.7665" lon="6.8198">
        <ele>511.2</ele>
        <time>2019-05-17T06:14:26Z</time>
      </trkpt>
      <trkpt lat="47.7666" lon="6.8199">
        <ele>511.2</ele>
        <time>2019-05-17T06:14:28Z</time>
      </trkpt>
      <trkpt lat="47.76679" lon="6.82009">
        <ele>511.6</ele>
        <time>2019-05-17T06:14:32Z</time>
      </trkpt>
      <trkpt lat="47.76684" lon="6.82014">
        <ele>512</ele>
        <time>2019-05-17T06:14:33Z</time>
      </trkpt>
      <trkpt lat="47.76689" lon="6.8202">
        <ele>512.4</ele>
        <time>2019-05-17T06:14:34Z</time>
      </trkpt>
      <trkpt lat="47.76694" lon="6.82025">
        <ele>512.8</ele>
        <time>2019-05-17T06:14:35Z</time>
      </trkpt>
      <trkpt lat="47.76698" lon="6.82031">
        <ele>513.2</ele>
        <time>2019-05-17T06:14:36Z</time>
      </trkpt>
      <trkpt lat="47.76702" lon="6.82035">
        <ele>513.2</ele>
        <time>2019-05-17T06:14:37Z</time>
      </trkpt>
      <trkpt lat="47.7673" lon="6.82064">
        <ele>513.2</ele>
        <time>2019-05-17T06:14:43Z</time>
      </trkpt>
      <trkpt lat="47.7675" lon="6.82079">
        <ele>513.6</ele>
        <time>2019-05-17T06:14:47Z</time>
      </trkpt>
      <trkpt lat="47.76755" lon="6.82083">
        <ele>514</ele>
        <time>2019-05-17T06:14:48Z</time>
      </trkpt>
      <trkpt lat="47.7676" lon="6.82086">
        <ele>514.4</ele>
        <time>2019-05-17T06:14:49Z</time>
      </trkpt>
      <trkpt lat="47.76765" lon="6.82089">
        <ele>514.8</ele>
        <time>2019-05-17T06:14:50Z</time>
      </trkpt>
      <trkpt lat="47.7677" lon="6.82092">
        <ele>515.2</ele>
        <time>2019-05-17T06:14:51Z</time>
      </trkpt>
      <trkpt lat="47.76796" lon="6.82106">
        <ele>515.2</ele>
        <time>2019-05-17T06:14:56Z</time>
      </trkpt>
      <trkpt lat="47.76812" lon="6.8211">
        <ele>515.6</ele>
        <time>2019-05-17T06:14:59Z</time>
      </trkpt>
      <trkpt lat="47.76817" lon="6.82111">
        <ele>516.2</ele>
        <time>2019-05-17T06:15:00Z</time>
      </trkpt>
      <trkpt lat="47.76822" lon="6.82111">
        <ele>516.6</ele>
        <time>2019-05-17T06:15:01Z</time>
      </trkpt>
      <trkpt lat="47.76827" lon="6.82111">
        <ele>517</ele>
        <time>2019-05-17T06:15:02Z</time>
      </trkpt>
      <trkpt lat="47.76832" lon="6.82111">
        <ele>517.4</ele>
        <time>2019-05-17T06:15:03Z</time>
      </trkpt>
      <trkpt lat="47.76841" lon="6.82112">
        <ele>517.8</ele>
        <time>2019-05-17T06:15:05Z</time>
      </trkpt>
      <trkpt lat="47.76845" lon="6.82112">
        <ele>518.2</ele>
        <time>2019-05-17T06:15:06Z</time>
      </trkpt>
      <trkpt lat="47.76849" lon="6.82113">
        <ele>518.6</ele>
        <time>2019-05-17T06:15:07Z</time>
      </trkpt>
      <trkpt lat="47.76853" lon="6.82114">
        <ele>519.2</ele>
        <time>2019-05-17T06:15:08Z</time>
      </trkpt>
      <trkpt lat="47.76856" lon="6.82116">
        <ele>520</ele>
        <time>2019-05-17T06:15:09Z</time>
      </trkpt>
      <trkpt lat="47.7686" lon="6.82117">
        <ele>520.4</ele>
        <time>2019-05-17T06:15:10Z</time>
      </trkpt>
      <trkpt lat="47.76863" lon="6.82118">
        <ele>520.8</ele>
        <time>2019-05-17T06:15:11Z</time>
      </trkpt>
      <trkpt lat="47.76867" lon="6.8212">
        <ele>521.2</ele>
        <time>2019-05-17T06:15:12Z</time>
      </trkpt>
      <trkpt lat="47.76873" lon="6.82121">
        <ele>521.6</ele>
        <time>2019-05-17T06:15:13Z</time>
      </trkpt>
      <trkpt lat="47.76896" lon="6.82133">
        <ele>521.6</ele>
        <time>2019-05-17T06:15:17Z</time>
      </trkpt>
      <trkpt lat="47.769" lon="6.82138">
        <ele>521.6</ele>
        <time>2019-05-17T06:15:18Z</time>
      </trkpt>
      <trkpt lat="47.76931" lon="6.8218">
        <ele>521.6</ele>
        <time>2019-05-17T06:15:25Z</time>
      </trkpt>
      <trkpt lat="47.76961" lon="6.82217">
        <ele>521.6</ele>
        <time>2019-05-17T06:15:32Z</time>
      </trkpt>
      <trkpt lat="47.76969" lon="6.82226">
        <ele>521.6</ele>
        <time>2019-05-17T06:15:34Z</time>
      </trkpt>
      <trkpt lat="47.76977" lon="6.82234">
        <ele>522</ele>
        <time>2019-05-17T06:15:36Z</time>
      </trkpt>
      <trkpt lat="47.7698" lon="6.82237">
        <ele>522.6</ele>
        <time>2019-05-17T06:15:37Z</time>
      </trkpt>
      <trkpt lat="47.76983" lon="6.82241">
        <ele>523</ele>
        <time>2019-05-17T06:15:38Z</time>
      </trkpt>
      <trkpt lat="47.76986" lon="6.82245">
        <ele>523.4</ele>
        <time>2019-05-17T06:15:39Z</time>
      </trkpt>
      <trkpt lat="47.7699" lon="6.82249">
        <ele>524</ele>
        <time>2019-05-17T06:15:40Z</time>
      </trkpt>
      <trkpt lat="47.76994" lon="6.82252">
        <ele>524</ele>
        <time>2019-05-17T06:15:41Z</time>
      </trkpt>
      <trkpt lat="47.76998" lon="6.82255">
        <ele>524</ele>
        <time>2019-05-17T06:15:42Z</time>
      </trkpt>
      <trkpt lat="47.77003" lon="6.82259">
        <ele>524</ele>
        <time>2019-05-17T06:15:43Z</time>
      </trkpt>
      <trkpt lat="47.77008" lon="6.82262">
        <ele>524</ele>
        <time>2019-05-17T06:15:44Z</time>
      </trkpt>
      <trkpt lat="47.77023" lon="6.82273">
        <ele>524</ele>
        <time>2019-05-17T06:15:47Z</time>
      </trkpt>
      <trkpt lat="47.77034" lon="6.82283">
        <ele>524</ele>
        <time>2019-05-17T06:15:49Z</time>
      </trkpt>
      <trkpt lat="47.77051" lon="6.82306">
        <ele>524</ele>
        <time>2019-05-17T06:15:53Z</time>
      </trkpt>
      <trkpt lat="47.77063" lon="6.82326">
        <ele>524</ele>
        <time>2019-05-17T06:15:56Z</time>
      </trkpt>
      <trkpt lat="47.77071" lon="6.82338">
        <ele>524</ele>
        <time>2019-05-17T06:15:58Z</time>
      </trkpt>
      <trkpt lat="47.77092" lon="6.82366">
        <ele>524</ele>
        <time>2019-05-17T06:16:03Z</time>
      </trkpt>
      <trkpt lat="47.77095" lon="6.82373">
        <ele>524</ele>
        <time>2019-05-17T06:16:04Z</time>
      </trkpt>
      <trkpt lat="47.77098" lon="6.82399">
        <ele>524</ele>
        <time>2019-05-17T06:16:07Z</time>
      </trkpt>
      <trkpt lat="47.77099" lon="6.82417">
        <ele>524</ele>
        <time>2019-05-17T06:16:09Z</time>
      </trkpt>
      <trkpt lat="47.77099" lon="6.82446">
        <ele>524</ele>
        <time>2019-05-17T06:16:12Z</time>
      </trkpt>
      <trkpt lat="47.77099" lon="6.82455">
        <ele>524</ele>
        <time>2019-05-17T06:16:13Z</time>
      </trkpt>
      <trkpt lat="47.771" lon="6.82495">
        <ele>524</ele>
        <time>2019-05-17T06:16:17Z</time>
      </trkpt>
      <trkpt lat="47.77102" lon="6.82505">
        <ele>523.6</ele>
        <time>2019-05-17T06:16:18Z</time>
      </trkpt>
      <trkpt lat="47.77103" lon="6.82516">
        <ele>523.2</ele>
        <time>2019-05-17T06:16:19Z</time>
      </trkpt>
      <trkpt lat="47.77104" lon="6.82526">
        <ele>522.8</ele>
        <time>2019-05-17T06:16:20Z</time>
      </trkpt>
      <trkpt lat="47.77106" lon="6.82537">
        <ele>522.4</ele>
        <time>2019-05-17T06:16:21Z</time>
      </trkpt>
      <trkpt lat="47.77109" lon="6.82547">
        <ele>522</ele>
        <time>2019-05-17T06:16:22Z</time>
      </trkpt>
      <trkpt lat="47.77111" lon="6.82557">
        <ele>522</ele>
        <time>2019-05-17T06:16:23Z</time>
      </trkpt>
      <trkpt lat="47.77123" lon="6.82595">
        <ele>522</ele>
        <time>2019-05-17T06:16:27Z</time>
      </trkpt>
      <trkpt lat="47.77126" lon="6.82604">
        <ele>522</ele>
        <time>2019-05-17T06:16:28Z</time>
      </trkpt>
      <trkpt lat="47.77143" lon="6.8263">
        <ele>522</ele>
        <time>2019-05-17T06:16:32Z</time>
      </trkpt>
      <trkpt lat="47.77148" lon="6.82635">
        <ele>522</ele>
        <time>2019-05-17T06:16:33Z</time>
      </trkpt>
      <trkpt lat="47.77176" lon="6.82658">
        <ele>522</ele>
        <time>2019-05-17T06:16:38Z</time>
      </trkpt>
      <trkpt lat="47.77214" lon="6.8269">
        <ele>522</ele>
        <time>2019-05-17T06:16:45Z</time>
      </trkpt>
      <trkpt lat="47.77228" lon="6.82707">
        <ele>522</ele>
        <time>2019-05-17T06:16:48Z</time>
      </trkpt>
      <trkpt lat="47.77237" lon="6.82719">
        <ele>522</ele>
        <time>2019-05-17T06:16:50Z</time>
      </trkpt>
      <trkpt lat="47.77241" lon="6.82726">
        <ele>522</ele>
        <time>2019-05-17T06:16:51Z</time>
      </trkpt>
      <trkpt lat="47.77256" lon="6.82753">
        <ele>522</ele>
        <time>2019-05-17T06:16:55Z</time>
      </trkpt>
      <trkpt lat="47.77259" lon="6.82761">
        <ele>522.4</ele>
        <time>2019-05-17T06:16:56Z</time>
      </trkpt>
      <trkpt lat="47.77262" lon="6.82768">
        <ele>522.8</ele>
        <time>2019-05-17T06:16:57Z</time>
      </trkpt>
      <trkpt lat="47.77264" lon="6.82775">
        <ele>523.2</ele>
        <time>2019-05-17T06:16:58Z</time>
      </trkpt>
      <trkpt lat="47.77266" lon="6.82783">
        <ele>523.6</ele>
        <time>2019-05-17T06:16:59Z</time>
      </trkpt>
      <trkpt lat="47.77268" lon="6.82791">
        <ele>524</ele>
        <time>2019-05-17T06:17:00Z</time>
      </trkpt>
      <trkpt lat="47.77277" lon="6.82838">
        <ele>524</ele>
        <time>2019-05-17T06:17:06Z</time>
      </trkpt>
      <trkpt lat="47.77278" lon="6.82845">
        <ele>524.4</ele>
        <time>2019-05-17T06:17:07Z</time>
      </trkpt>
      <trkpt lat="47.77279" lon="6.82852">
        <ele>524.8</ele>
        <time>2019-05-17T06:17:08Z</time>
      </trkpt>
      <trkpt lat="47.77281" lon="6.82859">
        <ele>525.2</ele>
        <time>2019-05-17T06:17:09Z</time>
      </trkpt>
      <trkpt lat="47.77282" lon="6.82866">
        <ele>525.8</ele>
        <time>2019-05-17T06:17:10Z</time>
      </trkpt>
      <trkpt lat="47.77285" lon="6.82872">
        <ele>526.2</ele>
        <time>2019-05-17T06:17:11Z</time>
      </trkpt>
      <trkpt lat="47.77288" lon="6.82877">
        <ele>526.2</ele>
        <time>2019-05-17T06:17:12Z</time>
      </trkpt>
      <trkpt lat="47.77297" lon="6.82886">
        <ele>526.2</ele>
        <time>2019-05-17T06:17:14Z</time>
      </trkpt>
      <trkpt lat="47.77301" lon="6.8289">
        <ele>526.6</ele>
        <time>2019-05-17T06:17:15Z</time>
      </trkpt>
      <trkpt lat="47.77305" lon="6.82893">
        <ele>527</ele>
        <time>2019-05-17T06:17:16Z</time>
      </trkpt>
      <trkpt lat="47.77309" lon="6.82896">
        <ele>527.4</ele>
        <time>2019-05-17T06:17:17Z</time>
      </trkpt>
      <trkpt lat="47.77313" lon="6.829">
        <ele>527.8</ele>
        <time>2019-05-17T06:17:18Z</time>
      </trkpt>
      <trkpt lat="47.77318" lon="6.82902">
        <ele>528.2</ele>
        <time>2019-05-17T06:17:19Z</time>
      </trkpt>
      <trkpt lat="47.77332" lon="6.82907">
        <ele>528.2</ele>
        <time>2019-05-17T06:17:22Z</time>
      </trkpt>
      <trkpt lat="47.77348" lon="6.82913">
        <ele>528.2</ele>
        <time>2019-05-17T06:17:25Z</time>
      </trkpt>
      <trkpt lat="47.77358" lon="6.82921">
        <ele>528.2</ele>
        <time>2019-05-17T06:17:27Z</time>
      </trkpt>
      <trkpt lat="47.77367" lon="6.8293">
        <ele>528.2</ele>
        <time>2019-05-17T06:17:29Z</time>
      </trkpt>
      <trkpt lat="47.77375" lon="6.82938">
        <ele>528.2</ele>
        <time>2019-05-17T06:17:31Z</time>
      </trkpt>
      <trkpt lat="47.7738" lon="6.82942">
        <ele>528.2</ele>
        <time>2019-05-17T06:17:32Z</time>
      </trkpt>
      <trkpt lat="47.77406" lon="6.82956">
        <ele>528.2</ele>
        <time>2019-05-17T06:17:37Z</time>
      </trkpt>
      <trkpt lat="47.77441" lon="6.82987">
        <ele>528.2</ele>
        <time>2019-05-17T06:17:44Z</time>
      </trkpt>
      <trkpt lat="47.77469" lon="6.83012">
        <ele>528.2</ele>
        <time>2019-05-17T06:17:50Z</time>
      </trkpt>
      <trkpt lat="47.77474" lon="6.83017">
        <ele>528.6</ele>
        <time>2019-05-17T06:17:51Z</time>
      </trkpt>
      <trkpt lat="47.77478" lon="6.83022">
        <ele>529</ele>
        <time>2019-05-17T06:17:52Z</time>
      </trkpt>
      <trkpt lat="47.77482" lon="6.83026">
        <ele>529.6</ele>
        <time>2019-05-17T06:17:53Z</time>
      </trkpt>
      <trkpt lat="47.77487" lon="6.83031">
        <ele>530</ele>
        <time>2019-05-17T06:17:54Z</time>
      </trkpt>
      <trkpt lat="47.77491" lon="6.83036">
        <ele>530.4</ele>
        <time>2019-05-17T06:17:55Z</time>
      </trkpt>
      <trkpt lat="47.77495" lon="6.8304">
        <ele>530.4</ele>
        <time>2019-05-17T06:17:56Z</time>
      </trkpt>
      <trkpt lat="47.77526" lon="6.83071">
        <ele>530.4</ele>
        <time>2019-05-17T06:18:03Z</time>
      </trkpt>
      <trkpt lat="47.77552" lon="6.83095">
        <ele>530.8</ele>
        <time>2019-05-17T06:18:09Z</time>
      </trkpt>
      <trkpt lat="47.77557" lon="6.83099">
        <ele>531.2</ele>
        <time>2019-05-17T06:18:10Z</time>
      </trkpt>
      <trkpt lat="47.77561" lon="6.83103">
        <ele>531.6</ele>
        <time>2019-05-17T06:18:11Z</time>
      </trkpt>
      <trkpt lat="47.77565" lon="6.83107">
        <ele>532</ele>
        <time>2019-05-17T06:18:12Z</time>
      </trkpt>
      <trkpt lat="47.77569" lon="6.8311">
        <ele>532.4</ele>
        <time>2019-05-17T06:18:13Z</time>
      </trkpt>
      <trkpt lat="47.77585" lon="6.83125">
        <ele>532.4</ele>
        <time>2019-05-17T06:18:17Z</time>
      </trkpt>
      <trkpt lat="47.77593" lon="6.83131">
        <ele>532.4</ele>
        <time>2019-05-17T06:18:19Z</time>
      </trkpt>
      <trkpt lat="47.77605" lon="6.8314">
        <ele>532.4</ele>
        <time>2019-05-17T06:18:22Z</time>
      </trkpt>
      <trkpt lat="47.77609" lon="6.83143">
        <ele>532.8</ele>
        <time>2019-05-17T06:18:23Z</time>
      </trkpt>
      <trkpt lat="47.77613" lon="6.83145">
        <ele>533.2</ele>
        <time>2019-05-17T06:18:24Z</time>
      </trkpt>
      <trkpt lat="47.77617" lon="6.83148">
        <ele>533.6</ele>
        <time>2019-05-17T06:18:25Z</time>
      </trkpt>
      <trkpt lat="47.77621" lon="6.83151">
        <ele>534</ele>
        <time>2019-05-17T06:18:26Z</time>
      </trkpt>
      <trkpt lat="47.77625" lon="6.83154">
        <ele>534.4</ele>
        <time>2019-05-17T06:18:27Z</time>
      </trkpt>
      <trkpt lat="47.77629" lon="6.83157">
        <ele>534.4</ele>
        <time>2019-05-17T06:18:28Z</time>
      </trkpt>
      <trkpt lat="47.7765" lon="6.83175">
        <ele>534.4</ele>
        <time>2019-05-17T06:18:33Z</time>
      </trkpt>
      <trkpt lat="47.77658" lon="6.83184">
        <ele>534.4</ele>
        <time>2019-05-17T06:18:35Z</time>
      </trkpt>
      <trkpt lat="47.7767" lon="6.83197">
        <ele>534.4</ele>
        <time>2019-05-17T06:18:38Z</time>
      </trkpt>
      <trkpt lat="47.77677" lon="6.83205">
        <ele>534.4</ele>
        <time>2019-05-17T06:18:40Z</time>
      </trkpt>
      <trkpt lat="47.77688" lon="6.83215">
        <ele>534.4</ele>
        <time>2019-05-17T06:18:43Z</time>
      </trkpt>
      <trkpt lat="47.77692" lon="6.8322">
        <ele>534.4</ele>
        <time>2019-05-17T06:18:44Z</time>
      </trkpt>
      <trkpt lat="47.77702" lon="6.83233">
        <ele>534.4</ele>
        <time>2019-05-17T06:18:47Z</time>
      </trkpt>
      <trkpt lat="47.77703" lon="6.83239">
        <ele>534.4</ele>
        <time>2019-05-17T06:18:48Z</time>
      </trkpt>
      <trkpt lat="47.77703" lon="6.83252">
        <ele>534.8</ele>
        <time>2019-05-17T06:18:50Z</time>
      </trkpt>
      <trkpt lat="47.777" lon="6.83258">
        <ele>535.4</ele>
        <time>2019-05-17T06:18:51Z</time>
      </trkpt>
      <trkpt lat="47.77697" lon="6.83263">
        <ele>536.2</ele>
        <time>2019-05-17T06:18:52Z</time>
      </trkpt>
      <trkpt lat="47.77694" lon="6.83269">
        <ele>536.6</ele>
        <time>2019-05-17T06:18:53Z</time>
      </trkpt>
      <trkpt lat="47.7769" lon="6.83281">
        <ele>536.6</ele>
        <time>2019-05-17T06:18:55Z</time>
      </trkpt>
      <trkpt lat="47.77688" lon="6.83293">
        <ele>536.6</ele>
        <time>2019-05-17T06:18:57Z</time>
      </trkpt>
      <trkpt lat="47.77687" lon="6.833">
        <ele>537</ele>
        <time>2019-05-17T06:18:58Z</time>
      </trkpt>
      <trkpt lat="47.77687" lon="6.83306">
        <ele>537.4</ele>
        <time>2019-05-17T06:18:59Z</time>
      </trkpt>
      <trkpt lat="47.77686" lon="6.83313">
        <ele>538</ele>
        <time>2019-05-17T06:19:00Z</time>
      </trkpt>
      <trkpt lat="47.77685" lon="6.83319">
        <ele>538.4</ele>
        <time>2019-05-17T06:19:01Z</time>
      </trkpt>
      <trkpt lat="47.77684" lon="6.83325">
        <ele>538.8</ele>
        <time>2019-05-17T06:19:02Z</time>
      </trkpt>
      <trkpt lat="47.77683" lon="6.83338">
        <ele>538.8</ele>
        <time>2019-05-17T06:19:04Z</time>
      </trkpt>
      <trkpt lat="47.77683" lon="6.83344">
        <ele>538.8</ele>
        <time>2019-05-17T06:19:05Z</time>
      </trkpt>
      <trkpt lat="47.77687" lon="6.83362">
        <ele>539.2</ele>
        <time>2019-05-17T06:19:08Z</time>
      </trkpt>
      <trkpt lat="47.77687" lon="6.83368">
        <ele>539.6</ele>
        <time>2019-05-17T06:19:09Z</time>
      </trkpt>
      <trkpt lat="47.77688" lon="6.83375">
        <ele>540</ele>
        <time>2019-05-17T06:19:10Z</time>
      </trkpt>
      <trkpt lat="47.77689" lon="6.83381">
        <ele>540.4</ele>
        <time>2019-05-17T06:19:11Z</time>
      </trkpt>
      <trkpt lat="47.77689" lon="6.83387">
        <ele>540.8</ele>
        <time>2019-05-17T06:19:12Z</time>
      </trkpt>
      <trkpt lat="47.77686" lon="6.83405">
        <ele>540.8</ele>
        <time>2019-05-17T06:19:15Z</time>
      </trkpt>
      <trkpt lat="47.77682" lon="6.83416">
        <ele>541.4</ele>
        <time>2019-05-17T06:19:17Z</time>
      </trkpt>
      <trkpt lat="47.7768" lon="6.83421">
        <ele>541.8</ele>
        <time>2019-05-17T06:19:18Z</time>
      </trkpt>
      <trkpt lat="47.77677" lon="6.83426">
        <ele>542.2</ele>
        <time>2019-05-17T06:19:19Z</time>
      </trkpt>
      <trkpt lat="47.77675" lon="6.83429">
        <ele>542.6</ele>
        <time>2019-05-17T06:19:20Z</time>
      </trkpt>
      <trkpt lat="47.77674" lon="6.83433">
        <ele>543.2</ele>
        <time>2019-05-17T06:19:21Z</time>
      </trkpt>
      <trkpt lat="47.7767" lon="6.83441">
        <ele>543.6</ele>
        <time>2019-05-17T06:19:23Z</time>
      </trkpt>
      <trkpt lat="47.77668" lon="6.83445">
        <ele>544</ele>
        <time>2019-05-17T06:19:24Z</time>
      </trkpt>
      <trkpt lat="47.77667" lon="6.83449">
        <ele>544.4</ele>
        <time>2019-05-17T06:19:25Z</time>
      </trkpt>
      <trkpt lat="47.77668" lon="6.83451">
        <ele>544.8</ele>
        <time>2019-05-17T06:19:26Z</time>
      </trkpt>
      <trkpt lat="47.77669" lon="6.83454">
        <ele>545.4</ele>
        <time>2019-05-17T06:19:27Z</time>
      </trkpt>
      <trkpt lat="47.77669" lon="6.83458">
        <ele>545.4</ele>
        <time>2019-05-17T06:19:28Z</time>
      </trkpt>
      <trkpt lat="47.77675" lon="6.83472">
        <ele>545.4</ele>
        <time>2019-05-17T06:19:31Z</time>
      </trkpt>
      <trkpt lat="47.77678" lon="6.83477">
        <ele>545.4</ele>
        <time>2019-05-17T06:19:32Z</time>
      </trkpt>
      <trkpt lat="47.77687" lon="6.83491">
        <ele>545.4</ele>
        <time>2019-05-17T06:19:35Z</time>
      </trkpt>
      <trkpt lat="47.7769" lon="6.83495">
        <ele>545.8</ele>
        <time>2019-05-17T06:19:36Z</time>
      </trkpt>
      <trkpt lat="47.77693" lon="6.83499">
        <ele>546.2</ele>
        <time>2019-05-17T06:19:37Z</time>
      </trkpt>
      <trkpt lat="47.77696" lon="6.83503">
        <ele>546.6</ele>
        <time>2019-05-17T06:19:38Z</time>
      </trkpt>
      <trkpt lat="47.77698" lon="6.83507">
        <ele>547</ele>
        <time>2019-05-17T06:19:39Z</time>
      </trkpt>
      <trkpt lat="47.77701" lon="6.83511">
        <ele>547.4</ele>
        <time>2019-05-17T06:19:40Z</time>
      </trkpt>
      <trkpt lat="47.77707" lon="6.83519">
        <ele>547.8</ele>
        <time>2019-05-17T06:19:42Z</time>
      </trkpt>
      <trkpt lat="47.7771" lon="6.83522">
        <ele>548.2</ele>
        <time>2019-05-17T06:19:43Z</time>
      </trkpt>
      <trkpt lat="47.77713" lon="6.83526">
        <ele>548.8</ele>
        <time>2019-05-17T06:19:44Z</time>
      </trkpt>
      <trkpt lat="47.77716" lon="6.8353">
        <ele>549.2</ele>
        <time>2019-05-17T06:19:45Z</time>
      </trkpt>
      <trkpt lat="47.77719" lon="6.83533">
        <ele>549.6</ele>
        <time>2019-05-17T06:19:46Z</time>
      </trkpt>
      <trkpt lat="47.77737" lon="6.83546">
        <ele>550</ele>
        <time>2019-05-17T06:19:51Z</time>
      </trkpt>
      <trkpt lat="47.7774" lon="6.83548">
        <ele>550.4</ele>
        <time>2019-05-17T06:19:52Z</time>
      </trkpt>
      <trkpt lat="47.77743" lon="6.83549">
        <ele>550.8</ele>
        <time>2019-05-17T06:19:53Z</time>
      </trkpt>
      <trkpt lat="47.77746" lon="6.83551">
        <ele>551.2</ele>
        <time>2019-05-17T06:19:54Z</time>
      </trkpt>
      <trkpt lat="47.77749" lon="6.83553">
        <ele>551.8</ele>
        <time>2019-05-17T06:19:55Z</time>
      </trkpt>
      <trkpt lat="47.77752" lon="6.83555">
        <ele>551.8</ele>
        <time>2019-05-17T06:19:56Z</time>
      </trkpt>
      <trkpt lat="47.77762" lon="6.83561">
        <ele>552.2</ele>
        <time>2019-05-17T06:19:59Z</time>
      </trkpt>
      <trkpt lat="47.77765" lon="6.83563">
        <ele>552.6</ele>
        <time>2019-05-17T06:20:00Z</time>
      </trkpt>
      <trkpt lat="47.77768" lon="6.83564">
        <ele>553</ele>
        <time>2019-05-17T06:20:01Z</time>
      </trkpt>
      <trkpt lat="47.7777" lon="6.83565">
        <ele>553.4</ele>
        <time>2019-05-17T06:20:02Z</time>
      </trkpt>
      <trkpt lat="47.77772" lon="6.83566">
        <ele>553.8</ele>
        <time>2019-05-17T06:20:03Z</time>
      </trkpt>
      <trkpt lat="47.77779" lon="6.83572">
        <ele>554.2</ele>
        <time>2019-05-17T06:20:06Z</time>
      </trkpt>
      <trkpt lat="47.77781" lon="6.83573">
        <ele>555.2</ele>
        <time>2019-05-17T06:20:07Z</time>
      </trkpt>
      <trkpt lat="47.77784" lon="6.83575">
        <ele>555.6</ele>
        <time>2019-05-17T06:20:08Z</time>
      </trkpt>
      <trkpt lat="47.77787" lon="6.83576">
        <ele>556</ele>
        <time>2019-05-17T06:20:09Z</time>
      </trkpt>
      <trkpt lat="47.77793" lon="6.83578">
        <ele>556.4</ele>
        <time>2019-05-17T06:20:11Z</time>
      </trkpt>
      <trkpt lat="47.77795" lon="6.83578">
        <ele>556.8</ele>
        <time>2019-05-17T06:20:12Z</time>
      </trkpt>
      <trkpt lat="47.77798" lon="6.83578">
        <ele>557.2</ele>
        <time>2019-05-17T06:20:13Z</time>
      </trkpt>
      <trkpt lat="47.778" lon="6.83577">
        <ele>557.6</ele>
        <time>2019-05-17T06:20:14Z</time>
      </trkpt>
      <trkpt lat="47.77803" lon="6.83576">
        <ele>558</ele>
        <time>2019-05-17T06:20:15Z</time>
      </trkpt>
      <trkpt lat="47.77811" lon="6.83569">
        <ele>558</ele>
        <time>2019-05-17T06:20:18Z</time>
      </trkpt>
      <trkpt lat="47.7782" lon="6.83553">
        <ele>558</ele>
        <time>2019-05-17T06:20:21Z</time>
      </trkpt>
      <trkpt lat="47.77823" lon="6.8354">
        <ele>558</ele>
        <time>2019-05-17T06:20:23Z</time>
      </trkpt>
      <trkpt lat="47.77835" lon="6.83493">
        <ele>558</ele>
        <time>2019-05-17T06:20:30Z</time>
      </trkpt>
      <trkpt lat="47.77845" lon="6.83459">
        <ele>558</ele>
        <time>2019-05-17T06:20:35Z</time>
      </trkpt>
      <trkpt lat="47.77849" lon="6.83446">
        <ele>558</ele>
        <time>2019-05-17T06:20:37Z</time>
      </trkpt>
      <trkpt lat="47.77856" lon="6.83435">
        <ele>558</ele>
        <time>2019-05-17T06:20:39Z</time>
      </trkpt>
      <trkpt lat="47.77868" lon="6.83422">
        <ele>558</ele>
        <time>2019-05-17T06:20:42Z</time>
      </trkpt>
      <trkpt lat="47.77891" lon="6.83409">
        <ele>558</ele>
        <time>2019-05-17T06:20:47Z</time>
      </trkpt>
      <trkpt lat="47.77903" lon="6.83402">
        <ele>558</ele>
        <time>2019-05-17T06:20:50Z</time>
      </trkpt>
      <trkpt lat="47.77911" lon="6.83398">
        <ele>558</ele>
        <time>2019-05-17T06:20:52Z</time>
      </trkpt>
      <trkpt lat="47.7793" lon="6.83391">
        <ele>558.6</ele>
        <time>2019-05-17T06:20:56Z</time>
      </trkpt>
      <trkpt lat="47.77934" lon="6.83391">
        <ele>559</ele>
        <time>2019-05-17T06:20:57Z</time>
      </trkpt>
      <trkpt lat="47.77938" lon="6.83391">
        <ele>559.4</ele>
        <time>2019-05-17T06:20:58Z</time>
      </trkpt>
      <trkpt lat="47.77942" lon="6.83391">
        <ele>559.8</ele>
        <time>2019-05-17T06:20:59Z</time>
      </trkpt>
      <trkpt lat="47.77946" lon="6.8339">
        <ele>560.2</ele>
        <time>2019-05-17T06:21:00Z</time>
      </trkpt>
      <trkpt lat="47.77951" lon="6.83389">
        <ele>560.2</ele>
        <time>2019-05-17T06:21:01Z</time>
      </trkpt>
      <trkpt lat="47.77955" lon="6.8339">
        <ele>560.2</ele>
        <time>2019-05-17T06:21:02Z</time>
      </trkpt>
      <trkpt lat="47.77961" lon="6.83391">
        <ele>560.2</ele>
        <time>2019-05-17T06:21:03Z</time>
      </trkpt>
      <trkpt lat="47.77967" lon="6.83391">
        <ele>560.6</ele>
        <time>2019-05-17T06:21:04Z</time>
      </trkpt>
      <trkpt lat="47.77973" lon="6.83391">
        <ele>561</ele>
        <time>2019-05-17T06:21:05Z</time>
      </trkpt>
      <trkpt lat="47.77979" lon="6.83392">
        <ele>561.4</ele>
        <time>2019-05-17T06:21:06Z</time>
      </trkpt>
      <trkpt lat="47.77984" lon="6.83393">
        <ele>561.8</ele>
        <time>2019-05-17T06:21:07Z</time>
      </trkpt>
      <trkpt lat="47.77989" lon="6.83393">
        <ele>562.2</ele>
        <time>2019-05-17T06:21:08Z</time>
      </trkpt>
      <trkpt lat="47.77999" lon="6.83391">
        <ele>562.2</ele>
        <time>2019-05-17T06:21:10Z</time>
      </trkpt>
      <trkpt lat="47.78008" lon="6.83391">
        <ele>562.2</ele>
        <time>2019-05-17T06:21:12Z</time>
      </trkpt>
      <trkpt lat="47.78022" lon="6.83387">
        <ele>562.6</ele>
        <time>2019-05-17T06:21:15Z</time>
      </trkpt>
      <trkpt lat="47.78027" lon="6.83385">
        <ele>563.2</ele>
        <time>2019-05-17T06:21:16Z</time>
      </trkpt>
      <trkpt lat="47.78031" lon="6.83383">
        <ele>563.6</ele>
        <time>2019-05-17T06:21:17Z</time>
      </trkpt>
      <trkpt lat="47.78035" lon="6.83382">
        <ele>564</ele>
        <time>2019-05-17T06:21:18Z</time>
      </trkpt>
      <trkpt lat="47.78039" lon="6.8338">
        <ele>564.4</ele>
        <time>2019-05-17T06:21:19Z</time>
      </trkpt>
      <trkpt lat="47.78055" lon="6.83373">
        <ele>564.4</ele>
        <time>2019-05-17T06:21:23Z</time>
      </trkpt>
      <trkpt lat="47.78059" lon="6.83371">
        <ele>564.4</ele>
        <time>2019-05-17T06:21:24Z</time>
      </trkpt>
      <trkpt lat="47.78067" lon="6.83368">
        <ele>564.4</ele>
        <time>2019-05-17T06:21:26Z</time>
      </trkpt>
      <trkpt lat="47.78071" lon="6.83367">
        <ele>564.8</ele>
        <time>2019-05-17T06:21:27Z</time>
      </trkpt>
      <trkpt lat="47.78075" lon="6.83365">
        <ele>565.4</ele>
        <time>2019-05-17T06:21:28Z</time>
      </trkpt>
      <trkpt lat="47.78079" lon="6.83363">
        <ele>565.8</ele>
        <time>2019-05-17T06:21:29Z</time>
      </trkpt>
      <trkpt lat="47.78083" lon="6.83361">
        <ele>566.2</ele>
        <time>2019-05-17T06:21:30Z</time>
      </trkpt>
      <trkpt lat="47.78086" lon="6.83359">
        <ele>566.8</ele>
        <time>2019-05-17T06:21:31Z</time>
      </trkpt>
      <trkpt lat="47.78094" lon="6.83355">
        <ele>566.8</ele>
        <time>2019-05-17T06:21:33Z</time>
      </trkpt>
      <trkpt lat="47.78102" lon="6.8335">
        <ele>567.2</ele>
        <time>2019-05-17T06:21:35Z</time>
      </trkpt>
      <trkpt lat="47.78106" lon="6.83347">
        <ele>567.6</ele>
        <time>2019-05-17T06:21:36Z</time>
      </trkpt>
      <trkpt lat="47.78109" lon="6.83344">
        <ele>568</ele>
        <time>2019-05-17T06:21:37Z</time>
      </trkpt>
      <trkpt lat="47.78113" lon="6.83341">
        <ele>568.4</ele>
        <time>2019-05-17T06:21:38Z</time>
      </trkpt>
      <trkpt lat="47.78117" lon="6.83339">
        <ele>569</ele>
        <time>2019-05-17T06:21:39Z</time>
      </trkpt>
      <trkpt lat="47.7812" lon="6.83336">
        <ele>569</ele>
        <time>2019-05-17T06:21:40Z</time>
      </trkpt>
      <trkpt lat="47.78134" lon="6.83325">
        <ele>569.8</ele>
        <time>2019-05-17T06:21:44Z</time>
      </trkpt>
      <trkpt lat="47.78137" lon="6.83323">
        <ele>570.2</ele>
        <time>2019-05-17T06:21:45Z</time>
      </trkpt>
      <trkpt lat="47.78141" lon="6.8332">
        <ele>570.6</ele>
        <time>2019-05-17T06:21:46Z</time>
      </trkpt>
      <trkpt lat="47.78144" lon="6.83318">
        <ele>571</ele>
        <time>2019-05-17T06:21:47Z</time>
      </trkpt>
      <trkpt lat="47.78159" lon="6.83313">
        <ele>571</ele>
        <time>2019-05-17T06:21:51Z</time>
      </trkpt>
      <trkpt lat="47.78163" lon="6.83312">
        <ele>571</ele>
        <time>2019-05-17T06:21:52Z</time>
      </trkpt>
      <trkpt lat="47.78166" lon="6.83311">
        <ele>571.4</ele>
        <time>2019-05-17T06:21:53Z</time>
      </trkpt>
      <trkpt lat="47.78169" lon="6.83312">
        <ele>571.8</ele>
        <time>2019-05-17T06:21:54Z</time>
      </trkpt>
      <trkpt lat="47.78173" lon="6.83312">
        <ele>572.4</ele>
        <time>2019-05-17T06:21:55Z</time>
      </trkpt>
      <trkpt lat="47.78177" lon="6.83312">
        <ele>572.8</ele>
        <time>2019-05-17T06:21:56Z</time>
      </trkpt>
      <trkpt lat="47.78181" lon="6.83314">
        <ele>573.2</ele>
        <time>2019-05-17T06:21:57Z</time>
      </trkpt>
      <trkpt lat="47.78191" lon="6.8332">
        <ele>573.2</ele>
        <time>2019-05-17T06:22:00Z</time>
      </trkpt>
      <trkpt lat="47.782" lon="6.83328">
        <ele>573.6</ele>
        <time>2019-05-17T06:22:03Z</time>
      </trkpt>
      <trkpt lat="47.78203" lon="6.83331">
        <ele>574</ele>
        <time>2019-05-17T06:22:04Z</time>
      </trkpt>
      <trkpt lat="47.78206" lon="6.83334">
        <ele>574.6</ele>
        <time>2019-05-17T06:22:05Z</time>
      </trkpt>
      <trkpt lat="47.78209" lon="6.83337">
        <ele>575</ele>
        <time>2019-05-17T06:22:06Z</time>
      </trkpt>
      <trkpt lat="47.78212" lon="6.83339">
        <ele>575.4</ele>
        <time>2019-05-17T06:22:07Z</time>
      </trkpt>
      <trkpt lat="47.78218" lon="6.83344">
        <ele>575.8</ele>
        <time>2019-05-17T06:22:09Z</time>
      </trkpt>
      <trkpt lat="47.78221" lon="6.83346">
        <ele>576.2</ele>
        <time>2019-05-17T06:22:10Z</time>
      </trkpt>
      <trkpt lat="47.78224" lon="6.83349">
        <ele>576.8</ele>
        <time>2019-05-17T06:22:11Z</time>
      </trkpt>
      <trkpt lat="47.78227" lon="6.83351">
        <ele>577.2</ele>
        <time>2019-05-17T06:22:12Z</time>
      </trkpt>
      <trkpt lat="47.7823" lon="6.83353">
        <ele>577.6</ele>
        <time>2019-05-17T06:22:13Z</time>
      </trkpt>
      <trkpt lat="47.78239" lon="6.8336">
        <ele>578</ele>
        <time>2019-05-17T06:22:16Z</time>
      </trkpt>
      <trkpt lat="47.78243" lon="6.83363">
        <ele>578.4</ele>
        <time>2019-05-17T06:22:17Z</time>
      </trkpt>
      <trkpt lat="47.78246" lon="6.83365">
        <ele>578.8</ele>
        <time>2019-05-17T06:22:18Z</time>
      </trkpt>
      <trkpt lat="47.78249" lon="6.83367">
        <ele>579.2</ele>
        <time>2019-05-17T06:22:19Z</time>
      </trkpt>
      <trkpt lat="47.78252" lon="6.83371">
        <ele>579.6</ele>
        <time>2019-05-17T06:22:20Z</time>
      </trkpt>
      <trkpt lat="47.78261" lon="6.83379">
        <ele>579.6</ele>
        <time>2019-05-17T06:22:23Z</time>
      </trkpt>
      <trkpt lat="47.78271" lon="6.83388">
        <ele>580</ele>
        <time>2019-05-17T06:22:26Z</time>
      </trkpt>
      <trkpt lat="47.78274" lon="6.83391">
        <ele>580.4</ele>
        <time>2019-05-17T06:22:27Z</time>
      </trkpt>
      <trkpt lat="47.78277" lon="6.83395">
        <ele>581</ele>
        <time>2019-05-17T06:22:28Z</time>
      </trkpt>
      <trkpt lat="47.7828" lon="6.83397">
        <ele>581.4</ele>
        <time>2019-05-17T06:22:29Z</time>
      </trkpt>
      <trkpt lat="47.78284" lon="6.83401">
        <ele>581.8</ele>
        <time>2019-05-17T06:22:30Z</time>
      </trkpt>
      <trkpt lat="47.78306" lon="6.83413">
        <ele>581.8</ele>
        <time>2019-05-17T06:22:36Z</time>
      </trkpt>
      <trkpt lat="47.78321" lon="6.83425">
        <ele>581.8</ele>
        <time>2019-05-17T06:22:40Z</time>
      </trkpt>
      <trkpt lat="47.78339" lon="6.8345">
        <ele>581.8</ele>
        <time>2019-05-17T06:22:46Z</time>
      </trkpt>
      <trkpt lat="47.78342" lon="6.83454">
        <ele>581.8</ele>
        <time>2019-05-17T06:22:47Z</time>
      </trkpt>
      <trkpt lat="47.78361" lon="6.83478">
        <ele>582.2</ele>
        <time>2019-05-17T06:22:53Z</time>
      </trkpt>
      <trkpt lat="47.78364" lon="6.83481">
        <ele>582.6</ele>
        <time>2019-05-17T06:22:54Z</time>
      </trkpt>
      <trkpt lat="47.78367" lon="6.83483">
        <ele>583</ele>
        <time>2019-05-17T06:22:55Z</time>
      </trkpt>
      <trkpt lat="47.7837" lon="6.83486">
        <ele>583.4</ele>
        <time>2019-05-17T06:22:56Z</time>
      </trkpt>
      <trkpt lat="47.78373" lon="6.83489">
        <ele>583.8</ele>
        <time>2019-05-17T06:22:57Z</time>
      </trkpt>
      <trkpt lat="47.78386" lon="6.83498">
        <ele>583.8</ele>
        <time>2019-05-17T06:23:01Z</time>
      </trkpt>
      <trkpt lat="47.78389" lon="6.83501">
        <ele>584.2</ele>
        <time>2019-05-17T06:23:02Z</time>
      </trkpt>
      <trkpt lat="47.78393" lon="6.83503">
        <ele>584.6</ele>
        <time>2019-05-17T06:23:03Z</time>
      </trkpt>
      <trkpt lat="47.78396" lon="6.83506">
        <ele>585</ele>
        <time>2019-05-17T06:23:04Z</time>
      </trkpt>
      <trkpt lat="47.784" lon="6.83508">
        <ele>585.4</ele>
        <time>2019-05-17T06:23:05Z</time>
      </trkpt>
      <trkpt lat="47.78403" lon="6.83511">
        <ele>585.8</ele>
        <time>2019-05-17T06:23:06Z</time>
      </trkpt>
      <trkpt lat="47.78406" lon="6.83515">
        <ele>585.8</ele>
        <time>2019-05-17T06:23:07Z</time>
      </trkpt>
      <trkpt lat="47.78412" lon="6.83526">
        <ele>586.4</ele>
        <time>2019-05-17T06:23:10Z</time>
      </trkpt>
      <trkpt lat="47.78411" lon="6.8353">
        <ele>586.8</ele>
        <time>2019-05-17T06:23:11Z</time>
      </trkpt>
      <trkpt lat="47.7841" lon="6.83536">
        <ele>587.2</ele>
        <time>2019-05-17T06:23:12Z</time>
      </trkpt>
      <trkpt lat="47.7841" lon="6.8354">
        <ele>587.6</ele>
        <time>2019-05-17T06:23:13Z</time>
      </trkpt>
      <trkpt lat="47.78409" lon="6.83544">
        <ele>588</ele>
        <time>2019-05-17T06:23:14Z</time>
      </trkpt>
      <trkpt lat="47.78408" lon="6.83548">
        <ele>588.4</ele>
        <time>2019-05-17T06:23:15Z</time>
      </trkpt>
      <trkpt lat="47.78407" lon="6.83551">
        <ele>588.8</ele>
        <time>2019-05-17T06:23:16Z</time>
      </trkpt>
      <trkpt lat="47.78405" lon="6.83555">
        <ele>589.2</ele>
        <time>2019-05-17T06:23:17Z</time>
      </trkpt>
      <trkpt lat="47.78403" lon="6.83558">
        <ele>589.6</ele>
        <time>2019-05-17T06:23:18Z</time>
      </trkpt>
      <trkpt lat="47.784" lon="6.83559">
        <ele>590.2</ele>
        <time>2019-05-17T06:23:19Z</time>
      </trkpt>
      <trkpt lat="47.78397" lon="6.83561">
        <ele>590.2</ele>
        <time>2019-05-17T06:23:20Z</time>
      </trkpt>
      <trkpt lat="47.78393" lon="6.83563">
        <ele>590.6</ele>
        <time>2019-05-17T06:23:22Z</time>
      </trkpt>
      <trkpt lat="47.78391" lon="6.83564">
        <ele>591.4</ele>
        <time>2019-05-17T06:23:23Z</time>
      </trkpt>
      <trkpt lat="47.78389" lon="6.83564">
        <ele>591.8</ele>
        <time>2019-05-17T06:23:24Z</time>
      </trkpt>
      <trkpt lat="47.78386" lon="6.83564">
        <ele>592.4</ele>
        <time>2019-05-17T06:23:25Z</time>
      </trkpt>
      <trkpt lat="47.78369" lon="6.83566">
        <ele>592.4</ele>
        <time>2019-05-17T06:23:31Z</time>
      </trkpt>
      <trkpt lat="47.78366" lon="6.83566">
        <ele>592.8</ele>
        <time>2019-05-17T06:23:32Z</time>
      </trkpt>
      <trkpt lat="47.78364" lon="6.83566">
        <ele>593.2</ele>
        <time>2019-05-17T06:23:33Z</time>
      </trkpt>
      <trkpt lat="47.78361" lon="6.83566">
        <ele>593.6</ele>
        <time>2019-05-17T06:23:34Z</time>
      </trkpt>
      <trkpt lat="47.78358" lon="6.83566">
        <ele>594</ele>
        <time>2019-05-17T06:23:35Z</time>
      </trkpt>
      <trkpt lat="47.78355" lon="6.83566">
        <ele>594.4</ele>
        <time>2019-05-17T06:23:36Z</time>
      </trkpt>
      <trkpt lat="47.78353" lon="6.83566">
        <ele>594.4</ele>
        <time>2019-05-17T06:23:37Z</time>
      </trkpt>
      <trkpt lat="47.78339" lon="6.83557">
        <ele>595</ele>
        <time>2019-05-17T06:23:42Z</time>
      </trkpt>
      <trkpt lat="47.78337" lon="6.83554">
        <ele>595.4</ele>
        <time>2019-05-17T06:23:43Z</time>
      </trkpt>
      <trkpt lat="47.78336" lon="6.83551">
        <ele>595.8</ele>
        <time>2019-05-17T06:23:44Z</time>
      </trkpt>
      <trkpt lat="47.78335" lon="6.83549">
        <ele>596.2</ele>
        <time>2019-05-17T06:23:45Z</time>
      </trkpt>
      <trkpt lat="47.78333" lon="6.83546">
        <ele>596.6</ele>
        <time>2019-05-17T06:23:46Z</time>
      </trkpt>
      <trkpt lat="47.7833" lon="6.83543">
        <ele>596.6</ele>
        <time>2019-05-17T06:23:47Z</time>
      </trkpt>
      <trkpt lat="47.78322" lon="6.83533">
        <ele>597</ele>
        <time>2019-05-17T06:23:50Z</time>
      </trkpt>
      <trkpt lat="47.78318" lon="6.8353">
        <ele>597.6</ele>
        <time>2019-05-17T06:23:51Z</time>
      </trkpt>
      <trkpt lat="47.78316" lon="6.83528">
        <ele>598</ele>
        <time>2019-05-17T06:23:52Z</time>
      </trkpt>
      <trkpt lat="47.78313" lon="6.83526">
        <ele>598.4</ele>
        <time>2019-05-17T06:23:53Z</time>
      </trkpt>
      <trkpt lat="47.78309" lon="6.83524">
        <ele>599</ele>
        <time>2019-05-17T06:23:54Z</time>
      </trkpt>
      <trkpt lat="47.78302" lon="6.83523">
        <ele>599</ele>
        <time>2019-05-17T06:23:56Z</time>
      </trkpt>
      <trkpt lat="47.78294" lon="6.83528">
        <ele>599.4</ele>
        <time>2019-05-17T06:23:59Z</time>
      </trkpt>
      <trkpt lat="47.78294" lon="6.8353">
        <ele>599.8</ele>
        <time>2019-05-17T06:24:00Z</time>
      </trkpt>
      <trkpt lat="47.78293" lon="6.83532">
        <ele>600.2</ele>
        <time>2019-05-17T06:24:01Z</time>
      </trkpt>
      <trkpt lat="47.78294" lon="6.83534">
        <ele>600.6</ele>
        <time>2019-05-17T06:24:02Z</time>
      </trkpt>
      <trkpt lat="47.78295" lon="6.83536">
        <ele>601</ele>
        <time>2019-05-17T06:24:03Z</time>
      </trkpt>
      <trkpt lat="47.78297" lon="6.83537">
        <ele>601</ele>
        <time>2019-05-17T06:24:04Z</time>
      </trkpt>
      <trkpt lat="47.78299" lon="6.83538">
        <ele>601</ele>
        <time>2019-05-17T06:24:05Z</time>
      </trkpt>
      <trkpt lat="47.78306" lon="6.83543">
        <ele>601.4</ele>
        <time>2019-05-17T06:24:07Z</time>
      </trkpt>
      <trkpt lat="47.78309" lon="6.83547">
        <ele>601.8</ele>
        <time>2019-05-17T06:24:08Z</time>
      </trkpt>
      <trkpt lat="47.78312" lon="6.8355">
        <ele>602.2</ele>
        <time>2019-05-17T06:24:09Z</time>
      </trkpt>
      <trkpt lat="47.78315" lon="6.83553">
        <ele>602.6</ele>
        <time>2019-05-17T06:24:10Z</time>
      </trkpt>
      <trkpt lat="47.78317" lon="6.83556">
        <ele>603</ele>
        <time>2019-05-17T06:24:11Z</time>
      </trkpt>
      <trkpt lat="47.78319" lon="6.83561">
        <ele>603</ele>
        <time>2019-05-17T06:24:13Z</time>
      </trkpt>
      <trkpt lat="47.78321" lon="6.83563">
        <ele>603.6</ele>
        <time>2019-05-17T06:24:14Z</time>
      </trkpt>
      <trkpt lat="47.78321" lon="6.83565">
        <ele>604</ele>
        <time>2019-05-17T06:24:15Z</time>
      </trkpt>
      <trkpt lat="47.78322" lon="6.83568">
        <ele>604.4</ele>
        <time>2019-05-17T06:24:16Z</time>
      </trkpt>
      <trkpt lat="47.78323" lon="6.83571">
        <ele>604.8</ele>
        <time>2019-05-17T06:24:17Z</time>
      </trkpt>
      <trkpt lat="47.78323" lon="6.83574">
        <ele>605.2</ele>
        <time>2019-05-17T06:24:19Z</time>
      </trkpt>
      <trkpt lat="47.78328" lon="6.83587">
        <ele>605.2</ele>
        <time>2019-05-17T06:24:23Z</time>
      </trkpt>
      <trkpt lat="47.7833" lon="6.8359">
        <ele>605.6</ele>
        <time>2019-05-17T06:24:24Z</time>
      </trkpt>
      <trkpt lat="47.78332" lon="6.83591">
        <ele>606</ele>
        <time>2019-05-17T06:24:25Z</time>
      </trkpt>
      <trkpt lat="47.78334" lon="6.83592">
        <ele>606.4</ele>
        <time>2019-05-17T06:24:26Z</time>
      </trkpt>
      <trkpt lat="47.78336" lon="6.83592">
        <ele>607</ele>
        <time>2019-05-17T06:24:27Z</time>
      </trkpt>
      <trkpt lat="47.78338" lon="6.83592">
        <ele>607.4</ele>
        <time>2019-05-17T06:24:28Z</time>
      </trkpt>
      <trkpt lat="47.7834" lon="6.83595">
        <ele>607.4</ele>
        <time>2019-05-17T06:24:29Z</time>
      </trkpt>
      <trkpt lat="47.78351" lon="6.83604">
        <ele>608.2</ele>
        <time>2019-05-17T06:24:33Z</time>
      </trkpt>
      <trkpt lat="47.78353" lon="6.83606">
        <ele>608.8</ele>
        <time>2019-05-17T06:24:34Z</time>
      </trkpt>
      <trkpt lat="47.78355" lon="6.83609">
        <ele>609.2</ele>
        <time>2019-05-17T06:24:35Z</time>
      </trkpt>
      <trkpt lat="47.78357" lon="6.83611">
        <ele>609.6</ele>
        <time>2019-05-17T06:24:36Z</time>
      </trkpt>
      <trkpt lat="47.78361" lon="6.83621">
        <ele>609.6</ele>
        <time>2019-05-17T06:24:39Z</time>
      </trkpt>
      <trkpt lat="47.78362" lon="6.83628">
        <ele>610</ele>
        <time>2019-05-17T06:24:41Z</time>
      </trkpt>
      <trkpt lat="47.78362" lon="6.83631">
        <ele>610.6</ele>
        <time>2019-05-17T06:24:42Z</time>
      </trkpt>
      <trkpt lat="47.78362" lon="6.83635">
        <ele>611</ele>
        <time>2019-05-17T06:24:43Z</time>
      </trkpt>
      <trkpt lat="47.78363" lon="6.83637">
        <ele>611.4</ele>
        <time>2019-05-17T06:24:44Z</time>
      </trkpt>
      <trkpt lat="47.78362" lon="6.8364">
        <ele>611.8</ele>
        <time>2019-05-17T06:24:45Z</time>
      </trkpt>
      <trkpt lat="47.78361" lon="6.83651">
        <ele>612.2</ele>
        <time>2019-05-17T06:24:49Z</time>
      </trkpt>
      <trkpt lat="47.7836" lon="6.83654">
        <ele>612.6</ele>
        <time>2019-05-17T06:24:50Z</time>
      </trkpt>
      <trkpt lat="47.7836" lon="6.83657">
        <ele>613</ele>
        <time>2019-05-17T06:24:51Z</time>
      </trkpt>
      <trkpt lat="47.7836" lon="6.83661">
        <ele>613.4</ele>
        <time>2019-05-17T06:24:52Z</time>
      </trkpt>
      <trkpt lat="47.7836" lon="6.83665">
        <ele>614</ele>
        <time>2019-05-17T06:24:53Z</time>
      </trkpt>
      <trkpt lat="47.7836" lon="6.8367">
        <ele>614</ele>
        <time>2019-05-17T06:24:55Z</time>
      </trkpt>
      <trkpt lat="47.78361" lon="6.83671">
        <ele>614.4</ele>
        <time>2019-05-17T06:24:56Z</time>
      </trkpt>
      <trkpt lat="47.78361" lon="6.83673">
        <ele>615.2</ele>
        <time>2019-05-17T06:24:57Z</time>
      </trkpt>
      <trkpt lat="47.78362" lon="6.83673">
        <ele>615.6</ele>
        <time>2019-05-17T06:24:58Z</time>
      </trkpt>
      <trkpt lat="47.78361" lon="6.83683">
        <ele>616</ele>
        <time>2019-05-17T06:29:09Z</time>
      </trkpt>
      <trkpt lat="47.78358" lon="6.83698">
        <ele>616</ele>
        <time>2019-05-17T06:29:14Z</time>
      </trkpt>
      <trkpt lat="47.78357" lon="6.837">
        <ele>616</ele>
        <time>2019-05-17T06:29:15Z</time>
      </trkpt>
      <trkpt lat="47.78355" lon="6.83715">
        <ele>616</ele>
        <time>2019-05-17T06:29:20Z</time>
      </trkpt>
      <trkpt lat="47.78355" lon="6.83727">
        <ele>616.4</ele>
        <time>2019-05-17T06:29:24Z</time>
      </trkpt>
      <trkpt lat="47.78355" lon="6.8373">
        <ele>617</ele>
        <time>2019-05-17T06:29:25Z</time>
      </trkpt>
      <trkpt lat="47.78356" lon="6.83734">
        <ele>617.4</ele>
        <time>2019-05-17T06:29:26Z</time>
      </trkpt>
      <trkpt lat="47.78355" lon="6.83737">
        <ele>617.8</ele>
        <time>2019-05-17T06:29:27Z</time>
      </trkpt>
      <trkpt lat="47.78355" lon="6.83739">
        <ele>618.2</ele>
        <time>2019-05-17T06:29:28Z</time>
      </trkpt>
      <trkpt lat="47.78357" lon="6.83749">
        <ele>618.2</ele>
        <time>2019-05-17T06:29:31Z</time>
      </trkpt>
      <trkpt lat="47.78358" lon="6.83753">
        <ele>618.6</ele>
        <time>2019-05-17T06:29:32Z</time>
      </trkpt>
      <trkpt lat="47.78358" lon="6.83756">
        <ele>619.2</ele>
        <time>2019-05-17T06:29:33Z</time>
      </trkpt>
      <trkpt lat="47.78359" lon="6.8376">
        <ele>619.6</ele>
        <time>2019-05-17T06:29:34Z</time>
      </trkpt>
      <trkpt lat="47.7836" lon="6.83764">
        <ele>620</ele>
        <time>2019-05-17T06:29:35Z</time>
      </trkpt>
      <trkpt lat="47.78362" lon="6.83767">
        <ele>620.4</ele>
        <time>2019-05-17T06:29:36Z</time>
      </trkpt>
      <trkpt lat="47.78363" lon="6.83771">
        <ele>620.4</ele>
        <time>2019-05-17T06:29:37Z</time>
      </trkpt>
      <trkpt lat="47.78366" lon="6.83782">
        <ele>621</ele>
        <time>2019-05-17T06:29:40Z</time>
      </trkpt>
      <trkpt lat="47.78367" lon="6.83785">
        <ele>621.4</ele>
        <time>2019-05-17T06:29:41Z</time>
      </trkpt>
      <trkpt lat="47.78369" lon="6.83788">
        <ele>621.8</ele>
        <time>2019-05-17T06:29:42Z</time>
      </trkpt>
      <trkpt lat="47.7837" lon="6.83791">
        <ele>622.4</ele>
        <time>2019-05-17T06:29:43Z</time>
      </trkpt>
      <trkpt lat="47.78372" lon="6.83794">
        <ele>622.8</ele>
        <time>2019-05-17T06:29:44Z</time>
      </trkpt>
      <trkpt lat="47.78377" lon="6.83805">
        <ele>623.2</ele>
        <time>2019-05-17T06:29:48Z</time>
      </trkpt>
      <trkpt lat="47.78378" lon="6.83807">
        <ele>623.6</ele>
        <time>2019-05-17T06:29:49Z</time>
      </trkpt>
      <trkpt lat="47.78379" lon="6.8381">
        <ele>624.2</ele>
        <time>2019-05-17T06:29:50Z</time>
      </trkpt>
      <trkpt lat="47.7838" lon="6.83812">
        <ele>624.6</ele>
        <time>2019-05-17T06:29:51Z</time>
      </trkpt>
      <trkpt lat="47.78381" lon="6.83815">
        <ele>625</ele>
        <time>2019-05-17T06:29:52Z</time>
      </trkpt>
      <trkpt lat="47.78385" lon="6.8382">
        <ele>625.4</ele>
        <time>2019-05-17T06:29:55Z</time>
      </trkpt>
      <trkpt lat="47.78387" lon="6.83822">
        <ele>626</ele>
        <time>2019-05-17T06:29:56Z</time>
      </trkpt>
      <trkpt lat="47.78388" lon="6.83822">
        <ele>626.4</ele>
        <time>2019-05-17T06:29:57Z</time>
      </trkpt>
      <trkpt lat="47.7839" lon="6.83824">
        <ele>626.8</ele>
        <time>2019-05-17T06:29:58Z</time>
      </trkpt>
      <trkpt lat="47.78391" lon="6.83826">
        <ele>627.2</ele>
        <time>2019-05-17T06:29:59Z</time>
      </trkpt>
      <trkpt lat="47.78392" lon="6.83828">
        <ele>627.2</ele>
        <time>2019-05-17T06:30:00Z</time>
      </trkpt>
      <trkpt lat="47.78394" lon="6.83831">
        <ele>627.8</ele>
        <time>2019-05-17T06:30:03Z</time>
      </trkpt>
      <trkpt lat="47.78394" lon="6.83832">
        <ele>628.2</ele>
        <time>2019-05-17T06:30:04Z</time>
      </trkpt>
      <trkpt lat="47.78395" lon="6.83833">
        <ele>628.6</ele>
        <time>2019-05-17T06:30:05Z</time>
      </trkpt>
      <trkpt lat="47.78397" lon="6.83834">
        <ele>629.2</ele>
        <time>2019-05-17T06:30:06Z</time>
      </trkpt>
      <trkpt lat="47.78399" lon="6.83837">
        <ele>629.6</ele>
        <time>2019-05-17T06:30:07Z</time>
      </trkpt>
      <trkpt lat="47.78403" lon="6.8384">
        <ele>629.6</ele>
        <time>2019-05-17T06:30:09Z</time>
      </trkpt>
      <trkpt lat="47.78404" lon="6.83843">
        <ele>629.6</ele>
        <time>2019-05-17T06:30:10Z</time>
      </trkpt>
      <trkpt lat="47.78407" lon="6.83846">
        <ele>630</ele>
        <time>2019-05-17T06:30:12Z</time>
      </trkpt>
      <trkpt lat="47.78409" lon="6.83848">
        <ele>630.6</ele>
        <time>2019-05-17T06:30:13Z</time>
      </trkpt>
      <trkpt lat="47.78411" lon="6.8385">
        <ele>631</ele>
        <time>2019-05-17T06:30:14Z</time>
      </trkpt>
      <trkpt lat="47.78413" lon="6.83852">
        <ele>631.4</ele>
        <time>2019-05-17T06:30:15Z</time>
      </trkpt>
      <trkpt lat="47.78415" lon="6.83854">
        <ele>631.8</ele>
        <time>2019-05-17T06:30:16Z</time>
      </trkpt>
      <trkpt lat="47.78419" lon="6.83863">
        <ele>632.4</ele>
        <time>2019-05-17T06:30:19Z</time>
      </trkpt>
      <trkpt lat="47.78421" lon="6.83865">
        <ele>632.8</ele>
        <time>2019-05-17T06:30:20Z</time>
      </trkpt>
      <trkpt lat="47.78422" lon="6.83867">
        <ele>633.2</ele>
        <time>2019-05-17T06:30:21Z</time>
      </trkpt>
      <trkpt lat="47.78426" lon="6.8387">
        <ele>633.8</ele>
        <time>2019-05-17T06:30:22Z</time>
      </trkpt>
      <trkpt lat="47.78428" lon="6.83873">
        <ele>634.2</ele>
        <time>2019-05-17T06:30:23Z</time>
      </trkpt>
      <trkpt lat="47.78434" lon="6.8388">
        <ele>634.2</ele>
        <time>2019-05-17T06:30:26Z</time>
      </trkpt>
      <trkpt lat="47.78435" lon="6.83883">
        <ele>634.2</ele>
        <time>2019-05-17T06:30:27Z</time>
      </trkpt>
      <trkpt lat="47.78436" lon="6.83886">
        <ele>634.6</ele>
        <time>2019-05-17T06:30:28Z</time>
      </trkpt>
      <trkpt lat="47.78438" lon="6.83888">
        <ele>635</ele>
        <time>2019-05-17T06:30:29Z</time>
      </trkpt>
      <trkpt lat="47.7844" lon="6.83891">
        <ele>635.4</ele>
        <time>2019-05-17T06:30:30Z</time>
      </trkpt>
      <trkpt lat="47.78442" lon="6.83893">
        <ele>636</ele>
        <time>2019-05-17T06:30:31Z</time>
      </trkpt>
      <trkpt lat="47.78442" lon="6.83895">
        <ele>636.4</ele>
        <time>2019-05-17T06:30:32Z</time>
      </trkpt>
      <trkpt lat="47.78446" lon="6.839">
        <ele>636.8</ele>
        <time>2019-05-17T06:30:35Z</time>
      </trkpt>
      <trkpt lat="47.78447" lon="6.83902">
        <ele>637.2</ele>
        <time>2019-05-17T06:30:36Z</time>
      </trkpt>
      <trkpt lat="47.78449" lon="6.83904">
        <ele>637.6</ele>
        <time>2019-05-17T06:30:37Z</time>
      </trkpt>
      <trkpt lat="47.78451" lon="6.83907">
        <ele>638</ele>
        <time>2019-05-17T06:30:38Z</time>
      </trkpt>
      <trkpt lat="47.78452" lon="6.8391">
        <ele>638.4</ele>
        <time>2019-05-17T06:30:39Z</time>
      </trkpt>
      <trkpt lat="47.78458" lon="6.83919">
        <ele>638.4</ele>
        <time>2019-05-17T06:30:43Z</time>
      </trkpt>
      <trkpt lat="47.7846" lon="6.8392">
        <ele>638.8</ele>
        <time>2019-05-17T06:30:44Z</time>
      </trkpt>
      <trkpt lat="47.78461" lon="6.83923">
        <ele>639.2</ele>
        <time>2019-05-17T06:30:45Z</time>
      </trkpt>
      <trkpt lat="47.78462" lon="6.83925">
        <ele>639.6</ele>
        <time>2019-05-17T06:30:46Z</time>
      </trkpt>
      <trkpt lat="47.78463" lon="6.83927">
        <ele>640</ele>
        <time>2019-05-17T06:30:47Z</time>
      </trkpt>
      <trkpt lat="47.78465" lon="6.8393">
        <ele>640.6</ele>
        <time>2019-05-17T06:30:48Z</time>
      </trkpt>
      <trkpt lat="47.78466" lon="6.83932">
        <ele>640.6</ele>
        <time>2019-05-17T06:30:49Z</time>
      </trkpt>
      <trkpt lat="47.78466" lon="6.83941">
        <ele>641</ele>
        <time>2019-05-17T06:30:52Z</time>
      </trkpt>
      <trkpt lat="47.78466" lon="6.83942">
        <ele>641.4</ele>
        <time>2019-05-17T06:30:53Z</time>
      </trkpt>
      <trkpt lat="47.78467" lon="6.83945">
        <ele>641.8</ele>
        <time>2019-05-17T06:30:54Z</time>
      </trkpt>
      <trkpt lat="47.78468" lon="6.83947">
        <ele>642.2</ele>
        <time>2019-05-17T06:30:55Z</time>
      </trkpt>
      <trkpt lat="47.78469" lon="6.83949">
        <ele>642.6</ele>
        <time>2019-05-17T06:30:56Z</time>
      </trkpt>
      <trkpt lat="47.78469" lon="6.83956">
        <ele>642.6</ele>
        <time>2019-05-17T06:30:59Z</time>
      </trkpt>
      <trkpt lat="47.78469" lon="6.83959">
        <ele>643</ele>
        <time>2019-05-17T06:31:00Z</time>
      </trkpt>
      <trkpt lat="47.78469" lon="6.83963">
        <ele>643.6</ele>
        <time>2019-05-17T06:31:01Z</time>
      </trkpt>
      <trkpt lat="47.78469" lon="6.83965">
        <ele>644</ele>
        <time>2019-05-17T06:31:02Z</time>
      </trkpt>
      <trkpt lat="47.78469" lon="6.83968">
        <ele>644.4</ele>
        <time>2019-05-17T06:31:03Z</time>
      </trkpt>
      <trkpt lat="47.78469" lon="6.8397">
        <ele>644.8</ele>
        <time>2019-05-17T06:31:04Z</time>
      </trkpt>
      <trkpt lat="47.78468" lon="6.83979">
        <ele>645.4</ele>
        <time>2019-05-17T06:31:07Z</time>
      </trkpt>
      <trkpt lat="47.78467" lon="6.83981">
        <ele>645.8</ele>
        <time>2019-05-17T06:31:08Z</time>
      </trkpt>
      <trkpt lat="47.78467" lon="6.83985">
        <ele>646.2</ele>
        <time>2019-05-17T06:31:09Z</time>
      </trkpt>
      <trkpt lat="47.78467" lon="6.83988">
        <ele>646.6</ele>
        <time>2019-05-17T06:31:10Z</time>
      </trkpt>
      <trkpt lat="47.78468" lon="6.83991">
        <ele>647</ele>
        <time>2019-05-17T06:31:11Z</time>
      </trkpt>
      <trkpt lat="47.78469" lon="6.83996">
        <ele>647</ele>
        <time>2019-05-17T06:31:13Z</time>
      </trkpt>
      <trkpt lat="47.78469" lon="6.84">
        <ele>647</ele>
        <time>2019-05-17T06:31:15Z</time>
      </trkpt>
      <trkpt lat="47.78467" lon="6.84007">
        <ele>647.6</ele>
        <time>2019-05-17T06:31:17Z</time>
      </trkpt>
      <trkpt lat="47.78467" lon="6.8401">
        <ele>648</ele>
        <time>2019-05-17T06:31:18Z</time>
      </trkpt>
      <trkpt lat="47.78467" lon="6.84013">
        <ele>648.4</ele>
        <time>2019-05-17T06:31:19Z</time>
      </trkpt>
      <trkpt lat="47.78468" lon="6.84017">
        <ele>648.8</ele>
        <time>2019-05-17T06:31:20Z</time>
      </trkpt>
      <trkpt lat="47.78469" lon="6.8402">
        <ele>649.4</ele>
        <time>2019-05-17T06:31:21Z</time>
      </trkpt>
      <trkpt lat="47.78471" lon="6.84028">
        <ele>649.4</ele>
        <time>2019-05-17T06:31:23Z</time>
      </trkpt>
      <trkpt lat="47.78472" lon="6.84034">
        <ele>649.8</ele>
        <time>2019-05-17T06:31:25Z</time>
      </trkpt>
      <trkpt lat="47.78472" lon="6.84036">
        <ele>650.2</ele>
        <time>2019-05-17T06:31:26Z</time>
      </trkpt>
      <trkpt lat="47.78471" lon="6.8404">
        <ele>650.6</ele>
        <time>2019-05-17T06:31:27Z</time>
      </trkpt>
      <trkpt lat="47.7847" lon="6.84043">
        <ele>651</ele>
        <time>2019-05-17T06:31:28Z</time>
      </trkpt>
      <trkpt lat="47.78469" lon="6.84046">
        <ele>651.4</ele>
        <time>2019-05-17T06:31:29Z</time>
      </trkpt>
      <trkpt lat="47.78468" lon="6.84053">
        <ele>651.8</ele>
        <time>2019-05-17T06:31:32Z</time>
      </trkpt>
      <trkpt lat="47.78468" lon="6.84055">
        <ele>652.2</ele>
        <time>2019-05-17T06:31:33Z</time>
      </trkpt>
      <trkpt lat="47.78468" lon="6.84059">
        <ele>652.6</ele>
        <time>2019-05-17T06:31:34Z</time>
      </trkpt>
      <trkpt lat="47.78469" lon="6.84064">
        <ele>653</ele>
        <time>2019-05-17T06:31:35Z</time>
      </trkpt>
      <trkpt lat="47.78469" lon="6.84068">
        <ele>653.4</ele>
        <time>2019-05-17T06:31:36Z</time>
      </trkpt>
      <trkpt lat="47.78467" lon="6.84073">
        <ele>653.4</ele>
        <time>2019-05-17T06:31:38Z</time>
      </trkpt>
      <trkpt lat="47.78465" lon="6.84081">
        <ele>654</ele>
        <time>2019-05-17T06:31:41Z</time>
      </trkpt>
      <trkpt lat="47.78465" lon="6.84083">
        <ele>654.4</ele>
        <time>2019-05-17T06:31:42Z</time>
      </trkpt>
      <trkpt lat="47.78464" lon="6.84085">
        <ele>654.8</ele>
        <time>2019-05-17T06:31:43Z</time>
      </trkpt>
      <trkpt lat="47.78462" lon="6.84087">
        <ele>655.2</ele>
        <time>2019-05-17T06:31:44Z</time>
      </trkpt>
      <trkpt lat="47.78461" lon="6.84088">
        <ele>655.6</ele>
        <time>2019-05-17T06:31:45Z</time>
      </trkpt>
      <trkpt lat="47.78458" lon="6.84092">
        <ele>656.2</ele>
        <time>2019-05-17T06:31:47Z</time>
      </trkpt>
      <trkpt lat="47.78458" lon="6.84092">
        <ele>656.6</ele>
        <time>2019-05-17T06:31:48Z</time>
      </trkpt>
      <trkpt lat="47.78457" lon="6.84096">
        <ele>657</ele>
        <time>2019-05-17T06:31:49Z</time>
      </trkpt>
      <trkpt lat="47.78457" lon="6.84098">
        <ele>657.4</ele>
        <time>2019-05-17T06:31:50Z</time>
      </trkpt>
      <trkpt lat="47.78457" lon="6.841">
        <ele>658</ele>
        <time>2019-05-17T06:31:51Z</time>
      </trkpt>
      <trkpt lat="47.78456" lon="6.84107">
        <ele>658.4</ele>
        <time>2019-05-17T06:31:54Z</time>
      </trkpt>
      <trkpt lat="47.78456" lon="6.84109">
        <ele>658.8</ele>
        <time>2019-05-17T06:31:55Z</time>
      </trkpt>
      <trkpt lat="47.78456" lon="6.84111">
        <ele>659.6</ele>
        <time>2019-05-17T06:31:56Z</time>
      </trkpt>
      <trkpt lat="47.78455" lon="6.84114">
        <ele>660</ele>
        <time>2019-05-17T06:31:57Z</time>
      </trkpt>
      <trkpt lat="47.78455" lon="6.84119">
        <ele>660</ele>
        <time>2019-05-17T06:31:59Z</time>
      </trkpt>
      <trkpt lat="47.78455" lon="6.84122">
        <ele>660</ele>
        <time>2019-05-17T06:32:00Z</time>
      </trkpt>
      <trkpt lat="47.78457" lon="6.84128">
        <ele>660.4</ele>
        <time>2019-05-17T06:32:02Z</time>
      </trkpt>
      <trkpt lat="47.78458" lon="6.84131">
        <ele>660.8</ele>
        <time>2019-05-17T06:32:03Z</time>
      </trkpt>
      <trkpt lat="47.78458" lon="6.84135">
        <ele>661.2</ele>
        <time>2019-05-17T06:32:04Z</time>
      </trkpt>
      <trkpt lat="47.78459" lon="6.84137">
        <ele>661.6</ele>
        <time>2019-05-17T06:32:05Z</time>
      </trkpt>
      <trkpt lat="47.7846" lon="6.8414">
        <ele>662</ele>
        <time>2019-05-17T06:32:06Z</time>
      </trkpt>
      <trkpt lat="47.7846" lon="6.84143">
        <ele>662</ele>
        <time>2019-05-17T06:32:07Z</time>
      </trkpt>
      <trkpt lat="47.78459" lon="6.84148">
        <ele>662.4</ele>
        <time>2019-05-17T06:32:09Z</time>
      </trkpt>
      <trkpt lat="47.78459" lon="6.8415">
        <ele>663</ele>
        <time>2019-05-17T06:32:10Z</time>
      </trkpt>
      <trkpt lat="47.78458" lon="6.84152">
        <ele>663.4</ele>
        <time>2019-05-17T06:32:11Z</time>
      </trkpt>
      <trkpt lat="47.78458" lon="6.84155">
        <ele>663.8</ele>
        <time>2019-05-17T06:32:12Z</time>
      </trkpt>
      <trkpt lat="47.78457" lon="6.84157">
        <ele>664.2</ele>
        <time>2019-05-17T06:32:13Z</time>
      </trkpt>
      <trkpt lat="47.78456" lon="6.84167">
        <ele>664.6</ele>
        <time>2019-05-17T06:32:17Z</time>
      </trkpt>
      <trkpt lat="47.78455" lon="6.84169">
        <ele>665.2</ele>
        <time>2019-05-17T06:32:18Z</time>
      </trkpt>
      <trkpt lat="47.78455" lon="6.84172">
        <ele>665.6</ele>
        <time>2019-05-17T06:32:19Z</time>
      </trkpt>
      <trkpt lat="47.78455" lon="6.84174">
        <ele>666</ele>
        <time>2019-05-17T06:32:20Z</time>
      </trkpt>
      <trkpt lat="47.78455" lon="6.84176">
        <ele>666.4</ele>
        <time>2019-05-17T06:32:21Z</time>
      </trkpt>
      <trkpt lat="47.78455" lon="6.84178">
        <ele>667</ele>
        <time>2019-05-17T06:32:23Z</time>
      </trkpt>
      <trkpt lat="47.78456" lon="6.84182">
        <ele>667.4</ele>
        <time>2019-05-17T06:32:24Z</time>
      </trkpt>
      <trkpt lat="47.78456" lon="6.84183">
        <ele>667.8</ele>
        <time>2019-05-17T06:32:25Z</time>
      </trkpt>
      <trkpt lat="47.78456" lon="6.84188">
        <ele>668.2</ele>
        <time>2019-05-17T06:32:26Z</time>
      </trkpt>
      <trkpt lat="47.78457" lon="6.8419">
        <ele>668.8</ele>
        <time>2019-05-17T06:32:27Z</time>
      </trkpt>
      <trkpt lat="47.78459" lon="6.84192">
        <ele>668.8</ele>
        <time>2019-05-17T06:32:28Z</time>
      </trkpt>
      <trkpt lat="47.78461" lon="6.842">
        <ele>669.2</ele>
        <time>2019-05-17T06:32:30Z</time>
      </trkpt>
      <trkpt lat="47.78463" lon="6.84203">
        <ele>669.6</ele>
        <time>2019-05-17T06:32:31Z</time>
      </trkpt>
      <trkpt lat="47.78465" lon="6.84207">
        <ele>670</ele>
        <time>2019-05-17T06:32:32Z</time>
      </trkpt>
      <trkpt lat="47.78466" lon="6.84211">
        <ele>670.4</ele>
        <time>2019-05-17T06:32:33Z</time>
      </trkpt>
      <trkpt lat="47.78466" lon="6.84215">
        <ele>670.8</ele>
        <time>2019-05-17T06:32:34Z</time>
      </trkpt>
      <trkpt lat="47.78471" lon="6.84229">
        <ele>670.8</ele>
        <time>2019-05-17T06:32:38Z</time>
      </trkpt>
      <trkpt lat="47.78471" lon="6.84233">
        <ele>671.2</ele>
        <time>2019-05-17T06:32:39Z</time>
      </trkpt>
      <trkpt lat="47.78472" lon="6.84235">
        <ele>671.6</ele>
        <time>2019-05-17T06:32:40Z</time>
      </trkpt>
      <trkpt lat="47.78472" lon="6.84237">
        <ele>672</ele>
        <time>2019-05-17T06:32:41Z</time>
      </trkpt>
      <trkpt lat="47.78473" lon="6.84239">
        <ele>672.4</ele>
        <time>2019-05-17T06:32:42Z</time>
      </trkpt>
      <trkpt lat="47.78474" lon="6.84242">
        <ele>672.8</ele>
        <time>2019-05-17T06:32:43Z</time>
      </trkpt>
      <trkpt lat="47.78475" lon="6.84244">
        <ele>672.8</ele>
        <time>2019-05-17T06:32:44Z</time>
      </trkpt>
      <trkpt lat="47.78476" lon="6.84247">
        <ele>673.2</ele>
        <time>2019-05-17T06:32:45Z</time>
      </trkpt>
      <trkpt lat="47.78477" lon="6.84248">
        <ele>673.6</ele>
        <time>2019-05-17T06:32:46Z</time>
      </trkpt>
      <trkpt lat="47.78478" lon="6.84252">
        <ele>674.2</ele>
        <time>2019-05-17T06:32:47Z</time>
      </trkpt>
      <trkpt lat="47.78479" lon="6.84252">
        <ele>674.6</ele>
        <time>2019-05-17T06:32:48Z</time>
      </trkpt>
      <trkpt lat="47.78481" lon="6.84254">
        <ele>675</ele>
        <time>2019-05-17T06:32:49Z</time>
      </trkpt>
      <trkpt lat="47.78485" lon="6.84266">
        <ele>675.4</ele>
        <time>2019-05-17T06:32:53Z</time>
      </trkpt>
      <trkpt lat="47.78485" lon="6.84269">
        <ele>675.8</ele>
        <time>2019-05-17T06:32:54Z</time>
      </trkpt>
      <trkpt lat="47.78486" lon="6.84272">
        <ele>676.4</ele>
        <time>2019-05-17T06:32:55Z</time>
      </trkpt>
      <trkpt lat="47.78487" lon="6.84274">
        <ele>676.8</ele>
        <time>2019-05-17T06:32:56Z</time>
      </trkpt>
      <trkpt lat="47.78488" lon="6.84277">
        <ele>677.2</ele>
        <time>2019-05-17T06:32:57Z</time>
      </trkpt>
      <trkpt lat="47.78492" lon="6.84285">
        <ele>677.6</ele>
        <time>2019-05-17T06:33:01Z</time>
      </trkpt>
      <trkpt lat="47.78493" lon="6.84286">
        <ele>678</ele>
        <time>2019-05-17T06:33:02Z</time>
      </trkpt>
      <trkpt lat="47.78494" lon="6.84289">
        <ele>678.4</ele>
        <time>2019-05-17T06:33:03Z</time>
      </trkpt>
      <trkpt lat="47.78495" lon="6.84291">
        <ele>678.8</ele>
        <time>2019-05-17T06:33:04Z</time>
      </trkpt>
      <trkpt lat="47.78495" lon="6.84293">
        <ele>679.2</ele>
        <time>2019-05-17T06:33:05Z</time>
      </trkpt>
      <trkpt lat="47.78497" lon="6.84301">
        <ele>679.6</ele>
        <time>2019-05-17T06:33:08Z</time>
      </trkpt>
      <trkpt lat="47.78498" lon="6.84303">
        <ele>680</ele>
        <time>2019-05-17T06:33:09Z</time>
      </trkpt>
      <trkpt lat="47.78499" lon="6.84304">
        <ele>680.8</ele>
        <time>2019-05-17T06:33:10Z</time>
      </trkpt>
      <trkpt lat="47.785" lon="6.84305">
        <ele>681.4</ele>
        <time>2019-05-17T06:33:11Z</time>
      </trkpt>
      <trkpt lat="47.78499" lon="6.84305">
        <ele>681.4</ele>
        <time>2019-05-17T06:33:12Z</time>
      </trkpt>
      <trkpt lat="47.785" lon="6.84311">
        <ele>681.8</ele>
        <time>2019-05-17T06:33:16Z</time>
      </trkpt>
      <trkpt lat="47.78502" lon="6.84314">
        <ele>682.2</ele>
        <time>2019-05-17T06:33:17Z</time>
      </trkpt>
      <trkpt lat="47.78503" lon="6.84316">
        <ele>682.6</ele>
        <time>2019-05-17T06:33:18Z</time>
      </trkpt>
      <trkpt lat="47.78504" lon="6.84318">
        <ele>683</ele>
        <time>2019-05-17T06:33:19Z</time>
      </trkpt>
      <trkpt lat="47.78505" lon="6.84321">
        <ele>683.4</ele>
        <time>2019-05-17T06:33:20Z</time>
      </trkpt>
      <trkpt lat="47.78506" lon="6.84325">
        <ele>683.4</ele>
        <time>2019-05-17T06:33:22Z</time>
      </trkpt>
      <trkpt lat="47.78507" lon="6.84329">
        <ele>683.8</ele>
        <time>2019-05-17T06:33:24Z</time>
      </trkpt>
      <trkpt lat="47.78508" lon="6.84331">
        <ele>684.2</ele>
        <time>2019-05-17T06:33:25Z</time>
      </trkpt>
      <trkpt lat="47.78509" lon="6.84332">
        <ele>684.6</ele>
        <time>2019-05-17T06:33:26Z</time>
      </trkpt>
      <trkpt lat="47.78511" lon="6.84333">
        <ele>685</ele>
        <time>2019-05-17T06:33:27Z</time>
      </trkpt>
      <trkpt lat="47.78511" lon="6.84334">
        <ele>685.4</ele>
        <time>2019-05-17T06:33:28Z</time>
      </trkpt>
      <trkpt lat="47.78513" lon="6.84338">
        <ele>685.4</ele>
        <time>2019-05-17T06:33:30Z</time>
      </trkpt>
      <trkpt lat="47.78514" lon="6.84342">
        <ele>685.8</ele>
        <time>2019-05-17T06:33:32Z</time>
      </trkpt>
      <trkpt lat="47.78515" lon="6.84344">
        <ele>686.2</ele>
        <time>2019-05-17T06:33:33Z</time>
      </trkpt>
      <trkpt lat="47.78517" lon="6.84346">
        <ele>686.8</ele>
        <time>2019-05-17T06:33:34Z</time>
      </trkpt>
      <trkpt lat="47.78518" lon="6.84348">
        <ele>687.6</ele>
        <time>2019-05-17T06:33:35Z</time>
      </trkpt>
      <trkpt lat="47.78521" lon="6.84354">
        <ele>688</ele>
        <time>2019-05-17T06:33:38Z</time>
      </trkpt>
      <trkpt lat="47.78522" lon="6.84356">
        <ele>688.4</ele>
        <time>2019-05-17T06:33:39Z</time>
      </trkpt>
      <trkpt lat="47.78524" lon="6.84358">
        <ele>688.8</ele>
        <time>2019-05-17T06:33:40Z</time>
      </trkpt>
      <trkpt lat="47.78525" lon="6.84361">
        <ele>689.2</ele>
        <time>2019-05-17T06:33:41Z</time>
      </trkpt>
      <trkpt lat="47.78526" lon="6.84364">
        <ele>689.6</ele>
        <time>2019-05-17T06:33:42Z</time>
      </trkpt>
      <trkpt lat="47.78528" lon="6.84368">
        <ele>689.6</ele>
        <time>2019-05-17T06:33:44Z</time>
      </trkpt>
      <trkpt lat="47.7853" lon="6.84371">
        <ele>690</ele>
        <time>2019-05-17T06:33:46Z</time>
      </trkpt>
      <trkpt lat="47.78531" lon="6.84373">
        <ele>690.4</ele>
        <time>2019-05-17T06:33:47Z</time>
      </trkpt>
      <trkpt lat="47.78533" lon="6.84374">
        <ele>691</ele>
        <time>2019-05-17T06:33:48Z</time>
      </trkpt>
      <trkpt lat="47.78535" lon="6.84376">
        <ele>691.4</ele>
        <time>2019-05-17T06:33:49Z</time>
      </trkpt>
      <trkpt lat="47.78536" lon="6.84377">
        <ele>691.8</ele>
        <time>2019-05-17T06:33:50Z</time>
      </trkpt>
      <trkpt lat="47.78545" lon="6.84382">
        <ele>692.2</ele>
        <time>2019-05-17T06:33:54Z</time>
      </trkpt>
      <trkpt lat="47.78546" lon="6.84383">
        <ele>692.6</ele>
        <time>2019-05-17T06:33:55Z</time>
      </trkpt>
      <trkpt lat="47.78547" lon="6.84384">
        <ele>693</ele>
        <time>2019-05-17T06:33:56Z</time>
      </trkpt>
      <trkpt lat="47.7855" lon="6.84385">
        <ele>693.4</ele>
        <time>2019-05-17T06:33:57Z</time>
      </trkpt>
      <trkpt lat="47.7855" lon="6.84387">
        <ele>693.8</ele>
        <time>2019-05-17T06:33:58Z</time>
      </trkpt>
      <trkpt lat="47.78551" lon="6.84388">
        <ele>693.8</ele>
        <time>2019-05-17T06:33:59Z</time>
      </trkpt>
      <trkpt lat="47.78555" lon="6.84393">
        <ele>694.2</ele>
        <time>2019-05-17T06:34:02Z</time>
      </trkpt>
      <trkpt lat="47.78556" lon="6.84395">
        <ele>694.6</ele>
        <time>2019-05-17T06:34:03Z</time>
      </trkpt>
      <trkpt lat="47.78557" lon="6.84397">
        <ele>695.2</ele>
        <time>2019-05-17T06:34:04Z</time>
      </trkpt>
      <trkpt lat="47.78558" lon="6.84399">
        <ele>695.6</ele>
        <time>2019-05-17T06:34:05Z</time>
      </trkpt>
      <trkpt lat="47.7856" lon="6.844">
        <ele>696</ele>
        <time>2019-05-17T06:34:06Z</time>
      </trkpt>
      <trkpt lat="47.78564" lon="6.84407">
        <ele>696.4</ele>
        <time>2019-05-17T06:34:10Z</time>
      </trkpt>
      <trkpt lat="47.78566" lon="6.84409">
        <ele>696.8</ele>
        <time>2019-05-17T06:34:11Z</time>
      </trkpt>
      <trkpt lat="47.78568" lon="6.84411">
        <ele>697.2</ele>
        <time>2019-05-17T06:34:12Z</time>
      </trkpt>
      <trkpt lat="47.78569" lon="6.84412">
        <ele>697.8</ele>
        <time>2019-05-17T06:34:13Z</time>
      </trkpt>
      <trkpt lat="47.78571" lon="6.84414">
        <ele>698.2</ele>
        <time>2019-05-17T06:34:14Z</time>
      </trkpt>
      <trkpt lat="47.78576" lon="6.84422">
        <ele>698.6</ele>
        <time>2019-05-17T06:34:18Z</time>
      </trkpt>
      <trkpt lat="47.78576" lon="6.84425">
        <ele>699</ele>
        <time>2019-05-17T06:34:19Z</time>
      </trkpt>
      <trkpt lat="47.78578" lon="6.84427">
        <ele>699.4</ele>
        <time>2019-05-17T06:34:20Z</time>
      </trkpt>
      <trkpt lat="47.78578" lon="6.84429">
        <ele>699.8</ele>
        <time>2019-05-17T06:34:21Z</time>
      </trkpt>
      <trkpt lat="47.78579" lon="6.84431">
        <ele>700.2</ele>
        <time>2019-05-17T06:34:22Z</time>
      </trkpt>
      <trkpt lat="47.78581" lon="6.84436">
        <ele>700.2</ele>
        <time>2019-05-17T06:34:24Z</time>
      </trkpt>
      <trkpt lat="47.78583" lon="6.84438">
        <ele>700.6</ele>
        <time>2019-05-17T06:34:25Z</time>
      </trkpt>
      <trkpt lat="47.78583" lon="6.8444">
        <ele>701</ele>
        <time>2019-05-17T06:34:26Z</time>
      </trkpt>
      <trkpt lat="47.78584" lon="6.84442">
        <ele>701.4</ele>
        <time>2019-05-17T06:34:27Z</time>
      </trkpt>
      <trkpt lat="47.78585" lon="6.84443">
        <ele>701.8</ele>
        <time>2019-05-17T06:34:28Z</time>
      </trkpt>
      <trkpt lat="47.78586" lon="6.84445">
        <ele>702.4</ele>
        <time>2019-05-17T06:34:29Z</time>
      </trkpt>
      <trkpt lat="47.78586" lon="6.84447">
        <ele>702.4</ele>
        <time>2019-05-17T06:34:30Z</time>
      </trkpt>
      <trkpt lat="47.78588" lon="6.84452">
        <ele>702.8</ele>
        <time>2019-05-17T06:34:32Z</time>
      </trkpt>
      <trkpt lat="47.78588" lon="6.84454">
        <ele>703.2</ele>
        <time>2019-05-17T06:34:33Z</time>
      </trkpt>
      <trkpt lat="47.78589" lon="6.84456">
        <ele>703.6</ele>
        <time>2019-05-17T06:34:34Z</time>
      </trkpt>
      <trkpt lat="47.7859" lon="6.84458">
        <ele>704</ele>
        <time>2019-05-17T06:34:35Z</time>
      </trkpt>
      <trkpt lat="47.78591" lon="6.8446">
        <ele>704.4</ele>
        <time>2019-05-17T06:34:36Z</time>
      </trkpt>
      <trkpt lat="47.78592" lon="6.84466">
        <ele>704.8</ele>
        <time>2019-05-17T06:34:40Z</time>
      </trkpt>
      <trkpt lat="47.78592" lon="6.84468">
        <ele>705.2</ele>
        <time>2019-05-17T06:34:41Z</time>
      </trkpt>
      <trkpt lat="47.78592" lon="6.8447">
        <ele>705.6</ele>
        <time>2019-05-17T06:34:42Z</time>
      </trkpt>
      <trkpt lat="47.78592" lon="6.84472">
        <ele>706</ele>
        <time>2019-05-17T06:34:43Z</time>
      </trkpt>
      <trkpt lat="47.78592" lon="6.84474">
        <ele>706.4</ele>
        <time>2019-05-17T06:34:44Z</time>
      </trkpt>
      <trkpt lat="47.78595" lon="6.84479">
        <ele>706.4</ele>
        <time>2019-05-17T06:34:47Z</time>
      </trkpt>
      <trkpt lat="47.78597" lon="6.84481">
        <ele>706.8</ele>
        <time>2019-05-17T06:34:48Z</time>
      </trkpt>
      <trkpt lat="47.78598" lon="6.84482">
        <ele>707.6</ele>
        <time>2019-05-17T06:34:49Z</time>
      </trkpt>
      <trkpt lat="47.78599" lon="6.84484">
        <ele>708</ele>
        <time>2019-05-17T06:34:50Z</time>
      </trkpt>
      <trkpt lat="47.786" lon="6.84487">
        <ele>708.6</ele>
        <time>2019-05-17T06:34:51Z</time>
      </trkpt>
      <trkpt lat="47.78601" lon="6.8449">
        <ele>708.6</ele>
        <time>2019-05-17T06:34:52Z</time>
      </trkpt>
      <trkpt lat="47.78603" lon="6.84496">
        <ele>709</ele>
        <time>2019-05-17T06:34:55Z</time>
      </trkpt>
      <trkpt lat="47.78605" lon="6.845">
        <ele>709.4</ele>
        <time>2019-05-17T06:34:56Z</time>
      </trkpt>
      <trkpt lat="47.78605" lon="6.84502">
        <ele>709.8</ele>
        <time>2019-05-17T06:34:57Z</time>
      </trkpt>
      <trkpt lat="47.78606" lon="6.84505">
        <ele>710.2</ele>
        <time>2019-05-17T06:34:58Z</time>
      </trkpt>
      <trkpt lat="47.78607" lon="6.84507">
        <ele>710.8</ele>
        <time>2019-05-17T06:34:59Z</time>
      </trkpt>
      <trkpt lat="47.78611" lon="6.84519">
        <ele>711.2</ele>
        <time>2019-05-17T06:35:05Z</time>
      </trkpt>
      <trkpt lat="47.78611" lon="6.84521">
        <ele>711.6</ele>
        <time>2019-05-17T06:35:06Z</time>
      </trkpt>
      <trkpt lat="47.78612" lon="6.84523">
        <ele>712</ele>
        <time>2019-05-17T06:35:07Z</time>
      </trkpt>
      <trkpt lat="47.78613" lon="6.84526">
        <ele>712.4</ele>
        <time>2019-05-17T06:35:08Z</time>
      </trkpt>
      <trkpt lat="47.78613" lon="6.84528">
        <ele>712.8</ele>
        <time>2019-05-17T06:35:09Z</time>
      </trkpt>
      <trkpt lat="47.78614" lon="6.84533">
        <ele>712.8</ele>
        <time>2019-05-17T06:35:11Z</time>
      </trkpt>
      <trkpt lat="47.78614" lon="6.84536">
        <ele>713.2</ele>
        <time>2019-05-17T06:35:13Z</time>
      </trkpt>
      <trkpt lat="47.78614" lon="6.84538">
        <ele>714.2</ele>
        <time>2019-05-17T06:35:14Z</time>
      </trkpt>
      <trkpt lat="47.78614" lon="6.8454">
        <ele>714.6</ele>
        <time>2019-05-17T06:35:15Z</time>
      </trkpt>
      <trkpt lat="47.78614" lon="6.84541">
        <ele>715</ele>
        <time>2019-05-17T06:35:16Z</time>
      </trkpt>
      <trkpt lat="47.78616" lon="6.84548">
        <ele>715.4</ele>
        <time>2019-05-17T06:35:19Z</time>
      </trkpt>
      <trkpt lat="47.78616" lon="6.84551">
        <ele>715.8</ele>
        <time>2019-05-17T06:35:20Z</time>
      </trkpt>
      <trkpt lat="47.78616" lon="6.84553">
        <ele>716.2</ele>
        <time>2019-05-17T06:35:21Z</time>
      </trkpt>
      <trkpt lat="47.78617" lon="6.84554">
        <ele>716.6</ele>
        <time>2019-05-17T06:35:22Z</time>
      </trkpt>
      <trkpt lat="47.78618" lon="6.84556">
        <ele>717</ele>
        <time>2019-05-17T06:35:23Z</time>
      </trkpt>
      <trkpt lat="47.78621" lon="6.84562">
        <ele>717</ele>
        <time>2019-05-17T06:35:26Z</time>
      </trkpt>
      <trkpt lat="47.78624" lon="6.84571">
        <ele>717.4</ele>
        <time>2019-05-17T06:35:29Z</time>
      </trkpt>
      <trkpt lat="47.78625" lon="6.84573">
        <ele>718</ele>
        <time>2019-05-17T06:35:30Z</time>
      </trkpt>
      <trkpt lat="47.78626" lon="6.84575">
        <ele>718.4</ele>
        <time>2019-05-17T06:35:31Z</time>
      </trkpt>
      <trkpt lat="47.78626" lon="6.84578">
        <ele>718.8</ele>
        <time>2019-05-17T06:35:32Z</time>
      </trkpt>
      <trkpt lat="47.78627" lon="6.8458">
        <ele>719.2</ele>
        <time>2019-05-17T06:35:33Z</time>
      </trkpt>
      <trkpt lat="47.78627" lon="6.84583">
        <ele>719.2</ele>
        <time>2019-05-17T06:35:34Z</time>
      </trkpt>
      <trkpt lat="47.78628" lon="6.84591">
        <ele>719.8</ele>
        <time>2019-05-17T06:35:38Z</time>
      </trkpt>
      <trkpt lat="47.78628" lon="6.84594">
        <ele>720.6</ele>
        <time>2019-05-17T06:35:39Z</time>
      </trkpt>
      <trkpt lat="47.78629" lon="6.84596">
        <ele>721</ele>
        <time>2019-05-17T06:35:40Z</time>
      </trkpt>
      <trkpt lat="47.78629" lon="6.84599">
        <ele>721.4</ele>
        <time>2019-05-17T06:35:41Z</time>
      </trkpt>
      <trkpt lat="47.78629" lon="6.84603">
        <ele>721.4</ele>
        <time>2019-05-17T06:35:43Z</time>
      </trkpt>
      <trkpt lat="47.7863" lon="6.84605">
        <ele>721.4</ele>
        <time>2019-05-17T06:35:44Z</time>
      </trkpt>
      <trkpt lat="47.78631" lon="6.8461">
        <ele>721.8</ele>
        <time>2019-05-17T06:35:46Z</time>
      </trkpt>
      <trkpt lat="47.78632" lon="6.84613">
        <ele>722.4</ele>
        <time>2019-05-17T06:35:47Z</time>
      </trkpt>
      <trkpt lat="47.78632" lon="6.84615">
        <ele>722.8</ele>
        <time>2019-05-17T06:35:48Z</time>
      </trkpt>
      <trkpt lat="47.78632" lon="6.84618">
        <ele>723.2</ele>
        <time>2019-05-17T06:35:49Z</time>
      </trkpt>
      <trkpt lat="47.78632" lon="6.8462">
        <ele>723.6</ele>
        <time>2019-05-17T06:35:50Z</time>
      </trkpt>
      <trkpt lat="47.78633" lon="6.84635">
        <ele>724</ele>
        <time>2019-05-17T06:35:56Z</time>
      </trkpt>
      <trkpt lat="47.78633" lon="6.84637">
        <ele>724.6</ele>
        <time>2019-05-17T06:35:57Z</time>
      </trkpt>
      <trkpt lat="47.78633" lon="6.84639">
        <ele>725</ele>
        <time>2019-05-17T06:35:58Z</time>
      </trkpt>
      <trkpt lat="47.78633" lon="6.84642">
        <ele>725.4</ele>
        <time>2019-05-17T06:35:59Z</time>
      </trkpt>
      <trkpt lat="47.78633" lon="6.84644">
        <ele>725.8</ele>
        <time>2019-05-17T06:36:00Z</time>
      </trkpt>
      <trkpt lat="47.78634" lon="6.8465">
        <ele>726.6</ele>
        <time>2019-05-17T06:36:03Z</time>
      </trkpt>
      <trkpt lat="47.78634" lon="6.84651">
        <ele>727.2</ele>
        <time>2019-05-17T06:36:04Z</time>
      </trkpt>
      <trkpt lat="47.78634" lon="6.84653">
        <ele>727.6</ele>
        <time>2019-05-17T06:36:05Z</time>
      </trkpt>
      <trkpt lat="47.78635" lon="6.84656">
        <ele>728</ele>
        <time>2019-05-17T06:36:06Z</time>
      </trkpt>
      <trkpt lat="47.78636" lon="6.84662">
        <ele>728.4</ele>
        <time>2019-05-17T06:36:10Z</time>
      </trkpt>
      <trkpt lat="47.78636" lon="6.84664">
        <ele>728.8</ele>
        <time>2019-05-17T06:36:11Z</time>
      </trkpt>
      <trkpt lat="47.78636" lon="6.84666">
        <ele>729.2</ele>
        <time>2019-05-17T06:36:12Z</time>
      </trkpt>
      <trkpt lat="47.78636" lon="6.84669">
        <ele>729.6</ele>
        <time>2019-05-17T06:36:13Z</time>
      </trkpt>
      <trkpt lat="47.78636" lon="6.84671">
        <ele>730</ele>
        <time>2019-05-17T06:36:14Z</time>
      </trkpt>
      <trkpt lat="47.78637" lon="6.84673">
        <ele>730</ele>
        <time>2019-05-17T06:36:15Z</time>
      </trkpt>
      <trkpt lat="47.78639" lon="6.84682">
        <ele>730</ele>
        <time>2019-05-17T06:36:19Z</time>
      </trkpt>
      <trkpt lat="47.7864" lon="6.84684">
        <ele>730.4</ele>
        <time>2019-05-17T06:36:20Z</time>
      </trkpt>
      <trkpt lat="47.7864" lon="6.84687">
        <ele>730.8</ele>
        <time>2019-05-17T06:36:21Z</time>
      </trkpt>
      <trkpt lat="47.7864" lon="6.84689">
        <ele>731.4</ele>
        <time>2019-05-17T06:36:22Z</time>
      </trkpt>
      <trkpt lat="47.78641" lon="6.8469">
        <ele>731.8</ele>
        <time>2019-05-17T06:36:23Z</time>
      </trkpt>
      <trkpt lat="47.78641" lon="6.84692">
        <ele>732.2</ele>
        <time>2019-05-17T06:36:24Z</time>
      </trkpt>
      <trkpt lat="47.78644" lon="6.84697">
        <ele>732.2</ele>
        <time>2019-05-17T06:36:28Z</time>
      </trkpt>
      <trkpt lat="47.78644" lon="6.84699">
        <ele>732.6</ele>
        <time>2019-05-17T06:36:29Z</time>
      </trkpt>
      <trkpt lat="47.78644" lon="6.84701">
        <ele>733</ele>
        <time>2019-05-17T06:36:30Z</time>
      </trkpt>
      <trkpt lat="47.78644" lon="6.84703">
        <ele>733.4</ele>
        <time>2019-05-17T06:36:31Z</time>
      </trkpt>
      <trkpt lat="47.78644" lon="6.84705">
        <ele>734</ele>
        <time>2019-05-17T06:36:32Z</time>
      </trkpt>
      <trkpt lat="47.78645" lon="6.84706">
        <ele>734.4</ele>
        <time>2019-05-17T06:36:33Z</time>
      </trkpt>
      <trkpt lat="47.78646" lon="6.8471">
        <ele>734.4</ele>
        <time>2019-05-17T06:36:36Z</time>
      </trkpt>
      <trkpt lat="47.78648" lon="6.84713">
        <ele>734.8</ele>
        <time>2019-05-17T06:36:38Z</time>
      </trkpt>
      <trkpt lat="47.78648" lon="6.84714">
        <ele>735.2</ele>
        <time>2019-05-17T06:36:39Z</time>
      </trkpt>
      <trkpt lat="47.78649" lon="6.84716">
        <ele>735.6</ele>
        <time>2019-05-17T06:36:40Z</time>
      </trkpt>
      <trkpt lat="47.78649" lon="6.84717">
        <ele>736</ele>
        <time>2019-05-17T06:36:41Z</time>
      </trkpt>
      <trkpt lat="47.78649" lon="6.84719">
        <ele>736.4</ele>
        <time>2019-05-17T06:36:42Z</time>
      </trkpt>
      <trkpt lat="47.78652" lon="6.84726">
        <ele>736.4</ele>
        <time>2019-05-17T06:36:45Z</time>
      </trkpt>
      <trkpt lat="47.78653" lon="6.84728">
        <ele>736.8</ele>
        <time>2019-05-17T06:36:46Z</time>
      </trkpt>
      <trkpt lat="47.78654" lon="6.8473">
        <ele>737.2</ele>
        <time>2019-05-17T06:36:47Z</time>
      </trkpt>
      <trkpt lat="47.78654" lon="6.84732">
        <ele>737.6</ele>
        <time>2019-05-17T06:36:48Z</time>
      </trkpt>
      <trkpt lat="47.78655" lon="6.84734">
        <ele>738</ele>
        <time>2019-05-17T06:36:49Z</time>
      </trkpt>
      <trkpt lat="47.78656" lon="6.84736">
        <ele>738.4</ele>
        <time>2019-05-17T06:36:50Z</time>
      </trkpt>
      <trkpt lat="47.78657" lon="6.84739">
        <ele>738.4</ele>
        <time>2019-05-17T06:36:51Z</time>
      </trkpt>
      <trkpt lat="47.78658" lon="6.84744">
        <ele>738.4</ele>
        <time>2019-05-17T06:36:53Z</time>
      </trkpt>
      <trkpt lat="47.78658" lon="6.84746">
        <ele>738.8</ele>
        <time>2019-05-17T06:36:54Z</time>
      </trkpt>
      <trkpt lat="47.78658" lon="6.84748">
        <ele>739.4</ele>
        <time>2019-05-17T06:36:55Z</time>
      </trkpt>
      <trkpt lat="47.78659" lon="6.8475">
        <ele>739.8</ele>
        <time>2019-05-17T06:36:56Z</time>
      </trkpt>
      <trkpt lat="47.78659" lon="6.84751">
        <ele>740.2</ele>
        <time>2019-05-17T06:36:57Z</time>
      </trkpt>
      <trkpt lat="47.7866" lon="6.84752">
        <ele>740.6</ele>
        <time>2019-05-17T06:36:58Z</time>
      </trkpt>
      <trkpt lat="47.7866" lon="6.84754">
        <ele>740.6</ele>
        <time>2019-05-17T06:36:59Z</time>
      </trkpt>
      <trkpt lat="47.78661" lon="6.84759">
        <ele>740.6</ele>
        <time>2019-05-17T06:37:01Z</time>
      </trkpt>
      <trkpt lat="47.78663" lon="6.84763">
        <ele>741.2</ele>
        <time>2019-05-17T06:37:03Z</time>
      </trkpt>
      <trkpt lat="47.78665" lon="6.84766">
        <ele>741.6</ele>
        <time>2019-05-17T06:37:04Z</time>
      </trkpt>
      <trkpt lat="47.78666" lon="6.84769">
        <ele>742</ele>
        <time>2019-05-17T06:37:05Z</time>
      </trkpt>
      <trkpt lat="47.78667" lon="6.84772">
        <ele>742.4</ele>
        <time>2019-05-17T06:37:06Z</time>
      </trkpt>
      <trkpt lat="47.78669" lon="6.84774">
        <ele>742.8</ele>
        <time>2019-05-17T06:37:07Z</time>
      </trkpt>
      <trkpt lat="47.7867" lon="6.84776">
        <ele>742.8</ele>
        <time>2019-05-17T06:37:08Z</time>
      </trkpt>
      <trkpt lat="47.78673" lon="6.84783">
        <ele>743.2</ele>
        <time>2019-05-17T06:37:12Z</time>
      </trkpt>
      <trkpt lat="47.78674" lon="6.84785">
        <ele>743.6</ele>
        <time>2019-05-17T06:37:13Z</time>
      </trkpt>
      <trkpt lat="47.78675" lon="6.84787">
        <ele>744.2</ele>
        <time>2019-05-17T06:37:14Z</time>
      </trkpt>
      <trkpt lat="47.78675" lon="6.84789">
        <ele>744.6</ele>
        <time>2019-05-17T06:37:15Z</time>
      </trkpt>
      <trkpt lat="47.78676" lon="6.84791">
        <ele>745</ele>
        <time>2019-05-17T06:37:16Z</time>
      </trkpt>
      <trkpt lat="47.78676" lon="6.84798">
        <ele>745.4</ele>
        <time>2019-05-17T06:37:20Z</time>
      </trkpt>
      <trkpt lat="47.78676" lon="6.848">
        <ele>745.8</ele>
        <time>2019-05-17T06:37:21Z</time>
      </trkpt>
      <trkpt lat="47.78677" lon="6.84801">
        <ele>746.2</ele>
        <time>2019-05-17T06:37:22Z</time>
      </trkpt>
      <trkpt lat="47.78677" lon="6.84802">
        <ele>746.6</ele>
        <time>2019-05-17T06:37:23Z</time>
      </trkpt>
      <trkpt lat="47.78677" lon="6.84804">
        <ele>747</ele>
        <time>2019-05-17T06:37:24Z</time>
      </trkpt>
      <trkpt lat="47.78678" lon="6.84807">
        <ele>747</ele>
        <time>2019-05-17T06:37:26Z</time>
      </trkpt>
      <trkpt lat="47.7868" lon="6.84815">
        <ele>747.4</ele>
        <time>2019-05-17T06:37:30Z</time>
      </trkpt>
      <trkpt lat="47.78681" lon="6.84817">
        <ele>747.8</ele>
        <time>2019-05-17T06:37:31Z</time>
      </trkpt>
      <trkpt lat="47.78681" lon="6.8482">
        <ele>748.2</ele>
        <time>2019-05-17T06:37:32Z</time>
      </trkpt>
      <trkpt lat="47.78681" lon="6.84821">
        <ele>748.8</ele>
        <time>2019-05-17T06:37:33Z</time>
      </trkpt>
      <trkpt lat="47.78682" lon="6.84824">
        <ele>749.2</ele>
        <time>2019-05-17T06:37:34Z</time>
      </trkpt>
      <trkpt lat="47.78687" lon="6.84835">
        <ele>749.6</ele>
        <time>2019-05-17T06:37:39Z</time>
      </trkpt>
      <trkpt lat="47.78687" lon="6.84836">
        <ele>750</ele>
        <time>2019-05-17T06:37:40Z</time>
      </trkpt>
      <trkpt lat="47.78688" lon="6.84837">
        <ele>750.4</ele>
        <time>2019-05-17T06:37:41Z</time>
      </trkpt>
      <trkpt lat="47.78687" lon="6.8484">
        <ele>751.2</ele>
        <time>2019-05-17T06:37:42Z</time>
      </trkpt>
      <trkpt lat="47.78688" lon="6.84847">
        <ele>751.2</ele>
        <time>2019-05-17T06:37:45Z</time>
      </trkpt>
      <trkpt lat="47.78691" lon="6.84851">
        <ele>751.6</ele>
        <time>2019-05-17T06:37:48Z</time>
      </trkpt>
      <trkpt lat="47.78692" lon="6.84853">
        <ele>752</ele>
        <time>2019-05-17T06:37:49Z</time>
      </trkpt>
      <trkpt lat="47.78694" lon="6.84855">
        <ele>752.4</ele>
        <time>2019-05-17T06:37:50Z</time>
      </trkpt>
      <trkpt lat="47.78694" lon="6.84857">
        <ele>752.8</ele>
        <time>2019-05-17T06:37:51Z</time>
      </trkpt>
      <trkpt lat="47.78696" lon="6.84858">
        <ele>753.2</ele>
        <time>2019-05-17T06:37:52Z</time>
      </trkpt>
      <trkpt lat="47.78699" lon="6.84869">
        <ele>753.8</ele>
        <time>2019-05-17T06:37:57Z</time>
      </trkpt>
      <trkpt lat="47.787" lon="6.84872">
        <ele>754.2</ele>
        <time>2019-05-17T06:37:58Z</time>
      </trkpt>
      <trkpt lat="47.78701" lon="6.84874">
        <ele>754.6</ele>
        <time>2019-05-17T06:37:59Z</time>
      </trkpt>
      <trkpt lat="47.78702" lon="6.84876">
        <ele>755</ele>
        <time>2019-05-17T06:38:00Z</time>
      </trkpt>
      <trkpt lat="47.78703" lon="6.84878">
        <ele>755.6</ele>
        <time>2019-05-17T06:38:01Z</time>
      </trkpt>
      <trkpt lat="47.78707" lon="6.84884">
        <ele>755.6</ele>
        <time>2019-05-17T06:38:04Z</time>
      </trkpt>
      <trkpt lat="47.78709" lon="6.84887">
        <ele>756</ele>
        <time>2019-05-17T06:38:05Z</time>
      </trkpt>
      <trkpt lat="47.78711" lon="6.84889">
        <ele>756.4</ele>
        <time>2019-05-17T06:38:06Z</time>
      </trkpt>
      <trkpt lat="47.78712" lon="6.84891">
        <ele>757.2</ele>
        <time>2019-05-17T06:38:07Z</time>
      </trkpt>
      <trkpt lat="47.78713" lon="6.84893">
        <ele>757.6</ele>
        <time>2019-05-17T06:38:08Z</time>
      </trkpt>
      <trkpt lat="47.78718" lon="6.84899">
        <ele>757.6</ele>
        <time>2019-05-17T06:38:12Z</time>
      </trkpt>
      <trkpt lat="47.78718" lon="6.849">
        <ele>758</ele>
        <time>2019-05-17T06:38:13Z</time>
      </trkpt>
      <trkpt lat="47.78719" lon="6.84902">
        <ele>758.4</ele>
        <time>2019-05-17T06:38:14Z</time>
      </trkpt>
      <trkpt lat="47.78719" lon="6.84905">
        <ele>758.8</ele>
        <time>2019-05-17T06:38:15Z</time>
      </trkpt>
      <trkpt lat="47.7872" lon="6.84907">
        <ele>759.2</ele>
        <time>2019-05-17T06:38:16Z</time>
      </trkpt>
      <trkpt lat="47.78721" lon="6.84909">
        <ele>759.6</ele>
        <time>2019-05-17T06:38:17Z</time>
      </trkpt>
      <trkpt lat="47.78723" lon="6.84913">
        <ele>759.6</ele>
        <time>2019-05-17T06:38:19Z</time>
      </trkpt>
      <trkpt lat="47.78725" lon="6.84915">
        <ele>759.6</ele>
        <time>2019-05-17T06:38:20Z</time>
      </trkpt>
      <trkpt lat="47.78726" lon="6.84919">
        <ele>760</ele>
        <time>2019-05-17T06:38:22Z</time>
      </trkpt>
      <trkpt lat="47.78726" lon="6.84921">
        <ele>760.6</ele>
        <time>2019-05-17T06:38:23Z</time>
      </trkpt>
      <trkpt lat="47.78726" lon="6.84922">
        <ele>761</ele>
        <time>2019-05-17T06:38:24Z</time>
      </trkpt>
      <trkpt lat="47.78726" lon="6.84924">
        <ele>761.4</ele>
        <time>2019-05-17T06:38:25Z</time>
      </trkpt>
      <trkpt lat="47.78725" lon="6.84926">
        <ele>761.8</ele>
        <time>2019-05-17T06:38:26Z</time>
      </trkpt>
      <trkpt lat="47.78725" lon="6.84929">
        <ele>761.8</ele>
        <time>2019-05-17T06:38:28Z</time>
      </trkpt>
      <trkpt lat="47.78724" lon="6.84937">
        <ele>762.2</ele>
        <time>2019-05-17T06:38:31Z</time>
      </trkpt>
      <trkpt lat="47.78724" lon="6.84939">
        <ele>763</ele>
        <time>2019-05-17T06:38:32Z</time>
      </trkpt>
      <trkpt lat="47.78724" lon="6.84941">
        <ele>763.4</ele>
        <time>2019-05-17T06:38:33Z</time>
      </trkpt>
      <trkpt lat="47.78724" lon="6.84943">
        <ele>763.8</ele>
        <time>2019-05-17T06:38:34Z</time>
      </trkpt>
      <trkpt lat="47.78724" lon="6.84946">
        <ele>763.8</ele>
        <time>2019-05-17T06:38:35Z</time>
      </trkpt>
      <trkpt lat="47.78725" lon="6.8495">
        <ele>763.8</ele>
        <time>2019-05-17T06:38:37Z</time>
      </trkpt>
      <trkpt lat="47.78725" lon="6.84955">
        <ele>763.8</ele>
        <time>2019-05-17T06:38:39Z</time>
      </trkpt>
      <trkpt lat="47.78724" lon="6.84956">
        <ele>764.4</ele>
        <time>2019-05-17T06:38:40Z</time>
      </trkpt>
      <trkpt lat="47.78723" lon="6.84958">
        <ele>764.8</ele>
        <time>2019-05-17T06:38:41Z</time>
      </trkpt>
      <trkpt lat="47.78722" lon="6.8496">
        <ele>765.2</ele>
        <time>2019-05-17T06:38:42Z</time>
      </trkpt>
      <trkpt lat="47.78721" lon="6.84962">
        <ele>765.6</ele>
        <time>2019-05-17T06:38:43Z</time>
      </trkpt>
      <trkpt lat="47.78721" lon="6.84964">
        <ele>766</ele>
        <time>2019-05-17T06:38:44Z</time>
      </trkpt>
      <trkpt lat="47.78721" lon="6.8497">
        <ele>766</ele>
        <time>2019-05-17T06:38:47Z</time>
      </trkpt>
      <trkpt lat="47.78721" lon="6.84975">
        <ele>766.4</ele>
        <time>2019-05-17T06:38:49Z</time>
      </trkpt>
      <trkpt lat="47.78721" lon="6.84977">
        <ele>766.8</ele>
        <time>2019-05-17T06:38:50Z</time>
      </trkpt>
      <trkpt lat="47.78721" lon="6.84978">
        <ele>767.4</ele>
        <time>2019-05-17T06:38:51Z</time>
      </trkpt>
      <trkpt lat="47.78721" lon="6.8498">
        <ele>767.8</ele>
        <time>2019-05-17T06:38:52Z</time>
      </trkpt>
      <trkpt lat="47.7872" lon="6.84982">
        <ele>768.2</ele>
        <time>2019-05-17T06:38:53Z</time>
      </trkpt>
      <trkpt lat="47.78715" lon="6.84991">
        <ele>768.2</ele>
        <time>2019-05-17T06:38:57Z</time>
      </trkpt>
      <trkpt lat="47.78714" lon="6.84993">
        <ele>768.6</ele>
        <time>2019-05-17T06:38:58Z</time>
      </trkpt>
      <trkpt lat="47.78714" lon="6.84995">
        <ele>769</ele>
        <time>2019-05-17T06:38:59Z</time>
      </trkpt>
      <trkpt lat="47.78713" lon="6.84996">
        <ele>769.4</ele>
        <time>2019-05-17T06:39:00Z</time>
      </trkpt>
      <trkpt lat="47.78713" lon="6.84998">
        <ele>770</ele>
        <time>2019-05-17T06:39:01Z</time>
      </trkpt>
      <trkpt lat="47.78713" lon="6.85">
        <ele>770.4</ele>
        <time>2019-05-17T06:39:02Z</time>
      </trkpt>
      <trkpt lat="47.78712" lon="6.85002">
        <ele>770.4</ele>
        <time>2019-05-17T06:39:03Z</time>
      </trkpt>
      <trkpt lat="47.78712" lon="6.85013">
        <ele>770.4</ele>
        <time>2019-05-17T06:39:08Z</time>
      </trkpt>
      <trkpt lat="47.78711" lon="6.85015">
        <ele>770.8</ele>
        <time>2019-05-17T06:39:09Z</time>
      </trkpt>
      <trkpt lat="47.78711" lon="6.85016">
        <ele>771.2</ele>
        <time>2019-05-17T06:39:10Z</time>
      </trkpt>
      <trkpt lat="47.78711" lon="6.85018">
        <ele>771.6</ele>
        <time>2019-05-17T06:39:11Z</time>
      </trkpt>
      <trkpt lat="47.7871" lon="6.85021">
        <ele>772</ele>
        <time>2019-05-17T06:39:12Z</time>
      </trkpt>
      <trkpt lat="47.78709" lon="6.85022">
        <ele>772.4</ele>
        <time>2019-05-17T06:39:13Z</time>
      </trkpt>
      <trkpt lat="47.78708" lon="6.85023">
        <ele>772.4</ele>
        <time>2019-05-17T06:39:14Z</time>
      </trkpt>
      <trkpt lat="47.78705" lon="6.85031">
        <ele>772.4</ele>
        <time>2019-05-17T06:39:20Z</time>
      </trkpt>
      <trkpt lat="47.78705" lon="6.85038">
        <ele>774.4</ele>
        <time>2019-05-17T06:40:43Z</time>
      </trkpt>
      <trkpt lat="47.78707" lon="6.85046">
        <ele>774.4</ele>
        <time>2019-05-17T06:40:46Z</time>
      </trkpt>
      <trkpt lat="47.78711" lon="6.85056">
        <ele>774.4</ele>
        <time>2019-05-17T06:40:51Z</time>
      </trkpt>
      <trkpt lat="47.78711" lon="6.8506">
        <ele>774.4</ele>
        <time>2019-05-17T06:40:53Z</time>
      </trkpt>
      <trkpt lat="47.7871" lon="6.85067">
        <ele>774.8</ele>
        <time>2019-05-17T06:40:56Z</time>
      </trkpt>
      <trkpt lat="47.78709" lon="6.85068">
        <ele>775.2</ele>
        <time>2019-05-17T06:40:57Z</time>
      </trkpt>
      <trkpt lat="47.78709" lon="6.8507">
        <ele>775.6</ele>
        <time>2019-05-17T06:40:58Z</time>
      </trkpt>
      <trkpt lat="47.78708" lon="6.85073">
        <ele>776</ele>
        <time>2019-05-17T06:40:59Z</time>
      </trkpt>
      <trkpt lat="47.78709" lon="6.85077">
        <ele>776.4</ele>
        <time>2019-05-17T06:41:00Z</time>
      </trkpt>
      <trkpt lat="47.7871" lon="6.85081">
        <ele>776.4</ele>
        <time>2019-05-17T06:41:01Z</time>
      </trkpt>
      <trkpt lat="47.78712" lon="6.85088">
        <ele>777.2</ele>
        <time>2019-05-17T06:41:03Z</time>
      </trkpt>
      <trkpt lat="47.78712" lon="6.85091">
        <ele>777.8</ele>
        <time>2019-05-17T06:41:04Z</time>
      </trkpt>
      <trkpt lat="47.78712" lon="6.85094">
        <ele>778.2</ele>
        <time>2019-05-17T06:41:05Z</time>
      </trkpt>
      <trkpt lat="47.78712" lon="6.85097">
        <ele>778.6</ele>
        <time>2019-05-17T06:41:06Z</time>
      </trkpt>
      <trkpt lat="47.78712" lon="6.85099">
        <ele>778.6</ele>
        <time>2019-05-17T06:41:07Z</time>
      </trkpt>
      <trkpt lat="47.78713" lon="6.85106">
        <ele>779</ele>
        <time>2019-05-17T06:41:11Z</time>
      </trkpt>
      <trkpt lat="47.78713" lon="6.85108">
        <ele>779.4</ele>
        <time>2019-05-17T06:41:12Z</time>
      </trkpt>
      <trkpt lat="47.78714" lon="6.85111">
        <ele>780</ele>
        <time>2019-05-17T06:41:13Z</time>
      </trkpt>
      <trkpt lat="47.78714" lon="6.85112">
        <ele>780.4</ele>
        <time>2019-05-17T06:41:14Z</time>
      </trkpt>
      <trkpt lat="47.78714" lon="6.85114">
        <ele>780.8</ele>
        <time>2019-05-17T06:41:15Z</time>
      </trkpt>
      <trkpt lat="47.78715" lon="6.85121">
        <ele>780.8</ele>
        <time>2019-05-17T06:41:20Z</time>
      </trkpt>
      <trkpt lat="47.78716" lon="6.85122">
        <ele>781.2</ele>
        <time>2019-05-17T06:41:21Z</time>
      </trkpt>
      <trkpt lat="47.78718" lon="6.85123">
        <ele>781.6</ele>
        <time>2019-05-17T06:41:22Z</time>
      </trkpt>
      <trkpt lat="47.78719" lon="6.85123">
        <ele>782</ele>
        <time>2019-05-17T06:41:23Z</time>
      </trkpt>
      <trkpt lat="47.7872" lon="6.85123">
        <ele>782.6</ele>
        <time>2019-05-17T06:41:24Z</time>
      </trkpt>
      <trkpt lat="47.78722" lon="6.85121">
        <ele>783</ele>
        <time>2019-05-17T06:41:25Z</time>
      </trkpt>
      <trkpt lat="47.78728" lon="6.85114">
        <ele>783</ele>
        <time>2019-05-17T06:41:30Z</time>
      </trkpt>
      <trkpt lat="47.78729" lon="6.85109">
        <ele>783.4</ele>
        <time>2019-05-17T06:41:33Z</time>
      </trkpt>
      <trkpt lat="47.7873" lon="6.85108">
        <ele>783.8</ele>
        <time>2019-05-17T06:41:34Z</time>
      </trkpt>
      <trkpt lat="47.78733" lon="6.85107">
        <ele>784.2</ele>
        <time>2019-05-17T06:41:35Z</time>
      </trkpt>
      <trkpt lat="47.78734" lon="6.85105">
        <ele>784.8</ele>
        <time>2019-05-17T06:41:36Z</time>
      </trkpt>
      <trkpt lat="47.78735" lon="6.85103">
        <ele>785.2</ele>
        <time>2019-05-17T06:41:37Z</time>
      </trkpt>
      <trkpt lat="47.78735" lon="6.851">
        <ele>785.2</ele>
        <time>2019-05-17T06:41:38Z</time>
      </trkpt>
      <trkpt lat="47.78735" lon="6.85098">
        <ele>785.2</ele>
        <time>2019-05-17T06:41:39Z</time>
      </trkpt>
      <trkpt lat="47.78736" lon="6.85091">
        <ele>785.6</ele>
        <time>2019-05-17T06:41:42Z</time>
      </trkpt>
      <trkpt lat="47.78737" lon="6.85089">
        <ele>786</ele>
        <time>2019-05-17T06:41:43Z</time>
      </trkpt>
      <trkpt lat="47.78738" lon="6.85088">
        <ele>786.4</ele>
        <time>2019-05-17T06:41:44Z</time>
      </trkpt>
      <trkpt lat="47.78738" lon="6.85086">
        <ele>786.8</ele>
        <time>2019-05-17T06:41:45Z</time>
      </trkpt>
      <trkpt lat="47.78739" lon="6.85084">
        <ele>787.2</ele>
        <time>2019-05-17T06:41:46Z</time>
      </trkpt>
      <trkpt lat="47.78745" lon="6.8508">
        <ele>787.2</ele>
        <time>2019-05-17T06:41:50Z</time>
      </trkpt>
      <trkpt lat="47.78747" lon="6.85079">
        <ele>787.6</ele>
        <time>2019-05-17T06:41:51Z</time>
      </trkpt>
      <trkpt lat="47.78748" lon="6.85077">
        <ele>788.6</ele>
        <time>2019-05-17T06:41:52Z</time>
      </trkpt>
      <trkpt lat="47.7875" lon="6.85076">
        <ele>789</ele>
        <time>2019-05-17T06:41:53Z</time>
      </trkpt>
      <trkpt lat="47.78751" lon="6.85075">
        <ele>789.4</ele>
        <time>2019-05-17T06:41:54Z</time>
      </trkpt>
      <trkpt lat="47.78753" lon="6.85073">
        <ele>789.4</ele>
        <time>2019-05-17T06:41:55Z</time>
      </trkpt>
      <trkpt lat="47.78758" lon="6.85067">
        <ele>789.8</ele>
        <time>2019-05-17T06:42:00Z</time>
      </trkpt>
      <trkpt lat="47.78758" lon="6.85065">
        <ele>790.2</ele>
        <time>2019-05-17T06:42:01Z</time>
      </trkpt>
      <trkpt lat="47.78758" lon="6.85063">
        <ele>790.8</ele>
        <time>2019-05-17T06:42:02Z</time>
      </trkpt>
      <trkpt lat="47.78758" lon="6.85061">
        <ele>791.2</ele>
        <time>2019-05-17T06:42:03Z</time>
      </trkpt>
      <trkpt lat="47.78759" lon="6.85059">
        <ele>791.6</ele>
        <time>2019-05-17T06:42:04Z</time>
      </trkpt>
      <trkpt lat="47.78763" lon="6.85054">
        <ele>791.6</ele>
        <time>2019-05-17T06:42:06Z</time>
      </trkpt>
      <trkpt lat="47.7877" lon="6.85049">
        <ele>792</ele>
        <time>2019-05-17T06:42:10Z</time>
      </trkpt>
      <trkpt lat="47.78772" lon="6.85048">
        <ele>792.4</ele>
        <time>2019-05-17T06:42:11Z</time>
      </trkpt>
      <trkpt lat="47.78773" lon="6.85047">
        <ele>792.8</ele>
        <time>2019-05-17T06:42:12Z</time>
      </trkpt>
      <trkpt lat="47.78775" lon="6.85045">
        <ele>793.2</ele>
        <time>2019-05-17T06:42:13Z</time>
      </trkpt>
      <trkpt lat="47.78776" lon="6.85044">
        <ele>793.8</ele>
        <time>2019-05-17T06:42:14Z</time>
      </trkpt>
      <trkpt lat="47.78778" lon="6.85038">
        <ele>793.8</ele>
        <time>2019-05-17T06:42:17Z</time>
      </trkpt>
      <trkpt lat="47.78778" lon="6.85035">
        <ele>794.2</ele>
        <time>2019-05-17T06:42:18Z</time>
      </trkpt>
      <trkpt lat="47.78778" lon="6.85033">
        <ele>794.6</ele>
        <time>2019-05-17T06:42:19Z</time>
      </trkpt>
      <trkpt lat="47.78778" lon="6.8503">
        <ele>795</ele>
        <time>2019-05-17T06:42:20Z</time>
      </trkpt>
      <trkpt lat="47.78777" lon="6.85027">
        <ele>795.4</ele>
        <time>2019-05-17T06:42:21Z</time>
      </trkpt>
      <trkpt lat="47.78775" lon="6.85023">
        <ele>795.8</ele>
        <time>2019-05-17T06:42:22Z</time>
      </trkpt>
      <trkpt lat="47.78774" lon="6.85019">
        <ele>795.8</ele>
        <time>2019-05-17T06:42:23Z</time>
      </trkpt>
      <trkpt lat="47.78775" lon="6.85005">
        <ele>795.8</ele>
        <time>2019-05-17T06:42:27Z</time>
      </trkpt>
      <trkpt lat="47.78776" lon="6.85003">
        <ele>796.2</ele>
        <time>2019-05-17T06:42:28Z</time>
      </trkpt>
      <trkpt lat="47.78778" lon="6.85001">
        <ele>796.6</ele>
        <time>2019-05-17T06:42:29Z</time>
      </trkpt>
      <trkpt lat="47.78779" lon="6.84999">
        <ele>797</ele>
        <time>2019-05-17T06:42:30Z</time>
      </trkpt>
      <trkpt lat="47.7878" lon="6.84996">
        <ele>797.6</ele>
        <time>2019-05-17T06:42:31Z</time>
      </trkpt>
      <trkpt lat="47.78781" lon="6.84994">
        <ele>798</ele>
        <time>2019-05-17T06:42:32Z</time>
      </trkpt>
      <trkpt lat="47.7879" lon="6.84983">
        <ele>798.4</ele>
        <time>2019-05-17T06:42:38Z</time>
      </trkpt>
      <trkpt lat="47.78791" lon="6.84982">
        <ele>798.8</ele>
        <time>2019-05-17T06:42:39Z</time>
      </trkpt>
      <trkpt lat="47.78793" lon="6.84982">
        <ele>799.2</ele>
        <time>2019-05-17T06:42:40Z</time>
      </trkpt>
      <trkpt lat="47.78794" lon="6.84981">
        <ele>799.8</ele>
        <time>2019-05-17T06:42:41Z</time>
      </trkpt>
      <trkpt lat="47.78795" lon="6.8498">
        <ele>800.2</ele>
        <time>2019-05-17T06:42:42Z</time>
      </trkpt>
      <trkpt lat="47.78797" lon="6.84978">
        <ele>800.2</ele>
        <time>2019-05-17T06:42:43Z</time>
      </trkpt>
      <trkpt lat="47.78801" lon="6.84973">
        <ele>800.6</ele>
        <time>2019-05-17T06:42:46Z</time>
      </trkpt>
      <trkpt lat="47.78803" lon="6.84971">
        <ele>801</ele>
        <time>2019-05-17T06:42:47Z</time>
      </trkpt>
      <trkpt lat="47.78804" lon="6.84969">
        <ele>801.4</ele>
        <time>2019-05-17T06:42:48Z</time>
      </trkpt>
      <trkpt lat="47.78805" lon="6.84967">
        <ele>801.8</ele>
        <time>2019-05-17T06:42:49Z</time>
      </trkpt>
      <trkpt lat="47.78806" lon="6.84965">
        <ele>802.2</ele>
        <time>2019-05-17T06:42:50Z</time>
      </trkpt>
      <trkpt lat="47.78808" lon="6.84959">
        <ele>802.2</ele>
        <time>2019-05-17T06:42:55Z</time>
      </trkpt>
      <trkpt lat="47.78808" lon="6.84957">
        <ele>802.6</ele>
        <time>2019-05-17T06:42:56Z</time>
      </trkpt>
      <trkpt lat="47.78808" lon="6.84955">
        <ele>803.2</ele>
        <time>2019-05-17T06:42:57Z</time>
      </trkpt>
      <trkpt lat="47.78808" lon="6.84952">
        <ele>803.6</ele>
        <time>2019-05-17T06:42:58Z</time>
      </trkpt>
      <trkpt lat="47.78808" lon="6.84951">
        <ele>804</ele>
        <time>2019-05-17T06:42:59Z</time>
      </trkpt>
      <trkpt lat="47.78809" lon="6.84948">
        <ele>804.4</ele>
        <time>2019-05-17T06:43:00Z</time>
      </trkpt>
      <trkpt lat="47.78811" lon="6.84946">
        <ele>804.4</ele>
        <time>2019-05-17T06:43:01Z</time>
      </trkpt>
      <trkpt lat="47.78817" lon="6.84936">
        <ele>804.4</ele>
        <time>2019-05-17T06:43:06Z</time>
      </trkpt>
      <trkpt lat="47.78819" lon="6.84934">
        <ele>804.8</ele>
        <time>2019-05-17T06:43:07Z</time>
      </trkpt>
      <trkpt lat="47.78819" lon="6.84932">
        <ele>805.2</ele>
        <time>2019-05-17T06:43:08Z</time>
      </trkpt>
      <trkpt lat="47.7882" lon="6.8493">
        <ele>805.6</ele>
        <time>2019-05-17T06:43:09Z</time>
      </trkpt>
      <trkpt lat="47.78822" lon="6.84927">
        <ele>806</ele>
        <time>2019-05-17T06:43:10Z</time>
      </trkpt>
      <trkpt lat="47.78823" lon="6.84925">
        <ele>806.4</ele>
        <time>2019-05-17T06:43:11Z</time>
      </trkpt>
      <trkpt lat="47.78829" lon="6.8492">
        <ele>806.4</ele>
        <time>2019-05-17T06:43:15Z</time>
      </trkpt>
      <trkpt lat="47.7883" lon="6.84913">
        <ele>807</ele>
        <time>2019-05-17T06:43:18Z</time>
      </trkpt>
      <trkpt lat="47.7883" lon="6.84911">
        <ele>807.4</ele>
        <time>2019-05-17T06:43:19Z</time>
      </trkpt>
      <trkpt lat="47.7883" lon="6.84909">
        <ele>807.8</ele>
        <time>2019-05-17T06:43:20Z</time>
      </trkpt>
      <trkpt lat="47.78831" lon="6.84907">
        <ele>808.2</ele>
        <time>2019-05-17T06:43:21Z</time>
      </trkpt>
      <trkpt lat="47.78833" lon="6.84905">
        <ele>808.6</ele>
        <time>2019-05-17T06:43:22Z</time>
      </trkpt>
      <trkpt lat="47.78842" lon="6.84897">
        <ele>808.6</ele>
        <time>2019-05-17T06:43:26Z</time>
      </trkpt>
      <trkpt lat="47.78845" lon="6.84887">
        <ele>809</ele>
        <time>2019-05-17T06:43:30Z</time>
      </trkpt>
      <trkpt lat="47.78845" lon="6.84884">
        <ele>810</ele>
        <time>2019-05-17T06:43:31Z</time>
      </trkpt>
      <trkpt lat="47.78845" lon="6.84881">
        <ele>810.4</ele>
        <time>2019-05-17T06:43:32Z</time>
      </trkpt>
      <trkpt lat="47.78846" lon="6.84879">
        <ele>810.8</ele>
        <time>2019-05-17T06:43:33Z</time>
      </trkpt>
      <trkpt lat="47.78848" lon="6.84866">
        <ele>810.8</ele>
        <time>2019-05-17T06:43:38Z</time>
      </trkpt>
      <trkpt lat="47.78849" lon="6.8486">
        <ele>810.8</ele>
        <time>2019-05-17T06:43:40Z</time>
      </trkpt>
      <trkpt lat="47.78848" lon="6.84858">
        <ele>811.4</ele>
        <time>2019-05-17T06:43:41Z</time>
      </trkpt>
      <trkpt lat="47.78849" lon="6.84855">
        <ele>811.8</ele>
        <time>2019-05-17T06:43:42Z</time>
      </trkpt>
      <trkpt lat="47.78849" lon="6.84852">
        <ele>812.2</ele>
        <time>2019-05-17T06:43:43Z</time>
      </trkpt>
      <trkpt lat="47.7885" lon="6.8485">
        <ele>812.6</ele>
        <time>2019-05-17T06:43:44Z</time>
      </trkpt>
      <trkpt lat="47.78851" lon="6.84847">
        <ele>813</ele>
        <time>2019-05-17T06:43:45Z</time>
      </trkpt>
      <trkpt lat="47.78852" lon="6.84843">
        <ele>813</ele>
        <time>2019-05-17T06:43:47Z</time>
      </trkpt>
      <trkpt lat="47.78853" lon="6.84841">
        <ele>813</ele>
        <time>2019-05-17T06:43:48Z</time>
      </trkpt>
      <trkpt lat="47.78856" lon="6.84834">
        <ele>813.4</ele>
        <time>2019-05-17T06:43:52Z</time>
      </trkpt>
      <trkpt lat="47.78858" lon="6.84833">
        <ele>813.8</ele>
        <time>2019-05-17T06:43:53Z</time>
      </trkpt>
      <trkpt lat="47.78859" lon="6.84832">
        <ele>814.6</ele>
        <time>2019-05-17T06:43:54Z</time>
      </trkpt>
      <trkpt lat="47.78859" lon="6.84831">
        <ele>815.2</ele>
        <time>2019-05-17T06:43:55Z</time>
      </trkpt>
      <trkpt lat="47.7886" lon="6.8483">
        <ele>815.2</ele>
        <time>2019-05-17T06:43:57Z</time>
      </trkpt>
      <trkpt lat="47.78863" lon="6.8483">
        <ele>815.2</ele>
        <time>2019-05-17T06:43:59Z</time>
      </trkpt>
      <trkpt lat="47.78866" lon="6.84833">
        <ele>815.6</ele>
        <time>2019-05-17T06:44:03Z</time>
      </trkpt>
      <trkpt lat="47.78866" lon="6.84833">
        <ele>816</ele>
        <time>2019-05-17T06:44:04Z</time>
      </trkpt>
      <trkpt lat="47.78867" lon="6.84834">
        <ele>816.4</ele>
        <time>2019-05-17T06:44:05Z</time>
      </trkpt>
      <trkpt lat="47.78868" lon="6.84835">
        <ele>816.8</ele>
        <time>2019-05-17T06:44:06Z</time>
      </trkpt>
      <trkpt lat="47.78869" lon="6.84836">
        <ele>817.2</ele>
        <time>2019-05-17T06:44:07Z</time>
      </trkpt>
      <trkpt lat="47.78872" lon="6.84838">
        <ele>817.2</ele>
        <time>2019-05-17T06:44:09Z</time>
      </trkpt>
      <trkpt lat="47.78876" lon="6.84844">
        <ele>817.6</ele>
        <time>2019-05-17T06:44:13Z</time>
      </trkpt>
      <trkpt lat="47.78876" lon="6.84845">
        <ele>818</ele>
        <time>2019-05-17T06:44:14Z</time>
      </trkpt>
      <trkpt lat="47.78878" lon="6.84847">
        <ele>818.4</ele>
        <time>2019-05-17T06:44:15Z</time>
      </trkpt>
      <trkpt lat="47.78879" lon="6.84847">
        <ele>818.8</ele>
        <time>2019-05-17T06:44:16Z</time>
      </trkpt>
      <trkpt lat="47.78879" lon="6.84848">
        <ele>819.2</ele>
        <time>2019-05-17T06:44:17Z</time>
      </trkpt>
      <trkpt lat="47.7888" lon="6.84849">
        <ele>819.2</ele>
        <time>2019-05-17T06:44:18Z</time>
      </trkpt>
      <trkpt lat="47.78882" lon="6.84851">
        <ele>819.6</ele>
        <time>2019-05-17T06:44:20Z</time>
      </trkpt>
      <trkpt lat="47.78884" lon="6.84852">
        <ele>820</ele>
        <time>2019-05-17T06:44:21Z</time>
      </trkpt>
      <trkpt lat="47.78885" lon="6.84854">
        <ele>820.4</ele>
        <time>2019-05-17T06:44:22Z</time>
      </trkpt>
      <trkpt lat="47.78886" lon="6.84855">
        <ele>820.8</ele>
        <time>2019-05-17T06:44:23Z</time>
      </trkpt>
      <trkpt lat="47.78887" lon="6.84856">
        <ele>821.2</ele>
        <time>2019-05-17T06:44:24Z</time>
      </trkpt>
      <trkpt lat="47.7889" lon="6.84857">
        <ele>821.2</ele>
        <time>2019-05-17T06:44:27Z</time>
      </trkpt>
      <trkpt lat="47.7889" lon="6.84858">
        <ele>821.6</ele>
        <time>2019-05-17T06:44:28Z</time>
      </trkpt>
      <trkpt lat="47.78891" lon="6.84857">
        <ele>822</ele>
        <time>2019-05-17T06:44:29Z</time>
      </trkpt>
      <trkpt lat="47.78892" lon="6.84858">
        <ele>822.4</ele>
        <time>2019-05-17T06:44:30Z</time>
      </trkpt>
      <trkpt lat="47.78893" lon="6.84859">
        <ele>822.8</ele>
        <time>2019-05-17T06:44:31Z</time>
      </trkpt>
      <trkpt lat="47.78894" lon="6.84861">
        <ele>823.2</ele>
        <time>2019-05-17T06:44:32Z</time>
      </trkpt>
      <trkpt lat="47.789" lon="6.84865">
        <ele>823.6</ele>
        <time>2019-05-17T06:44:36Z</time>
      </trkpt>
      <trkpt lat="47.78901" lon="6.84867">
        <ele>824</ele>
        <time>2019-05-17T06:44:37Z</time>
      </trkpt>
      <trkpt lat="47.78902" lon="6.84868">
        <ele>824.6</ele>
        <time>2019-05-17T06:44:38Z</time>
      </trkpt>
      <trkpt lat="47.78904" lon="6.84869">
        <ele>825</ele>
        <time>2019-05-17T06:44:39Z</time>
      </trkpt>
      <trkpt lat="47.78905" lon="6.84871">
        <ele>825.4</ele>
        <time>2019-05-17T06:44:40Z</time>
      </trkpt>
      <trkpt lat="47.78912" lon="6.84877">
        <ele>825.4</ele>
        <time>2019-05-17T06:44:43Z</time>
      </trkpt>
      <trkpt lat="47.78915" lon="6.8488">
        <ele>826.2</ele>
        <time>2019-05-17T06:44:44Z</time>
      </trkpt>
      <trkpt lat="47.78918" lon="6.84882">
        <ele>826.6</ele>
        <time>2019-05-17T06:44:45Z</time>
      </trkpt>
      <trkpt lat="47.78918" lon="6.84882">
        <ele>827</ele>
        <time>2019-05-17T06:44:46Z</time>
      </trkpt>
      <trkpt lat="47.78918" lon="6.84882">
        <ele>827.4</ele>
        <time>2019-05-17T06:44:47Z</time>
      </trkpt>
      <trkpt lat="47.7892" lon="6.84885">
        <ele>827.4</ele>
        <time>2019-05-17T06:44:50Z</time>
      </trkpt>
      <trkpt lat="47.78921" lon="6.84888">
        <ele>827.8</ele>
        <time>2019-05-17T06:44:52Z</time>
      </trkpt>
      <trkpt lat="47.78922" lon="6.8489">
        <ele>828.2</ele>
        <time>2019-05-17T06:44:53Z</time>
      </trkpt>
      <trkpt lat="47.78924" lon="6.84892">
        <ele>828.6</ele>
        <time>2019-05-17T06:44:54Z</time>
      </trkpt>
      <trkpt lat="47.78926" lon="6.84894">
        <ele>829</ele>
        <time>2019-05-17T06:44:55Z</time>
      </trkpt>
      <trkpt lat="47.78927" lon="6.84895">
        <ele>829.4</ele>
        <time>2019-05-17T06:44:56Z</time>
      </trkpt>
      <trkpt lat="47.7893" lon="6.84898">
        <ele>829.4</ele>
        <time>2019-05-17T06:44:58Z</time>
      </trkpt>
      <trkpt lat="47.78934" lon="6.84903">
        <ele>830</ele>
        <time>2019-05-17T06:45:01Z</time>
      </trkpt>
      <trkpt lat="47.78935" lon="6.84905">
        <ele>830.4</ele>
        <time>2019-05-17T06:45:02Z</time>
      </trkpt>
      <trkpt lat="47.78936" lon="6.84907">
        <ele>830.8</ele>
        <time>2019-05-17T06:45:03Z</time>
      </trkpt>
      <trkpt lat="47.78937" lon="6.84908">
        <ele>831.2</ele>
        <time>2019-05-17T06:45:04Z</time>
      </trkpt>
      <trkpt lat="47.78939" lon="6.8491">
        <ele>831.6</ele>
        <time>2019-05-17T06:45:05Z</time>
      </trkpt>
      <trkpt lat="47.78947" lon="6.84917">
        <ele>832</ele>
        <time>2019-05-17T06:45:10Z</time>
      </trkpt>
      <trkpt lat="47.78949" lon="6.84918">
        <ele>832.4</ele>
        <time>2019-05-17T06:45:11Z</time>
      </trkpt>
      <trkpt lat="47.7895" lon="6.8492">
        <ele>832.8</ele>
        <time>2019-05-17T06:45:12Z</time>
      </trkpt>
      <trkpt lat="47.78952" lon="6.84921">
        <ele>833.2</ele>
        <time>2019-05-17T06:45:13Z</time>
      </trkpt>
      <trkpt lat="47.78953" lon="6.84923">
        <ele>833.6</ele>
        <time>2019-05-17T06:45:14Z</time>
      </trkpt>
      <trkpt lat="47.78958" lon="6.84928">
        <ele>833.6</ele>
        <time>2019-05-17T06:45:17Z</time>
      </trkpt>
      <trkpt lat="47.7896" lon="6.84929">
        <ele>834</ele>
        <time>2019-05-17T06:45:18Z</time>
      </trkpt>
      <trkpt lat="47.78962" lon="6.8493">
        <ele>834.6</ele>
        <time>2019-05-17T06:45:19Z</time>
      </trkpt>
      <trkpt lat="47.78967" lon="6.84935">
        <ele>835</ele>
        <time>2019-05-17T06:45:20Z</time>
      </trkpt>
      <trkpt lat="47.78968" lon="6.84938">
        <ele>835.4</ele>
        <time>2019-05-17T06:45:21Z</time>
      </trkpt>
      <trkpt lat="47.78969" lon="6.84939">
        <ele>835.8</ele>
        <time>2019-05-17T06:45:22Z</time>
      </trkpt>
      <trkpt lat="47.7897" lon="6.8494">
        <ele>835.8</ele>
        <time>2019-05-17T06:45:24Z</time>
      </trkpt>
      <trkpt lat="47.7897" lon="6.84942">
        <ele>836.2</ele>
        <time>2019-05-17T06:45:26Z</time>
      </trkpt>
      <trkpt lat="47.78971" lon="6.84943">
        <ele>836.6</ele>
        <time>2019-05-17T06:45:27Z</time>
      </trkpt>
      <trkpt lat="47.78972" lon="6.84944">
        <ele>837.2</ele>
        <time>2019-05-17T06:45:28Z</time>
      </trkpt>
      <trkpt lat="47.78973" lon="6.84945">
        <ele>837.6</ele>
        <time>2019-05-17T06:45:29Z</time>
      </trkpt>
      <trkpt lat="47.78973" lon="6.84947">
        <ele>838</ele>
        <time>2019-05-17T06:45:30Z</time>
      </trkpt>
      <trkpt lat="47.78974" lon="6.84948">
        <ele>838</ele>
        <time>2019-05-17T06:45:31Z</time>
      </trkpt>
      <trkpt lat="47.78976" lon="6.84951">
        <ele>838</ele>
        <time>2019-05-17T06:45:32Z</time>
      </trkpt>
      <trkpt lat="47.78978" lon="6.84953">
        <ele>838</ele>
        <time>2019-05-17T06:45:34Z</time>
      </trkpt>
      <trkpt lat="47.78979" lon="6.84955">
        <ele>838.4</ele>
        <time>2019-05-17T06:45:35Z</time>
      </trkpt>
      <trkpt lat="47.7898" lon="6.84956">
        <ele>839</ele>
        <time>2019-05-17T06:45:36Z</time>
      </trkpt>
      <trkpt lat="47.78982" lon="6.84958">
        <ele>839.4</ele>
        <time>2019-05-17T06:45:37Z</time>
      </trkpt>
      <trkpt lat="47.78983" lon="6.8496">
        <ele>839.8</ele>
        <time>2019-05-17T06:45:38Z</time>
      </trkpt>
      <trkpt lat="47.78985" lon="6.84962">
        <ele>840.2</ele>
        <time>2019-05-17T06:45:39Z</time>
      </trkpt>
      <trkpt lat="47.78988" lon="6.84969">
        <ele>840.6</ele>
        <time>2019-05-17T06:45:43Z</time>
      </trkpt>
      <trkpt lat="47.7899" lon="6.84971">
        <ele>841</ele>
        <time>2019-05-17T06:45:44Z</time>
      </trkpt>
      <trkpt lat="47.78992" lon="6.84973">
        <ele>841.6</ele>
        <time>2019-05-17T06:45:45Z</time>
      </trkpt>
      <trkpt lat="47.78994" lon="6.84976">
        <ele>842</ele>
        <time>2019-05-17T06:45:46Z</time>
      </trkpt>
      <trkpt lat="47.78997" lon="6.8498">
        <ele>842.4</ele>
        <time>2019-05-17T06:45:47Z</time>
      </trkpt>
      <trkpt lat="47.78999" lon="6.84983">
        <ele>842.4</ele>
        <time>2019-05-17T06:45:49Z</time>
      </trkpt>
      <trkpt lat="47.79001" lon="6.84986">
        <ele>842.8</ele>
        <time>2019-05-17T06:45:52Z</time>
      </trkpt>
      <trkpt lat="47.79003" lon="6.8499">
        <ele>843.2</ele>
        <time>2019-05-17T06:45:53Z</time>
      </trkpt>
      <trkpt lat="47.79005" lon="6.84993">
        <ele>843.6</ele>
        <time>2019-05-17T06:45:54Z</time>
      </trkpt>
      <trkpt lat="47.79007" lon="6.84996">
        <ele>844</ele>
        <time>2019-05-17T06:45:55Z</time>
      </trkpt>
      <trkpt lat="47.7901" lon="6.84999">
        <ele>844.4</ele>
        <time>2019-05-17T06:45:56Z</time>
      </trkpt>
      <trkpt lat="47.79012" lon="6.85001">
        <ele>844.8</ele>
        <time>2019-05-17T06:46:00Z</time>
      </trkpt>
      <trkpt lat="47.79014" lon="6.85004">
        <ele>845.2</ele>
        <time>2019-05-17T06:46:01Z</time>
      </trkpt>
      <trkpt lat="47.79016" lon="6.85006">
        <ele>845.6</ele>
        <time>2019-05-17T06:46:02Z</time>
      </trkpt>
      <trkpt lat="47.79017" lon="6.85008">
        <ele>846</ele>
        <time>2019-05-17T06:46:03Z</time>
      </trkpt>
      <trkpt lat="47.79019" lon="6.85009">
        <ele>846.6</ele>
        <time>2019-05-17T06:46:04Z</time>
      </trkpt>
      <trkpt lat="47.79022" lon="6.85011">
        <ele>846.6</ele>
        <time>2019-05-17T06:46:06Z</time>
      </trkpt>
      <trkpt lat="47.79022" lon="6.85015">
        <ele>846.6</ele>
        <time>2019-05-17T06:46:08Z</time>
      </trkpt>
      <trkpt lat="47.79022" lon="6.85016">
        <ele>847</ele>
        <time>2019-05-17T06:46:09Z</time>
      </trkpt>
      <trkpt lat="47.79022" lon="6.85017">
        <ele>847.4</ele>
        <time>2019-05-17T06:46:10Z</time>
      </trkpt>
      <trkpt lat="47.79023" lon="6.85017">
        <ele>847.8</ele>
        <time>2019-05-17T06:46:11Z</time>
      </trkpt>
      <trkpt lat="47.79023" lon="6.85017">
        <ele>848.2</ele>
        <time>2019-05-17T06:46:12Z</time>
      </trkpt>
      <trkpt lat="47.79023" lon="6.85018">
        <ele>848.6</ele>
        <time>2019-05-17T06:46:13Z</time>
      </trkpt>
      <trkpt lat="47.79025" lon="6.85024">
        <ele>849</ele>
        <time>2019-05-17T06:46:18Z</time>
      </trkpt>
      <trkpt lat="47.79026" lon="6.85027">
        <ele>849.4</ele>
        <time>2019-05-17T06:46:19Z</time>
      </trkpt>
      <trkpt lat="47.79027" lon="6.85029">
        <ele>849.8</ele>
        <time>2019-05-17T06:46:20Z</time>
      </trkpt>
      <trkpt lat="47.79029" lon="6.85031">
        <ele>850.6</ele>
        <time>2019-05-17T06:46:21Z</time>
      </trkpt>
      <trkpt lat="47.79032" lon="6.85039">
        <ele>850.6</ele>
        <time>2019-05-17T06:46:25Z</time>
      </trkpt>
      <trkpt lat="47.79035" lon="6.8505">
        <ele>852.8</ele>
        <time>2019-05-17T06:46:31Z</time>
      </trkpt>
      <trkpt lat="47.79037" lon="6.85056">
        <ele>852.8</ele>
        <time>2019-05-17T06:46:34Z</time>
      </trkpt>
      <trkpt lat="47.79039" lon="6.85059">
        <ele>852.8</ele>
        <time>2019-05-17T06:46:36Z</time>
      </trkpt>
      <trkpt lat="47.7904" lon="6.8506">
        <ele>853.2</ele>
        <time>2019-05-17T06:46:37Z</time>
      </trkpt>
      <trkpt lat="47.7904" lon="6.85062">
        <ele>853.8</ele>
        <time>2019-05-17T06:46:38Z</time>
      </trkpt>
      <trkpt lat="47.79041" lon="6.85064">
        <ele>854.2</ele>
        <time>2019-05-17T06:46:39Z</time>
      </trkpt>
      <trkpt lat="47.79041" lon="6.85066">
        <ele>854.6</ele>
        <time>2019-05-17T06:46:40Z</time>
      </trkpt>
      <trkpt lat="47.79041" lon="6.85068">
        <ele>855</ele>
        <time>2019-05-17T06:46:41Z</time>
      </trkpt>
      <trkpt lat="47.79042" lon="6.85071">
        <ele>855</ele>
        <time>2019-05-17T06:46:42Z</time>
      </trkpt>
      <trkpt lat="47.79049" lon="6.85084">
        <ele>855.8</ele>
        <time>2019-05-17T06:46:46Z</time>
      </trkpt>
      <trkpt lat="47.79051" lon="6.85086">
        <ele>856.2</ele>
        <time>2019-05-17T06:46:47Z</time>
      </trkpt>
      <trkpt lat="47.79053" lon="6.85088">
        <ele>856.6</ele>
        <time>2019-05-17T06:46:48Z</time>
      </trkpt>
      <trkpt lat="47.79055" lon="6.85091">
        <ele>857.2</ele>
        <time>2019-05-17T06:46:49Z</time>
      </trkpt>
      <trkpt lat="47.79059" lon="6.851">
        <ele>857.2</ele>
        <time>2019-05-17T06:46:52Z</time>
      </trkpt>
      <trkpt lat="47.79061" lon="6.85103">
        <ele>857.2</ele>
        <time>2019-05-17T06:46:54Z</time>
      </trkpt>
      <trkpt lat="47.79062" lon="6.85106">
        <ele>857.2</ele>
        <time>2019-05-17T06:46:55Z</time>
      </trkpt>
      <trkpt lat="47.79065" lon="6.85111">
        <ele>857.6</ele>
        <time>2019-05-17T06:46:56Z</time>
      </trkpt>
      <trkpt lat="47.79066" lon="6.85115">
        <ele>858</ele>
        <time>2019-05-17T06:46:57Z</time>
      </trkpt>
      <trkpt lat="47.79068" lon="6.85119">
        <ele>858.4</ele>
        <time>2019-05-17T06:46:58Z</time>
      </trkpt>
      <trkpt lat="47.7907" lon="6.85122">
        <ele>858.8</ele>
        <time>2019-05-17T06:46:59Z</time>
      </trkpt>
      <trkpt lat="47.79073" lon="6.85127">
        <ele>859.2</ele>
        <time>2019-05-17T06:47:00Z</time>
      </trkpt>
      <trkpt lat="47.79084" lon="6.85148">
        <ele>859.6</ele>
        <time>2019-05-17T06:47:06Z</time>
      </trkpt>
      <trkpt lat="47.79085" lon="6.8515">
        <ele>860.2</ele>
        <time>2019-05-17T06:47:07Z</time>
      </trkpt>
      <trkpt lat="47.79085" lon="6.85152">
        <ele>860.6</ele>
        <time>2019-05-17T06:47:08Z</time>
      </trkpt>
      <trkpt lat="47.79084" lon="6.85154">
        <ele>861</ele>
        <time>2019-05-17T06:47:09Z</time>
      </trkpt>
      <trkpt lat="47.79084" lon="6.85156">
        <ele>861.4</ele>
        <time>2019-05-17T06:47:10Z</time>
      </trkpt>
      <trkpt lat="47.79083" lon="6.8516">
        <ele>861.4</ele>
        <time>2019-05-17T06:47:12Z</time>
      </trkpt>
      <trkpt lat="47.79082" lon="6.85162">
        <ele>861.4</ele>
        <time>2019-05-17T06:47:13Z</time>
      </trkpt>
      <trkpt lat="47.79082" lon="6.85162">
        <ele>861.8</ele>
        <time>2019-05-17T06:47:14Z</time>
      </trkpt>
      <trkpt lat="47.79081" lon="6.85164">
        <ele>862.2</ele>
        <time>2019-05-17T06:47:15Z</time>
      </trkpt>
      <trkpt lat="47.7908" lon="6.85166">
        <ele>862.6</ele>
        <time>2019-05-17T06:47:16Z</time>
      </trkpt>
      <trkpt lat="47.79081" lon="6.85167">
        <ele>863.2</ele>
        <time>2019-05-17T06:47:17Z</time>
      </trkpt>
      <trkpt lat="47.7908" lon="6.85169">
        <ele>863.6</ele>
        <time>2019-05-17T06:47:18Z</time>
      </trkpt>
      <trkpt lat="47.79081" lon="6.85171">
        <ele>863.6</ele>
        <time>2019-05-17T06:47:19Z</time>
      </trkpt>
      <trkpt lat="47.79081" lon="6.85173">
        <ele>863.6</ele>
        <time>2019-05-17T06:47:20Z</time>
      </trkpt>
      <trkpt lat="47.7908" lon="6.85181">
        <ele>863.6</ele>
        <time>2019-05-17T06:47:24Z</time>
      </trkpt>
      <trkpt lat="47.79079" lon="6.85185">
        <ele>864</ele>
        <time>2019-05-17T06:47:26Z</time>
      </trkpt>
      <trkpt lat="47.79078" lon="6.85187">
        <ele>864.4</ele>
        <time>2019-05-17T06:47:27Z</time>
      </trkpt>
      <trkpt lat="47.79077" lon="6.85189">
        <ele>865</ele>
        <time>2019-05-17T06:47:28Z</time>
      </trkpt>
      <trkpt lat="47.79076" lon="6.85192">
        <ele>865.4</ele>
        <time>2019-05-17T06:47:29Z</time>
      </trkpt>
      <trkpt lat="47.79076" lon="6.85194">
        <ele>865.8</ele>
        <time>2019-05-17T06:47:30Z</time>
      </trkpt>
      <trkpt lat="47.79074" lon="6.85199">
        <ele>865.8</ele>
        <time>2019-05-17T06:47:32Z</time>
      </trkpt>
      <trkpt lat="47.79073" lon="6.85203">
        <ele>865.8</ele>
        <time>2019-05-17T06:47:34Z</time>
      </trkpt>
      <trkpt lat="47.79073" lon="6.85205">
        <ele>866.6</ele>
        <time>2019-05-17T06:47:35Z</time>
      </trkpt>
      <trkpt lat="47.79073" lon="6.85207">
        <ele>867</ele>
        <time>2019-05-17T06:47:36Z</time>
      </trkpt>
      <trkpt lat="47.79072" lon="6.85209">
        <ele>867.6</ele>
        <time>2019-05-17T06:47:37Z</time>
      </trkpt>
      <trkpt lat="47.79071" lon="6.85211">
        <ele>868</ele>
        <time>2019-05-17T06:47:38Z</time>
      </trkpt>
      <trkpt lat="47.79071" lon="6.85213">
        <ele>868</ele>
        <time>2019-05-17T06:47:39Z</time>
      </trkpt>
      <trkpt lat="47.79071" lon="6.85219">
        <ele>868.4</ele>
        <time>2019-05-17T06:47:43Z</time>
      </trkpt>
      <trkpt lat="47.79071" lon="6.85221">
        <ele>868.8</ele>
        <time>2019-05-17T06:47:44Z</time>
      </trkpt>
      <trkpt lat="47.79071" lon="6.85223">
        <ele>869.2</ele>
        <time>2019-05-17T06:47:45Z</time>
      </trkpt>
      <trkpt lat="47.79071" lon="6.85226">
        <ele>869.6</ele>
        <time>2019-05-17T06:47:46Z</time>
      </trkpt>
      <trkpt lat="47.79072" lon="6.85228">
        <ele>870</ele>
        <time>2019-05-17T06:47:47Z</time>
      </trkpt>
      <trkpt lat="47.79073" lon="6.8523">
        <ele>870</ele>
        <time>2019-05-17T06:47:48Z</time>
      </trkpt>
      <trkpt lat="47.79076" lon="6.85241">
        <ele>870.4</ele>
        <time>2019-05-17T06:47:53Z</time>
      </trkpt>
      <trkpt lat="47.79076" lon="6.85243">
        <ele>870.8</ele>
        <time>2019-05-17T06:47:54Z</time>
      </trkpt>
      <trkpt lat="47.79076" lon="6.85245">
        <ele>871.2</ele>
        <time>2019-05-17T06:47:55Z</time>
      </trkpt>
      <trkpt lat="47.79077" lon="6.85247">
        <ele>871.6</ele>
        <time>2019-05-17T06:47:56Z</time>
      </trkpt>
      <trkpt lat="47.79077" lon="6.85249">
        <ele>872</ele>
        <time>2019-05-17T06:47:57Z</time>
      </trkpt>
      <trkpt lat="47.79078" lon="6.85251">
        <ele>872</ele>
        <time>2019-05-17T06:47:58Z</time>
      </trkpt>
      <trkpt lat="47.79079" lon="6.85256">
        <ele>872</ele>
        <time>2019-05-17T06:48:01Z</time>
      </trkpt>
      <trkpt lat="47.79079" lon="6.85258">
        <ele>872.6</ele>
        <time>2019-05-17T06:48:03Z</time>
      </trkpt>
      <trkpt lat="47.79079" lon="6.85259">
        <ele>873</ele>
        <time>2019-05-17T06:48:04Z</time>
      </trkpt>
      <trkpt lat="47.79078" lon="6.8526">
        <ele>873.4</ele>
        <time>2019-05-17T06:48:05Z</time>
      </trkpt>
      <trkpt lat="47.79077" lon="6.85262">
        <ele>873.8</ele>
        <time>2019-05-17T06:48:06Z</time>
      </trkpt>
      <trkpt lat="47.79076" lon="6.85263">
        <ele>874.2</ele>
        <time>2019-05-17T06:48:07Z</time>
      </trkpt>
      <trkpt lat="47.79074" lon="6.85266">
        <ele>874.2</ele>
        <time>2019-05-17T06:48:08Z</time>
      </trkpt>
      <trkpt lat="47.79071" lon="6.85273">
        <ele>874.2</ele>
        <time>2019-05-17T06:48:13Z</time>
      </trkpt>
      <trkpt lat="47.79072" lon="6.85275">
        <ele>874.2</ele>
        <time>2019-05-17T06:48:14Z</time>
      </trkpt>
      <trkpt lat="47.79077" lon="6.8528">
        <ele>874.2</ele>
        <time>2019-05-17T06:48:19Z</time>
      </trkpt>
      <trkpt lat="47.7908" lon="6.85279">
        <ele>874.6</ele>
        <time>2019-05-17T06:48:21Z</time>
      </trkpt>
      <trkpt lat="47.79081" lon="6.85277">
        <ele>875</ele>
        <time>2019-05-17T06:48:22Z</time>
      </trkpt>
      <trkpt lat="47.79083" lon="6.85276">
        <ele>875.4</ele>
        <time>2019-05-17T06:48:23Z</time>
      </trkpt>
      <trkpt lat="47.79084" lon="6.85275">
        <ele>876.2</ele>
        <time>2019-05-17T06:48:24Z</time>
      </trkpt>
      <trkpt lat="47.79084" lon="6.85273">
        <ele>876.2</ele>
        <time>2019-05-17T06:48:25Z</time>
      </trkpt>
      <trkpt lat="47.79085" lon="6.85269">
        <ele>876.2</ele>
        <time>2019-05-17T06:48:27Z</time>
      </trkpt>
      <trkpt lat="47.79085" lon="6.85267">
        <ele>876.2</ele>
        <time>2019-05-17T06:48:28Z</time>
      </trkpt>
      <trkpt lat="47.79086" lon="6.85264">
        <ele>876.2</ele>
        <time>2019-05-17T06:48:30Z</time>
      </trkpt>
      <trkpt lat="47.79088" lon="6.85261">
        <ele>876.6</ele>
        <time>2019-05-17T06:48:32Z</time>
      </trkpt>
      <trkpt lat="47.79089" lon="6.85259">
        <ele>877</ele>
        <time>2019-05-17T06:48:33Z</time>
      </trkpt>
      <trkpt lat="47.79089" lon="6.85259">
        <ele>877.6</ele>
        <time>2019-05-17T06:48:34Z</time>
      </trkpt>
      <trkpt lat="47.7909" lon="6.85259">
        <ele>878</ele>
        <time>2019-05-17T06:48:35Z</time>
      </trkpt>
      <trkpt lat="47.79091" lon="6.85258">
        <ele>878.4</ele>
        <time>2019-05-17T06:48:36Z</time>
      </trkpt>
      <trkpt lat="47.79092" lon="6.85257">
        <ele>878.4</ele>
        <time>2019-05-17T06:48:37Z</time>
      </trkpt>
      <trkpt lat="47.79093" lon="6.85255">
        <ele>878.4</ele>
        <time>2019-05-17T06:48:38Z</time>
      </trkpt>
      <trkpt lat="47.79101" lon="6.85244">
        <ele>878.4</ele>
        <time>2019-05-17T06:48:43Z</time>
      </trkpt>
      <trkpt lat="47.79114" lon="6.8523">
        <ele>878.4</ele>
        <time>2019-05-17T06:48:48Z</time>
      </trkpt>
      <trkpt lat="47.79135" lon="6.85224">
        <ele>878.8</ele>
        <time>2019-05-17T06:48:54Z</time>
      </trkpt>
      <trkpt lat="47.79138" lon="6.85224">
        <ele>879.2</ele>
        <time>2019-05-17T06:48:55Z</time>
      </trkpt>
      <trkpt lat="47.79142" lon="6.85223">
        <ele>879.6</ele>
        <time>2019-05-17T06:48:56Z</time>
      </trkpt>
      <trkpt lat="47.79145" lon="6.85222">
        <ele>880</ele>
        <time>2019-05-17T06:48:57Z</time>
      </trkpt>
      <trkpt lat="47.79146" lon="6.85219">
        <ele>880.4</ele>
        <time>2019-05-17T06:48:58Z</time>
      </trkpt>
      <trkpt lat="47.79149" lon="6.85218">
        <ele>880.4</ele>
        <time>2019-05-17T06:48:59Z</time>
      </trkpt>
      <trkpt lat="47.7916" lon="6.85205">
        <ele>880.4</ele>
        <time>2019-05-17T06:49:04Z</time>
      </trkpt>
      <trkpt lat="47.79167" lon="6.85184">
        <ele>880.4</ele>
        <time>2019-05-17T06:49:09Z</time>
      </trkpt>
      <trkpt lat="47.79172" lon="6.85169">
        <ele>880.8</ele>
        <time>2019-05-17T06:49:13Z</time>
      </trkpt>
      <trkpt lat="47.79172" lon="6.85165">
        <ele>881.6</ele>
        <time>2019-05-17T06:49:14Z</time>
      </trkpt>
      <trkpt lat="47.79175" lon="6.85163">
        <ele>882</ele>
        <time>2019-05-17T06:49:15Z</time>
      </trkpt>
      <trkpt lat="47.79175" lon="6.85158">
        <ele>882.4</ele>
        <time>2019-05-17T06:49:16Z</time>
      </trkpt>
      <trkpt lat="47.79178" lon="6.85151">
        <ele>882.4</ele>
        <time>2019-05-17T06:49:18Z</time>
      </trkpt>
      <trkpt lat="47.79179" lon="6.85147">
        <ele>882.4</ele>
        <time>2019-05-17T06:49:19Z</time>
      </trkpt>
      <trkpt lat="47.7919" lon="6.85136">
        <ele>882.4</ele>
        <time>2019-05-17T06:49:24Z</time>
      </trkpt>
      <trkpt lat="47.79203" lon="6.85117">
        <ele>882.4</ele>
        <time>2019-05-17T06:49:30Z</time>
      </trkpt>
      <trkpt lat="47.79206" lon="6.85103">
        <ele>882.8</ele>
        <time>2019-05-17T06:49:34Z</time>
      </trkpt>
      <trkpt lat="47.79207" lon="6.85099">
        <ele>883.4</ele>
        <time>2019-05-17T06:49:35Z</time>
      </trkpt>
      <trkpt lat="47.79208" lon="6.85096">
        <ele>883.8</ele>
        <time>2019-05-17T06:49:36Z</time>
      </trkpt>
      <trkpt lat="47.79208" lon="6.85092">
        <ele>884.2</ele>
        <time>2019-05-17T06:49:37Z</time>
      </trkpt>
      <trkpt lat="47.79208" lon="6.85086">
        <ele>884.6</ele>
        <time>2019-05-17T06:49:38Z</time>
      </trkpt>
      <trkpt lat="47.79207" lon="6.85078">
        <ele>884.6</ele>
        <time>2019-05-17T06:49:40Z</time>
      </trkpt>
      <trkpt lat="47.79208" lon="6.85075">
        <ele>884.6</ele>
        <time>2019-05-17T06:49:41Z</time>
      </trkpt>
      <trkpt lat="47.79215" lon="6.85058">
        <ele>884.6</ele>
        <time>2019-05-17T06:49:47Z</time>
      </trkpt>
      <trkpt lat="47.79216" lon="6.85053">
        <ele>885</ele>
        <time>2019-05-17T06:49:49Z</time>
      </trkpt>
      <trkpt lat="47.79217" lon="6.85051">
        <ele>885.4</ele>
        <time>2019-05-17T06:49:50Z</time>
      </trkpt>
      <trkpt lat="47.79218" lon="6.85048">
        <ele>885.8</ele>
        <time>2019-05-17T06:49:51Z</time>
      </trkpt>
      <trkpt lat="47.79219" lon="6.85045">
        <ele>886.4</ele>
        <time>2019-05-17T06:49:52Z</time>
      </trkpt>
      <trkpt lat="47.79221" lon="6.85042">
        <ele>886.8</ele>
        <time>2019-05-17T06:49:53Z</time>
      </trkpt>
      <trkpt lat="47.79226" lon="6.8503">
        <ele>886.8</ele>
        <time>2019-05-17T06:49:57Z</time>
      </trkpt>
      <trkpt lat="47.79228" lon="6.85026">
        <ele>887.2</ele>
        <time>2019-05-17T06:49:59Z</time>
      </trkpt>
      <trkpt lat="47.79229" lon="6.85025">
        <ele>887.6</ele>
        <time>2019-05-17T06:50:00Z</time>
      </trkpt>
      <trkpt lat="47.7923" lon="6.85022">
        <ele>888</ele>
        <time>2019-05-17T06:50:01Z</time>
      </trkpt>
      <trkpt lat="47.79231" lon="6.85019">
        <ele>888.4</ele>
        <time>2019-05-17T06:50:02Z</time>
      </trkpt>
      <trkpt lat="47.79232" lon="6.85016">
        <ele>888.8</ele>
        <time>2019-05-17T06:50:03Z</time>
      </trkpt>
      <trkpt lat="47.79236" lon="6.85005">
        <ele>888.8</ele>
        <time>2019-05-17T06:50:07Z</time>
      </trkpt>
      <trkpt lat="47.79247" lon="6.84988">
        <ele>888.8</ele>
        <time>2019-05-17T06:50:13Z</time>
      </trkpt>
      <trkpt lat="47.79251" lon="6.84983">
        <ele>889.2</ele>
        <time>2019-05-17T06:50:15Z</time>
      </trkpt>
      <trkpt lat="47.79252" lon="6.84981">
        <ele>889.6</ele>
        <time>2019-05-17T06:50:16Z</time>
      </trkpt>
      <trkpt lat="47.79254" lon="6.84978">
        <ele>890</ele>
        <time>2019-05-17T06:50:17Z</time>
      </trkpt>
      <trkpt lat="47.79255" lon="6.84975">
        <ele>890.6</ele>
        <time>2019-05-17T06:50:18Z</time>
      </trkpt>
      <trkpt lat="47.79257" lon="6.84973">
        <ele>891</ele>
        <time>2019-05-17T06:50:19Z</time>
      </trkpt>
      <trkpt lat="47.79268" lon="6.84957">
        <ele>891</ele>
        <time>2019-05-17T06:50:25Z</time>
      </trkpt>
      <trkpt lat="47.79271" lon="6.84952">
        <ele>891.4</ele>
        <time>2019-05-17T06:50:27Z</time>
      </trkpt>
      <trkpt lat="47.79272" lon="6.84949">
        <ele>892.2</ele>
        <time>2019-05-17T06:50:28Z</time>
      </trkpt>
      <trkpt lat="47.79273" lon="6.84946">
        <ele>892.6</ele>
        <time>2019-05-17T06:50:29Z</time>
      </trkpt>
      <trkpt lat="47.79274" lon="6.84943">
        <ele>893</ele>
        <time>2019-05-17T06:50:30Z</time>
      </trkpt>
      <trkpt lat="47.79274" lon="6.8494">
        <ele>893</ele>
        <time>2019-05-17T06:50:31Z</time>
      </trkpt>
      <trkpt lat="47.79283" lon="6.84926">
        <ele>893</ele>
        <time>2019-05-17T06:50:37Z</time>
      </trkpt>
      <trkpt lat="47.79284" lon="6.84924">
        <ele>893.4</ele>
        <time>2019-05-17T06:50:38Z</time>
      </trkpt>
      <trkpt lat="47.79286" lon="6.84922">
        <ele>893.8</ele>
        <time>2019-05-17T06:50:39Z</time>
      </trkpt>
      <trkpt lat="47.79286" lon="6.84919">
        <ele>894.2</ele>
        <time>2019-05-17T06:50:40Z</time>
      </trkpt>
      <trkpt lat="47.79287" lon="6.84916">
        <ele>894.6</ele>
        <time>2019-05-17T06:50:41Z</time>
      </trkpt>
      <trkpt lat="47.79288" lon="6.84913">
        <ele>895</ele>
        <time>2019-05-17T06:50:42Z</time>
      </trkpt>
      <trkpt lat="47.79293" lon="6.84897">
        <ele>895</ele>
        <time>2019-05-17T06:50:48Z</time>
      </trkpt>
      <trkpt lat="47.79294" lon="6.84895">
        <ele>895.4</ele>
        <time>2019-05-17T06:50:49Z</time>
      </trkpt>
      <trkpt lat="47.79294" lon="6.84892">
        <ele>896</ele>
        <time>2019-05-17T06:50:50Z</time>
      </trkpt>
      <trkpt lat="47.79295" lon="6.84889">
        <ele>896.4</ele>
        <time>2019-05-17T06:50:51Z</time>
      </trkpt>
      <trkpt lat="47.79296" lon="6.84887">
        <ele>897.2</ele>
        <time>2019-05-17T06:50:52Z</time>
      </trkpt>
      <trkpt lat="47.79298" lon="6.84882">
        <ele>897.2</ele>
        <time>2019-05-17T06:50:54Z</time>
      </trkpt>
      <trkpt lat="47.79299" lon="6.8487">
        <ele>897.2</ele>
        <time>2019-05-17T06:50:59Z</time>
      </trkpt>
      <trkpt lat="47.79299" lon="6.84866">
        <ele>897.2</ele>
        <time>2019-05-17T06:51:00Z</time>
      </trkpt>
      <trkpt lat="47.793" lon="6.84864">
        <ele>897.6</ele>
        <time>2019-05-17T06:51:01Z</time>
      </trkpt>
      <trkpt lat="47.79301" lon="6.84862">
        <ele>898</ele>
        <time>2019-05-17T06:51:02Z</time>
      </trkpt>
      <trkpt lat="47.79302" lon="6.8486">
        <ele>898.6</ele>
        <time>2019-05-17T06:51:03Z</time>
      </trkpt>
      <trkpt lat="47.79304" lon="6.84858">
        <ele>899</ele>
        <time>2019-05-17T06:51:04Z</time>
      </trkpt>
      <trkpt lat="47.79307" lon="6.84858">
        <ele>899.4</ele>
        <time>2019-05-17T06:51:05Z</time>
      </trkpt>
      <trkpt lat="47.79312" lon="6.84854">
        <ele>899.4</ele>
        <time>2019-05-17T06:51:07Z</time>
      </trkpt>
      <trkpt lat="47.79319" lon="6.84848">
        <ele>899.8</ele>
        <time>2019-05-17T06:51:11Z</time>
      </trkpt>
      <trkpt lat="47.79318" lon="6.84844">
        <ele>900.2</ele>
        <time>2019-05-17T06:51:12Z</time>
      </trkpt>
      <trkpt lat="47.79318" lon="6.84842">
        <ele>900.6</ele>
        <time>2019-05-17T06:51:13Z</time>
      </trkpt>
      <trkpt lat="47.79318" lon="6.84839">
        <ele>901</ele>
        <time>2019-05-17T06:51:14Z</time>
      </trkpt>
      <trkpt lat="47.79319" lon="6.84836">
        <ele>901.4</ele>
        <time>2019-05-17T06:51:15Z</time>
      </trkpt>
      <trkpt lat="47.79319" lon="6.84831">
        <ele>901.4</ele>
        <time>2019-05-17T06:51:17Z</time>
      </trkpt>
      <trkpt lat="47.79325" lon="6.84821">
        <ele>901.4</ele>
        <time>2019-05-17T06:51:22Z</time>
      </trkpt>
      <trkpt lat="47.79327" lon="6.84819">
        <ele>901.8</ele>
        <time>2019-05-17T06:51:23Z</time>
      </trkpt>
      <trkpt lat="47.79328" lon="6.84817">
        <ele>902.4</ele>
        <time>2019-05-17T06:51:24Z</time>
      </trkpt>
      <trkpt lat="47.79329" lon="6.84814">
        <ele>902.8</ele>
        <time>2019-05-17T06:51:25Z</time>
      </trkpt>
      <trkpt lat="47.7933" lon="6.84812">
        <ele>903.2</ele>
        <time>2019-05-17T06:51:26Z</time>
      </trkpt>
      <trkpt lat="47.79331" lon="6.8481">
        <ele>903.6</ele>
        <time>2019-05-17T06:51:27Z</time>
      </trkpt>
      <trkpt lat="47.79334" lon="6.84804">
        <ele>903.6</ele>
        <time>2019-05-17T06:51:30Z</time>
      </trkpt>
      <trkpt lat="47.79338" lon="6.84797">
        <ele>903.6</ele>
        <time>2019-05-17T06:51:33Z</time>
      </trkpt>
      <trkpt lat="47.79342" lon="6.84794">
        <ele>904</ele>
        <time>2019-05-17T06:51:35Z</time>
      </trkpt>
      <trkpt lat="47.79344" lon="6.84792">
        <ele>904.4</ele>
        <time>2019-05-17T06:51:36Z</time>
      </trkpt>
      <trkpt lat="47.79346" lon="6.8479">
        <ele>904.8</ele>
        <time>2019-05-17T06:51:37Z</time>
      </trkpt>
      <trkpt lat="47.79347" lon="6.84788">
        <ele>905.2</ele>
        <time>2019-05-17T06:51:38Z</time>
      </trkpt>
      <trkpt lat="47.79348" lon="6.84785">
        <ele>905.6</ele>
        <time>2019-05-17T06:51:39Z</time>
      </trkpt>
      <trkpt lat="47.79349" lon="6.84782">
        <ele>905.6</ele>
        <time>2019-05-17T06:51:40Z</time>
      </trkpt>
      <trkpt lat="47.79351" lon="6.84771">
        <ele>905.6</ele>
        <time>2019-05-17T06:51:44Z</time>
      </trkpt>
      <trkpt lat="47.79352" lon="6.84752">
        <ele>906</ele>
        <time>2019-05-17T06:51:49Z</time>
      </trkpt>
      <trkpt lat="47.79353" lon="6.84748">
        <ele>906.6</ele>
        <time>2019-05-17T06:51:50Z</time>
      </trkpt>
      <trkpt lat="47.79353" lon="6.84745">
        <ele>907</ele>
        <time>2019-05-17T06:51:51Z</time>
      </trkpt>
      <trkpt lat="47.79353" lon="6.84742">
        <ele>907.4</ele>
        <time>2019-05-17T06:51:52Z</time>
      </trkpt>
      <trkpt lat="47.79353" lon="6.84739">
        <ele>907.8</ele>
        <time>2019-05-17T06:51:53Z</time>
      </trkpt>
      <trkpt lat="47.79354" lon="6.84736">
        <ele>907.8</ele>
        <time>2019-05-17T06:51:54Z</time>
      </trkpt>
      <trkpt lat="47.79357" lon="6.84721">
        <ele>907.8</ele>
        <time>2019-05-17T06:51:59Z</time>
      </trkpt>
      <trkpt lat="47.79357" lon="6.84708">
        <ele>908.2</ele>
        <time>2019-05-17T06:52:03Z</time>
      </trkpt>
      <trkpt lat="47.79357" lon="6.84705">
        <ele>908.6</ele>
        <time>2019-05-17T06:52:04Z</time>
      </trkpt>
      <trkpt lat="47.79357" lon="6.84701">
        <ele>909</ele>
        <time>2019-05-17T06:52:05Z</time>
      </trkpt>
      <trkpt lat="47.79357" lon="6.84698">
        <ele>909.4</ele>
        <time>2019-05-17T06:52:06Z</time>
      </trkpt>
      <trkpt lat="47.79356" lon="6.84694">
        <ele>909.8</ele>
        <time>2019-05-17T06:52:07Z</time>
      </trkpt>
      <trkpt lat="47.79358" lon="6.84683">
        <ele>909.8</ele>
        <time>2019-05-17T06:52:11Z</time>
      </trkpt>
      <trkpt lat="47.79358" lon="6.84677">
        <ele>909.8</ele>
        <time>2019-05-17T06:52:13Z</time>
      </trkpt>
      <trkpt lat="47.79358" lon="6.84674">
        <ele>910.2</ele>
        <time>2019-05-17T06:52:14Z</time>
      </trkpt>
      <trkpt lat="47.79359" lon="6.84672">
        <ele>910.6</ele>
        <time>2019-05-17T06:52:15Z</time>
      </trkpt>
      <trkpt lat="47.79359" lon="6.84669">
        <ele>911</ele>
        <time>2019-05-17T06:52:16Z</time>
      </trkpt>
      <trkpt lat="47.79359" lon="6.84666">
        <ele>911.6</ele>
        <time>2019-05-17T06:52:17Z</time>
      </trkpt>
      <trkpt lat="47.79359" lon="6.84662">
        <ele>912</ele>
        <time>2019-05-17T06:52:18Z</time>
      </trkpt>
      <trkpt lat="47.79357" lon="6.84657">
        <ele>912</ele>
        <time>2019-05-17T06:52:20Z</time>
      </trkpt>
      <trkpt lat="47.79356" lon="6.84654">
        <ele>912</ele>
        <time>2019-05-17T06:52:21Z</time>
      </trkpt>
      <trkpt lat="47.79355" lon="6.8465">
        <ele>912</ele>
        <time>2019-05-17T06:52:23Z</time>
      </trkpt>
      <trkpt lat="47.79352" lon="6.84646">
        <ele>912</ele>
        <time>2019-05-17T06:52:25Z</time>
      </trkpt>
      <trkpt lat="47.79351" lon="6.84645">
        <ele>912.4</ele>
        <time>2019-05-17T06:52:26Z</time>
      </trkpt>
      <trkpt lat="47.7935" lon="6.84643">
        <ele>912.8</ele>
        <time>2019-05-17T06:52:27Z</time>
      </trkpt>
      <trkpt lat="47.79349" lon="6.84641">
        <ele>913.2</ele>
        <time>2019-05-17T06:52:28Z</time>
      </trkpt>
      <trkpt lat="47.79348" lon="6.84639">
        <ele>913.8</ele>
        <time>2019-05-17T06:52:29Z</time>
      </trkpt>
      <trkpt lat="47.79346" lon="6.84638">
        <ele>914.2</ele>
        <time>2019-05-17T06:52:30Z</time>
      </trkpt>
      <trkpt lat="47.79337" lon="6.8463">
        <ele>914.2</ele>
        <time>2019-05-17T06:52:35Z</time>
      </trkpt>
      <trkpt lat="47.79335" lon="6.84627">
        <ele>914.6</ele>
        <time>2019-05-17T06:52:36Z</time>
      </trkpt>
      <trkpt lat="47.79333" lon="6.84625">
        <ele>915</ele>
        <time>2019-05-17T06:52:37Z</time>
      </trkpt>
      <trkpt lat="47.79331" lon="6.84623">
        <ele>915.4</ele>
        <time>2019-05-17T06:52:38Z</time>
      </trkpt>
      <trkpt lat="47.79329" lon="6.84621">
        <ele>915.8</ele>
        <time>2019-05-17T06:52:39Z</time>
      </trkpt>
      <trkpt lat="47.79327" lon="6.8462">
        <ele>916.2</ele>
        <time>2019-05-17T06:52:40Z</time>
      </trkpt>
      <trkpt lat="47.79325" lon="6.84618">
        <ele>916.2</ele>
        <time>2019-05-17T06:52:41Z</time>
      </trkpt>
      <trkpt lat="47.7932" lon="6.8461">
        <ele>916.2</ele>
        <time>2019-05-17T06:52:45Z</time>
      </trkpt>
      <trkpt lat="47.79313" lon="6.84605">
        <ele>916.6</ele>
        <time>2019-05-17T06:52:48Z</time>
      </trkpt>
      <trkpt lat="47.79312" lon="6.84603">
        <ele>917</ele>
        <time>2019-05-17T06:52:49Z</time>
      </trkpt>
      <trkpt lat="47.79311" lon="6.84602">
        <ele>917.4</ele>
        <time>2019-05-17T06:52:50Z</time>
      </trkpt>
      <trkpt lat="47.79311" lon="6.84601">
        <ele>917.8</ele>
        <time>2019-05-17T06:52:51Z</time>
      </trkpt>
      <trkpt lat="47.7931" lon="6.846">
        <ele>918.2</ele>
        <time>2019-05-17T06:52:52Z</time>
      </trkpt>
      <trkpt lat="47.79306" lon="6.84593">
        <ele>918.2</ele>
        <time>2019-05-17T06:52:56Z</time>
      </trkpt>
      <trkpt lat="47.79304" lon="6.84592">
        <ele>919</ele>
        <time>2019-05-17T06:52:57Z</time>
      </trkpt>
      <trkpt lat="47.79302" lon="6.84591">
        <ele>919.4</ele>
        <time>2019-05-17T06:52:58Z</time>
      </trkpt>
      <trkpt lat="47.79299" lon="6.84589">
        <ele>919.8</ele>
        <time>2019-05-17T06:52:59Z</time>
      </trkpt>
      <trkpt lat="47.79297" lon="6.84588">
        <ele>920.4</ele>
        <time>2019-05-17T06:53:00Z</time>
      </trkpt>
      <trkpt lat="47.79295" lon="6.84586">
        <ele>920.4</ele>
        <time>2019-05-17T06:53:01Z</time>
      </trkpt>
      <trkpt lat="47.7929" lon="6.84583">
        <ele>920.4</ele>
        <time>2019-05-17T06:53:03Z</time>
      </trkpt>
      <trkpt lat="47.79285" lon="6.8458">
        <ele>920.4</ele>
        <time>2019-05-17T06:53:05Z</time>
      </trkpt>
      <trkpt lat="47.79279" lon="6.84578">
        <ele>920.8</ele>
        <time>2019-05-17T06:53:07Z</time>
      </trkpt>
      <trkpt lat="47.79276" lon="6.84576">
        <ele>921.2</ele>
        <time>2019-05-17T06:53:08Z</time>
      </trkpt>
      <trkpt lat="47.79273" lon="6.84576">
        <ele>921.6</ele>
        <time>2019-05-17T06:53:09Z</time>
      </trkpt>
      <trkpt lat="47.79271" lon="6.84575">
        <ele>922</ele>
        <time>2019-05-17T06:53:10Z</time>
      </trkpt>
      <trkpt lat="47.79268" lon="6.84575">
        <ele>922.4</ele>
        <time>2019-05-17T06:53:11Z</time>
      </trkpt>
      <trkpt lat="47.79258" lon="6.84572">
        <ele>922.4</ele>
        <time>2019-05-17T06:53:17Z</time>
      </trkpt>
      <trkpt lat="47.79253" lon="6.84573">
        <ele>922.8</ele>
        <time>2019-05-17T06:53:19Z</time>
      </trkpt>
      <trkpt lat="47.79251" lon="6.84573">
        <ele>923.2</ele>
        <time>2019-05-17T06:53:20Z</time>
      </trkpt>
      <trkpt lat="47.79248" lon="6.84573">
        <ele>923.6</ele>
        <time>2019-05-17T06:53:21Z</time>
      </trkpt>
      <trkpt lat="47.79246" lon="6.84572">
        <ele>924.4</ele>
        <time>2019-05-17T06:53:23Z</time>
      </trkpt>
      <trkpt lat="47.79237" lon="6.84564">
        <ele>924.4</ele>
        <time>2019-05-17T06:53:28Z</time>
      </trkpt>
      <trkpt lat="47.79231" lon="6.84557">
        <ele>924.8</ele>
        <time>2019-05-17T06:53:31Z</time>
      </trkpt>
      <trkpt lat="47.79229" lon="6.84554">
        <ele>925.2</ele>
        <time>2019-05-17T06:53:32Z</time>
      </trkpt>
      <trkpt lat="47.79228" lon="6.84552">
        <ele>925.6</ele>
        <time>2019-05-17T06:53:33Z</time>
      </trkpt>
      <trkpt lat="47.79226" lon="6.84549">
        <ele>926</ele>
        <time>2019-05-17T06:53:34Z</time>
      </trkpt>
      <trkpt lat="47.79225" lon="6.84547">
        <ele>926.6</ele>
        <time>2019-05-17T06:53:35Z</time>
      </trkpt>
      <trkpt lat="47.79219" lon="6.84538">
        <ele>926.6</ele>
        <time>2019-05-17T06:53:39Z</time>
      </trkpt>
      <trkpt lat="47.79218" lon="6.84536">
        <ele>926.6</ele>
        <time>2019-05-17T06:53:40Z</time>
      </trkpt>
      <trkpt lat="47.79217" lon="6.84531">
        <ele>926.6</ele>
        <time>2019-05-17T06:53:42Z</time>
      </trkpt>
      <trkpt lat="47.79216" lon="6.84529">
        <ele>927</ele>
        <time>2019-05-17T06:53:43Z</time>
      </trkpt>
      <trkpt lat="47.79216" lon="6.84526">
        <ele>927.4</ele>
        <time>2019-05-17T06:53:44Z</time>
      </trkpt>
      <trkpt lat="47.79215" lon="6.84524">
        <ele>927.8</ele>
        <time>2019-05-17T06:53:45Z</time>
      </trkpt>
      <trkpt lat="47.79215" lon="6.84521">
        <ele>928.2</ele>
        <time>2019-05-17T06:53:46Z</time>
      </trkpt>
      <trkpt lat="47.79214" lon="6.84518">
        <ele>928.6</ele>
        <time>2019-05-17T06:53:47Z</time>
      </trkpt>
      <trkpt lat="47.79213" lon="6.84511">
        <ele>928.6</ele>
        <time>2019-05-17T06:53:50Z</time>
      </trkpt>
      <trkpt lat="47.79209" lon="6.84503">
        <ele>929</ele>
        <time>2019-05-17T06:53:53Z</time>
      </trkpt>
      <trkpt lat="47.79208" lon="6.84501">
        <ele>929.4</ele>
        <time>2019-05-17T06:53:54Z</time>
      </trkpt>
      <trkpt lat="47.79208" lon="6.84498">
        <ele>929.8</ele>
        <time>2019-05-17T06:53:55Z</time>
      </trkpt>
      <trkpt lat="47.79208" lon="6.84495">
        <ele>930.2</ele>
        <time>2019-05-17T06:53:56Z</time>
      </trkpt>
      <trkpt lat="47.79208" lon="6.84493">
        <ele>930.6</ele>
        <time>2019-05-17T06:53:57Z</time>
      </trkpt>
      <trkpt lat="47.79208" lon="6.8449">
        <ele>930.6</ele>
        <time>2019-05-17T06:53:58Z</time>
      </trkpt>
      <trkpt lat="47.79209" lon="6.84486">
        <ele>930.6</ele>
        <time>2019-05-17T06:53:59Z</time>
      </trkpt>
      <trkpt lat="47.79208" lon="6.84475">
        <ele>930.6</ele>
        <time>2019-05-17T06:54:03Z</time>
      </trkpt>
      <trkpt lat="47.79207" lon="6.84469">
        <ele>931</ele>
        <time>2019-05-17T06:54:05Z</time>
      </trkpt>
      <trkpt lat="47.79206" lon="6.84466">
        <ele>931.4</ele>
        <time>2019-05-17T06:54:06Z</time>
      </trkpt>
      <trkpt lat="47.79206" lon="6.84463">
        <ele>931.8</ele>
        <time>2019-05-17T06:54:07Z</time>
      </trkpt>
      <trkpt lat="47.79205" lon="6.84461">
        <ele>932.2</ele>
        <time>2019-05-17T06:54:08Z</time>
      </trkpt>
      <trkpt lat="47.79205" lon="6.84458">
        <ele>932.8</ele>
        <time>2019-05-17T06:54:09Z</time>
      </trkpt>
      <trkpt lat="47.79201" lon="6.84445">
        <ele>932.8</ele>
        <time>2019-05-17T06:54:13Z</time>
      </trkpt>
      <trkpt lat="47.79201" lon="6.84442">
        <ele>933.2</ele>
        <time>2019-05-17T06:54:14Z</time>
      </trkpt>
      <trkpt lat="47.79201" lon="6.84437">
        <ele>933.6</ele>
        <time>2019-05-17T06:54:15Z</time>
      </trkpt>
      <trkpt lat="47.79201" lon="6.84433">
        <ele>934</ele>
        <time>2019-05-17T06:54:16Z</time>
      </trkpt>
      <trkpt lat="47.792" lon="6.8443">
        <ele>934.4</ele>
        <time>2019-05-17T06:54:17Z</time>
      </trkpt>
      <trkpt lat="47.79198" lon="6.84427">
        <ele>934.8</ele>
        <time>2019-05-17T06:54:18Z</time>
      </trkpt>
      <trkpt lat="47.79195" lon="6.84411">
        <ele>934.8</ele>
        <time>2019-05-17T06:54:23Z</time>
      </trkpt>
      <trkpt lat="47.79194" lon="6.84405">
        <ele>935.2</ele>
        <time>2019-05-17T06:54:25Z</time>
      </trkpt>
      <trkpt lat="47.79195" lon="6.84403">
        <ele>935.8</ele>
        <time>2019-05-17T06:54:26Z</time>
      </trkpt>
      <trkpt lat="47.79196" lon="6.84401">
        <ele>936.2</ele>
        <time>2019-05-17T06:54:27Z</time>
      </trkpt>
      <trkpt lat="47.79197" lon="6.84397">
        <ele>936.6</ele>
        <time>2019-05-17T06:54:28Z</time>
      </trkpt>
      <trkpt lat="47.79198" lon="6.84394">
        <ele>937</ele>
        <time>2019-05-17T06:54:29Z</time>
      </trkpt>
      <trkpt lat="47.79199" lon="6.8438">
        <ele>937</ele>
        <time>2019-05-17T06:54:33Z</time>
      </trkpt>
      <trkpt lat="47.79201" lon="6.84369">
        <ele>937.4</ele>
        <time>2019-05-17T06:54:36Z</time>
      </trkpt>
      <trkpt lat="47.79203" lon="6.84365">
        <ele>937.8</ele>
        <time>2019-05-17T06:54:37Z</time>
      </trkpt>
      <trkpt lat="47.79204" lon="6.84363">
        <ele>938.2</ele>
        <time>2019-05-17T06:54:38Z</time>
      </trkpt>
      <trkpt lat="47.79205" lon="6.84361">
        <ele>938.6</ele>
        <time>2019-05-17T06:54:39Z</time>
      </trkpt>
      <trkpt lat="47.79207" lon="6.84358">
        <ele>939</ele>
        <time>2019-05-17T06:54:40Z</time>
      </trkpt>
      <trkpt lat="47.79211" lon="6.84339">
        <ele>939</ele>
        <time>2019-05-17T06:54:45Z</time>
      </trkpt>
      <trkpt lat="47.79212" lon="6.84333">
        <ele>939</ele>
        <time>2019-05-17T06:54:47Z</time>
      </trkpt>
      <trkpt lat="47.79212" lon="6.8433">
        <ele>939.6</ele>
        <time>2019-05-17T06:54:48Z</time>
      </trkpt>
      <trkpt lat="47.79213" lon="6.84327">
        <ele>940</ele>
        <time>2019-05-17T06:54:49Z</time>
      </trkpt>
      <trkpt lat="47.79213" lon="6.84323">
        <ele>940.4</ele>
        <time>2019-05-17T06:54:50Z</time>
      </trkpt>
      <trkpt lat="47.79213" lon="6.8432">
        <ele>940.8</ele>
        <time>2019-05-17T06:54:51Z</time>
      </trkpt>
      <trkpt lat="47.79214" lon="6.84317">
        <ele>941.2</ele>
        <time>2019-05-17T06:54:52Z</time>
      </trkpt>
      <trkpt lat="47.79217" lon="6.84303">
        <ele>941.2</ele>
        <time>2019-05-17T06:54:57Z</time>
      </trkpt>
      <trkpt lat="47.79218" lon="6.84297">
        <ele>941.8</ele>
        <time>2019-05-17T06:54:59Z</time>
      </trkpt>
      <trkpt lat="47.79219" lon="6.84295">
        <ele>942.6</ele>
        <time>2019-05-17T06:55:00Z</time>
      </trkpt>
      <trkpt lat="47.7922" lon="6.84292">
        <ele>943</ele>
        <time>2019-05-17T06:55:01Z</time>
      </trkpt>
      <trkpt lat="47.7922" lon="6.84289">
        <ele>943.4</ele>
        <time>2019-05-17T06:55:02Z</time>
      </trkpt>
      <trkpt lat="47.79222" lon="6.84276">
        <ele>943.4</ele>
        <time>2019-05-17T06:55:06Z</time>
      </trkpt>
      <trkpt lat="47.79225" lon="6.84272">
        <ele>943.8</ele>
        <time>2019-05-17T06:55:08Z</time>
      </trkpt>
      <trkpt lat="47.79227" lon="6.8427">
        <ele>944.2</ele>
        <time>2019-05-17T06:55:09Z</time>
      </trkpt>
      <trkpt lat="47.79229" lon="6.84267">
        <ele>944.6</ele>
        <time>2019-05-17T06:55:10Z</time>
      </trkpt>
      <trkpt lat="47.7923" lon="6.84265">
        <ele>945</ele>
        <time>2019-05-17T06:55:11Z</time>
      </trkpt>
      <trkpt lat="47.79231" lon="6.84263">
        <ele>945.4</ele>
        <time>2019-05-17T06:55:12Z</time>
      </trkpt>
      <trkpt lat="47.79235" lon="6.84259">
        <ele>945.4</ele>
        <time>2019-05-17T06:55:15Z</time>
      </trkpt>
      <trkpt lat="47.79241" lon="6.8425">
        <ele>945.4</ele>
        <time>2019-05-17T06:55:20Z</time>
      </trkpt>
      <trkpt lat="47.79243" lon="6.84248">
        <ele>945.8</ele>
        <time>2019-05-17T06:55:21Z</time>
      </trkpt>
      <trkpt lat="47.79244" lon="6.84246">
        <ele>946.2</ele>
        <time>2019-05-17T06:55:22Z</time>
      </trkpt>
      <trkpt lat="47.79246" lon="6.84246">
        <ele>946.6</ele>
        <time>2019-05-17T06:55:23Z</time>
      </trkpt>
      <trkpt lat="47.79247" lon="6.84245">
        <ele>947</ele>
        <time>2019-05-17T06:55:24Z</time>
      </trkpt>
      <trkpt lat="47.79249" lon="6.84244">
        <ele>947.4</ele>
        <time>2019-05-17T06:55:25Z</time>
      </trkpt>
      <trkpt lat="47.79251" lon="6.84244">
        <ele>947.4</ele>
        <time>2019-05-17T06:55:26Z</time>
      </trkpt>
      <trkpt lat="47.79258" lon="6.84242">
        <ele>947.8</ele>
        <time>2019-05-17T06:55:31Z</time>
      </trkpt>
      <trkpt lat="47.7926" lon="6.84241">
        <ele>948.2</ele>
        <time>2019-05-17T06:55:32Z</time>
      </trkpt>
      <trkpt lat="47.7926" lon="6.84238">
        <ele>948.6</ele>
        <time>2019-05-17T06:55:33Z</time>
      </trkpt>
      <trkpt lat="47.79261" lon="6.84235">
        <ele>949</ele>
        <time>2019-05-17T06:55:34Z</time>
      </trkpt>
      <trkpt lat="47.79262" lon="6.84232">
        <ele>949.4</ele>
        <time>2019-05-17T06:55:35Z</time>
      </trkpt>
      <trkpt lat="47.79263" lon="6.84227">
        <ele>949.4</ele>
        <time>2019-05-17T06:55:37Z</time>
      </trkpt>
      <trkpt lat="47.79264" lon="6.84225">
        <ele>949.4</ele>
        <time>2019-05-17T06:55:38Z</time>
      </trkpt>
      <trkpt lat="47.79266" lon="6.84212">
        <ele>949.8</ele>
        <time>2019-05-17T06:55:42Z</time>
      </trkpt>
      <trkpt lat="47.79267" lon="6.84209">
        <ele>950.2</ele>
        <time>2019-05-17T06:55:43Z</time>
      </trkpt>
      <trkpt lat="47.79268" lon="6.84207">
        <ele>950.6</ele>
        <time>2019-05-17T06:55:44Z</time>
      </trkpt>
      <trkpt lat="47.79269" lon="6.84205">
        <ele>951</ele>
        <time>2019-05-17T06:55:45Z</time>
      </trkpt>
      <trkpt lat="47.7927" lon="6.84204">
        <ele>951.4</ele>
        <time>2019-05-17T06:55:46Z</time>
      </trkpt>
      <trkpt lat="47.79271" lon="6.84203">
        <ele>951.4</ele>
        <time>2019-05-17T06:55:47Z</time>
      </trkpt>
      <trkpt lat="47.79284" lon="6.84203">
        <ele>951.4</ele>
        <time>2019-05-17T06:55:52Z</time>
      </trkpt>
      <trkpt lat="47.79287" lon="6.84203">
        <ele>951.8</ele>
        <time>2019-05-17T06:55:53Z</time>
      </trkpt>
      <trkpt lat="47.7929" lon="6.84204">
        <ele>952.2</ele>
        <time>2019-05-17T06:55:54Z</time>
      </trkpt>
      <trkpt lat="47.79293" lon="6.84204">
        <ele>952.6</ele>
        <time>2019-05-17T06:55:55Z</time>
      </trkpt>
      <trkpt lat="47.79296" lon="6.84204">
        <ele>953</ele>
        <time>2019-05-17T06:55:56Z</time>
      </trkpt>
      <trkpt lat="47.79299" lon="6.84203">
        <ele>953.4</ele>
        <time>2019-05-17T06:55:57Z</time>
      </trkpt>
      <trkpt lat="47.79312" lon="6.84197">
        <ele>953.4</ele>
        <time>2019-05-17T06:56:03Z</time>
      </trkpt>
      <trkpt lat="47.79314" lon="6.84197">
        <ele>953.4</ele>
        <time>2019-05-17T06:56:04Z</time>
      </trkpt>
      <trkpt lat="47.79318" lon="6.84196">
        <ele>954</ele>
        <time>2019-05-17T06:56:06Z</time>
      </trkpt>
      <trkpt lat="47.7932" lon="6.84195">
        <ele>954.4</ele>
        <time>2019-05-17T06:56:07Z</time>
      </trkpt>
      <trkpt lat="47.79321" lon="6.84195">
        <ele>954.8</ele>
        <time>2019-05-17T06:56:08Z</time>
      </trkpt>
      <trkpt lat="47.79323" lon="6.84195">
        <ele>955.2</ele>
        <time>2019-05-17T06:56:09Z</time>
      </trkpt>
      <trkpt lat="47.79324" lon="6.84193">
        <ele>955.6</ele>
        <time>2019-05-17T06:56:10Z</time>
      </trkpt>
      <trkpt lat="47.79329" lon="6.8419">
        <ele>955.6</ele>
        <time>2019-05-17T06:56:13Z</time>
      </trkpt>
      <trkpt lat="47.79333" lon="6.84184">
        <ele>956.2</ele>
        <time>2019-05-17T06:56:17Z</time>
      </trkpt>
      <trkpt lat="47.79335" lon="6.84183">
        <ele>956.6</ele>
        <time>2019-05-17T06:56:18Z</time>
      </trkpt>
      <trkpt lat="47.79335" lon="6.84181">
        <ele>957</ele>
        <time>2019-05-17T06:56:19Z</time>
      </trkpt>
      <trkpt lat="47.79336" lon="6.84177">
        <ele>957.4</ele>
        <time>2019-05-17T06:56:20Z</time>
      </trkpt>
      <trkpt lat="47.79337" lon="6.84176">
        <ele>957.8</ele>
        <time>2019-05-17T06:56:21Z</time>
      </trkpt>
      <trkpt lat="47.7934" lon="6.84175">
        <ele>957.8</ele>
        <time>2019-05-17T06:56:23Z</time>
      </trkpt>
      <trkpt lat="47.79344" lon="6.84169">
        <ele>957.8</ele>
        <time>2019-05-17T06:56:26Z</time>
      </trkpt>
      <trkpt lat="47.79346" lon="6.84167">
        <ele>957.8</ele>
        <time>2019-05-17T06:56:27Z</time>
      </trkpt>
      <trkpt lat="47.79353" lon="6.8416">
        <ele>958.2</ele>
        <time>2019-05-17T06:56:31Z</time>
      </trkpt>
      <trkpt lat="47.79355" lon="6.8416">
        <ele>958.6</ele>
        <time>2019-05-17T06:56:32Z</time>
      </trkpt>
      <trkpt lat="47.79357" lon="6.84159">
        <ele>959</ele>
        <time>2019-05-17T06:56:33Z</time>
      </trkpt>
      <trkpt lat="47.7936" lon="6.84159">
        <ele>959.4</ele>
        <time>2019-05-17T06:56:34Z</time>
      </trkpt>
      <trkpt lat="47.79362" lon="6.84159">
        <ele>959.8</ele>
        <time>2019-05-17T06:56:35Z</time>
      </trkpt>
      <trkpt lat="47.79364" lon="6.84158">
        <ele>959.8</ele>
        <time>2019-05-17T06:56:37Z</time>
      </trkpt>
      <trkpt lat="47.79372" lon="6.84158">
        <ele>959.8</ele>
        <time>2019-05-17T06:56:41Z</time>
      </trkpt>
      <trkpt lat="47.79376" lon="6.84158">
        <ele>959.8</ele>
        <time>2019-05-17T06:56:43Z</time>
      </trkpt>
      <trkpt lat="47.7938" lon="6.84157">
        <ele>960.2</ele>
        <time>2019-05-17T06:56:45Z</time>
      </trkpt>
      <trkpt lat="47.79382" lon="6.84155">
        <ele>960.6</ele>
        <time>2019-05-17T06:56:46Z</time>
      </trkpt>
      <trkpt lat="47.79385" lon="6.84154">
        <ele>961</ele>
        <time>2019-05-17T06:56:47Z</time>
      </trkpt>
      <trkpt lat="47.79387" lon="6.84153">
        <ele>961.6</ele>
        <time>2019-05-17T06:56:48Z</time>
      </trkpt>
      <trkpt lat="47.79389" lon="6.84152">
        <ele>962</ele>
        <time>2019-05-17T06:56:49Z</time>
      </trkpt>
      <trkpt lat="47.794" lon="6.8415">
        <ele>962</ele>
        <time>2019-05-17T06:56:55Z</time>
      </trkpt>
      <trkpt lat="47.79404" lon="6.84151">
        <ele>962.4</ele>
        <time>2019-05-17T06:56:57Z</time>
      </trkpt>
      <trkpt lat="47.79407" lon="6.84151">
        <ele>962.8</ele>
        <time>2019-05-17T06:56:58Z</time>
      </trkpt>
      <trkpt lat="47.79409" lon="6.84152">
        <ele>963.2</ele>
        <time>2019-05-17T06:56:59Z</time>
      </trkpt>
      <trkpt lat="47.79411" lon="6.84152">
        <ele>963.6</ele>
        <time>2019-05-17T06:57:00Z</time>
      </trkpt>
      <trkpt lat="47.79413" lon="6.84153">
        <ele>964</ele>
        <time>2019-05-17T06:57:01Z</time>
      </trkpt>
      <trkpt lat="47.7942" lon="6.84158">
        <ele>964.6</ele>
        <time>2019-05-17T06:57:04Z</time>
      </trkpt>
      <trkpt lat="47.79422" lon="6.8416">
        <ele>965</ele>
        <time>2019-05-17T06:57:05Z</time>
      </trkpt>
      <trkpt lat="47.79424" lon="6.84161">
        <ele>965.4</ele>
        <time>2019-05-17T06:57:06Z</time>
      </trkpt>
      <trkpt lat="47.79427" lon="6.84162">
        <ele>965.8</ele>
        <time>2019-05-17T06:57:07Z</time>
      </trkpt>
      <trkpt lat="47.79428" lon="6.84163">
        <ele>966.2</ele>
        <time>2019-05-17T06:57:08Z</time>
      </trkpt>
      <trkpt lat="47.79432" lon="6.84167">
        <ele>966.2</ele>
        <time>2019-05-17T06:57:11Z</time>
      </trkpt>
      <trkpt lat="47.79434" lon="6.84168">
        <ele>966.6</ele>
        <time>2019-05-17T06:57:12Z</time>
      </trkpt>
      <trkpt lat="47.79436" lon="6.84169">
        <ele>967</ele>
        <time>2019-05-17T06:57:13Z</time>
      </trkpt>
      <trkpt lat="47.79438" lon="6.8417">
        <ele>967.4</ele>
        <time>2019-05-17T06:57:14Z</time>
      </trkpt>
      <trkpt lat="47.7944" lon="6.8417">
        <ele>967.8</ele>
        <time>2019-05-17T06:57:15Z</time>
      </trkpt>
      <trkpt lat="47.79443" lon="6.8417">
        <ele>968.2</ele>
        <time>2019-05-17T06:57:16Z</time>
      </trkpt>
      <trkpt lat="47.79445" lon="6.8417">
        <ele>968.2</ele>
        <time>2019-05-17T06:57:17Z</time>
      </trkpt>
      <trkpt lat="47.7945" lon="6.84173">
        <ele>968.6</ele>
        <time>2019-05-17T06:57:20Z</time>
      </trkpt>
      <trkpt lat="47.79452" lon="6.84175">
        <ele>969.2</ele>
        <time>2019-05-17T06:57:21Z</time>
      </trkpt>
      <trkpt lat="47.79453" lon="6.84176">
        <ele>969.6</ele>
        <time>2019-05-17T06:57:22Z</time>
      </trkpt>
      <trkpt lat="47.79456" lon="6.84178">
        <ele>970</ele>
        <time>2019-05-17T06:57:23Z</time>
      </trkpt>
      <trkpt lat="47.79459" lon="6.8418">
        <ele>970.4</ele>
        <time>2019-05-17T06:57:24Z</time>
      </trkpt>
      <trkpt lat="47.7947" lon="6.84188">
        <ele>970.8</ele>
        <time>2019-05-17T06:57:28Z</time>
      </trkpt>
      <trkpt lat="47.79472" lon="6.8419">
        <ele>971.2</ele>
        <time>2019-05-17T06:57:29Z</time>
      </trkpt>
      <trkpt lat="47.79474" lon="6.84191">
        <ele>971.6</ele>
        <time>2019-05-17T06:57:30Z</time>
      </trkpt>
      <trkpt lat="47.79476" lon="6.84193">
        <ele>972</ele>
        <time>2019-05-17T06:57:31Z</time>
      </trkpt>
      <trkpt lat="47.79478" lon="6.84195">
        <ele>972.4</ele>
        <time>2019-05-17T06:57:32Z</time>
      </trkpt>
      <trkpt lat="47.79487" lon="6.84205">
        <ele>972.8</ele>
        <time>2019-05-17T06:57:38Z</time>
      </trkpt>
      <trkpt lat="47.79489" lon="6.84207">
        <ele>973.2</ele>
        <time>2019-05-17T06:57:39Z</time>
      </trkpt>
      <trkpt lat="47.7949" lon="6.84209">
        <ele>973.6</ele>
        <time>2019-05-17T06:57:40Z</time>
      </trkpt>
      <trkpt lat="47.79491" lon="6.84211">
        <ele>974</ele>
        <time>2019-05-17T06:57:41Z</time>
      </trkpt>
      <trkpt lat="47.79492" lon="6.84213">
        <ele>974.6</ele>
        <time>2019-05-17T06:57:42Z</time>
      </trkpt>
      <trkpt lat="47.79492" lon="6.84215">
        <ele>974.6</ele>
        <time>2019-05-17T06:57:43Z</time>
      </trkpt>
      <trkpt lat="47.79495" lon="6.84223">
        <ele>975</ele>
        <time>2019-05-17T06:57:47Z</time>
      </trkpt>
      <trkpt lat="47.79496" lon="6.84225">
        <ele>975.4</ele>
        <time>2019-05-17T06:57:48Z</time>
      </trkpt>
      <trkpt lat="47.79497" lon="6.84227">
        <ele>975.8</ele>
        <time>2019-05-17T06:57:49Z</time>
      </trkpt>
      <trkpt lat="47.79498" lon="6.84229">
        <ele>976.2</ele>
        <time>2019-05-17T06:57:50Z</time>
      </trkpt>
      <trkpt lat="47.79498" lon="6.8423">
        <ele>976.6</ele>
        <time>2019-05-17T06:57:51Z</time>
      </trkpt>
      <trkpt lat="47.79501" lon="6.84239">
        <ele>976.6</ele>
        <time>2019-05-17T06:57:55Z</time>
      </trkpt>
      <trkpt lat="47.79502" lon="6.84241">
        <ele>976.6</ele>
        <time>2019-05-17T06:57:56Z</time>
      </trkpt>
      <trkpt lat="47.79504" lon="6.84246">
        <ele>977</ele>
        <time>2019-05-17T06:57:58Z</time>
      </trkpt>
      <trkpt lat="47.79505" lon="6.84249">
        <ele>977.6</ele>
        <time>2019-05-17T06:57:59Z</time>
      </trkpt>
      <trkpt lat="47.79506" lon="6.84253">
        <ele>978</ele>
        <time>2019-05-17T06:58:00Z</time>
      </trkpt>
      <trkpt lat="47.79508" lon="6.84256">
        <ele>978.4</ele>
        <time>2019-05-17T06:58:01Z</time>
      </trkpt>
      <trkpt lat="47.7951" lon="6.84259">
        <ele>978.8</ele>
        <time>2019-05-17T06:58:02Z</time>
      </trkpt>
      <trkpt lat="47.79517" lon="6.8427">
        <ele>978.8</ele>
        <time>2019-05-17T06:58:06Z</time>
      </trkpt>
      <trkpt lat="47.79519" lon="6.84274">
        <ele>979.4</ele>
        <time>2019-05-17T06:58:08Z</time>
      </trkpt>
      <trkpt lat="47.79519" lon="6.84276">
        <ele>980</ele>
        <time>2019-05-17T06:58:09Z</time>
      </trkpt>
      <trkpt lat="47.7952" lon="6.84278">
        <ele>980.6</ele>
        <time>2019-05-17T06:58:10Z</time>
      </trkpt>
      <trkpt lat="47.7952" lon="6.8428">
        <ele>981.2</ele>
        <time>2019-05-17T06:58:11Z</time>
      </trkpt>
      <trkpt lat="47.79521" lon="6.84281">
        <ele>981.8</ele>
        <time>2019-05-17T06:58:12Z</time>
      </trkpt>
      <trkpt lat="47.79524" lon="6.84291">
        <ele>981.8</ele>
        <time>2019-05-17T06:58:18Z</time>
      </trkpt>
      <trkpt lat="47.79527" lon="6.84299">
        <ele>982.2</ele>
        <time>2019-05-17T06:58:22Z</time>
      </trkpt>
      <trkpt lat="47.79527" lon="6.84301">
        <ele>982.8</ele>
        <time>2019-05-17T06:58:23Z</time>
      </trkpt>
      <trkpt lat="47.79528" lon="6.84303">
        <ele>983.2</ele>
        <time>2019-05-17T06:58:24Z</time>
      </trkpt>
      <trkpt lat="47.79529" lon="6.84305">
        <ele>983.6</ele>
        <time>2019-05-17T06:58:25Z</time>
      </trkpt>
      <trkpt lat="47.79529" lon="6.84308">
        <ele>984.2</ele>
        <time>2019-05-17T06:58:26Z</time>
      </trkpt>
      <trkpt lat="47.79531" lon="6.84316">
        <ele>984.2</ele>
        <time>2019-05-17T06:58:30Z</time>
      </trkpt>
      <trkpt lat="47.79533" lon="6.84321">
        <ele>984.6</ele>
        <time>2019-05-17T06:58:32Z</time>
      </trkpt>
      <trkpt lat="47.79534" lon="6.84324">
        <ele>985</ele>
        <time>2019-05-17T06:58:33Z</time>
      </trkpt>
      <trkpt lat="47.79535" lon="6.84326">
        <ele>985.4</ele>
        <time>2019-05-17T06:58:34Z</time>
      </trkpt>
      <trkpt lat="47.79536" lon="6.8433">
        <ele>985.8</ele>
        <time>2019-05-17T06:58:35Z</time>
      </trkpt>
      <trkpt lat="47.79537" lon="6.84332">
        <ele>986.4</ele>
        <time>2019-05-17T06:58:36Z</time>
      </trkpt>
      <trkpt lat="47.79538" lon="6.84336">
        <ele>986.4</ele>
        <time>2019-05-17T06:58:37Z</time>
      </trkpt>
      <trkpt lat="47.79543" lon="6.84346">
        <ele>986.8</ele>
        <time>2019-05-17T06:58:41Z</time>
      </trkpt>
      <trkpt lat="47.79543" lon="6.84349">
        <ele>987.2</ele>
        <time>2019-05-17T06:58:42Z</time>
      </trkpt>
      <trkpt lat="47.79545" lon="6.84352">
        <ele>987.6</ele>
        <time>2019-05-17T06:58:43Z</time>
      </trkpt>
      <trkpt lat="47.79545" lon="6.84354">
        <ele>988.2</ele>
        <time>2019-05-17T06:58:44Z</time>
      </trkpt>
      <trkpt lat="47.79546" lon="6.84356">
        <ele>988.6</ele>
        <time>2019-05-17T06:58:45Z</time>
      </trkpt>
      <trkpt lat="47.79547" lon="6.84358">
        <ele>988.6</ele>
        <time>2019-05-17T06:58:47Z</time>
      </trkpt>
      <trkpt lat="47.79548" lon="6.84362">
        <ele>988.6</ele>
        <time>2019-05-17T06:58:49Z</time>
      </trkpt>
      <trkpt lat="47.79549" lon="6.84365">
        <ele>988.6</ele>
        <time>2019-05-17T06:58:50Z</time>
      </trkpt>
      <trkpt lat="47.7955" lon="6.84368">
        <ele>989</ele>
        <time>2019-05-17T06:58:51Z</time>
      </trkpt>
      <trkpt lat="47.79551" lon="6.84371">
        <ele>989.4</ele>
        <time>2019-05-17T06:58:52Z</time>
      </trkpt>
      <trkpt lat="47.79552" lon="6.84375">
        <ele>989.8</ele>
        <time>2019-05-17T06:58:53Z</time>
      </trkpt>
      <trkpt lat="47.79553" lon="6.84379">
        <ele>990.2</ele>
        <time>2019-05-17T06:58:54Z</time>
      </trkpt>
      <trkpt lat="47.79554" lon="6.84382">
        <ele>990.8</ele>
        <time>2019-05-17T06:58:55Z</time>
      </trkpt>
      <trkpt lat="47.79554" lon="6.84384">
        <ele>990.8</ele>
        <time>2019-05-17T06:58:56Z</time>
      </trkpt>
      <trkpt lat="47.79555" lon="6.84394">
        <ele>990.8</ele>
        <time>2019-05-17T06:58:59Z</time>
      </trkpt>
      <trkpt lat="47.79557" lon="6.844">
        <ele>991.2</ele>
        <time>2019-05-17T06:59:01Z</time>
      </trkpt>
      <trkpt lat="47.79558" lon="6.84402">
        <ele>991.6</ele>
        <time>2019-05-17T06:59:02Z</time>
      </trkpt>
      <trkpt lat="47.79559" lon="6.84405">
        <ele>992</ele>
        <time>2019-05-17T06:59:03Z</time>
      </trkpt>
      <trkpt lat="47.79561" lon="6.84408">
        <ele>992.4</ele>
        <time>2019-05-17T06:59:04Z</time>
      </trkpt>
      <trkpt lat="47.79562" lon="6.84411">
        <ele>992.8</ele>
        <time>2019-05-17T06:59:05Z</time>
      </trkpt>
      <trkpt lat="47.79566" lon="6.84421">
        <ele>992.8</ele>
        <time>2019-05-17T06:59:08Z</time>
      </trkpt>
      <trkpt lat="47.79576" lon="6.84444">
        <ele>992.8</ele>
        <time>2019-05-17T06:59:14Z</time>
      </trkpt>
      <trkpt lat="47.79583" lon="6.84456">
        <ele>993.2</ele>
        <time>2019-05-17T06:59:19Z</time>
      </trkpt>
      <trkpt lat="47.79585" lon="6.84459">
        <ele>993.6</ele>
        <time>2019-05-17T06:59:20Z</time>
      </trkpt>
      <trkpt lat="47.79586" lon="6.84461">
        <ele>994</ele>
        <time>2019-05-17T06:59:21Z</time>
      </trkpt>
      <trkpt lat="47.79588" lon="6.84462">
        <ele>994.4</ele>
        <time>2019-05-17T06:59:22Z</time>
      </trkpt>
      <trkpt lat="47.7959" lon="6.84464">
        <ele>994.8</ele>
        <time>2019-05-17T06:59:23Z</time>
      </trkpt>
      <trkpt lat="47.79592" lon="6.84467">
        <ele>994.8</ele>
        <time>2019-05-17T06:59:25Z</time>
      </trkpt>
      <trkpt lat="47.79593" lon="6.84469">
        <ele>994.8</ele>
        <time>2019-05-17T06:59:26Z</time>
      </trkpt>
      <trkpt lat="47.79596" lon="6.84476">
        <ele>994.8</ele>
        <time>2019-05-17T06:59:29Z</time>
      </trkpt>
      <trkpt lat="47.79599" lon="6.84481">
        <ele>995.2</ele>
        <time>2019-05-17T06:59:32Z</time>
      </trkpt>
      <trkpt lat="47.796" lon="6.84483">
        <ele>995.6</ele>
        <time>2019-05-17T06:59:33Z</time>
      </trkpt>
      <trkpt lat="47.79601" lon="6.84485">
        <ele>996</ele>
        <time>2019-05-17T06:59:34Z</time>
      </trkpt>
      <trkpt lat="47.79602" lon="6.84487">
        <ele>996.4</ele>
        <time>2019-05-17T06:59:35Z</time>
      </trkpt>
      <trkpt lat="47.79603" lon="6.84488">
        <ele>996.8</ele>
        <time>2019-05-17T06:59:36Z</time>
      </trkpt>
      <trkpt lat="47.7961" lon="6.84495">
        <ele>997.4</ele>
        <time>2019-05-17T06:59:42Z</time>
      </trkpt>
      <trkpt lat="47.7961" lon="6.84496">
        <ele>997.8</ele>
        <time>2019-05-17T06:59:43Z</time>
      </trkpt>
      <trkpt lat="47.79612" lon="6.84497">
        <ele>998.2</ele>
        <time>2019-05-17T06:59:44Z</time>
      </trkpt>
      <trkpt lat="47.79613" lon="6.84499">
        <ele>998.6</ele>
        <time>2019-05-17T06:59:45Z</time>
      </trkpt>
      <trkpt lat="47.79614" lon="6.845">
        <ele>999</ele>
        <time>2019-05-17T06:59:46Z</time>
      </trkpt>
      <trkpt lat="47.79616" lon="6.84501">
        <ele>999</ele>
        <time>2019-05-17T06:59:47Z</time>
      </trkpt>
      <trkpt lat="47.79619" lon="6.84504">
        <ele>999</ele>
        <time>2019-05-17T06:59:49Z</time>
      </trkpt>
      <trkpt lat="47.79622" lon="6.84506">
        <ele>999.4</ele>
        <time>2019-05-17T06:59:51Z</time>
      </trkpt>
      <trkpt lat="47.79623" lon="6.84507">
        <ele>999.8</ele>
        <time>2019-05-17T06:59:52Z</time>
      </trkpt>
      <trkpt lat="47.79625" lon="6.84509">
        <ele>1000.2</ele>
        <time>2019-05-17T06:59:53Z</time>
      </trkpt>
      <trkpt lat="47.79627" lon="6.84511">
        <ele>1000.6</ele>
        <time>2019-05-17T06:59:54Z</time>
      </trkpt>
      <trkpt lat="47.79629" lon="6.84511">
        <ele>1001.2</ele>
        <time>2019-05-17T06:59:55Z</time>
      </trkpt>
      <trkpt lat="47.79631" lon="6.84513">
        <ele>1001.2</ele>
        <time>2019-05-17T06:59:57Z</time>
      </trkpt>
      <trkpt lat="47.79637" lon="6.84516">
        <ele>1001.2</ele>
        <time>2019-05-17T07:00:00Z</time>
      </trkpt>
      <trkpt lat="47.79639" lon="6.84517">
        <ele>1001.6</ele>
        <time>2019-05-17T07:00:01Z</time>
      </trkpt>
      <trkpt lat="47.79641" lon="6.84518">
        <ele>1002</ele>
        <time>2019-05-17T07:00:02Z</time>
      </trkpt>
      <trkpt lat="47.79643" lon="6.84519">
        <ele>1002.4</ele>
        <time>2019-05-17T07:00:03Z</time>
      </trkpt>
      <trkpt lat="47.79645" lon="6.8452">
        <ele>1002.8</ele>
        <time>2019-05-17T07:00:04Z</time>
      </trkpt>
      <trkpt lat="47.79647" lon="6.84521">
        <ele>1003.2</ele>
        <time>2019-05-17T07:00:05Z</time>
      </trkpt>
      <trkpt lat="47.79649" lon="6.84523">
        <ele>1003.2</ele>
        <time>2019-05-17T07:00:07Z</time>
      </trkpt>
      <trkpt lat="47.7966" lon="6.84529">
        <ele>1003.2</ele>
        <time>2019-05-17T07:00:12Z</time>
      </trkpt>
      <trkpt lat="47.79665" lon="6.84531">
        <ele>1003.8</ele>
        <time>2019-05-17T07:00:14Z</time>
      </trkpt>
      <trkpt lat="47.79667" lon="6.84532">
        <ele>1004.2</ele>
        <time>2019-05-17T07:00:15Z</time>
      </trkpt>
      <trkpt lat="47.79669" lon="6.84533">
        <ele>1004.6</ele>
        <time>2019-05-17T07:00:16Z</time>
      </trkpt>
      <trkpt lat="47.79671" lon="6.84535">
        <ele>1005</ele>
        <time>2019-05-17T07:00:17Z</time>
      </trkpt>
      <trkpt lat="47.79674" lon="6.84537">
        <ele>1005.4</ele>
        <time>2019-05-17T07:00:18Z</time>
      </trkpt>
      <trkpt lat="47.79686" lon="6.84544">
        <ele>1005.4</ele>
        <time>2019-05-17T07:00:23Z</time>
      </trkpt>
      <trkpt lat="47.79696" lon="6.84552">
        <ele>1005.4</ele>
        <time>2019-05-17T07:00:27Z</time>
      </trkpt>
      <trkpt lat="47.79708" lon="6.84561">
        <ele>1006</ele>
        <time>2019-05-17T07:00:32Z</time>
      </trkpt>
      <trkpt lat="47.7971" lon="6.84562">
        <ele>1006.4</ele>
        <time>2019-05-17T07:00:33Z</time>
      </trkpt>
      <trkpt lat="47.79712" lon="6.84564">
        <ele>1006.8</ele>
        <time>2019-05-17T07:00:34Z</time>
      </trkpt>
      <trkpt lat="47.79715" lon="6.84565">
        <ele>1007.2</ele>
        <time>2019-05-17T07:00:35Z</time>
      </trkpt>
      <trkpt lat="47.79717" lon="6.84567">
        <ele>1007.6</ele>
        <time>2019-05-17T07:00:36Z</time>
      </trkpt>
      <trkpt lat="47.79725" lon="6.84571">
        <ele>1007.6</ele>
        <time>2019-05-17T07:00:39Z</time>
      </trkpt>
      <trkpt lat="47.7974" lon="6.84581">
        <ele>1007.6</ele>
        <time>2019-05-17T07:00:44Z</time>
      </trkpt>
      <trkpt lat="47.79751" lon="6.84589">
        <ele>1008</ele>
        <time>2019-05-17T07:00:48Z</time>
      </trkpt>
      <trkpt lat="47.79754" lon="6.84591">
        <ele>1008.4</ele>
        <time>2019-05-17T07:00:49Z</time>
      </trkpt>
      <trkpt lat="47.79758" lon="6.84594">
        <ele>1008.8</ele>
        <time>2019-05-17T07:00:50Z</time>
      </trkpt>
      <trkpt lat="47.79762" lon="6.84597">
        <ele>1009.2</ele>
        <time>2019-05-17T07:00:51Z</time>
      </trkpt>
      <trkpt lat="47.79765" lon="6.84599">
        <ele>1009.6</ele>
        <time>2019-05-17T07:00:52Z</time>
      </trkpt>
      <trkpt lat="47.79776" lon="6.8461">
        <ele>1009.6</ele>
        <time>2019-05-17T07:00:56Z</time>
      </trkpt>
      <trkpt lat="47.7979" lon="6.84625">
        <ele>1009.6</ele>
        <time>2019-05-17T07:01:02Z</time>
      </trkpt>
      <trkpt lat="47.79793" lon="6.84628">
        <ele>1010</ele>
        <time>2019-05-17T07:01:03Z</time>
      </trkpt>
      <trkpt lat="47.79795" lon="6.84632">
        <ele>1010.4</ele>
        <time>2019-05-17T07:01:04Z</time>
      </trkpt>
      <trkpt lat="47.79797" lon="6.84635">
        <ele>1010.8</ele>
        <time>2019-05-17T07:01:05Z</time>
      </trkpt>
      <trkpt lat="47.79799" lon="6.84637">
        <ele>1011.2</ele>
        <time>2019-05-17T07:01:06Z</time>
      </trkpt>
      <trkpt lat="47.79802" lon="6.8464">
        <ele>1011.6</ele>
        <time>2019-05-17T07:01:07Z</time>
      </trkpt>
      <trkpt lat="47.79813" lon="6.84656">
        <ele>1011.6</ele>
        <time>2019-05-17T07:01:12Z</time>
      </trkpt>
      <trkpt lat="47.79816" lon="6.84658">
        <ele>1012</ele>
        <time>2019-05-17T07:01:13Z</time>
      </trkpt>
      <trkpt lat="47.79818" lon="6.8466">
        <ele>1012.4</ele>
        <time>2019-05-17T07:01:14Z</time>
      </trkpt>
      <trkpt lat="47.7982" lon="6.84663">
        <ele>1012.8</ele>
        <time>2019-05-17T07:01:15Z</time>
      </trkpt>
      <trkpt lat="47.79821" lon="6.84666">
        <ele>1013.2</ele>
        <time>2019-05-17T07:01:16Z</time>
      </trkpt>
      <trkpt lat="47.79823" lon="6.84668">
        <ele>1013.6</ele>
        <time>2019-05-17T07:01:17Z</time>
      </trkpt>
      <trkpt lat="47.79826" lon="6.84674">
        <ele>1013.6</ele>
        <time>2019-05-17T07:01:19Z</time>
      </trkpt>
      <trkpt lat="47.79832" lon="6.8468">
        <ele>1014</ele>
        <time>2019-05-17T07:01:22Z</time>
      </trkpt>
      <trkpt lat="47.79832" lon="6.84681">
        <ele>1014.4</ele>
        <time>2019-05-17T07:01:23Z</time>
      </trkpt>
      <trkpt lat="47.79834" lon="6.84683">
        <ele>1015</ele>
        <time>2019-05-17T07:01:24Z</time>
      </trkpt>
      <trkpt lat="47.79836" lon="6.84684">
        <ele>1015.4</ele>
        <time>2019-05-17T07:01:25Z</time>
      </trkpt>
      <trkpt lat="47.79838" lon="6.84686">
        <ele>1015.8</ele>
        <time>2019-05-17T07:01:26Z</time>
      </trkpt>
      <trkpt lat="47.79844" lon="6.84692">
        <ele>1015.8</ele>
        <time>2019-05-17T07:01:29Z</time>
      </trkpt>
      <trkpt lat="47.79849" lon="6.84698">
        <ele>1016.2</ele>
        <time>2019-05-17T07:01:32Z</time>
      </trkpt>
      <trkpt lat="47.7985" lon="6.84701">
        <ele>1016.6</ele>
        <time>2019-05-17T07:01:33Z</time>
      </trkpt>
      <trkpt lat="47.79852" lon="6.84703">
        <ele>1017.4</ele>
        <time>2019-05-17T07:01:34Z</time>
      </trkpt>
      <trkpt lat="47.79854" lon="6.84706">
        <ele>1017.8</ele>
        <time>2019-05-17T07:01:35Z</time>
      </trkpt>
      <trkpt lat="47.79855" lon="6.84708">
        <ele>1017.8</ele>
        <time>2019-05-17T07:01:36Z</time>
      </trkpt>
      <trkpt lat="47.79863" lon="6.84718">
        <ele>1017.8</ele>
        <time>2019-05-17T07:01:41Z</time>
      </trkpt>
      <trkpt lat="47.79866" lon="6.84721">
        <ele>1018.2</ele>
        <time>2019-05-17T07:01:43Z</time>
      </trkpt>
      <trkpt lat="47.79867" lon="6.84722">
        <ele>1018.6</ele>
        <time>2019-05-17T07:01:44Z</time>
      </trkpt>
      <trkpt lat="47.79869" lon="6.84724">
        <ele>1019</ele>
        <time>2019-05-17T07:01:45Z</time>
      </trkpt>
      <trkpt lat="47.79872" lon="6.84726">
        <ele>1019.6</ele>
        <time>2019-05-17T07:01:46Z</time>
      </trkpt>
      <trkpt lat="47.79874" lon="6.84729">
        <ele>1020</ele>
        <time>2019-05-17T07:01:47Z</time>
      </trkpt>
      <trkpt lat="47.79886" lon="6.84741">
        <ele>1020</ele>
        <time>2019-05-17T07:01:53Z</time>
      </trkpt>
      <trkpt lat="47.7989" lon="6.84746">
        <ele>1020.4</ele>
        <time>2019-05-17T07:01:55Z</time>
      </trkpt>
      <trkpt lat="47.79891" lon="6.84748">
        <ele>1020.8</ele>
        <time>2019-05-17T07:01:56Z</time>
      </trkpt>
      <trkpt lat="47.79893" lon="6.8475">
        <ele>1021.4</ele>
        <time>2019-05-17T07:01:57Z</time>
      </trkpt>
      <trkpt lat="47.79895" lon="6.84752">
        <ele>1021.8</ele>
        <time>2019-05-17T07:01:58Z</time>
      </trkpt>
      <trkpt lat="47.79897" lon="6.84755">
        <ele>1022.2</ele>
        <time>2019-05-17T07:01:59Z</time>
      </trkpt>
      <trkpt lat="47.79901" lon="6.8476">
        <ele>1022.6</ele>
        <time>2019-05-17T07:02:02Z</time>
      </trkpt>
      <trkpt lat="47.79903" lon="6.84762">
        <ele>1023</ele>
        <time>2019-05-17T07:02:03Z</time>
      </trkpt>
      <trkpt lat="47.79905" lon="6.84764">
        <ele>1023.4</ele>
        <time>2019-05-17T07:02:04Z</time>
      </trkpt>
      <trkpt lat="47.79906" lon="6.84765">
        <ele>1023.8</ele>
        <time>2019-05-17T07:02:05Z</time>
      </trkpt>
      <trkpt lat="47.79908" lon="6.84767">
        <ele>1024.2</ele>
        <time>2019-05-17T07:02:06Z</time>
      </trkpt>
      <trkpt lat="47.79912" lon="6.84775">
        <ele>1024.6</ele>
        <time>2019-05-17T07:02:10Z</time>
      </trkpt>
      <trkpt lat="47.79914" lon="6.84776">
        <ele>1025</ele>
        <time>2019-05-17T07:02:11Z</time>
      </trkpt>
      <trkpt lat="47.79915" lon="6.84777">
        <ele>1025.4</ele>
        <time>2019-05-17T07:02:12Z</time>
      </trkpt>
      <trkpt lat="47.79916" lon="6.84778">
        <ele>1026</ele>
        <time>2019-05-17T07:02:13Z</time>
      </trkpt>
      <trkpt lat="47.79918" lon="6.8478">
        <ele>1026.4</ele>
        <time>2019-05-17T07:02:14Z</time>
      </trkpt>
      <trkpt lat="47.79922" lon="6.84785">
        <ele>1026.8</ele>
        <time>2019-05-17T07:02:17Z</time>
      </trkpt>
      <trkpt lat="47.79923" lon="6.84787">
        <ele>1027.2</ele>
        <time>2019-05-17T07:02:18Z</time>
      </trkpt>
      <trkpt lat="47.79925" lon="6.84789">
        <ele>1027.6</ele>
        <time>2019-05-17T07:02:19Z</time>
      </trkpt>
      <trkpt lat="47.79926" lon="6.84791">
        <ele>1028</ele>
        <time>2019-05-17T07:02:20Z</time>
      </trkpt>
      <trkpt lat="47.79927" lon="6.84793">
        <ele>1028.6</ele>
        <time>2019-05-17T07:02:21Z</time>
      </trkpt>
      <trkpt lat="47.79932" lon="6.84796">
        <ele>1028.6</ele>
        <time>2019-05-17T07:02:24Z</time>
      </trkpt>
      <trkpt lat="47.79933" lon="6.84797">
        <ele>1029</ele>
        <time>2019-05-17T07:02:25Z</time>
      </trkpt>
      <trkpt lat="47.79935" lon="6.84798">
        <ele>1029.4</ele>
        <time>2019-05-17T07:02:26Z</time>
      </trkpt>
      <trkpt lat="47.79936" lon="6.848">
        <ele>1029.8</ele>
        <time>2019-05-17T07:02:27Z</time>
      </trkpt>
      <trkpt lat="47.79937" lon="6.84802">
        <ele>1030.2</ele>
        <time>2019-05-17T07:02:28Z</time>
      </trkpt>
      <trkpt lat="47.79937" lon="6.84803">
        <ele>1030.6</ele>
        <time>2019-05-17T07:02:29Z</time>
      </trkpt>
      <trkpt lat="47.79939" lon="6.84804">
        <ele>1030.6</ele>
        <time>2019-05-17T07:02:30Z</time>
      </trkpt>
      <trkpt lat="47.79947" lon="6.84814">
        <ele>1030.6</ele>
        <time>2019-05-17T07:02:36Z</time>
      </trkpt>
      <trkpt lat="47.79952" lon="6.84818">
        <ele>1031</ele>
        <time>2019-05-17T07:02:39Z</time>
      </trkpt>
      <trkpt lat="47.79954" lon="6.8482">
        <ele>1031.4</ele>
        <time>2019-05-17T07:02:40Z</time>
      </trkpt>
      <trkpt lat="47.79955" lon="6.84821">
        <ele>1032</ele>
        <time>2019-05-17T07:02:41Z</time>
      </trkpt>
      <trkpt lat="47.79957" lon="6.84822">
        <ele>1032.4</ele>
        <time>2019-05-17T07:02:42Z</time>
      </trkpt>
      <trkpt lat="47.79958" lon="6.84824">
        <ele>1032.8</ele>
        <time>2019-05-17T07:02:43Z</time>
      </trkpt>
      <trkpt lat="47.79968" lon="6.84829">
        <ele>1033.2</ele>
        <time>2019-05-17T07:02:48Z</time>
      </trkpt>
      <trkpt lat="47.7997" lon="6.8483">
        <ele>1033.6</ele>
        <time>2019-05-17T07:02:49Z</time>
      </trkpt>
      <trkpt lat="47.79971" lon="6.84831">
        <ele>1034</ele>
        <time>2019-05-17T07:02:50Z</time>
      </trkpt>
      <trkpt lat="47.79973" lon="6.84832">
        <ele>1034.4</ele>
        <time>2019-05-17T07:02:51Z</time>
      </trkpt>
      <trkpt lat="47.79975" lon="6.84832">
        <ele>1034.8</ele>
        <time>2019-05-17T07:02:52Z</time>
      </trkpt>
      <trkpt lat="47.79978" lon="6.84835">
        <ele>1034.8</ele>
        <time>2019-05-17T07:02:54Z</time>
      </trkpt>
      <trkpt lat="47.79979" lon="6.84836">
        <ele>1034.8</ele>
        <time>2019-05-17T07:02:55Z</time>
      </trkpt>
      <trkpt lat="47.79985" lon="6.84839">
        <ele>1035.2</ele>
        <time>2019-05-17T07:02:59Z</time>
      </trkpt>
      <trkpt lat="47.79987" lon="6.8484">
        <ele>1035.6</ele>
        <time>2019-05-17T07:03:00Z</time>
      </trkpt>
      <trkpt lat="47.79988" lon="6.84841">
        <ele>1036</ele>
        <time>2019-05-17T07:03:01Z</time>
      </trkpt>
      <trkpt lat="47.7999" lon="6.84842">
        <ele>1036.4</ele>
        <time>2019-05-17T07:03:02Z</time>
      </trkpt>
      <trkpt lat="47.79992" lon="6.84843">
        <ele>1036.8</ele>
        <time>2019-05-17T07:03:03Z</time>
      </trkpt>
      <trkpt lat="47.8" lon="6.84848">
        <ele>1036.8</ele>
        <time>2019-05-17T07:03:08Z</time>
      </trkpt>
      <trkpt lat="47.80007" lon="6.84849">
        <ele>1037.6</ele>
        <time>2019-05-17T07:03:11Z</time>
      </trkpt>
      <trkpt lat="47.80008" lon="6.84849">
        <ele>1038.2</ele>
        <time>2019-05-17T07:03:12Z</time>
      </trkpt>
      <trkpt lat="47.8001" lon="6.84849">
        <ele>1038.6</ele>
        <time>2019-05-17T07:03:13Z</time>
      </trkpt>
      <trkpt lat="47.80012" lon="6.8485">
        <ele>1039</ele>
        <time>2019-05-17T07:03:14Z</time>
      </trkpt>
      <trkpt lat="47.80016" lon="6.84858">
        <ele>1039</ele>
        <time>2019-05-17T07:03:18Z</time>
      </trkpt>
      <trkpt lat="47.80027" lon="6.84864">
        <ele>1039</ele>
        <time>2019-05-17T07:03:24Z</time>
      </trkpt>
      <trkpt lat="47.80028" lon="6.84864">
        <ele>1039.4</ele>
        <time>2019-05-17T07:03:25Z</time>
      </trkpt>
      <trkpt lat="47.8003" lon="6.84865">
        <ele>1039.8</ele>
        <time>2019-05-17T07:03:26Z</time>
      </trkpt>
      <trkpt lat="47.8003" lon="6.84868">
        <ele>1040.4</ele>
        <time>2019-05-17T07:03:27Z</time>
      </trkpt>
      <trkpt lat="47.80031" lon="6.8487">
        <ele>1040.8</ele>
        <time>2019-05-17T07:03:28Z</time>
      </trkpt>
      <trkpt lat="47.80031" lon="6.84872">
        <ele>1041.2</ele>
        <time>2019-05-17T07:03:29Z</time>
      </trkpt>
      <trkpt lat="47.80024" lon="6.84879">
        <ele>1041.2</ele>
        <time>2019-05-17T07:03:33Z</time>
      </trkpt>
      <trkpt lat="47.8002" lon="6.84885">
        <ele>1041.6</ele>
        <time>2019-05-17T07:03:37Z</time>
      </trkpt>
      <trkpt lat="47.80019" lon="6.84886">
        <ele>1042.2</ele>
        <time>2019-05-17T07:03:38Z</time>
      </trkpt>
      <trkpt lat="47.80018" lon="6.84887">
        <ele>1042.6</ele>
        <time>2019-05-17T07:03:39Z</time>
      </trkpt>
      <trkpt lat="47.80017" lon="6.84889">
        <ele>1043</ele>
        <time>2019-05-17T07:03:40Z</time>
      </trkpt>
      <trkpt lat="47.80016" lon="6.84892">
        <ele>1043.6</ele>
        <time>2019-05-17T07:03:41Z</time>
      </trkpt>
      <trkpt lat="47.80014" lon="6.84894">
        <ele>1043.6</ele>
        <time>2019-05-17T07:03:42Z</time>
      </trkpt>
      <trkpt lat="47.80009" lon="6.84899">
        <ele>1044</ele>
        <time>2019-05-17T07:03:45Z</time>
      </trkpt>
      <trkpt lat="47.80008" lon="6.84899">
        <ele>1044.4</ele>
        <time>2019-05-17T07:03:46Z</time>
      </trkpt>
      <trkpt lat="47.80008" lon="6.84899">
        <ele>1044.8</ele>
        <time>2019-05-17T07:03:47Z</time>
      </trkpt>
      <trkpt lat="47.80011" lon="6.84895">
        <ele>1045.8</ele>
        <time>2019-05-17T07:03:58Z</time>
      </trkpt>
      <trkpt lat="47.80019" lon="6.84889">
        <ele>1045.8</ele>
        <time>2019-05-17T07:04:01Z</time>
      </trkpt>
      <trkpt lat="47.80026" lon="6.84886">
        <ele>1045.2</ele>
        <time>2019-05-17T07:04:03Z</time>
      </trkpt>
      <trkpt lat="47.8003" lon="6.84884">
        <ele>1044.8</ele>
        <time>2019-05-17T07:04:04Z</time>
      </trkpt>
      <trkpt lat="47.80031" lon="6.8488">
        <ele>1044.2</ele>
        <time>2019-05-17T07:04:05Z</time>
      </trkpt>
      <trkpt lat="47.8003" lon="6.84876">
        <ele>1043.6</ele>
        <time>2019-05-17T07:04:06Z</time>
      </trkpt>
      <trkpt lat="47.80028" lon="6.84875">
        <ele>1043</ele>
        <time>2019-05-17T07:04:07Z</time>
      </trkpt>
      <trkpt lat="47.80025" lon="6.84875">
        <ele>1042.4</ele>
        <time>2019-05-17T07:04:08Z</time>
      </trkpt>
      <trkpt lat="47.80022" lon="6.84875">
        <ele>1041.8</ele>
        <time>2019-05-17T07:04:09Z</time>
      </trkpt>
      <trkpt lat="47.80019" lon="6.84875">
        <ele>1041.2</ele>
        <time>2019-05-17T07:04:10Z</time>
      </trkpt>
      <trkpt lat="47.80007" lon="6.84872">
        <ele>1041.2</ele>
        <time>2019-05-17T07:04:14Z</time>
      </trkpt>
      <trkpt lat="47.7999" lon="6.84873">
        <ele>1041.2</ele>
        <time>2019-05-17T07:04:20Z</time>
      </trkpt>
      <trkpt lat="47.79973" lon="6.84875">
        <ele>1041.2</ele>
        <time>2019-05-17T07:04:25Z</time>
      </trkpt>
      <trkpt lat="47.79961" lon="6.84877">
        <ele>1041.2</ele>
        <time>2019-05-17T07:04:30Z</time>
      </trkpt>
      <trkpt lat="47.79953" lon="6.84877">
        <ele>1041.6</ele>
        <time>2019-05-17T07:04:34Z</time>
      </trkpt>
      <trkpt lat="47.79951" lon="6.84878">
        <ele>1042.2</ele>
        <time>2019-05-17T07:04:35Z</time>
      </trkpt>
      <trkpt lat="47.79949" lon="6.84879">
        <ele>1042.6</ele>
        <time>2019-05-17T07:04:36Z</time>
      </trkpt>
      <trkpt lat="47.79947" lon="6.84881">
        <ele>1043</ele>
        <time>2019-05-17T07:04:37Z</time>
      </trkpt>
      <trkpt lat="47.79945" lon="6.84882">
        <ele>1043.4</ele>
        <time>2019-05-17T07:04:38Z</time>
      </trkpt>
      <trkpt lat="47.79942" lon="6.84883">
        <ele>1044</ele>
        <time>2019-05-17T07:04:40Z</time>
      </trkpt>
      <trkpt lat="47.79939" lon="6.84884">
        <ele>1044.4</ele>
        <time>2019-05-17T07:04:41Z</time>
      </trkpt>
      <trkpt lat="47.79936" lon="6.84886">
        <ele>1045</ele>
        <time>2019-05-17T07:04:42Z</time>
      </trkpt>
      <trkpt lat="47.79933" lon="6.84887">
        <ele>1045.4</ele>
        <time>2019-05-17T07:04:43Z</time>
      </trkpt>
      <trkpt lat="47.79932" lon="6.84888">
        <ele>1045.8</ele>
        <time>2019-05-17T07:04:44Z</time>
      </trkpt>
      <trkpt lat="47.79928" lon="6.84888">
        <ele>1045.8</ele>
        <time>2019-05-17T07:04:46Z</time>
      </trkpt>
      <trkpt lat="47.79921" lon="6.84891">
        <ele>1046.4</ele>
        <time>2019-05-17T07:04:49Z</time>
      </trkpt>
      <trkpt lat="47.7992" lon="6.84892">
        <ele>1047.4</ele>
        <time>2019-05-17T07:04:50Z</time>
      </trkpt>
      <trkpt lat="47.79918" lon="6.84893">
        <ele>1047.8</ele>
        <time>2019-05-17T07:04:51Z</time>
      </trkpt>
      <trkpt lat="47.79916" lon="6.84893">
        <ele>1048.2</ele>
        <time>2019-05-17T07:04:52Z</time>
      </trkpt>
      <trkpt lat="47.79914" lon="6.84893">
        <ele>1048.2</ele>
        <time>2019-05-17T07:04:53Z</time>
      </trkpt>
      <trkpt lat="47.79903" lon="6.84897">
        <ele>1048.6</ele>
        <time>2019-05-17T07:04:59Z</time>
      </trkpt>
      <trkpt lat="47.799" lon="6.84898">
        <ele>1049.2</ele>
        <time>2019-05-17T07:05:00Z</time>
      </trkpt>
      <trkpt lat="47.79898" lon="6.849">
        <ele>1049.6</ele>
        <time>2019-05-17T07:05:01Z</time>
      </trkpt>
      <trkpt lat="47.79895" lon="6.84901">
        <ele>1050</ele>
        <time>2019-05-17T07:05:02Z</time>
      </trkpt>
      <trkpt lat="47.79894" lon="6.84902">
        <ele>1050.4</ele>
        <time>2019-05-17T07:05:03Z</time>
      </trkpt>
      <trkpt lat="47.79891" lon="6.84903">
        <ele>1050.4</ele>
        <time>2019-05-17T07:05:05Z</time>
      </trkpt>
      <trkpt lat="47.79886" lon="6.84903">
        <ele>1050.8</ele>
        <time>2019-05-17T07:05:08Z</time>
      </trkpt>
      <trkpt lat="47.79884" lon="6.84903">
        <ele>1051.2</ele>
        <time>2019-05-17T07:05:09Z</time>
      </trkpt>
      <trkpt lat="47.79882" lon="6.84904">
        <ele>1051.6</ele>
        <time>2019-05-17T07:05:10Z</time>
      </trkpt>
      <trkpt lat="47.7988" lon="6.84903">
        <ele>1052.2</ele>
        <time>2019-05-17T07:05:11Z</time>
      </trkpt>
      <trkpt lat="47.79877" lon="6.84904">
        <ele>1052.6</ele>
        <time>2019-05-17T07:05:12Z</time>
      </trkpt>
      <trkpt lat="47.79865" lon="6.84905">
        <ele>1052.6</ele>
        <time>2019-05-17T07:05:17Z</time>
      </trkpt>
      <trkpt lat="47.79862" lon="6.84906">
        <ele>1053</ele>
        <time>2019-05-17T07:05:18Z</time>
      </trkpt>
      <trkpt lat="47.7986" lon="6.84906">
        <ele>1053.4</ele>
        <time>2019-05-17T07:05:19Z</time>
      </trkpt>
      <trkpt lat="47.79858" lon="6.84906">
        <ele>1053.8</ele>
        <time>2019-05-17T07:05:20Z</time>
      </trkpt>
      <trkpt lat="47.79856" lon="6.84906">
        <ele>1054.2</ele>
        <time>2019-05-17T07:05:21Z</time>
      </trkpt>
      <trkpt lat="47.79854" lon="6.84906">
        <ele>1054.6</ele>
        <time>2019-05-17T07:05:22Z</time>
      </trkpt>
      <trkpt lat="47.79852" lon="6.84906">
        <ele>1054.6</ele>
        <time>2019-05-17T07:05:23Z</time>
      </trkpt>
      <trkpt lat="47.79846" lon="6.84906">
        <ele>1055</ele>
        <time>2019-05-17T07:05:26Z</time>
      </trkpt>
      <trkpt lat="47.79844" lon="6.84906">
        <ele>1055.6</ele>
        <time>2019-05-17T07:05:27Z</time>
      </trkpt>
      <trkpt lat="47.79842" lon="6.84905">
        <ele>1056</ele>
        <time>2019-05-17T07:05:28Z</time>
      </trkpt>
      <trkpt lat="47.7984" lon="6.84905">
        <ele>1056.4</ele>
        <time>2019-05-17T07:05:29Z</time>
      </trkpt>
      <trkpt lat="47.79838" lon="6.84905">
        <ele>1056.8</ele>
        <time>2019-05-17T07:05:30Z</time>
      </trkpt>
      <trkpt lat="47.79831" lon="6.84903">
        <ele>1056.8</ele>
        <time>2019-05-17T07:05:33Z</time>
      </trkpt>
      <trkpt lat="47.79818" lon="6.84897">
        <ele>1056.8</ele>
        <time>2019-05-17T07:05:39Z</time>
      </trkpt>
      <trkpt lat="47.79802" lon="6.84888">
        <ele>1056.8</ele>
        <time>2019-05-17T07:05:45Z</time>
      </trkpt>
      <trkpt lat="47.79796" lon="6.84885">
        <ele>1057.2</ele>
        <time>2019-05-17T07:05:48Z</time>
      </trkpt>
      <trkpt lat="47.79794" lon="6.84883">
        <ele>1057.6</ele>
        <time>2019-05-17T07:05:49Z</time>
      </trkpt>
      <trkpt lat="47.79792" lon="6.84882">
        <ele>1058.2</ele>
        <time>2019-05-17T07:05:50Z</time>
      </trkpt>
      <trkpt lat="47.7979" lon="6.84881">
        <ele>1058.6</ele>
        <time>2019-05-17T07:05:51Z</time>
      </trkpt>
      <trkpt lat="47.79788" lon="6.8488">
        <ele>1059</ele>
        <time>2019-05-17T07:05:52Z</time>
      </trkpt>
      <trkpt lat="47.79775" lon="6.84875">
        <ele>1059</ele>
        <time>2019-05-17T07:05:57Z</time>
      </trkpt>
      <trkpt lat="47.79761" lon="6.84863">
        <ele>1059</ele>
        <time>2019-05-17T07:06:02Z</time>
      </trkpt>
      <trkpt lat="47.79746" lon="6.84855">
        <ele>1059</ele>
        <time>2019-05-17T07:06:07Z</time>
      </trkpt>
      <trkpt lat="47.79728" lon="6.8485">
        <ele>1059</ele>
        <time>2019-05-17T07:06:12Z</time>
      </trkpt>
      <trkpt lat="47.79704" lon="6.84851">
        <ele>1059</ele>
        <time>2019-05-17T07:06:18Z</time>
      </trkpt>
      <trkpt lat="47.79696" lon="6.84853">
        <ele>1059</ele>
        <time>2019-05-17T07:06:20Z</time>
      </trkpt>
      <trkpt lat="47.79684" lon="6.84858">
        <ele>1059</ele>
        <time>2019-05-17T07:06:23Z</time>
      </trkpt>
      <trkpt lat="47.7967" lon="6.84866">
        <ele>1058.6</ele>
        <time>2019-05-17T07:06:26Z</time>
      </trkpt>
      <trkpt lat="47.79666" lon="6.84869">
        <ele>1058.2</ele>
        <time>2019-05-17T07:06:27Z</time>
      </trkpt>
      <trkpt lat="47.79662" lon="6.84873">
        <ele>1057.4</ele>
        <time>2019-05-17T07:06:28Z</time>
      </trkpt>
      <trkpt lat="47.7966" lon="6.84876">
        <ele>1057</ele>
        <time>2019-05-17T07:06:29Z</time>
      </trkpt>
      <trkpt lat="47.79656" lon="6.8488">
        <ele>1056.4</ele>
        <time>2019-05-17T07:06:30Z</time>
      </trkpt>
      <trkpt lat="47.79653" lon="6.84886">
        <ele>1055.8</ele>
        <time>2019-05-17T07:06:31Z</time>
      </trkpt>
      <trkpt lat="47.7965" lon="6.84891">
        <ele>1055.2</ele>
        <time>2019-05-17T07:06:32Z</time>
      </trkpt>
      <trkpt lat="47.79648" lon="6.84899">
        <ele>1054.8</ele>
        <time>2019-05-17T07:06:33Z</time>
      </trkpt>
      <trkpt lat="47.79646" lon="6.84907">
        <ele>1054.2</ele>
        <time>2019-05-17T07:06:34Z</time>
      </trkpt>
      <trkpt lat="47.79643" lon="6.84921">
        <ele>1054.2</ele>
        <time>2019-05-17T07:06:36Z</time>
      </trkpt>
      <trkpt lat="47.79642" lon="6.84935">
        <ele>1054.2</ele>
        <time>2019-05-17T07:06:38Z</time>
      </trkpt>
      <trkpt lat="47.79642" lon="6.84941">
        <ele>1054.2</ele>
        <time>2019-05-17T07:06:39Z</time>
      </trkpt>
      <trkpt lat="47.7964" lon="6.84966">
        <ele>1054.2</ele>
        <time>2019-05-17T07:06:43Z</time>
      </trkpt>
      <trkpt lat="47.79637" lon="6.84993">
        <ele>1054.2</ele>
        <time>2019-05-17T07:06:48Z</time>
      </trkpt>
      <trkpt lat="47.79635" lon="6.85003">
        <ele>1054.2</ele>
        <time>2019-05-17T07:06:50Z</time>
      </trkpt>
      <trkpt lat="47.79631" lon="6.85014">
        <ele>1054.2</ele>
        <time>2019-05-17T07:06:52Z</time>
      </trkpt>
      <trkpt lat="47.7963" lon="6.85024">
        <ele>1054.2</ele>
        <time>2019-05-17T07:06:54Z</time>
      </trkpt>
      <trkpt lat="47.7963" lon="6.85029">
        <ele>1054.6</ele>
        <time>2019-05-17T07:06:55Z</time>
      </trkpt>
      <trkpt lat="47.7963" lon="6.85032">
        <ele>1055</ele>
        <time>2019-05-17T07:06:56Z</time>
      </trkpt>
      <trkpt lat="47.79629" lon="6.85035">
        <ele>1055.4</ele>
        <time>2019-05-17T07:06:57Z</time>
      </trkpt>
      <trkpt lat="47.79628" lon="6.85038">
        <ele>1055.8</ele>
        <time>2019-05-17T07:06:58Z</time>
      </trkpt>
      <trkpt lat="47.79628" lon="6.85042">
        <ele>1056.2</ele>
        <time>2019-05-17T07:06:59Z</time>
      </trkpt>
      <trkpt lat="47.79628" lon="6.85047">
        <ele>1056.2</ele>
        <time>2019-05-17T07:07:00Z</time>
      </trkpt>
      <trkpt lat="47.79627" lon="6.85055">
        <ele>1056.6</ele>
        <time>2019-05-17T07:07:02Z</time>
      </trkpt>
      <trkpt lat="47.79627" lon="6.85059">
        <ele>1057</ele>
        <time>2019-05-17T07:07:03Z</time>
      </trkpt>
      <trkpt lat="47.79626" lon="6.85061">
        <ele>1057.4</ele>
        <time>2019-05-17T07:07:04Z</time>
      </trkpt>
      <trkpt lat="47.79625" lon="6.85064">
        <ele>1058</ele>
        <time>2019-05-17T07:07:05Z</time>
      </trkpt>
      <trkpt lat="47.79624" lon="6.85067">
        <ele>1058.4</ele>
        <time>2019-05-17T07:07:06Z</time>
      </trkpt>
      <trkpt lat="47.79617" lon="6.8508">
        <ele>1058.8</ele>
        <time>2019-05-17T07:07:10Z</time>
      </trkpt>
      <trkpt lat="47.79616" lon="6.85084">
        <ele>1059.2</ele>
        <time>2019-05-17T07:07:11Z</time>
      </trkpt>
      <trkpt lat="47.79614" lon="6.85088">
        <ele>1059.6</ele>
        <time>2019-05-17T07:07:12Z</time>
      </trkpt>
      <trkpt lat="47.79614" lon="6.8509">
        <ele>1060</ele>
        <time>2019-05-17T07:07:13Z</time>
      </trkpt>
      <trkpt lat="47.79614" lon="6.85094">
        <ele>1060.4</ele>
        <time>2019-05-17T07:07:14Z</time>
      </trkpt>
      <trkpt lat="47.79612" lon="6.85101">
        <ele>1060.4</ele>
        <time>2019-05-17T07:07:16Z</time>
      </trkpt>
      <trkpt lat="47.7961" lon="6.85104">
        <ele>1060.4</ele>
        <time>2019-05-17T07:07:17Z</time>
      </trkpt>
      <trkpt lat="47.79606" lon="6.85114">
        <ele>1060.8</ele>
        <time>2019-05-17T07:07:21Z</time>
      </trkpt>
      <trkpt lat="47.79606" lon="6.85117">
        <ele>1061.4</ele>
        <time>2019-05-17T07:07:22Z</time>
      </trkpt>
      <trkpt lat="47.79604" lon="6.85119">
        <ele>1061.8</ele>
        <time>2019-05-17T07:07:23Z</time>
      </trkpt>
      <trkpt lat="47.79603" lon="6.85122">
        <ele>1062.2</ele>
        <time>2019-05-17T07:07:24Z</time>
      </trkpt>
      <trkpt lat="47.79602" lon="6.85125">
        <ele>1062.6</ele>
        <time>2019-05-17T07:07:25Z</time>
      </trkpt>
      <trkpt lat="47.79601" lon="6.85128">
        <ele>1062.6</ele>
        <time>2019-05-17T07:07:26Z</time>
      </trkpt>
      <trkpt lat="47.79593" lon="6.8514">
        <ele>1062.6</ele>
        <time>2019-05-17T07:07:30Z</time>
      </trkpt>
      <trkpt lat="47.7959" lon="6.85146">
        <ele>1063</ele>
        <time>2019-05-17T07:07:32Z</time>
      </trkpt>
      <trkpt lat="47.79589" lon="6.85149">
        <ele>1063.4</ele>
        <time>2019-05-17T07:07:33Z</time>
      </trkpt>
      <trkpt lat="47.79589" lon="6.85152">
        <ele>1063.8</ele>
        <time>2019-05-17T07:07:34Z</time>
      </trkpt>
      <trkpt lat="47.79589" lon="6.85154">
        <ele>1064.2</ele>
        <time>2019-05-17T07:07:35Z</time>
      </trkpt>
      <trkpt lat="47.79589" lon="6.85157">
        <ele>1064.6</ele>
        <time>2019-05-17T07:07:36Z</time>
      </trkpt>
      <trkpt lat="47.79587" lon="6.85164">
        <ele>1064.6</ele>
        <time>2019-05-17T07:07:39Z</time>
      </trkpt>
      <trkpt lat="47.79587" lon="6.85166">
        <ele>1064.6</ele>
        <time>2019-05-17T07:07:40Z</time>
      </trkpt>
      <trkpt lat="47.79586" lon="6.85169">
        <ele>1065.6</ele>
        <time>2019-05-17T07:07:41Z</time>
      </trkpt>
      <trkpt lat="47.79585" lon="6.85171">
        <ele>1066</ele>
        <time>2019-05-17T07:07:42Z</time>
      </trkpt>
      <trkpt lat="47.79584" lon="6.85175">
        <ele>1066.4</ele>
        <time>2019-05-17T07:07:43Z</time>
      </trkpt>
      <trkpt lat="47.79584" lon="6.85177">
        <ele>1066.8</ele>
        <time>2019-05-17T07:07:44Z</time>
      </trkpt>
      <trkpt lat="47.79583" lon="6.8518">
        <ele>1066.8</ele>
        <time>2019-05-17T07:07:45Z</time>
      </trkpt>
      <trkpt lat="47.79583" lon="6.85182">
        <ele>1067.2</ele>
        <time>2019-05-17T07:07:46Z</time>
      </trkpt>
      <trkpt lat="47.79582" lon="6.85183">
        <ele>1067.6</ele>
        <time>2019-05-17T07:07:47Z</time>
      </trkpt>
      <trkpt lat="47.79581" lon="6.85186">
        <ele>1068</ele>
        <time>2019-05-17T07:07:48Z</time>
      </trkpt>
      <trkpt lat="47.7958" lon="6.85189">
        <ele>1068.4</ele>
        <time>2019-05-17T07:07:49Z</time>
      </trkpt>
      <trkpt lat="47.79578" lon="6.85192">
        <ele>1068.8</ele>
        <time>2019-05-17T07:07:50Z</time>
      </trkpt>
      <trkpt lat="47.79576" lon="6.85195">
        <ele>1068.8</ele>
        <time>2019-05-17T07:07:51Z</time>
      </trkpt>
      <trkpt lat="47.7957" lon="6.85205">
        <ele>1068.8</ele>
        <time>2019-05-17T07:07:55Z</time>
      </trkpt>
      <trkpt lat="47.79568" lon="6.85209">
        <ele>1069.2</ele>
        <time>2019-05-17T07:07:57Z</time>
      </trkpt>
      <trkpt lat="47.79567" lon="6.85212">
        <ele>1069.6</ele>
        <time>2019-05-17T07:07:58Z</time>
      </trkpt>
      <trkpt lat="47.79566" lon="6.85215">
        <ele>1070</ele>
        <time>2019-05-17T07:07:59Z</time>
      </trkpt>
      <trkpt lat="47.79565" lon="6.85217">
        <ele>1070.6</ele>
        <time>2019-05-17T07:08:00Z</time>
      </trkpt>
      <trkpt lat="47.79564" lon="6.8522">
        <ele>1071</ele>
        <time>2019-05-17T07:08:01Z</time>
      </trkpt>
      <trkpt lat="47.79556" lon="6.85235">
        <ele>1071.4</ele>
        <time>2019-05-17T07:08:07Z</time>
      </trkpt>
      <trkpt lat="47.79555" lon="6.85237">
        <ele>1071.8</ele>
        <time>2019-05-17T07:08:08Z</time>
      </trkpt>
      <trkpt lat="47.79553" lon="6.8524">
        <ele>1072.2</ele>
        <time>2019-05-17T07:08:09Z</time>
      </trkpt>
      <trkpt lat="47.79551" lon="6.85243">
        <ele>1072.6</ele>
        <time>2019-05-17T07:08:10Z</time>
      </trkpt>
      <trkpt lat="47.7955" lon="6.85245">
        <ele>1073</ele>
        <time>2019-05-17T07:08:11Z</time>
      </trkpt>
      <trkpt lat="47.79548" lon="6.85248">
        <ele>1073</ele>
        <time>2019-05-17T07:08:12Z</time>
      </trkpt>
      <trkpt lat="47.79538" lon="6.8526">
        <ele>1073</ele>
        <time>2019-05-17T07:08:17Z</time>
      </trkpt>
      <trkpt lat="47.79522" lon="6.85275">
        <ele>1073</ele>
        <time>2019-05-17T07:08:23Z</time>
      </trkpt>
      <trkpt lat="47.79509" lon="6.85295">
        <ele>1073</ele>
        <time>2019-05-17T07:08:29Z</time>
      </trkpt>
      <trkpt lat="47.79501" lon="6.85314">
        <ele>1073</ele>
        <time>2019-05-17T07:08:35Z</time>
      </trkpt>
      <trkpt lat="47.79501" lon="6.85316">
        <ele>1073.4</ele>
        <time>2019-05-17T07:08:36Z</time>
      </trkpt>
      <trkpt lat="47.79501" lon="6.8532">
        <ele>1074</ele>
        <time>2019-05-17T07:08:37Z</time>
      </trkpt>
      <trkpt lat="47.79501" lon="6.85324">
        <ele>1074.4</ele>
        <time>2019-05-17T07:08:38Z</time>
      </trkpt>
      <trkpt lat="47.79501" lon="6.85328">
        <ele>1074.8</ele>
        <time>2019-05-17T07:08:39Z</time>
      </trkpt>
      <trkpt lat="47.795" lon="6.85332">
        <ele>1075.2</ele>
        <time>2019-05-17T07:08:40Z</time>
      </trkpt>
      <trkpt lat="47.79494" lon="6.85359">
        <ele>1075.6</ele>
        <time>2019-05-17T07:08:46Z</time>
      </trkpt>
      <trkpt lat="47.79493" lon="6.85363">
        <ele>1076</ele>
        <time>2019-05-17T07:08:47Z</time>
      </trkpt>
      <trkpt lat="47.79493" lon="6.85366">
        <ele>1076.4</ele>
        <time>2019-05-17T07:08:48Z</time>
      </trkpt>
      <trkpt lat="47.79492" lon="6.85369">
        <ele>1076.8</ele>
        <time>2019-05-17T07:08:49Z</time>
      </trkpt>
      <trkpt lat="47.79492" lon="6.85372">
        <ele>1077.2</ele>
        <time>2019-05-17T07:08:50Z</time>
      </trkpt>
      <trkpt lat="47.79487" lon="6.85398">
        <ele>1077.2</ele>
        <time>2019-05-17T07:08:56Z</time>
      </trkpt>
      <trkpt lat="47.79482" lon="6.85408">
        <ele>1077.2</ele>
        <time>2019-05-17T07:08:58Z</time>
      </trkpt>
      <trkpt lat="47.79479" lon="6.85419">
        <ele>1077.2</ele>
        <time>2019-05-17T07:09:00Z</time>
      </trkpt>
      <trkpt lat="47.79474" lon="6.85438">
        <ele>1076.8</ele>
        <time>2019-05-17T07:09:03Z</time>
      </trkpt>
      <trkpt lat="47.79473" lon="6.85443">
        <ele>1076.4</ele>
        <time>2019-05-17T07:09:04Z</time>
      </trkpt>
      <trkpt lat="47.79472" lon="6.8545">
        <ele>1076</ele>
        <time>2019-05-17T07:09:05Z</time>
      </trkpt>
      <trkpt lat="47.79472" lon="6.85453">
        <ele>1075.6</ele>
        <time>2019-05-17T07:09:06Z</time>
      </trkpt>
      <trkpt lat="47.79472" lon="6.85457">
        <ele>1075.2</ele>
        <time>2019-05-17T07:09:07Z</time>
      </trkpt>
      <trkpt lat="47.79467" lon="6.85478">
        <ele>1075.2</ele>
        <time>2019-05-17T07:09:12Z</time>
      </trkpt>
      <trkpt lat="47.79461" lon="6.8551">
        <ele>1075.2</ele>
        <time>2019-05-17T07:09:18Z</time>
      </trkpt>
      <trkpt lat="47.79456" lon="6.85536">
        <ele>1075.2</ele>
        <time>2019-05-17T07:09:22Z</time>
      </trkpt>
      <trkpt lat="47.7945" lon="6.85574">
        <ele>1075.2</ele>
        <time>2019-05-17T07:09:27Z</time>
      </trkpt>
      <trkpt lat="47.7945" lon="6.85595">
        <ele>1075.2</ele>
        <time>2019-05-17T07:09:31Z</time>
      </trkpt>
      <trkpt lat="47.79447" lon="6.85615">
        <ele>1075.2</ele>
        <time>2019-05-17T07:09:35Z</time>
      </trkpt>
      <trkpt lat="47.79445" lon="6.8564">
        <ele>1075.2</ele>
        <time>2019-05-17T07:09:39Z</time>
      </trkpt>
      <trkpt lat="47.79443" lon="6.85665">
        <ele>1075.2</ele>
        <time>2019-05-17T07:09:43Z</time>
      </trkpt>
      <trkpt lat="47.79442" lon="6.85693">
        <ele>1075.2</ele>
        <time>2019-05-17T07:09:48Z</time>
      </trkpt>
      <trkpt lat="47.79437" lon="6.85726">
        <ele>1075.2</ele>
        <time>2019-05-17T07:09:53Z</time>
      </trkpt>
      <trkpt lat="47.79433" lon="6.85745">
        <ele>1075.2</ele>
        <time>2019-05-17T07:09:56Z</time>
      </trkpt>
      <trkpt lat="47.79431" lon="6.8577">
        <ele>1075.2</ele>
        <time>2019-05-17T07:10:00Z</time>
      </trkpt>
      <trkpt lat="47.79432" lon="6.85775">
        <ele>1075.2</ele>
        <time>2019-05-17T07:10:01Z</time>
      </trkpt>
      <trkpt lat="47.79432" lon="6.85779">
        <ele>1075.2</ele>
        <time>2019-05-17T07:10:03Z</time>
      </trkpt>
      <trkpt lat="47.79433" lon="6.85782">
        <ele>1075.2</ele>
        <time>2019-05-17T07:10:04Z</time>
      </trkpt>
      <trkpt lat="47.79434" lon="6.85784">
        <ele>1075.6</ele>
        <time>2019-05-17T07:10:05Z</time>
      </trkpt>
      <trkpt lat="47.79435" lon="6.85787">
        <ele>1076.2</ele>
        <time>2019-05-17T07:10:06Z</time>
      </trkpt>
      <trkpt lat="47.79435" lon="6.85789">
        <ele>1076.6</ele>
        <time>2019-05-17T07:10:07Z</time>
      </trkpt>
      <trkpt lat="47.79437" lon="6.85793">
        <ele>1077</ele>
        <time>2019-05-17T07:10:08Z</time>
      </trkpt>
      <trkpt lat="47.79439" lon="6.85796">
        <ele>1077.6</ele>
        <time>2019-05-17T07:10:09Z</time>
      </trkpt>
      <trkpt lat="47.7944" lon="6.858">
        <ele>1078</ele>
        <time>2019-05-17T07:10:10Z</time>
      </trkpt>
      <trkpt lat="47.79441" lon="6.85803">
        <ele>1078.4</ele>
        <time>2019-05-17T07:10:11Z</time>
      </trkpt>
      <trkpt lat="47.79443" lon="6.85805">
        <ele>1078.8</ele>
        <time>2019-05-17T07:10:12Z</time>
      </trkpt>
      <trkpt lat="47.79445" lon="6.85808">
        <ele>1079.4</ele>
        <time>2019-05-17T07:10:13Z</time>
      </trkpt>
      <trkpt lat="47.79445" lon="6.85812">
        <ele>1079.8</ele>
        <time>2019-05-17T07:10:14Z</time>
      </trkpt>
      <trkpt lat="47.79446" lon="6.85821">
        <ele>1079.8</ele>
        <time>2019-05-17T07:10:17Z</time>
      </trkpt>
      <trkpt lat="47.79446" lon="6.85824">
        <ele>1080.2</ele>
        <time>2019-05-17T07:10:18Z</time>
      </trkpt>
      <trkpt lat="47.79446" lon="6.85827">
        <ele>1080.6</ele>
        <time>2019-05-17T07:10:19Z</time>
      </trkpt>
      <trkpt lat="47.79446" lon="6.85829">
        <ele>1081</ele>
        <time>2019-05-17T07:10:20Z</time>
      </trkpt>
      <trkpt lat="47.79446" lon="6.85831">
        <ele>1081.4</ele>
        <time>2019-05-17T07:10:21Z</time>
      </trkpt>
      <trkpt lat="47.79445" lon="6.85834">
        <ele>1081.8</ele>
        <time>2019-05-17T07:10:22Z</time>
      </trkpt>
      <trkpt lat="47.79446" lon="6.85837">
        <ele>1081.8</ele>
        <time>2019-05-17T07:10:23Z</time>
      </trkpt>
      <trkpt lat="47.79446" lon="6.85843">
        <ele>1082.2</ele>
        <time>2019-05-17T07:10:25Z</time>
      </trkpt>
      <trkpt lat="47.79446" lon="6.85845">
        <ele>1082.8</ele>
        <time>2019-05-17T07:10:26Z</time>
      </trkpt>
      <trkpt lat="47.79447" lon="6.85847">
        <ele>1083.2</ele>
        <time>2019-05-17T07:10:27Z</time>
      </trkpt>
      <trkpt lat="47.79448" lon="6.85849">
        <ele>1083.6</ele>
        <time>2019-05-17T07:10:28Z</time>
      </trkpt>
      <trkpt lat="47.79448" lon="6.85852">
        <ele>1084</ele>
        <time>2019-05-17T07:10:29Z</time>
      </trkpt>
      <trkpt lat="47.79448" lon="6.85861">
        <ele>1084</ele>
        <time>2019-05-17T07:10:31Z</time>
      </trkpt>
      <trkpt lat="47.79449" lon="6.85868">
        <ele>1084.4</ele>
        <time>2019-05-17T07:10:34Z</time>
      </trkpt>
      <trkpt lat="47.7945" lon="6.8587">
        <ele>1084.8</ele>
        <time>2019-05-17T07:10:35Z</time>
      </trkpt>
      <trkpt lat="47.7945" lon="6.85873">
        <ele>1085.4</ele>
        <time>2019-05-17T07:10:36Z</time>
      </trkpt>
      <trkpt lat="47.79449" lon="6.85875">
        <ele>1085.8</ele>
        <time>2019-05-17T07:10:37Z</time>
      </trkpt>
      <trkpt lat="47.7945" lon="6.85877">
        <ele>1086.2</ele>
        <time>2019-05-17T07:10:38Z</time>
      </trkpt>
      <trkpt lat="47.79449" lon="6.85881">
        <ele>1086.2</ele>
        <time>2019-05-17T07:10:40Z</time>
      </trkpt>
      <trkpt lat="47.7945" lon="6.85885">
        <ele>1086.6</ele>
        <time>2019-05-17T07:10:42Z</time>
      </trkpt>
      <trkpt lat="47.7945" lon="6.85886">
        <ele>1087</ele>
        <time>2019-05-17T07:10:43Z</time>
      </trkpt>
      <trkpt lat="47.7945" lon="6.85888">
        <ele>1087.6</ele>
        <time>2019-05-17T07:10:44Z</time>
      </trkpt>
      <trkpt lat="47.79449" lon="6.8589">
        <ele>1088</ele>
        <time>2019-05-17T07:10:45Z</time>
      </trkpt>
      <trkpt lat="47.79448" lon="6.85892">
        <ele>1088.4</ele>
        <time>2019-05-17T07:10:46Z</time>
      </trkpt>
      <trkpt lat="47.79447" lon="6.85893">
        <ele>1088.4</ele>
        <time>2019-05-17T07:10:47Z</time>
      </trkpt>
      <trkpt lat="47.79445" lon="6.85906">
        <ele>1088.4</ele>
        <time>2019-05-17T07:10:52Z</time>
      </trkpt>
      <trkpt lat="47.79444" lon="6.85912">
        <ele>1088.4</ele>
        <time>2019-05-17T07:10:54Z</time>
      </trkpt>
      <trkpt lat="47.79445" lon="6.85919">
        <ele>1088.4</ele>
        <time>2019-05-17T07:10:56Z</time>
      </trkpt>
      <trkpt lat="47.79441" lon="6.85934">
        <ele>1088.4</ele>
        <time>2019-05-17T07:11:00Z</time>
      </trkpt>
      <trkpt lat="47.79439" lon="6.85938">
        <ele>1088.4</ele>
        <time>2019-05-17T07:11:01Z</time>
      </trkpt>
      <trkpt lat="47.79429" lon="6.85952">
        <ele>1088.4</ele>
        <time>2019-05-17T07:11:06Z</time>
      </trkpt>
      <trkpt lat="47.79415" lon="6.85968">
        <ele>1088.4</ele>
        <time>2019-05-17T07:11:12Z</time>
      </trkpt>
      <trkpt lat="47.79402" lon="6.85984">
        <ele>1088.8</ele>
        <time>2019-05-17T07:11:17Z</time>
      </trkpt>
      <trkpt lat="47.79399" lon="6.85987">
        <ele>1089.2</ele>
        <time>2019-05-17T07:11:18Z</time>
      </trkpt>
      <trkpt lat="47.79397" lon="6.8599">
        <ele>1089.6</ele>
        <time>2019-05-17T07:11:19Z</time>
      </trkpt>
      <trkpt lat="47.79394" lon="6.85993">
        <ele>1090</ele>
        <time>2019-05-17T07:11:20Z</time>
      </trkpt>
      <trkpt lat="47.79392" lon="6.85995">
        <ele>1090.6</ele>
        <time>2019-05-17T07:11:21Z</time>
      </trkpt>
      <trkpt lat="47.79382" lon="6.86005">
        <ele>1090.6</ele>
        <time>2019-05-17T07:11:25Z</time>
      </trkpt>
      <trkpt lat="47.79376" lon="6.86009">
        <ele>1091</ele>
        <time>2019-05-17T07:11:27Z</time>
      </trkpt>
      <trkpt lat="47.79373" lon="6.86011">
        <ele>1091.4</ele>
        <time>2019-05-17T07:11:28Z</time>
      </trkpt>
      <trkpt lat="47.79371" lon="6.86012">
        <ele>1091.8</ele>
        <time>2019-05-17T07:11:29Z</time>
      </trkpt>
      <trkpt lat="47.79368" lon="6.86014">
        <ele>1092.2</ele>
        <time>2019-05-17T07:11:30Z</time>
      </trkpt>
      <trkpt lat="47.79365" lon="6.86016">
        <ele>1092.6</ele>
        <time>2019-05-17T07:11:31Z</time>
      </trkpt>
      <trkpt lat="47.7936" lon="6.86019">
        <ele>1092.6</ele>
        <time>2019-05-17T07:11:33Z</time>
      </trkpt>
      <trkpt lat="47.79355" lon="6.86023">
        <ele>1093</ele>
        <time>2019-05-17T07:11:35Z</time>
      </trkpt>
      <trkpt lat="47.79353" lon="6.86024">
        <ele>1093.4</ele>
        <time>2019-05-17T07:11:36Z</time>
      </trkpt>
      <trkpt lat="47.7935" lon="6.86026">
        <ele>1093.8</ele>
        <time>2019-05-17T07:11:37Z</time>
      </trkpt>
      <trkpt lat="47.79347" lon="6.86027">
        <ele>1094.2</ele>
        <time>2019-05-17T07:11:38Z</time>
      </trkpt>
      <trkpt lat="47.79345" lon="6.86029">
        <ele>1094.6</ele>
        <time>2019-05-17T07:11:39Z</time>
      </trkpt>
      <trkpt lat="47.79342" lon="6.8603">
        <ele>1094.6</ele>
        <time>2019-05-17T07:11:40Z</time>
      </trkpt>
      <trkpt lat="47.79329" lon="6.86033">
        <ele>1095.2</ele>
        <time>2019-05-17T07:11:45Z</time>
      </trkpt>
      <trkpt lat="47.79326" lon="6.86035">
        <ele>1095.6</ele>
        <time>2019-05-17T07:11:46Z</time>
      </trkpt>
      <trkpt lat="47.79325" lon="6.86036">
        <ele>1096</ele>
        <time>2019-05-17T07:11:47Z</time>
      </trkpt>
      <trkpt lat="47.7932" lon="6.86037">
        <ele>1096.8</ele>
        <time>2019-05-17T07:11:48Z</time>
      </trkpt>
      <trkpt lat="47.79309" lon="6.86044">
        <ele>1096.8</ele>
        <time>2019-05-17T07:11:52Z</time>
      </trkpt>
      <trkpt lat="47.79305" lon="6.86049">
        <ele>1097.2</ele>
        <time>2019-05-17T07:11:54Z</time>
      </trkpt>
      <trkpt lat="47.79302" lon="6.86051">
        <ele>1097.6</ele>
        <time>2019-05-17T07:11:55Z</time>
      </trkpt>
      <trkpt lat="47.793" lon="6.86053">
        <ele>1098</ele>
        <time>2019-05-17T07:11:56Z</time>
      </trkpt>
      <trkpt lat="47.79298" lon="6.86055">
        <ele>1098.4</ele>
        <time>2019-05-17T07:11:57Z</time>
      </trkpt>
      <trkpt lat="47.79296" lon="6.86056">
        <ele>1098.8</ele>
        <time>2019-05-17T07:11:58Z</time>
      </trkpt>
      <trkpt lat="47.79294" lon="6.86059">
        <ele>1098.8</ele>
        <time>2019-05-17T07:11:59Z</time>
      </trkpt>
      <trkpt lat="47.79278" lon="6.86074">
        <ele>1099.2</ele>
        <time>2019-05-17T07:12:06Z</time>
      </trkpt>
      <trkpt lat="47.79276" lon="6.86077">
        <ele>1099.6</ele>
        <time>2019-05-17T07:12:07Z</time>
      </trkpt>
      <trkpt lat="47.79274" lon="6.86079">
        <ele>1100.2</ele>
        <time>2019-05-17T07:12:08Z</time>
      </trkpt>
      <trkpt lat="47.79272" lon="6.86081">
        <ele>1100.6</ele>
        <time>2019-05-17T07:12:09Z</time>
      </trkpt>
      <trkpt lat="47.79269" lon="6.86083">
        <ele>1101</ele>
        <time>2019-05-17T07:12:10Z</time>
      </trkpt>
      <trkpt lat="47.79261" lon="6.86091">
        <ele>1101</ele>
        <time>2019-05-17T07:12:14Z</time>
      </trkpt>
      <trkpt lat="47.79246" lon="6.86102">
        <ele>1101</ele>
        <time>2019-05-17T07:12:20Z</time>
      </trkpt>
      <trkpt lat="47.79226" lon="6.86117">
        <ele>1101</ele>
        <time>2019-05-17T07:12:26Z</time>
      </trkpt>
      <trkpt lat="47.79212" lon="6.86131">
        <ele>1101</ele>
        <time>2019-05-17T07:12:31Z</time>
      </trkpt>
      <trkpt lat="47.79195" lon="6.86148">
        <ele>1101</ele>
        <time>2019-05-17T07:12:37Z</time>
      </trkpt>
      <trkpt lat="47.7918" lon="6.86163">
        <ele>1100.6</ele>
        <time>2019-05-17T07:12:41Z</time>
      </trkpt>
      <trkpt lat="47.79176" lon="6.86167">
        <ele>1100.2</ele>
        <time>2019-05-17T07:12:42Z</time>
      </trkpt>
      <trkpt lat="47.79172" lon="6.86171">
        <ele>1099.6</ele>
        <time>2019-05-17T07:12:43Z</time>
      </trkpt>
      <trkpt lat="47.79168" lon="6.86174">
        <ele>1099.2</ele>
        <time>2019-05-17T07:12:44Z</time>
      </trkpt>
      <trkpt lat="47.79163" lon="6.86178">
        <ele>1098.8</ele>
        <time>2019-05-17T07:12:45Z</time>
      </trkpt>
      <trkpt lat="47.79155" lon="6.86184">
        <ele>1098.4</ele>
        <time>2019-05-17T07:12:47Z</time>
      </trkpt>
      <trkpt lat="47.79151" lon="6.86188">
        <ele>1097.8</ele>
        <time>2019-05-17T07:12:48Z</time>
      </trkpt>
      <trkpt lat="47.79147" lon="6.8619">
        <ele>1097.4</ele>
        <time>2019-05-17T07:12:49Z</time>
      </trkpt>
      <trkpt lat="47.79143" lon="6.86193">
        <ele>1097</ele>
        <time>2019-05-17T07:12:50Z</time>
      </trkpt>
      <trkpt lat="47.79138" lon="6.86196">
        <ele>1096.4</ele>
        <time>2019-05-17T07:12:51Z</time>
      </trkpt>
      <trkpt lat="47.79131" lon="6.86202">
        <ele>1096.4</ele>
        <time>2019-05-17T07:12:53Z</time>
      </trkpt>
      <trkpt lat="47.79124" lon="6.86208">
        <ele>1096</ele>
        <time>2019-05-17T07:12:55Z</time>
      </trkpt>
      <trkpt lat="47.79122" lon="6.86211">
        <ele>1095.6</ele>
        <time>2019-05-17T07:12:56Z</time>
      </trkpt>
      <trkpt lat="47.7912" lon="6.86214">
        <ele>1095.2</ele>
        <time>2019-05-17T07:12:57Z</time>
      </trkpt>
      <trkpt lat="47.7912" lon="6.86218">
        <ele>1094.8</ele>
        <time>2019-05-17T07:12:58Z</time>
      </trkpt>
      <trkpt lat="47.79121" lon="6.86221">
        <ele>1094.4</ele>
        <time>2019-05-17T07:12:59Z</time>
      </trkpt>
      <trkpt lat="47.79123" lon="6.86223">
        <ele>1094.4</ele>
        <time>2019-05-17T07:13:00Z</time>
      </trkpt>
      <trkpt lat="47.79131" lon="6.86222">
        <ele>1094.4</ele>
        <time>2019-05-17T07:13:03Z</time>
      </trkpt>
      <trkpt lat="47.79137" lon="6.86221">
        <ele>1094.4</ele>
        <time>2019-05-17T07:13:06Z</time>
      </trkpt>
      <trkpt lat="47.79138" lon="6.86221">
        <ele>1094.8</ele>
        <time>2019-05-17T07:13:07Z</time>
      </trkpt>
      <trkpt lat="47.7914" lon="6.86221">
        <ele>1095.4</ele>
        <time>2019-05-17T07:13:08Z</time>
      </trkpt>
      <trkpt lat="47.79142" lon="6.86221">
        <ele>1095.8</ele>
        <time>2019-05-17T07:13:09Z</time>
      </trkpt>
      <trkpt lat="47.79143" lon="6.86221">
        <ele>1096.2</ele>
        <time>2019-05-17T07:13:10Z</time>
      </trkpt>
      <trkpt lat="47.79145" lon="6.86221">
        <ele>1096.6</ele>
        <time>2019-05-17T07:13:11Z</time>
      </trkpt>
      <trkpt lat="47.79149" lon="6.86221">
        <ele>1096.6</ele>
        <time>2019-05-17T07:13:13Z</time>
      </trkpt>
      <trkpt lat="47.79151" lon="6.8622">
        <ele>1097.2</ele>
        <time>2019-05-17T07:13:14Z</time>
      </trkpt>
      <trkpt lat="47.79154" lon="6.8622">
        <ele>1097.6</ele>
        <time>2019-05-17T07:13:15Z</time>
      </trkpt>
      <trkpt lat="47.79156" lon="6.86221">
        <ele>1098</ele>
        <time>2019-05-17T07:13:16Z</time>
      </trkpt>
      <trkpt lat="47.79158" lon="6.86221">
        <ele>1098.4</ele>
        <time>2019-05-17T07:13:17Z</time>
      </trkpt>
      <trkpt lat="47.7916" lon="6.86221">
        <ele>1098.8</ele>
        <time>2019-05-17T07:13:18Z</time>
      </trkpt>
      <trkpt lat="47.79161" lon="6.86222">
        <ele>1099.2</ele>
        <time>2019-05-17T07:13:19Z</time>
      </trkpt>
      <trkpt lat="47.79163" lon="6.86222">
        <ele>1099.6</ele>
        <time>2019-05-17T07:13:20Z</time>
      </trkpt>
      <trkpt lat="47.79164" lon="6.86221">
        <ele>1100</ele>
        <time>2019-05-17T07:13:21Z</time>
      </trkpt>
      <trkpt lat="47.79166" lon="6.86221">
        <ele>1100.4</ele>
        <time>2019-05-17T07:13:22Z</time>
      </trkpt>
      <trkpt lat="47.79168" lon="6.86221">
        <ele>1100.8</ele>
        <time>2019-05-17T07:13:23Z</time>
      </trkpt>
      <trkpt lat="47.79172" lon="6.86221">
        <ele>1101.4</ele>
        <time>2019-05-17T07:13:25Z</time>
      </trkpt>
      <trkpt lat="47.79174" lon="6.86221">
        <ele>1101.8</ele>
        <time>2019-05-17T07:13:26Z</time>
      </trkpt>
      <trkpt lat="47.79175" lon="6.86221">
        <ele>1102.8</ele>
        <time>2019-05-17T07:13:27Z</time>
      </trkpt>
      <trkpt lat="47.79177" lon="6.8622">
        <ele>1103.2</ele>
        <time>2019-05-17T07:13:28Z</time>
      </trkpt>
      <trkpt lat="47.79183" lon="6.86221">
        <ele>1103.8</ele>
        <time>2019-05-17T07:13:31Z</time>
      </trkpt>
      <trkpt lat="47.79184" lon="6.86222">
        <ele>1104.2</ele>
        <time>2019-05-17T07:13:32Z</time>
      </trkpt>
      <trkpt lat="47.79186" lon="6.86222">
        <ele>1104.8</ele>
        <time>2019-05-17T07:13:33Z</time>
      </trkpt>
      <trkpt lat="47.79188" lon="6.86221">
        <ele>1105.2</ele>
        <time>2019-05-17T07:13:34Z</time>
      </trkpt>
      <trkpt lat="47.79189" lon="6.86221">
        <ele>1105.6</ele>
        <time>2019-05-17T07:13:35Z</time>
      </trkpt>
      <trkpt lat="47.79191" lon="6.86218">
        <ele>1105.6</ele>
        <time>2019-05-17T07:13:37Z</time>
      </trkpt>
      <trkpt lat="47.79193" lon="6.86218">
        <ele>1105.6</ele>
        <time>2019-05-17T07:13:38Z</time>
      </trkpt>
      <trkpt lat="47.79197" lon="6.86215">
        <ele>1106</ele>
        <time>2019-05-17T07:13:40Z</time>
      </trkpt>
      <trkpt lat="47.79198" lon="6.86215">
        <ele>1106.4</ele>
        <time>2019-05-17T07:13:41Z</time>
      </trkpt>
      <trkpt lat="47.792" lon="6.86213">
        <ele>1106.8</ele>
        <time>2019-05-17T07:13:42Z</time>
      </trkpt>
      <trkpt lat="47.79201" lon="6.86213">
        <ele>1107.4</ele>
        <time>2019-05-17T07:13:43Z</time>
      </trkpt>
      <trkpt lat="47.79202" lon="6.86212">
        <ele>1107.8</ele>
        <time>2019-05-17T07:13:44Z</time>
      </trkpt>
      <trkpt lat="47.79205" lon="6.86209">
        <ele>1107.8</ele>
        <time>2019-05-17T07:13:46Z</time>
      </trkpt>
      <trkpt lat="47.79213" lon="6.86204">
        <ele>1108.2</ele>
        <time>2019-05-17T07:13:51Z</time>
      </trkpt>
      <trkpt lat="47.79214" lon="6.86203">
        <ele>1109</ele>
        <time>2019-05-17T07:13:52Z</time>
      </trkpt>
      <trkpt lat="47.79216" lon="6.86201">
        <ele>1109.4</ele>
        <time>2019-05-17T07:13:53Z</time>
      </trkpt>
      <trkpt lat="47.79217" lon="6.862">
        <ele>1109.8</ele>
        <time>2019-05-17T07:13:54Z</time>
      </trkpt>
      <trkpt lat="47.79228" lon="6.86189">
        <ele>1109.8</ele>
        <time>2019-05-17T07:14:01Z</time>
      </trkpt>
      <trkpt lat="47.79238" lon="6.8618">
        <ele>1110.2</ele>
        <time>2019-05-17T07:14:07Z</time>
      </trkpt>
      <trkpt lat="47.7924" lon="6.86179">
        <ele>1110.6</ele>
        <time>2019-05-17T07:14:08Z</time>
      </trkpt>
      <trkpt lat="47.79242" lon="6.86177">
        <ele>1111</ele>
        <time>2019-05-17T07:14:09Z</time>
      </trkpt>
      <trkpt lat="47.79244" lon="6.86175">
        <ele>1111.4</ele>
        <time>2019-05-17T07:14:10Z</time>
      </trkpt>
      <trkpt lat="47.79246" lon="6.86173">
        <ele>1111.8</ele>
        <time>2019-05-17T07:14:11Z</time>
      </trkpt>
      <trkpt lat="47.7925" lon="6.86167">
        <ele>1111.8</ele>
        <time>2019-05-17T07:14:14Z</time>
      </trkpt>
      <trkpt lat="47.79257" lon="6.86162">
        <ele>1111.8</ele>
        <time>2019-05-17T07:14:19Z</time>
      </trkpt>
      <trkpt lat="47.79259" lon="6.86159">
        <ele>1112.2</ele>
        <time>2019-05-17T07:14:21Z</time>
      </trkpt>
      <trkpt lat="47.7926" lon="6.86157">
        <ele>1112.6</ele>
        <time>2019-05-17T07:14:22Z</time>
      </trkpt>
      <trkpt lat="47.79262" lon="6.86155">
        <ele>1113.2</ele>
        <time>2019-05-17T07:14:23Z</time>
      </trkpt>
      <trkpt lat="47.79264" lon="6.86154">
        <ele>1113.6</ele>
        <time>2019-05-17T07:14:24Z</time>
      </trkpt>
      <trkpt lat="47.79265" lon="6.86153">
        <ele>1114</ele>
        <time>2019-05-17T07:14:25Z</time>
      </trkpt>
      <trkpt lat="47.7927" lon="6.86151">
        <ele>1114</ele>
        <time>2019-05-17T07:14:28Z</time>
      </trkpt>
      <trkpt lat="47.79272" lon="6.86151">
        <ele>1114</ele>
        <time>2019-05-17T07:14:31Z</time>
      </trkpt>
      <trkpt lat="47.79274" lon="6.86152">
        <ele>1114</ele>
        <time>2019-05-17T07:14:33Z</time>
      </trkpt>
      <trkpt lat="47.79274" lon="6.86152">
        <ele>1114</ele>
        <time>2019-05-17T07:14:34Z</time>
      </trkpt>
      <trkpt lat="47.79273" lon="6.8615">
        <ele>1116</ele>
        <time>2019-05-17T07:15:37Z</time>
      </trkpt>
      <trkpt lat="47.79274" lon="6.86144">
        <ele>1116</ele>
        <time>2019-05-17T07:15:39Z</time>
      </trkpt>
      <trkpt lat="47.79282" lon="6.86134">
        <ele>1116</ele>
        <time>2019-05-17T07:15:43Z</time>
      </trkpt>
      <trkpt lat="47.79288" lon="6.86122">
        <ele>1115.6</ele>
        <time>2019-05-17T07:15:46Z</time>
      </trkpt>
      <trkpt lat="47.7929" lon="6.86118">
        <ele>1115</ele>
        <time>2019-05-17T07:15:47Z</time>
      </trkpt>
      <trkpt lat="47.79293" lon="6.86113">
        <ele>1114.6</ele>
        <time>2019-05-17T07:15:48Z</time>
      </trkpt>
      <trkpt lat="47.79296" lon="6.86109">
        <ele>1114</ele>
        <time>2019-05-17T07:15:49Z</time>
      </trkpt>
      <trkpt lat="47.79299" lon="6.86105">
        <ele>1113.6</ele>
        <time>2019-05-17T07:15:50Z</time>
      </trkpt>
      <trkpt lat="47.79303" lon="6.86102">
        <ele>1113</ele>
        <time>2019-05-17T07:15:51Z</time>
      </trkpt>
      <trkpt lat="47.79306" lon="6.861">
        <ele>1112.4</ele>
        <time>2019-05-17T07:15:52Z</time>
      </trkpt>
      <trkpt lat="47.7931" lon="6.86098">
        <ele>1112</ele>
        <time>2019-05-17T07:15:53Z</time>
      </trkpt>
      <trkpt lat="47.79312" lon="6.86095">
        <ele>1111.4</ele>
        <time>2019-05-17T07:15:54Z</time>
      </trkpt>
      <trkpt lat="47.79314" lon="6.86092">
        <ele>1110.2</ele>
        <time>2019-05-17T07:15:55Z</time>
      </trkpt>
      <trkpt lat="47.79316" lon="6.86087">
        <ele>1109.6</ele>
        <time>2019-05-17T07:15:56Z</time>
      </trkpt>
      <trkpt lat="47.79317" lon="6.86082">
        <ele>1109.2</ele>
        <time>2019-05-17T07:15:57Z</time>
      </trkpt>
      <trkpt lat="47.79323" lon="6.86072">
        <ele>1108.4</ele>
        <time>2019-05-17T07:15:59Z</time>
      </trkpt>
      <trkpt lat="47.79326" lon="6.86067">
        <ele>1107.8</ele>
        <time>2019-05-17T07:16:00Z</time>
      </trkpt>
      <trkpt lat="47.7933" lon="6.86064">
        <ele>1107.2</ele>
        <time>2019-05-17T07:16:01Z</time>
      </trkpt>
      <trkpt lat="47.79334" lon="6.86061">
        <ele>1106.6</ele>
        <time>2019-05-17T07:16:02Z</time>
      </trkpt>
      <trkpt lat="47.79336" lon="6.86058">
        <ele>1105.8</ele>
        <time>2019-05-17T07:16:03Z</time>
      </trkpt>
      <trkpt lat="47.79339" lon="6.86055">
        <ele>1105.2</ele>
        <time>2019-05-17T07:16:04Z</time>
      </trkpt>
      <trkpt lat="47.79342" lon="6.86051">
        <ele>1104.4</ele>
        <time>2019-05-17T07:16:05Z</time>
      </trkpt>
      <trkpt lat="47.79345" lon="6.86047">
        <ele>1103.8</ele>
        <time>2019-05-17T07:16:06Z</time>
      </trkpt>
      <trkpt lat="47.79349" lon="6.86043">
        <ele>1103.2</ele>
        <time>2019-05-17T07:16:07Z</time>
      </trkpt>
      <trkpt lat="47.79352" lon="6.86039">
        <ele>1102.6</ele>
        <time>2019-05-17T07:16:08Z</time>
      </trkpt>
      <trkpt lat="47.79357" lon="6.86034">
        <ele>1101.8</ele>
        <time>2019-05-17T07:16:09Z</time>
      </trkpt>
      <trkpt lat="47.79361" lon="6.86028">
        <ele>1101</ele>
        <time>2019-05-17T07:16:10Z</time>
      </trkpt>
      <trkpt lat="47.79366" lon="6.86024">
        <ele>1100.2</ele>
        <time>2019-05-17T07:16:11Z</time>
      </trkpt>
      <trkpt lat="47.7937" lon="6.8602">
        <ele>1099.4</ele>
        <time>2019-05-17T07:16:12Z</time>
      </trkpt>
      <trkpt lat="47.79375" lon="6.86015">
        <ele>1098.6</ele>
        <time>2019-05-17T07:16:13Z</time>
      </trkpt>
      <trkpt lat="47.7938" lon="6.86011">
        <ele>1097.8</ele>
        <time>2019-05-17T07:16:14Z</time>
      </trkpt>
      <trkpt lat="47.79384" lon="6.86007">
        <ele>1097</ele>
        <time>2019-05-17T07:16:15Z</time>
      </trkpt>
      <trkpt lat="47.79389" lon="6.86001">
        <ele>1096.2</ele>
        <time>2019-05-17T07:16:16Z</time>
      </trkpt>
      <trkpt lat="47.79393" lon="6.85995">
        <ele>1095.6</ele>
        <time>2019-05-17T07:16:17Z</time>
      </trkpt>
      <trkpt lat="47.79399" lon="6.85989">
        <ele>1094.8</ele>
        <time>2019-05-17T07:16:18Z</time>
      </trkpt>
      <trkpt lat="47.79404" lon="6.85983">
        <ele>1093.6</ele>
        <time>2019-05-17T07:16:19Z</time>
      </trkpt>
      <trkpt lat="47.7941" lon="6.85977">
        <ele>1092.8</ele>
        <time>2019-05-17T07:16:20Z</time>
      </trkpt>
      <trkpt lat="47.79415" lon="6.8597">
        <ele>1092</ele>
        <time>2019-05-17T07:16:21Z</time>
      </trkpt>
      <trkpt lat="47.7942" lon="6.85965">
        <ele>1091.4</ele>
        <time>2019-05-17T07:16:22Z</time>
      </trkpt>
      <trkpt lat="47.79425" lon="6.85958">
        <ele>1090.6</ele>
        <time>2019-05-17T07:16:23Z</time>
      </trkpt>
      <trkpt lat="47.7943" lon="6.85953">
        <ele>1089.8</ele>
        <time>2019-05-17T07:16:24Z</time>
      </trkpt>
      <trkpt lat="47.79455" lon="6.85919">
        <ele>1089.8</ele>
        <time>2019-05-17T07:16:30Z</time>
      </trkpt>
      <trkpt lat="47.79464" lon="6.8589">
        <ele>1089.8</ele>
        <time>2019-05-17T07:16:34Z</time>
      </trkpt>
      <trkpt lat="47.79471" lon="6.85863">
        <ele>1089.4</ele>
        <time>2019-05-17T07:16:37Z</time>
      </trkpt>
      <trkpt lat="47.79473" lon="6.85854">
        <ele>1089</ele>
        <time>2019-05-17T07:16:38Z</time>
      </trkpt>
      <trkpt lat="47.79476" lon="6.85844">
        <ele>1088.6</ele>
        <time>2019-05-17T07:16:39Z</time>
      </trkpt>
      <trkpt lat="47.79479" lon="6.85834">
        <ele>1088</ele>
        <time>2019-05-17T07:16:40Z</time>
      </trkpt>
      <trkpt lat="47.79483" lon="6.85825">
        <ele>1087.4</ele>
        <time>2019-05-17T07:16:41Z</time>
      </trkpt>
      <trkpt lat="47.79488" lon="6.85817">
        <ele>1086.8</ele>
        <time>2019-05-17T07:16:42Z</time>
      </trkpt>
      <trkpt lat="47.79492" lon="6.8581">
        <ele>1086.2</ele>
        <time>2019-05-17T07:16:43Z</time>
      </trkpt>
      <trkpt lat="47.79497" lon="6.85803">
        <ele>1085.6</ele>
        <time>2019-05-17T07:16:44Z</time>
      </trkpt>
      <trkpt lat="47.7951" lon="6.85782">
        <ele>1085.6</ele>
        <time>2019-05-17T07:16:47Z</time>
      </trkpt>
      <trkpt lat="47.79522" lon="6.85763">
        <ele>1085.6</ele>
        <time>2019-05-17T07:16:50Z</time>
      </trkpt>
      <trkpt lat="47.79531" lon="6.85753">
        <ele>1085.6</ele>
        <time>2019-05-17T07:16:52Z</time>
      </trkpt>
      <trkpt lat="47.79563" lon="6.85712">
        <ele>1085.6</ele>
        <time>2019-05-17T07:16:59Z</time>
      </trkpt>
      <trkpt lat="47.79567" lon="6.85707">
        <ele>1085.6</ele>
        <time>2019-05-17T07:17:00Z</time>
      </trkpt>
      <trkpt lat="47.79588" lon="6.85684">
        <ele>1085.6</ele>
        <time>2019-05-17T07:17:04Z</time>
      </trkpt>
      <trkpt lat="47.79599" lon="6.8567">
        <ele>1085.2</ele>
        <time>2019-05-17T07:17:06Z</time>
      </trkpt>
      <trkpt lat="47.79605" lon="6.85663">
        <ele>1084.8</ele>
        <time>2019-05-17T07:17:07Z</time>
      </trkpt>
      <trkpt lat="47.79611" lon="6.85655">
        <ele>1083.6</ele>
        <time>2019-05-17T07:17:08Z</time>
      </trkpt>
      <trkpt lat="47.79618" lon="6.85647">
        <ele>1083</ele>
        <time>2019-05-17T07:17:09Z</time>
      </trkpt>
      <trkpt lat="47.79624" lon="6.85639">
        <ele>1082.4</ele>
        <time>2019-05-17T07:17:10Z</time>
      </trkpt>
      <trkpt lat="47.7963" lon="6.85632">
        <ele>1081.8</ele>
        <time>2019-05-17T07:17:11Z</time>
      </trkpt>
      <trkpt lat="47.79637" lon="6.85625">
        <ele>1081.2</ele>
        <time>2019-05-17T07:17:12Z</time>
      </trkpt>
      <trkpt lat="47.79648" lon="6.85612">
        <ele>1081.2</ele>
        <time>2019-05-17T07:17:14Z</time>
      </trkpt>
      <trkpt lat="47.79667" lon="6.85586">
        <ele>1081.2</ele>
        <time>2019-05-17T07:17:18Z</time>
      </trkpt>
      <trkpt lat="47.7967" lon="6.8558">
        <ele>1081.2</ele>
        <time>2019-05-17T07:17:19Z</time>
      </trkpt>
      <trkpt lat="47.79691" lon="6.8554">
        <ele>1081.2</ele>
        <time>2019-05-17T07:17:25Z</time>
      </trkpt>
      <trkpt lat="47.79702" lon="6.85521">
        <ele>1081.2</ele>
        <time>2019-05-17T07:17:28Z</time>
      </trkpt>
      <trkpt lat="47.79714" lon="6.85501">
        <ele>1081.2</ele>
        <time>2019-05-17T07:17:31Z</time>
      </trkpt>
      <trkpt lat="47.79736" lon="6.85463">
        <ele>1081.2</ele>
        <time>2019-05-17T07:17:37Z</time>
      </trkpt>
      <trkpt lat="47.7974" lon="6.85457">
        <ele>1081.2</ele>
        <time>2019-05-17T07:17:38Z</time>
      </trkpt>
      <trkpt lat="47.7976" lon="6.85436">
        <ele>1081.2</ele>
        <time>2019-05-17T07:17:42Z</time>
      </trkpt>
      <trkpt lat="47.79766" lon="6.85431">
        <ele>1081.2</ele>
        <time>2019-05-17T07:17:43Z</time>
      </trkpt>
      <trkpt lat="47.79785" lon="6.85418">
        <ele>1080.6</ele>
        <time>2019-05-17T07:17:46Z</time>
      </trkpt>
      <trkpt lat="47.79792" lon="6.85414">
        <ele>1080.2</ele>
        <time>2019-05-17T07:17:47Z</time>
      </trkpt>
      <trkpt lat="47.79798" lon="6.85409">
        <ele>1079.8</ele>
        <time>2019-05-17T07:17:48Z</time>
      </trkpt>
      <trkpt lat="47.79805" lon="6.85403">
        <ele>1079</ele>
        <time>2019-05-17T07:17:49Z</time>
      </trkpt>
      <trkpt lat="47.79811" lon="6.85397">
        <ele>1078.4</ele>
        <time>2019-05-17T07:17:50Z</time>
      </trkpt>
      <trkpt lat="47.79818" lon="6.85391">
        <ele>1077.6</ele>
        <time>2019-05-17T07:17:51Z</time>
      </trkpt>
      <trkpt lat="47.79825" lon="6.85384">
        <ele>1077</ele>
        <time>2019-05-17T07:17:52Z</time>
      </trkpt>
      <trkpt lat="47.79832" lon="6.85377">
        <ele>1076.4</ele>
        <time>2019-05-17T07:17:53Z</time>
      </trkpt>
      <trkpt lat="47.79838" lon="6.8537">
        <ele>1075.8</ele>
        <time>2019-05-17T07:17:54Z</time>
      </trkpt>
      <trkpt lat="47.79845" lon="6.85363">
        <ele>1075.2</ele>
        <time>2019-05-17T07:17:55Z</time>
      </trkpt>
      <trkpt lat="47.79852" lon="6.85356">
        <ele>1074.6</ele>
        <time>2019-05-17T07:17:56Z</time>
      </trkpt>
      <trkpt lat="47.79858" lon="6.85349">
        <ele>1074</ele>
        <time>2019-05-17T07:17:57Z</time>
      </trkpt>
      <trkpt lat="47.79864" lon="6.85342">
        <ele>1072.8</ele>
        <time>2019-05-17T07:17:58Z</time>
      </trkpt>
      <trkpt lat="47.7987" lon="6.85333">
        <ele>1072.2</ele>
        <time>2019-05-17T07:17:59Z</time>
      </trkpt>
      <trkpt lat="47.79874" lon="6.85324">
        <ele>1072.2</ele>
        <time>2019-05-17T07:18:00Z</time>
      </trkpt>
      <trkpt lat="47.79883" lon="6.85306">
        <ele>1072.2</ele>
        <time>2019-05-17T07:18:02Z</time>
      </trkpt>
      <trkpt lat="47.79893" lon="6.85291">
        <ele>1072.2</ele>
        <time>2019-05-17T07:18:04Z</time>
      </trkpt>
      <trkpt lat="47.79904" lon="6.85278">
        <ele>1071.8</ele>
        <time>2019-05-17T07:18:06Z</time>
      </trkpt>
      <trkpt lat="47.79909" lon="6.8527">
        <ele>1071.2</ele>
        <time>2019-05-17T07:18:07Z</time>
      </trkpt>
      <trkpt lat="47.79913" lon="6.85264">
        <ele>1070.8</ele>
        <time>2019-05-17T07:18:08Z</time>
      </trkpt>
      <trkpt lat="47.79918" lon="6.85259">
        <ele>1070.4</ele>
        <time>2019-05-17T07:18:09Z</time>
      </trkpt>
      <trkpt lat="47.79923" lon="6.85253">
        <ele>1070</ele>
        <time>2019-05-17T07:18:10Z</time>
      </trkpt>
      <trkpt lat="47.79928" lon="6.85247">
        <ele>1069.6</ele>
        <time>2019-05-17T07:18:11Z</time>
      </trkpt>
      <trkpt lat="47.79933" lon="6.8524">
        <ele>1069</ele>
        <time>2019-05-17T07:18:12Z</time>
      </trkpt>
      <trkpt lat="47.79937" lon="6.85232">
        <ele>1068.6</ele>
        <time>2019-05-17T07:18:13Z</time>
      </trkpt>
      <trkpt lat="47.79941" lon="6.85224">
        <ele>1068.2</ele>
        <time>2019-05-17T07:18:14Z</time>
      </trkpt>
      <trkpt lat="47.79945" lon="6.85215">
        <ele>1067.6</ele>
        <time>2019-05-17T07:18:15Z</time>
      </trkpt>
      <trkpt lat="47.79949" lon="6.85207">
        <ele>1067</ele>
        <time>2019-05-17T07:18:16Z</time>
      </trkpt>
      <trkpt lat="47.79954" lon="6.85199">
        <ele>1066.4</ele>
        <time>2019-05-17T07:18:17Z</time>
      </trkpt>
      <trkpt lat="47.79958" lon="6.85192">
        <ele>1066</ele>
        <time>2019-05-17T07:18:18Z</time>
      </trkpt>
      <trkpt lat="47.79962" lon="6.85183">
        <ele>1065.4</ele>
        <time>2019-05-17T07:18:19Z</time>
      </trkpt>
      <trkpt lat="47.79967" lon="6.85175">
        <ele>1064.8</ele>
        <time>2019-05-17T07:18:20Z</time>
      </trkpt>
      <trkpt lat="47.79971" lon="6.85166">
        <ele>1064.4</ele>
        <time>2019-05-17T07:18:21Z</time>
      </trkpt>
      <trkpt lat="47.79976" lon="6.85157">
        <ele>1063.4</ele>
        <time>2019-05-17T07:18:22Z</time>
      </trkpt>
      <trkpt lat="47.79981" lon="6.85149">
        <ele>1063</ele>
        <time>2019-05-17T07:18:23Z</time>
      </trkpt>
      <trkpt lat="47.79985" lon="6.85141">
        <ele>1062.4</ele>
        <time>2019-05-17T07:18:24Z</time>
      </trkpt>
      <trkpt lat="47.7999" lon="6.85133">
        <ele>1061.8</ele>
        <time>2019-05-17T07:18:25Z</time>
      </trkpt>
      <trkpt lat="47.79994" lon="6.85124">
        <ele>1061.2</ele>
        <time>2019-05-17T07:18:26Z</time>
      </trkpt>
      <trkpt lat="47.79999" lon="6.85116">
        <ele>1060.4</ele>
        <time>2019-05-17T07:18:27Z</time>
      </trkpt>
      <trkpt lat="47.80003" lon="6.85108">
        <ele>1059.6</ele>
        <time>2019-05-17T07:18:28Z</time>
      </trkpt>
      <trkpt lat="47.80008" lon="6.851">
        <ele>1058.6</ele>
        <time>2019-05-17T07:18:29Z</time>
      </trkpt>
      <trkpt lat="47.80013" lon="6.8509">
        <ele>1057.8</ele>
        <time>2019-05-17T07:18:30Z</time>
      </trkpt>
      <trkpt lat="47.80018" lon="6.85081">
        <ele>1057</ele>
        <time>2019-05-17T07:18:31Z</time>
      </trkpt>
      <trkpt lat="47.80023" lon="6.85072">
        <ele>1056.2</ele>
        <time>2019-05-17T07:18:32Z</time>
      </trkpt>
      <trkpt lat="47.80029" lon="6.85062">
        <ele>1055.2</ele>
        <time>2019-05-17T07:18:33Z</time>
      </trkpt>
      <trkpt lat="47.80035" lon="6.85054">
        <ele>1054.4</ele>
        <time>2019-05-17T07:18:34Z</time>
      </trkpt>
      <trkpt lat="47.80041" lon="6.85045">
        <ele>1053.8</ele>
        <time>2019-05-17T07:18:35Z</time>
      </trkpt>
      <trkpt lat="47.80047" lon="6.85036">
        <ele>1053</ele>
        <time>2019-05-17T07:18:36Z</time>
      </trkpt>
      <trkpt lat="47.80053" lon="6.85027">
        <ele>1052.2</ele>
        <time>2019-05-17T07:18:37Z</time>
      </trkpt>
      <trkpt lat="47.8006" lon="6.85018">
        <ele>1051.6</ele>
        <time>2019-05-17T07:18:38Z</time>
      </trkpt>
      <trkpt lat="47.80067" lon="6.8501">
        <ele>1050.8</ele>
        <time>2019-05-17T07:18:39Z</time>
      </trkpt>
      <trkpt lat="47.80074" lon="6.85002">
        <ele>1050.4</ele>
        <time>2019-05-17T07:18:40Z</time>
      </trkpt>
      <trkpt lat="47.80081" lon="6.84995">
        <ele>1050</ele>
        <time>2019-05-17T07:18:41Z</time>
      </trkpt>
      <trkpt lat="47.80087" lon="6.84987">
        <ele>1049.4</ele>
        <time>2019-05-17T07:18:42Z</time>
      </trkpt>
      <trkpt lat="47.80093" lon="6.8498">
        <ele>1049</ele>
        <time>2019-05-17T07:18:43Z</time>
      </trkpt>
      <trkpt lat="47.80098" lon="6.84974">
        <ele>1048.6</ele>
        <time>2019-05-17T07:18:44Z</time>
      </trkpt>
      <trkpt lat="47.80101" lon="6.84967">
        <ele>1048.6</ele>
        <time>2019-05-17T07:18:45Z</time>
      </trkpt>
      <trkpt lat="47.80108" lon="6.84946">
        <ele>1048.6</ele>
        <time>2019-05-17T07:18:48Z</time>
      </trkpt>
      <trkpt lat="47.80118" lon="6.84921">
        <ele>1048.6</ele>
        <time>2019-05-17T07:18:52Z</time>
      </trkpt>
      <trkpt lat="47.80122" lon="6.84916">
        <ele>1048.6</ele>
        <time>2019-05-17T07:18:53Z</time>
      </trkpt>
      <trkpt lat="47.80136" lon="6.84903">
        <ele>1048.6</ele>
        <time>2019-05-17T07:18:56Z</time>
      </trkpt>
      <trkpt lat="47.80141" lon="6.849">
        <ele>1048.6</ele>
        <time>2019-05-17T07:18:57Z</time>
      </trkpt>
      <trkpt lat="47.80156" lon="6.84897">
        <ele>1048.6</ele>
        <time>2019-05-17T07:19:00Z</time>
      </trkpt>
      <trkpt lat="47.8017" lon="6.84893">
        <ele>1049.2</ele>
        <time>2019-05-17T07:19:04Z</time>
      </trkpt>
      <trkpt lat="47.80174" lon="6.84892">
        <ele>1049.6</ele>
        <time>2019-05-17T07:19:05Z</time>
      </trkpt>
      <trkpt lat="47.80177" lon="6.84891">
        <ele>1050.2</ele>
        <time>2019-05-17T07:19:06Z</time>
      </trkpt>
      <trkpt lat="47.80179" lon="6.84889">
        <ele>1050.6</ele>
        <time>2019-05-17T07:19:07Z</time>
      </trkpt>
      <trkpt lat="47.80181" lon="6.84886">
        <ele>1051.2</ele>
        <time>2019-05-17T07:19:08Z</time>
      </trkpt>
      <trkpt lat="47.80188" lon="6.84876">
        <ele>1051.2</ele>
        <time>2019-05-17T07:19:11Z</time>
      </trkpt>
      <trkpt lat="47.80191" lon="6.84874">
        <ele>1051.2</ele>
        <time>2019-05-17T07:19:12Z</time>
      </trkpt>
      <trkpt lat="47.80204" lon="6.8487">
        <ele>1051.2</ele>
        <time>2019-05-17T07:19:17Z</time>
      </trkpt>
      <trkpt lat="47.80208" lon="6.84869">
        <ele>1051.6</ele>
        <time>2019-05-17T07:19:18Z</time>
      </trkpt>
      <trkpt lat="47.80211" lon="6.84869">
        <ele>1052</ele>
        <time>2019-05-17T07:19:19Z</time>
      </trkpt>
      <trkpt lat="47.80214" lon="6.84868">
        <ele>1052.4</ele>
        <time>2019-05-17T07:19:20Z</time>
      </trkpt>
      <trkpt lat="47.80216" lon="6.84867">
        <ele>1052.8</ele>
        <time>2019-05-17T07:19:21Z</time>
      </trkpt>
      <trkpt lat="47.80218" lon="6.84865">
        <ele>1053.2</ele>
        <time>2019-05-17T07:19:22Z</time>
      </trkpt>
      <trkpt lat="47.80224" lon="6.84859">
        <ele>1053.6</ele>
        <time>2019-05-17T07:19:25Z</time>
      </trkpt>
      <trkpt lat="47.80225" lon="6.84857">
        <ele>1054</ele>
        <time>2019-05-17T07:19:26Z</time>
      </trkpt>
      <trkpt lat="47.80227" lon="6.84856">
        <ele>1054.4</ele>
        <time>2019-05-17T07:19:27Z</time>
      </trkpt>
      <trkpt lat="47.80229" lon="6.84854">
        <ele>1054.8</ele>
        <time>2019-05-17T07:19:28Z</time>
      </trkpt>
      <trkpt lat="47.80232" lon="6.84852">
        <ele>1055.4</ele>
        <time>2019-05-17T07:19:29Z</time>
      </trkpt>
      <trkpt lat="47.80241" lon="6.84844">
        <ele>1055.4</ele>
        <time>2019-05-17T07:19:32Z</time>
      </trkpt>
      <trkpt lat="47.8025" lon="6.84835">
        <ele>1055.8</ele>
        <time>2019-05-17T07:19:35Z</time>
      </trkpt>
      <trkpt lat="47.80253" lon="6.84832">
        <ele>1056.6</ele>
        <time>2019-05-17T07:19:36Z</time>
      </trkpt>
      <trkpt lat="47.80256" lon="6.84829">
        <ele>1057.2</ele>
        <time>2019-05-17T07:19:37Z</time>
      </trkpt>
      <trkpt lat="47.80259" lon="6.84826">
        <ele>1057.6</ele>
        <time>2019-05-17T07:19:38Z</time>
      </trkpt>
      <trkpt lat="47.80274" lon="6.84815">
        <ele>1058</ele>
        <time>2019-05-17T07:19:43Z</time>
      </trkpt>
      <trkpt lat="47.80277" lon="6.84813">
        <ele>1058.4</ele>
        <time>2019-05-17T07:19:44Z</time>
      </trkpt>
      <trkpt lat="47.8028" lon="6.84811">
        <ele>1058.8</ele>
        <time>2019-05-17T07:19:45Z</time>
      </trkpt>
      <trkpt lat="47.80283" lon="6.84808">
        <ele>1059.2</ele>
        <time>2019-05-17T07:19:46Z</time>
      </trkpt>
      <trkpt lat="47.80285" lon="6.84805">
        <ele>1059.6</ele>
        <time>2019-05-17T07:19:47Z</time>
      </trkpt>
      <trkpt lat="47.8029" lon="6.84798">
        <ele>1059.6</ele>
        <time>2019-05-17T07:19:49Z</time>
      </trkpt>
      <trkpt lat="47.80294" lon="6.8479">
        <ele>1059.6</ele>
        <time>2019-05-17T07:19:51Z</time>
      </trkpt>
      <trkpt lat="47.80297" lon="6.84782">
        <ele>1059.6</ele>
        <time>2019-05-17T07:19:53Z</time>
      </trkpt>
      <trkpt lat="47.80298" lon="6.84777">
        <ele>1060</ele>
        <time>2019-05-17T07:19:54Z</time>
      </trkpt>
      <trkpt lat="47.803" lon="6.84773">
        <ele>1060.4</ele>
        <time>2019-05-17T07:19:55Z</time>
      </trkpt>
      <trkpt lat="47.80301" lon="6.8477">
        <ele>1060.8</ele>
        <time>2019-05-17T07:19:56Z</time>
      </trkpt>
      <trkpt lat="47.80303" lon="6.84766">
        <ele>1061.2</ele>
        <time>2019-05-17T07:19:57Z</time>
      </trkpt>
      <trkpt lat="47.80305" lon="6.84762">
        <ele>1061.8</ele>
        <time>2019-05-17T07:19:58Z</time>
      </trkpt>
      <trkpt lat="47.80311" lon="6.84751">
        <ele>1061.8</ele>
        <time>2019-05-17T07:20:01Z</time>
      </trkpt>
      <trkpt lat="47.80314" lon="6.84747">
        <ele>1062.2</ele>
        <time>2019-05-17T07:20:02Z</time>
      </trkpt>
      <trkpt lat="47.80316" lon="6.84744">
        <ele>1062.6</ele>
        <time>2019-05-17T07:20:03Z</time>
      </trkpt>
      <trkpt lat="47.80318" lon="6.8474">
        <ele>1063</ele>
        <time>2019-05-17T07:20:04Z</time>
      </trkpt>
      <trkpt lat="47.8032" lon="6.84737">
        <ele>1063.6</ele>
        <time>2019-05-17T07:20:05Z</time>
      </trkpt>
      <trkpt lat="47.80322" lon="6.84734">
        <ele>1064</ele>
        <time>2019-05-17T07:20:06Z</time>
      </trkpt>
      <trkpt lat="47.80324" lon="6.84731">
        <ele>1064</ele>
        <time>2019-05-17T07:20:07Z</time>
      </trkpt>
      <trkpt lat="47.80336" lon="6.84716">
        <ele>1064.4</ele>
        <time>2019-05-17T07:20:12Z</time>
      </trkpt>
      <trkpt lat="47.80338" lon="6.84714">
        <ele>1064.8</ele>
        <time>2019-05-17T07:20:13Z</time>
      </trkpt>
      <trkpt lat="47.80341" lon="6.84711">
        <ele>1065.4</ele>
        <time>2019-05-17T07:20:14Z</time>
      </trkpt>
      <trkpt lat="47.80343" lon="6.84709">
        <ele>1065.8</ele>
        <time>2019-05-17T07:20:15Z</time>
      </trkpt>
      <trkpt lat="47.80346" lon="6.84708">
        <ele>1066.2</ele>
        <time>2019-05-17T07:20:16Z</time>
      </trkpt>
      <trkpt lat="47.80354" lon="6.84702">
        <ele>1066.2</ele>
        <time>2019-05-17T07:20:19Z</time>
      </trkpt>
      <trkpt lat="47.80357" lon="6.847">
        <ele>1066.6</ele>
        <time>2019-05-17T07:20:20Z</time>
      </trkpt>
      <trkpt lat="47.8036" lon="6.84699">
        <ele>1067.2</ele>
        <time>2019-05-17T07:20:21Z</time>
      </trkpt>
      <trkpt lat="47.80363" lon="6.84698">
        <ele>1067.6</ele>
        <time>2019-05-17T07:20:22Z</time>
      </trkpt>
      <trkpt lat="47.80366" lon="6.84697">
        <ele>1068</ele>
        <time>2019-05-17T07:20:23Z</time>
      </trkpt>
      <trkpt lat="47.80369" lon="6.84696">
        <ele>1068.4</ele>
        <time>2019-05-17T07:20:24Z</time>
      </trkpt>
      <trkpt lat="47.80373" lon="6.84696">
        <ele>1068.4</ele>
        <time>2019-05-17T07:20:25Z</time>
      </trkpt>
      <trkpt lat="47.80393" lon="6.84695">
        <ele>1068.8</ele>
        <time>2019-05-17T07:20:31Z</time>
      </trkpt>
      <trkpt lat="47.80397" lon="6.84696">
        <ele>1069.2</ele>
        <time>2019-05-17T07:20:32Z</time>
      </trkpt>
      <trkpt lat="47.80401" lon="6.84697">
        <ele>1069.6</ele>
        <time>2019-05-17T07:20:33Z</time>
      </trkpt>
      <trkpt lat="47.80405" lon="6.84698">
        <ele>1070</ele>
        <time>2019-05-17T07:20:34Z</time>
      </trkpt>
      <trkpt lat="47.80408" lon="6.84699">
        <ele>1070.4</ele>
        <time>2019-05-17T07:20:35Z</time>
      </trkpt>
      <trkpt lat="47.80419" lon="6.84706">
        <ele>1070.4</ele>
        <time>2019-05-17T07:20:38Z</time>
      </trkpt>
      <trkpt lat="47.80432" lon="6.84716">
        <ele>1070.8</ele>
        <time>2019-05-17T07:20:42Z</time>
      </trkpt>
      <trkpt lat="47.80435" lon="6.84718">
        <ele>1071.2</ele>
        <time>2019-05-17T07:20:43Z</time>
      </trkpt>
      <trkpt lat="47.80438" lon="6.8472">
        <ele>1071.6</ele>
        <time>2019-05-17T07:20:44Z</time>
      </trkpt>
      <trkpt lat="47.80442" lon="6.84722">
        <ele>1072</ele>
        <time>2019-05-17T07:20:45Z</time>
      </trkpt>
      <trkpt lat="47.80445" lon="6.84724">
        <ele>1072.4</ele>
        <time>2019-05-17T07:20:46Z</time>
      </trkpt>
      <trkpt lat="47.80458" lon="6.84733">
        <ele>1072.4</ele>
        <time>2019-05-17T07:20:50Z</time>
      </trkpt>
      <trkpt lat="47.80461" lon="6.84735">
        <ele>1073</ele>
        <time>2019-05-17T07:20:51Z</time>
      </trkpt>
      <trkpt lat="47.80463" lon="6.84737">
        <ele>1073.4</ele>
        <time>2019-05-17T07:20:52Z</time>
      </trkpt>
      <trkpt lat="47.80466" lon="6.84739">
        <ele>1073.8</ele>
        <time>2019-05-17T07:20:53Z</time>
      </trkpt>
      <trkpt lat="47.80469" lon="6.8474">
        <ele>1074.2</ele>
        <time>2019-05-17T07:20:54Z</time>
      </trkpt>
      <trkpt lat="47.80472" lon="6.84742">
        <ele>1074.6</ele>
        <time>2019-05-17T07:20:55Z</time>
      </trkpt>
      <trkpt lat="47.80486" lon="6.84755">
        <ele>1075</ele>
        <time>2019-05-17T07:21:00Z</time>
      </trkpt>
      <trkpt lat="47.80489" lon="6.84758">
        <ele>1075.4</ele>
        <time>2019-05-17T07:21:01Z</time>
      </trkpt>
      <trkpt lat="47.80493" lon="6.8476">
        <ele>1075.8</ele>
        <time>2019-05-17T07:21:02Z</time>
      </trkpt>
      <trkpt lat="47.80496" lon="6.84762">
        <ele>1076.2</ele>
        <time>2019-05-17T07:21:03Z</time>
      </trkpt>
      <trkpt lat="47.80498" lon="6.84763">
        <ele>1076.8</ele>
        <time>2019-05-17T07:21:04Z</time>
      </trkpt>
      <trkpt lat="47.80505" lon="6.84768">
        <ele>1077.2</ele>
        <time>2019-05-17T07:21:06Z</time>
      </trkpt>
      <trkpt lat="47.80508" lon="6.84769">
        <ele>1077.6</ele>
        <time>2019-05-17T07:21:07Z</time>
      </trkpt>
      <trkpt lat="47.80511" lon="6.84771">
        <ele>1078</ele>
        <time>2019-05-17T07:21:08Z</time>
      </trkpt>
      <trkpt lat="47.80513" lon="6.84774">
        <ele>1078.4</ele>
        <time>2019-05-17T07:21:09Z</time>
      </trkpt>
      <trkpt lat="47.80516" lon="6.84776">
        <ele>1078.8</ele>
        <time>2019-05-17T07:21:10Z</time>
      </trkpt>
      <trkpt lat="47.80522" lon="6.84779">
        <ele>1078.8</ele>
        <time>2019-05-17T07:21:12Z</time>
      </trkpt>
      <trkpt lat="47.80531" lon="6.84784">
        <ele>1079.2</ele>
        <time>2019-05-17T07:21:15Z</time>
      </trkpt>
      <trkpt lat="47.80534" lon="6.84785">
        <ele>1079.6</ele>
        <time>2019-05-17T07:21:16Z</time>
      </trkpt>
      <trkpt lat="47.80538" lon="6.84787">
        <ele>1080</ele>
        <time>2019-05-17T07:21:17Z</time>
      </trkpt>
      <trkpt lat="47.80541" lon="6.84789">
        <ele>1080.4</ele>
        <time>2019-05-17T07:21:18Z</time>
      </trkpt>
      <trkpt lat="47.80545" lon="6.84791">
        <ele>1080.8</ele>
        <time>2019-05-17T07:21:19Z</time>
      </trkpt>
      <trkpt lat="47.80563" lon="6.848">
        <ele>1080.8</ele>
        <time>2019-05-17T07:21:25Z</time>
      </trkpt>
      <trkpt lat="47.80566" lon="6.848">
        <ele>1081.2</ele>
        <time>2019-05-17T07:21:26Z</time>
      </trkpt>
      <trkpt lat="47.80568" lon="6.848">
        <ele>1081.6</ele>
        <time>2019-05-17T07:21:27Z</time>
      </trkpt>
      <trkpt lat="47.80569" lon="6.84802">
        <ele>1082</ele>
        <time>2019-05-17T07:21:28Z</time>
      </trkpt>
      <trkpt lat="47.80567" lon="6.84804">
        <ele>1082.6</ele>
        <time>2019-05-17T07:21:29Z</time>
      </trkpt>
      <trkpt lat="47.80565" lon="6.84806">
        <ele>1083</ele>
        <time>2019-05-17T07:21:30Z</time>
      </trkpt>
      <trkpt lat="47.8056" lon="6.84808">
        <ele>1083</ele>
        <time>2019-05-17T07:21:32Z</time>
      </trkpt>
      <trkpt lat="47.80554" lon="6.84807">
        <ele>1083</ele>
        <time>2019-05-17T07:21:34Z</time>
      </trkpt>
      <trkpt lat="47.80549" lon="6.84806">
        <ele>1083</ele>
        <time>2019-05-17T07:21:36Z</time>
      </trkpt>
      <trkpt lat="47.80541" lon="6.84802">
        <ele>1083.4</ele>
        <time>2019-05-17T07:21:39Z</time>
      </trkpt>
      <trkpt lat="47.80538" lon="6.848">
        <ele>1083.8</ele>
        <time>2019-05-17T07:21:40Z</time>
      </trkpt>
      <trkpt lat="47.80535" lon="6.84799">
        <ele>1084.2</ele>
        <time>2019-05-17T07:21:41Z</time>
      </trkpt>
      <trkpt lat="47.80532" lon="6.84798">
        <ele>1084.6</ele>
        <time>2019-05-17T07:21:42Z</time>
      </trkpt>
      <trkpt lat="47.80529" lon="6.84796">
        <ele>1085</ele>
        <time>2019-05-17T07:21:43Z</time>
      </trkpt>
      <trkpt lat="47.80513" lon="6.8479">
        <ele>1085</ele>
        <time>2019-05-17T07:21:48Z</time>
      </trkpt>
      <trkpt lat="47.80501" lon="6.84789">
        <ele>1085</ele>
        <time>2019-05-17T07:21:52Z</time>
      </trkpt>
      <trkpt lat="47.80499" lon="6.84791">
        <ele>1085</ele>
        <time>2019-05-17T07:21:53Z</time>
      </trkpt>
      <trkpt lat="47.80498" lon="6.84795">
        <ele>1085</ele>
        <time>2019-05-17T07:21:55Z</time>
      </trkpt>
      <trkpt lat="47.80504" lon="6.84802">
        <ele>1085</ele>
        <time>2019-05-17T07:22:00Z</time>
      </trkpt>
      <trkpt lat="47.80505" lon="6.84804">
        <ele>1085</ele>
        <time>2019-05-17T07:22:01Z</time>
      </trkpt>
      <trkpt lat="47.80508" lon="6.84807">
        <ele>1085</ele>
        <time>2019-05-17T07:22:03Z</time>
      </trkpt>
      <trkpt lat="47.80513" lon="6.84812">
        <ele>1085</ele>
        <time>2019-05-17T07:22:05Z</time>
      </trkpt>
      <trkpt lat="47.8052" lon="6.84814">
        <ele>1085</ele>
        <time>2019-05-17T07:22:07Z</time>
      </trkpt>
      <trkpt lat="47.80523" lon="6.84815">
        <ele>1085.4</ele>
        <time>2019-05-17T07:22:08Z</time>
      </trkpt>
      <trkpt lat="47.80527" lon="6.84816">
        <ele>1085.8</ele>
        <time>2019-05-17T07:22:09Z</time>
      </trkpt>
      <trkpt lat="47.8053" lon="6.84816">
        <ele>1086.2</ele>
        <time>2019-05-17T07:22:10Z</time>
      </trkpt>
      <trkpt lat="47.80533" lon="6.84817">
        <ele>1086.6</ele>
        <time>2019-05-17T07:22:11Z</time>
      </trkpt>
      <trkpt lat="47.80536" lon="6.8482">
        <ele>1087</ele>
        <time>2019-05-17T07:22:12Z</time>
      </trkpt>
      <trkpt lat="47.80541" lon="6.84825">
        <ele>1087</ele>
        <time>2019-05-17T07:22:14Z</time>
      </trkpt>
      <trkpt lat="47.80549" lon="6.84829">
        <ele>1087.4</ele>
        <time>2019-05-17T07:22:18Z</time>
      </trkpt>
      <trkpt lat="47.80551" lon="6.8483">
        <ele>1088</ele>
        <time>2019-05-17T07:22:19Z</time>
      </trkpt>
      <trkpt lat="47.80552" lon="6.8483">
        <ele>1088.4</ele>
        <time>2019-05-17T07:22:20Z</time>
      </trkpt>
      <trkpt lat="47.80554" lon="6.8483">
        <ele>1088.8</ele>
        <time>2019-05-17T07:22:21Z</time>
      </trkpt>
      <trkpt lat="47.80557" lon="6.84831">
        <ele>1089.2</ele>
        <time>2019-05-17T07:22:22Z</time>
      </trkpt>
      <trkpt lat="47.80567" lon="6.84831">
        <ele>1089.2</ele>
        <time>2019-05-17T07:22:26Z</time>
      </trkpt>
      <trkpt lat="47.80586" lon="6.84834">
        <ele>1089.2</ele>
        <time>2019-05-17T07:22:31Z</time>
      </trkpt>
      <trkpt lat="47.80604" lon="6.8484">
        <ele>1089.2</ele>
        <time>2019-05-17T07:22:36Z</time>
      </trkpt>
      <trkpt lat="47.80619" lon="6.84843">
        <ele>1089.2</ele>
        <time>2019-05-17T07:22:41Z</time>
      </trkpt>
      <trkpt lat="47.80636" lon="6.84848">
        <ele>1089.2</ele>
        <time>2019-05-17T07:22:46Z</time>
      </trkpt>
      <trkpt lat="47.80648" lon="6.84855">
        <ele>1089.2</ele>
        <time>2019-05-17T07:22:50Z</time>
      </trkpt>
      <trkpt lat="47.80665" lon="6.84862">
        <ele>1089.2</ele>
        <time>2019-05-17T07:22:55Z</time>
      </trkpt>
      <trkpt lat="47.8068" lon="6.84864">
        <ele>1088.8</ele>
        <time>2019-05-17T07:23:00Z</time>
      </trkpt>
      <trkpt lat="47.80682" lon="6.84865">
        <ele>1088.4</ele>
        <time>2019-05-17T07:23:01Z</time>
      </trkpt>
      <trkpt lat="47.80684" lon="6.84866">
        <ele>1087.8</ele>
        <time>2019-05-17T07:23:02Z</time>
      </trkpt>
      <trkpt lat="47.80687" lon="6.84866">
        <ele>1087.4</ele>
        <time>2019-05-17T07:23:03Z</time>
      </trkpt>
      <trkpt lat="47.80691" lon="6.84866">
        <ele>1087</ele>
        <time>2019-05-17T07:23:04Z</time>
      </trkpt>
      <trkpt lat="47.80699" lon="6.84866">
        <ele>1087</ele>
        <time>2019-05-17T07:23:06Z</time>
      </trkpt>
      <trkpt lat="47.80716" lon="6.84866">
        <ele>1086.6</ele>
        <time>2019-05-17T07:23:10Z</time>
      </trkpt>
      <trkpt lat="47.8072" lon="6.84865">
        <ele>1086</ele>
        <time>2019-05-17T07:23:11Z</time>
      </trkpt>
      <trkpt lat="47.80723" lon="6.84865">
        <ele>1085.6</ele>
        <time>2019-05-17T07:23:12Z</time>
      </trkpt>
      <trkpt lat="47.80727" lon="6.84864">
        <ele>1085.2</ele>
        <time>2019-05-17T07:23:13Z</time>
      </trkpt>
      <trkpt lat="47.80731" lon="6.84864">
        <ele>1084.8</ele>
        <time>2019-05-17T07:23:14Z</time>
      </trkpt>
      <trkpt lat="47.80746" lon="6.84864">
        <ele>1084.8</ele>
        <time>2019-05-17T07:23:18Z</time>
      </trkpt>
      <trkpt lat="47.80768" lon="6.84861">
        <ele>1084.8</ele>
        <time>2019-05-17T07:23:24Z</time>
      </trkpt>
      <trkpt lat="47.80782" lon="6.84856">
        <ele>1084.4</ele>
        <time>2019-05-17T07:23:28Z</time>
      </trkpt>
      <trkpt lat="47.80786" lon="6.84854">
        <ele>1084</ele>
        <time>2019-05-17T07:23:29Z</time>
      </trkpt>
      <trkpt lat="47.8079" lon="6.84853">
        <ele>1083.4</ele>
        <time>2019-05-17T07:23:30Z</time>
      </trkpt>
      <trkpt lat="47.80795" lon="6.84852">
        <ele>1083</ele>
        <time>2019-05-17T07:23:31Z</time>
      </trkpt>
      <trkpt lat="47.80799" lon="6.84851">
        <ele>1082.6</ele>
        <time>2019-05-17T07:23:32Z</time>
      </trkpt>
      <trkpt lat="47.80804" lon="6.84851">
        <ele>1082.6</ele>
        <time>2019-05-17T07:23:33Z</time>
      </trkpt>
      <trkpt lat="47.80808" lon="6.8485">
        <ele>1082.6</ele>
        <time>2019-05-17T07:23:34Z</time>
      </trkpt>
      <trkpt lat="47.80817" lon="6.84846">
        <ele>1082.6</ele>
        <time>2019-05-17T07:23:37Z</time>
      </trkpt>
      <trkpt lat="47.80832" lon="6.84842">
        <ele>1082.6</ele>
        <time>2019-05-17T07:23:41Z</time>
      </trkpt>
      <trkpt lat="47.8084" lon="6.84843">
        <ele>1082.6</ele>
        <time>2019-05-17T07:23:44Z</time>
      </trkpt>
      <trkpt lat="47.80843" lon="6.84844">
        <ele>1082.6</ele>
        <time>2019-05-17T07:23:45Z</time>
      </trkpt>
      <trkpt lat="47.80853" lon="6.84851">
        <ele>1082.6</ele>
        <time>2019-05-17T07:23:50Z</time>
      </trkpt>
      <trkpt lat="47.80855" lon="6.84851">
        <ele>1082.6</ele>
        <time>2019-05-17T07:23:51Z</time>
      </trkpt>
      <trkpt lat="47.80861" lon="6.84848">
        <ele>1082.6</ele>
        <time>2019-05-17T07:23:53Z</time>
      </trkpt>
      <trkpt lat="47.80874" lon="6.84839">
        <ele>1082.6</ele>
        <time>2019-05-17T07:23:56Z</time>
      </trkpt>
      <trkpt lat="47.80879" lon="6.84835">
        <ele>1082.6</ele>
        <time>2019-05-17T07:23:57Z</time>
      </trkpt>
      <trkpt lat="47.80896" lon="6.84822">
        <ele>1082.6</ele>
        <time>2019-05-17T07:24:01Z</time>
      </trkpt>
      <trkpt lat="47.80909" lon="6.84813">
        <ele>1082.6</ele>
        <time>2019-05-17T07:24:06Z</time>
      </trkpt>
      <trkpt lat="47.80912" lon="6.84812">
        <ele>1082.6</ele>
        <time>2019-05-17T07:24:07Z</time>
      </trkpt>
      <trkpt lat="47.80921" lon="6.8481">
        <ele>1082.6</ele>
        <time>2019-05-17T07:24:10Z</time>
      </trkpt>
      <trkpt lat="47.80927" lon="6.84809">
        <ele>1083</ele>
        <time>2019-05-17T07:24:12Z</time>
      </trkpt>
      <trkpt lat="47.8093" lon="6.84807">
        <ele>1083.4</ele>
        <time>2019-05-17T07:24:13Z</time>
      </trkpt>
      <trkpt lat="47.80932" lon="6.84805">
        <ele>1083.8</ele>
        <time>2019-05-17T07:24:14Z</time>
      </trkpt>
      <trkpt lat="47.80936" lon="6.84803">
        <ele>1084.2</ele>
        <time>2019-05-17T07:24:15Z</time>
      </trkpt>
      <trkpt lat="47.80939" lon="6.848">
        <ele>1084.6</ele>
        <time>2019-05-17T07:24:16Z</time>
      </trkpt>
      <trkpt lat="47.80956" lon="6.84786">
        <ele>1084.6</ele>
        <time>2019-05-17T07:24:21Z</time>
      </trkpt>
      <trkpt lat="47.80974" lon="6.84771">
        <ele>1084.6</ele>
        <time>2019-05-17T07:24:26Z</time>
      </trkpt>
      <trkpt lat="47.80978" lon="6.84766">
        <ele>1084.6</ele>
        <time>2019-05-17T07:24:27Z</time>
      </trkpt>
      <trkpt lat="47.80988" lon="6.84755">
        <ele>1084.6</ele>
        <time>2019-05-17T07:24:29Z</time>
      </trkpt>
      <trkpt lat="47.80993" lon="6.8475">
        <ele>1084.2</ele>
        <time>2019-05-17T07:24:30Z</time>
      </trkpt>
      <trkpt lat="47.80997" lon="6.84745">
        <ele>1083.8</ele>
        <time>2019-05-17T07:24:31Z</time>
      </trkpt>
      <trkpt lat="47.81002" lon="6.84741">
        <ele>1083</ele>
        <time>2019-05-17T07:24:32Z</time>
      </trkpt>
      <trkpt lat="47.81006" lon="6.84735">
        <ele>1082.4</ele>
        <time>2019-05-17T07:24:33Z</time>
      </trkpt>
      <trkpt lat="47.81014" lon="6.84726">
        <ele>1082.4</ele>
        <time>2019-05-17T07:24:35Z</time>
      </trkpt>
      <trkpt lat="47.81032" lon="6.847">
        <ele>1082.4</ele>
        <time>2019-05-17T07:24:41Z</time>
      </trkpt>
      <trkpt lat="47.81042" lon="6.84688">
        <ele>1082.4</ele>
        <time>2019-05-17T07:24:45Z</time>
      </trkpt>
      <trkpt lat="47.81053" lon="6.84664">
        <ele>1083</ele>
        <time>2019-05-17T07:24:51Z</time>
      </trkpt>
      <trkpt lat="47.81052" lon="6.84659">
        <ele>1083.4</ele>
        <time>2019-05-17T07:24:52Z</time>
      </trkpt>
      <trkpt lat="47.81052" lon="6.84654">
        <ele>1083.8</ele>
        <time>2019-05-17T07:24:53Z</time>
      </trkpt>
      <trkpt lat="47.81052" lon="6.84648">
        <ele>1084.2</ele>
        <time>2019-05-17T07:24:54Z</time>
      </trkpt>
      <trkpt lat="47.81051" lon="6.84642">
        <ele>1084.6</ele>
        <time>2019-05-17T07:24:55Z</time>
      </trkpt>
      <trkpt lat="47.81054" lon="6.84618">
        <ele>1084.6</ele>
        <time>2019-05-17T07:25:00Z</time>
      </trkpt>
      <trkpt lat="47.81058" lon="6.84608">
        <ele>1085.2</ele>
        <time>2019-05-17T07:25:03Z</time>
      </trkpt>
      <trkpt lat="47.81058" lon="6.84605">
        <ele>1085.6</ele>
        <time>2019-05-17T07:25:04Z</time>
      </trkpt>
      <trkpt lat="47.81058" lon="6.84602">
        <ele>1086</ele>
        <time>2019-05-17T07:25:05Z</time>
      </trkpt>
      <trkpt lat="47.81059" lon="6.84598">
        <ele>1086.6</ele>
        <time>2019-05-17T07:25:06Z</time>
      </trkpt>
      <trkpt lat="47.81059" lon="6.84595">
        <ele>1087.2</ele>
        <time>2019-05-17T07:25:07Z</time>
      </trkpt>
      <trkpt lat="47.8106" lon="6.84592">
        <ele>1087.6</ele>
        <time>2019-05-17T07:25:08Z</time>
      </trkpt>
      <trkpt lat="47.8106" lon="6.84589">
        <ele>1088.2</ele>
        <time>2019-05-17T07:25:09Z</time>
      </trkpt>
      <trkpt lat="47.8106" lon="6.84586">
        <ele>1088.8</ele>
        <time>2019-05-17T07:25:10Z</time>
      </trkpt>
      <trkpt lat="47.81059" lon="6.84583">
        <ele>1089.4</ele>
        <time>2019-05-17T07:25:11Z</time>
      </trkpt>
      <trkpt lat="47.81058" lon="6.84577">
        <ele>1089.4</ele>
        <time>2019-05-17T07:25:13Z</time>
      </trkpt>
      <trkpt lat="47.81057" lon="6.84571">
        <ele>1089.4</ele>
        <time>2019-05-17T07:25:15Z</time>
      </trkpt>
      <trkpt lat="47.81056" lon="6.84567">
        <ele>1089.8</ele>
        <time>2019-05-17T07:25:16Z</time>
      </trkpt>
      <trkpt lat="47.81056" lon="6.84563">
        <ele>1090.2</ele>
        <time>2019-05-17T07:25:17Z</time>
      </trkpt>
      <trkpt lat="47.81056" lon="6.84559">
        <ele>1090.6</ele>
        <time>2019-05-17T07:25:18Z</time>
      </trkpt>
      <trkpt lat="47.81056" lon="6.84555">
        <ele>1091.2</ele>
        <time>2019-05-17T07:25:19Z</time>
      </trkpt>
      <trkpt lat="47.81056" lon="6.84551">
        <ele>1091.6</ele>
        <time>2019-05-17T07:25:20Z</time>
      </trkpt>
      <trkpt lat="47.81055" lon="6.84539">
        <ele>1091.6</ele>
        <time>2019-05-17T07:25:23Z</time>
      </trkpt>
      <trkpt lat="47.81055" lon="6.84517">
        <ele>1091.6</ele>
        <time>2019-05-17T07:25:29Z</time>
      </trkpt>
      <trkpt lat="47.81056" lon="6.84505">
        <ele>1092</ele>
        <time>2019-05-17T07:25:33Z</time>
      </trkpt>
      <trkpt lat="47.81057" lon="6.84503">
        <ele>1092.4</ele>
        <time>2019-05-17T07:25:34Z</time>
      </trkpt>
      <trkpt lat="47.81057" lon="6.84501">
        <ele>1092.8</ele>
        <time>2019-05-17T07:25:35Z</time>
      </trkpt>
      <trkpt lat="47.81058" lon="6.845">
        <ele>1093.2</ele>
        <time>2019-05-17T07:25:36Z</time>
      </trkpt>
      <trkpt lat="47.81059" lon="6.84498">
        <ele>1093.6</ele>
        <time>2019-05-17T07:25:37Z</time>
      </trkpt>
      <trkpt lat="47.81059" lon="6.84489">
        <ele>1093.6</ele>
        <time>2019-05-17T07:25:40Z</time>
      </trkpt>
      <trkpt lat="47.8106" lon="6.84486">
        <ele>1093.6</ele>
        <time>2019-05-17T07:25:41Z</time>
      </trkpt>
      <trkpt lat="47.81063" lon="6.84482">
        <ele>1093.6</ele>
        <time>2019-05-17T07:25:44Z</time>
      </trkpt>
      <trkpt lat="47.81064" lon="6.84476">
        <ele>1094</ele>
        <time>2019-05-17T07:25:46Z</time>
      </trkpt>
      <trkpt lat="47.81064" lon="6.84473">
        <ele>1094.4</ele>
        <time>2019-05-17T07:25:47Z</time>
      </trkpt>
      <trkpt lat="47.81064" lon="6.8447">
        <ele>1094.8</ele>
        <time>2019-05-17T07:25:48Z</time>
      </trkpt>
      <trkpt lat="47.81064" lon="6.84467">
        <ele>1095.2</ele>
        <time>2019-05-17T07:25:49Z</time>
      </trkpt>
      <trkpt lat="47.81065" lon="6.84464">
        <ele>1095.6</ele>
        <time>2019-05-17T07:25:50Z</time>
      </trkpt>
      <trkpt lat="47.81066" lon="6.8446">
        <ele>1095.6</ele>
        <time>2019-05-17T07:25:52Z</time>
      </trkpt>
      <trkpt lat="47.81066" lon="6.84456">
        <ele>1095.6</ele>
        <time>2019-05-17T07:25:54Z</time>
      </trkpt>
      <trkpt lat="47.81066" lon="6.84451">
        <ele>1095.6</ele>
        <time>2019-05-17T07:25:56Z</time>
      </trkpt>
      <trkpt lat="47.81068" lon="6.84443">
        <ele>1095.6</ele>
        <time>2019-05-17T07:25:59Z</time>
      </trkpt>
      <trkpt lat="47.81069" lon="6.84441">
        <ele>1096</ele>
        <time>2019-05-17T07:26:00Z</time>
      </trkpt>
      <trkpt lat="47.8107" lon="6.84439">
        <ele>1096.6</ele>
        <time>2019-05-17T07:26:01Z</time>
      </trkpt>
      <trkpt lat="47.8107" lon="6.84437">
        <ele>1097</ele>
        <time>2019-05-17T07:26:02Z</time>
      </trkpt>
      <trkpt lat="47.8107" lon="6.84435">
        <ele>1097.4</ele>
        <time>2019-05-17T07:26:03Z</time>
      </trkpt>
      <trkpt lat="47.8107" lon="6.84432">
        <ele>1097.8</ele>
        <time>2019-05-17T07:26:04Z</time>
      </trkpt>
      <trkpt lat="47.8107" lon="6.8443">
        <ele>1097.8</ele>
        <time>2019-05-17T07:26:05Z</time>
      </trkpt>
      <trkpt lat="47.8107" lon="6.84422">
        <ele>1097.8</ele>
        <time>2019-05-17T07:26:08Z</time>
      </trkpt>
      <trkpt lat="47.81071" lon="6.84419">
        <ele>1098.2</ele>
        <time>2019-05-17T07:26:09Z</time>
      </trkpt>
      <trkpt lat="47.81071" lon="6.84417">
        <ele>1098.6</ele>
        <time>2019-05-17T07:26:10Z</time>
      </trkpt>
      <trkpt lat="47.8107" lon="6.84414">
        <ele>1099.6</ele>
        <time>2019-05-17T07:26:11Z</time>
      </trkpt>
      <trkpt lat="47.8107" lon="6.84412">
        <ele>1100</ele>
        <time>2019-05-17T07:26:12Z</time>
      </trkpt>
      <trkpt lat="47.81069" lon="6.84396">
        <ele>1100</ele>
        <time>2019-05-17T07:26:15Z</time>
      </trkpt>
      <trkpt lat="47.81068" lon="6.84388">
        <ele>1100</ele>
        <time>2019-05-17T07:26:17Z</time>
      </trkpt>
      <trkpt lat="47.81068" lon="6.84381">
        <ele>1100.4</ele>
        <time>2019-05-17T07:26:19Z</time>
      </trkpt>
      <trkpt lat="47.81068" lon="6.84378">
        <ele>1100.8</ele>
        <time>2019-05-17T07:26:20Z</time>
      </trkpt>
      <trkpt lat="47.81068" lon="6.84374">
        <ele>1101.2</ele>
        <time>2019-05-17T07:26:21Z</time>
      </trkpt>
      <trkpt lat="47.81068" lon="6.84371">
        <ele>1101.6</ele>
        <time>2019-05-17T07:26:22Z</time>
      </trkpt>
      <trkpt lat="47.81068" lon="6.84367">
        <ele>1102</ele>
        <time>2019-05-17T07:26:23Z</time>
      </trkpt>
      <trkpt lat="47.81067" lon="6.84362">
        <ele>1102</ele>
        <time>2019-05-17T07:26:25Z</time>
      </trkpt>
      <trkpt lat="47.81066" lon="6.84358">
        <ele>1102</ele>
        <time>2019-05-17T07:26:26Z</time>
      </trkpt>
      <trkpt lat="47.81065" lon="6.84356">
        <ele>1102</ele>
        <time>2019-05-17T07:26:27Z</time>
      </trkpt>
      <trkpt lat="47.81063" lon="6.84343">
        <ele>1102.4</ele>
        <time>2019-05-17T07:26:32Z</time>
      </trkpt>
      <trkpt lat="47.81063" lon="6.84338">
        <ele>1102.8</ele>
        <time>2019-05-17T07:26:33Z</time>
      </trkpt>
      <trkpt lat="47.81062" lon="6.84334">
        <ele>1103.4</ele>
        <time>2019-05-17T07:26:34Z</time>
      </trkpt>
      <trkpt lat="47.81062" lon="6.8433">
        <ele>1103.8</ele>
        <time>2019-05-17T07:26:35Z</time>
      </trkpt>
      <trkpt lat="47.81061" lon="6.84326">
        <ele>1104.2</ele>
        <time>2019-05-17T07:26:36Z</time>
      </trkpt>
      <trkpt lat="47.81058" lon="6.84314">
        <ele>1104.2</ele>
        <time>2019-05-17T07:26:38Z</time>
      </trkpt>
      <trkpt lat="47.81053" lon="6.84292">
        <ele>1104.2</ele>
        <time>2019-05-17T07:26:43Z</time>
      </trkpt>
      <trkpt lat="47.81052" lon="6.84284">
        <ele>1104.6</ele>
        <time>2019-05-17T07:26:45Z</time>
      </trkpt>
      <trkpt lat="47.81053" lon="6.84281">
        <ele>1105</ele>
        <time>2019-05-17T07:26:46Z</time>
      </trkpt>
      <trkpt lat="47.81053" lon="6.84279">
        <ele>1105.4</ele>
        <time>2019-05-17T07:26:47Z</time>
      </trkpt>
      <trkpt lat="47.81053" lon="6.84277">
        <ele>1105.8</ele>
        <time>2019-05-17T07:26:48Z</time>
      </trkpt>
      <trkpt lat="47.81054" lon="6.84275">
        <ele>1106.2</ele>
        <time>2019-05-17T07:26:49Z</time>
      </trkpt>
      <trkpt lat="47.81054" lon="6.84273">
        <ele>1106.2</ele>
        <time>2019-05-17T07:26:50Z</time>
      </trkpt>
      <trkpt lat="47.81055" lon="6.84267">
        <ele>1106.2</ele>
        <time>2019-05-17T07:26:53Z</time>
      </trkpt>
      <trkpt lat="47.81056" lon="6.84265">
        <ele>1106.6</ele>
        <time>2019-05-17T07:26:54Z</time>
      </trkpt>
      <trkpt lat="47.81056" lon="6.84262">
        <ele>1107</ele>
        <time>2019-05-17T07:26:55Z</time>
      </trkpt>
      <trkpt lat="47.81057" lon="6.8426">
        <ele>1107.6</ele>
        <time>2019-05-17T07:26:56Z</time>
      </trkpt>
      <trkpt lat="47.81057" lon="6.84257">
        <ele>1108</ele>
        <time>2019-05-17T07:26:57Z</time>
      </trkpt>
      <trkpt lat="47.81057" lon="6.84255">
        <ele>1108.4</ele>
        <time>2019-05-17T07:26:58Z</time>
      </trkpt>
      <trkpt lat="47.81059" lon="6.84249">
        <ele>1108.4</ele>
        <time>2019-05-17T07:27:00Z</time>
      </trkpt>
      <trkpt lat="47.8106" lon="6.84224">
        <ele>1108.4</ele>
        <time>2019-05-17T07:27:06Z</time>
      </trkpt>
      <trkpt lat="47.8106" lon="6.84221">
        <ele>1108.4</ele>
        <time>2019-05-17T07:27:07Z</time>
      </trkpt>
      <trkpt lat="47.81056" lon="6.84208">
        <ele>1108.8</ele>
        <time>2019-05-17T07:27:10Z</time>
      </trkpt>
      <trkpt lat="47.81054" lon="6.84203">
        <ele>1109.2</ele>
        <time>2019-05-17T07:27:11Z</time>
      </trkpt>
      <trkpt lat="47.81051" lon="6.84198">
        <ele>1109.6</ele>
        <time>2019-05-17T07:27:12Z</time>
      </trkpt>
      <trkpt lat="47.81049" lon="6.84194">
        <ele>1110</ele>
        <time>2019-05-17T07:27:13Z</time>
      </trkpt>
      <trkpt lat="47.81047" lon="6.84189">
        <ele>1110.4</ele>
        <time>2019-05-17T07:27:14Z</time>
      </trkpt>
      <trkpt lat="47.81042" lon="6.84183">
        <ele>1110.4</ele>
        <time>2019-05-17T07:27:16Z</time>
      </trkpt>
      <trkpt lat="47.81031" lon="6.84167">
        <ele>1110.8</ele>
        <time>2019-05-17T07:27:22Z</time>
      </trkpt>
      <trkpt lat="47.81029" lon="6.84164">
        <ele>1111.2</ele>
        <time>2019-05-17T07:27:23Z</time>
      </trkpt>
      <trkpt lat="47.81027" lon="6.84161">
        <ele>1111.8</ele>
        <time>2019-05-17T07:27:24Z</time>
      </trkpt>
      <trkpt lat="47.81025" lon="6.84158">
        <ele>1112.6</ele>
        <time>2019-05-17T07:27:25Z</time>
      </trkpt>
      <trkpt lat="47.81021" lon="6.84151">
        <ele>1112.6</ele>
        <time>2019-05-17T07:27:27Z</time>
      </trkpt>
      <trkpt lat="47.81013" lon="6.84132">
        <ele>1112.6</ele>
        <time>2019-05-17T07:27:33Z</time>
      </trkpt>
      <trkpt lat="47.81012" lon="6.84126">
        <ele>1112.6</ele>
        <time>2019-05-17T07:27:35Z</time>
      </trkpt>
      <trkpt lat="47.8101" lon="6.84119">
        <ele>1112.6</ele>
        <time>2019-05-17T07:27:37Z</time>
      </trkpt>
      <trkpt lat="47.81009" lon="6.84112">
        <ele>1113</ele>
        <time>2019-05-17T07:27:39Z</time>
      </trkpt>
      <trkpt lat="47.81008" lon="6.84109">
        <ele>1113.4</ele>
        <time>2019-05-17T07:27:40Z</time>
      </trkpt>
      <trkpt lat="47.81008" lon="6.84105">
        <ele>1113.8</ele>
        <time>2019-05-17T07:27:41Z</time>
      </trkpt>
      <trkpt lat="47.81008" lon="6.84101">
        <ele>1114.2</ele>
        <time>2019-05-17T07:27:42Z</time>
      </trkpt>
      <trkpt lat="47.81009" lon="6.84097">
        <ele>1114.6</ele>
        <time>2019-05-17T07:27:43Z</time>
      </trkpt>
      <trkpt lat="47.81012" lon="6.84082">
        <ele>1114.6</ele>
        <time>2019-05-17T07:27:48Z</time>
      </trkpt>
      <trkpt lat="47.81014" lon="6.84078">
        <ele>1115</ele>
        <time>2019-05-17T07:27:50Z</time>
      </trkpt>
      <trkpt lat="47.81016" lon="6.84075">
        <ele>1115.4</ele>
        <time>2019-05-17T07:27:51Z</time>
      </trkpt>
      <trkpt lat="47.81017" lon="6.84073">
        <ele>1115.8</ele>
        <time>2019-05-17T07:27:52Z</time>
      </trkpt>
      <trkpt lat="47.81019" lon="6.8407">
        <ele>1116.2</ele>
        <time>2019-05-17T07:27:53Z</time>
      </trkpt>
      <trkpt lat="47.81021" lon="6.84068">
        <ele>1116.6</ele>
        <time>2019-05-17T07:27:54Z</time>
      </trkpt>
      <trkpt lat="47.81025" lon="6.84065">
        <ele>1117</ele>
        <time>2019-05-17T07:27:58Z</time>
      </trkpt>
      <trkpt lat="47.81027" lon="6.84065">
        <ele>1117.6</ele>
        <time>2019-05-17T07:27:59Z</time>
      </trkpt>
      <trkpt lat="47.81028" lon="6.84064">
        <ele>1118</ele>
        <time>2019-05-17T07:28:00Z</time>
      </trkpt>
      <trkpt lat="47.81029" lon="6.84063">
        <ele>1118.4</ele>
        <time>2019-05-17T07:28:01Z</time>
      </trkpt>
      <trkpt lat="47.81031" lon="6.84061">
        <ele>1118.8</ele>
        <time>2019-05-17T07:28:02Z</time>
      </trkpt>
      <trkpt lat="47.81034" lon="6.84058">
        <ele>1118.8</ele>
        <time>2019-05-17T07:28:04Z</time>
      </trkpt>
      <trkpt lat="47.8104" lon="6.84052">
        <ele>1119.2</ele>
        <time>2019-05-17T07:28:07Z</time>
      </trkpt>
      <trkpt lat="47.81042" lon="6.84051">
        <ele>1119.6</ele>
        <time>2019-05-17T07:28:08Z</time>
      </trkpt>
      <trkpt lat="47.81044" lon="6.8405">
        <ele>1120</ele>
        <time>2019-05-17T07:28:09Z</time>
      </trkpt>
      <trkpt lat="47.81046" lon="6.84049">
        <ele>1120.4</ele>
        <time>2019-05-17T07:28:10Z</time>
      </trkpt>
      <trkpt lat="47.81048" lon="6.84047">
        <ele>1120.8</ele>
        <time>2019-05-17T07:28:11Z</time>
      </trkpt>
      <trkpt lat="47.81056" lon="6.8404">
        <ele>1121.2</ele>
        <time>2019-05-17T07:28:16Z</time>
      </trkpt>
      <trkpt lat="47.81057" lon="6.84039">
        <ele>1121.8</ele>
        <time>2019-05-17T07:28:17Z</time>
      </trkpt>
      <trkpt lat="47.81059" lon="6.84038">
        <ele>1122.2</ele>
        <time>2019-05-17T07:28:18Z</time>
      </trkpt>
      <trkpt lat="47.81061" lon="6.84037">
        <ele>1122.6</ele>
        <time>2019-05-17T07:28:19Z</time>
      </trkpt>
      <trkpt lat="47.81064" lon="6.84038">
        <ele>1123</ele>
        <time>2019-05-17T07:28:20Z</time>
      </trkpt>
      <trkpt lat="47.81066" lon="6.84038">
        <ele>1123</ele>
        <time>2019-05-17T07:28:21Z</time>
      </trkpt>
      <trkpt lat="47.81068" lon="6.84037">
        <ele>1123</ele>
        <time>2019-05-17T07:28:22Z</time>
      </trkpt>
      <trkpt lat="47.8107" lon="6.84037">
        <ele>1123</ele>
        <time>2019-05-17T07:28:24Z</time>
      </trkpt>
      <trkpt lat="47.81073" lon="6.84039">
        <ele>1123.4</ele>
        <time>2019-05-17T07:28:26Z</time>
      </trkpt>
      <trkpt lat="47.81074" lon="6.84041">
        <ele>1123.8</ele>
        <time>2019-05-17T07:28:27Z</time>
      </trkpt>
      <trkpt lat="47.81075" lon="6.84041">
        <ele>1124.2</ele>
        <time>2019-05-17T07:28:28Z</time>
      </trkpt>
      <trkpt lat="47.81076" lon="6.84042">
        <ele>1124.6</ele>
        <time>2019-05-17T07:28:29Z</time>
      </trkpt>
      <trkpt lat="47.81078" lon="6.84043">
        <ele>1125</ele>
        <time>2019-05-17T07:28:30Z</time>
      </trkpt>
      <trkpt lat="47.8108" lon="6.84045">
        <ele>1125</ele>
        <time>2019-05-17T07:28:31Z</time>
      </trkpt>
      <trkpt lat="47.81086" lon="6.84049">
        <ele>1125</ele>
        <time>2019-05-17T07:28:34Z</time>
      </trkpt>
      <trkpt lat="47.81088" lon="6.84049">
        <ele>1125.6</ele>
        <time>2019-05-17T07:28:35Z</time>
      </trkpt>
      <trkpt lat="47.81091" lon="6.84048">
        <ele>1126</ele>
        <time>2019-05-17T07:28:36Z</time>
      </trkpt>
      <trkpt lat="47.81093" lon="6.84047">
        <ele>1126.4</ele>
        <time>2019-05-17T07:28:37Z</time>
      </trkpt>
      <trkpt lat="47.81096" lon="6.84047">
        <ele>1127.4</ele>
        <time>2019-05-17T07:28:38Z</time>
      </trkpt>
      <trkpt lat="47.81101" lon="6.84045">
        <ele>1127.4</ele>
        <time>2019-05-17T07:28:40Z</time>
      </trkpt>
      <trkpt lat="47.81114" lon="6.8404">
        <ele>1127.4</ele>
        <time>2019-05-17T07:28:45Z</time>
      </trkpt>
      <trkpt lat="47.81129" lon="6.84039">
        <ele>1127.8</ele>
        <time>2019-05-17T07:28:50Z</time>
      </trkpt>
      <trkpt lat="47.81131" lon="6.84038">
        <ele>1128.2</ele>
        <time>2019-05-17T07:28:51Z</time>
      </trkpt>
      <trkpt lat="47.81134" lon="6.84038">
        <ele>1128.6</ele>
        <time>2019-05-17T07:28:52Z</time>
      </trkpt>
      <trkpt lat="47.81137" lon="6.84038">
        <ele>1129</ele>
        <time>2019-05-17T07:28:53Z</time>
      </trkpt>
      <trkpt lat="47.8114" lon="6.84037">
        <ele>1129.4</ele>
        <time>2019-05-17T07:28:54Z</time>
      </trkpt>
      <trkpt lat="47.81152" lon="6.84041">
        <ele>1129.4</ele>
        <time>2019-05-17T07:28:58Z</time>
      </trkpt>
      <trkpt lat="47.81163" lon="6.84047">
        <ele>1130</ele>
        <time>2019-05-17T07:29:02Z</time>
      </trkpt>
      <trkpt lat="47.81166" lon="6.84048">
        <ele>1130.8</ele>
        <time>2019-05-17T07:29:03Z</time>
      </trkpt>
      <trkpt lat="47.8117" lon="6.8405">
        <ele>1131.2</ele>
        <time>2019-05-17T07:29:04Z</time>
      </trkpt>
      <trkpt lat="47.81173" lon="6.84053">
        <ele>1131.6</ele>
        <time>2019-05-17T07:29:05Z</time>
      </trkpt>
      <trkpt lat="47.81187" lon="6.84065">
        <ele>1131.6</ele>
        <time>2019-05-17T07:29:10Z</time>
      </trkpt>
      <trkpt lat="47.81201" lon="6.84077">
        <ele>1131.6</ele>
        <time>2019-05-17T07:29:15Z</time>
      </trkpt>
      <trkpt lat="47.8121" lon="6.84081">
        <ele>1132</ele>
        <time>2019-05-17T07:29:18Z</time>
      </trkpt>
      <trkpt lat="47.81213" lon="6.84082">
        <ele>1132.4</ele>
        <time>2019-05-17T07:29:19Z</time>
      </trkpt>
      <trkpt lat="47.81216" lon="6.84084">
        <ele>1132.8</ele>
        <time>2019-05-17T07:29:20Z</time>
      </trkpt>
      <trkpt lat="47.81219" lon="6.84086">
        <ele>1133.2</ele>
        <time>2019-05-17T07:29:21Z</time>
      </trkpt>
      <trkpt lat="47.81222" lon="6.84088">
        <ele>1133.6</ele>
        <time>2019-05-17T07:29:22Z</time>
      </trkpt>
      <trkpt lat="47.8124" lon="6.841">
        <ele>1133.6</ele>
        <time>2019-05-17T07:29:28Z</time>
      </trkpt>
      <trkpt lat="47.8126" lon="6.84111">
        <ele>1133.6</ele>
        <time>2019-05-17T07:29:34Z</time>
      </trkpt>
      <trkpt lat="47.81288" lon="6.84128">
        <ele>1133.6</ele>
        <time>2019-05-17T07:29:42Z</time>
      </trkpt>
      <trkpt lat="47.81292" lon="6.8413">
        <ele>1133.6</ele>
        <time>2019-05-17T07:29:43Z</time>
      </trkpt>
      <trkpt lat="47.8132" lon="6.84148">
        <ele>1133.6</ele>
        <time>2019-05-17T07:29:50Z</time>
      </trkpt>
      <trkpt lat="47.81342" lon="6.8416">
        <ele>1133.6</ele>
        <time>2019-05-17T07:29:55Z</time>
      </trkpt>
      <trkpt lat="47.81347" lon="6.84165">
        <ele>1133.6</ele>
        <time>2019-05-17T07:29:56Z</time>
      </trkpt>
      <trkpt lat="47.81351" lon="6.84171">
        <ele>1133.2</ele>
        <time>2019-05-17T07:29:57Z</time>
      </trkpt>
      <trkpt lat="47.81354" lon="6.84178">
        <ele>1132.8</ele>
        <time>2019-05-17T07:29:58Z</time>
      </trkpt>
      <trkpt lat="47.81356" lon="6.84183">
        <ele>1132.4</ele>
        <time>2019-05-17T07:29:59Z</time>
      </trkpt>
      <trkpt lat="47.81359" lon="6.84186">
        <ele>1132</ele>
        <time>2019-05-17T07:30:00Z</time>
      </trkpt>
      <trkpt lat="47.81362" lon="6.84189">
        <ele>1131.6</ele>
        <time>2019-05-17T07:30:01Z</time>
      </trkpt>
      <trkpt lat="47.81369" lon="6.84197">
        <ele>1131.6</ele>
        <time>2019-05-17T07:30:03Z</time>
      </trkpt>
      <trkpt lat="47.81379" lon="6.84208">
        <ele>1131.6</ele>
        <time>2019-05-17T07:30:06Z</time>
      </trkpt>
      <trkpt lat="47.8139" lon="6.84221">
        <ele>1131.6</ele>
        <time>2019-05-17T07:30:09Z</time>
      </trkpt>
      <trkpt lat="47.81406" lon="6.84238">
        <ele>1131.6</ele>
        <time>2019-05-17T07:30:13Z</time>
      </trkpt>
      <trkpt lat="47.81414" lon="6.84246">
        <ele>1131.6</ele>
        <time>2019-05-17T07:30:15Z</time>
      </trkpt>
      <trkpt lat="47.81418" lon="6.84249">
        <ele>1131.6</ele>
        <time>2019-05-17T07:30:16Z</time>
      </trkpt>
      <trkpt lat="47.81436" lon="6.84259">
        <ele>1131.6</ele>
        <time>2019-05-17T07:30:20Z</time>
      </trkpt>
      <trkpt lat="47.81456" lon="6.84257">
        <ele>1131.6</ele>
        <time>2019-05-17T07:30:24Z</time>
      </trkpt>
      <trkpt lat="47.81474" lon="6.84257">
        <ele>1131.6</ele>
        <time>2019-05-17T07:30:28Z</time>
      </trkpt>
      <trkpt lat="47.8151" lon="6.84258">
        <ele>1131.6</ele>
        <time>2019-05-17T07:30:36Z</time>
      </trkpt>
      <trkpt lat="47.8154" lon="6.84254">
        <ele>1131.6</ele>
        <time>2019-05-17T07:30:43Z</time>
      </trkpt>
      <trkpt lat="47.81559" lon="6.84253">
        <ele>1131.6</ele>
        <time>2019-05-17T07:30:48Z</time>
      </trkpt>
      <trkpt lat="47.81584" lon="6.84251">
        <ele>1131.6</ele>
        <time>2019-05-17T07:30:55Z</time>
      </trkpt>
      <trkpt lat="47.81604" lon="6.8425">
        <ele>1131.6</ele>
        <time>2019-05-17T07:31:01Z</time>
      </trkpt>
      <trkpt lat="47.81607" lon="6.8425">
        <ele>1132</ele>
        <time>2019-05-17T07:31:02Z</time>
      </trkpt>
      <trkpt lat="47.8161" lon="6.84249">
        <ele>1132.4</ele>
        <time>2019-05-17T07:31:03Z</time>
      </trkpt>
      <trkpt lat="47.81613" lon="6.84249">
        <ele>1132.8</ele>
        <time>2019-05-17T07:31:04Z</time>
      </trkpt>
      <trkpt lat="47.81616" lon="6.84249">
        <ele>1133.2</ele>
        <time>2019-05-17T07:31:05Z</time>
      </trkpt>
      <trkpt lat="47.81619" lon="6.84248">
        <ele>1133.6</ele>
        <time>2019-05-17T07:31:06Z</time>
      </trkpt>
      <trkpt lat="47.81622" lon="6.84248">
        <ele>1133.6</ele>
        <time>2019-05-17T07:31:07Z</time>
      </trkpt>
      <trkpt lat="47.81646" lon="6.84243">
        <ele>1134</ele>
        <time>2019-05-17T07:31:15Z</time>
      </trkpt>
      <trkpt lat="47.81649" lon="6.84242">
        <ele>1134.4</ele>
        <time>2019-05-17T07:31:16Z</time>
      </trkpt>
      <trkpt lat="47.81651" lon="6.84242">
        <ele>1134.8</ele>
        <time>2019-05-17T07:31:17Z</time>
      </trkpt>
      <trkpt lat="47.81654" lon="6.84241">
        <ele>1135.2</ele>
        <time>2019-05-17T07:31:18Z</time>
      </trkpt>
      <trkpt lat="47.81656" lon="6.8424">
        <ele>1135.8</ele>
        <time>2019-05-17T07:31:19Z</time>
      </trkpt>
      <trkpt lat="47.81662" lon="6.84236">
        <ele>1135.8</ele>
        <time>2019-05-17T07:31:22Z</time>
      </trkpt>
      <trkpt lat="47.81664" lon="6.84234">
        <ele>1136.2</ele>
        <time>2019-05-17T07:31:23Z</time>
      </trkpt>
      <trkpt lat="47.81666" lon="6.84231">
        <ele>1136.6</ele>
        <time>2019-05-17T07:31:24Z</time>
      </trkpt>
      <trkpt lat="47.81667" lon="6.84229">
        <ele>1137</ele>
        <time>2019-05-17T07:31:25Z</time>
      </trkpt>
      <trkpt lat="47.81669" lon="6.84228">
        <ele>1137.4</ele>
        <time>2019-05-17T07:31:26Z</time>
      </trkpt>
      <trkpt lat="47.81672" lon="6.84228">
        <ele>1137.8</ele>
        <time>2019-05-17T07:31:27Z</time>
      </trkpt>
      <trkpt lat="47.81688" lon="6.84224">
        <ele>1138.2</ele>
        <time>2019-05-17T07:31:33Z</time>
      </trkpt>
      <trkpt lat="47.81691" lon="6.84224">
        <ele>1138.6</ele>
        <time>2019-05-17T07:31:34Z</time>
      </trkpt>
      <trkpt lat="47.81694" lon="6.84223">
        <ele>1139</ele>
        <time>2019-05-17T07:31:35Z</time>
      </trkpt>
      <trkpt lat="47.81696" lon="6.84222">
        <ele>1139.4</ele>
        <time>2019-05-17T07:31:36Z</time>
      </trkpt>
      <trkpt lat="47.81699" lon="6.84221">
        <ele>1139.8</ele>
        <time>2019-05-17T07:31:37Z</time>
      </trkpt>
      <trkpt lat="47.8171" lon="6.84218">
        <ele>1139.8</ele>
        <time>2019-05-17T07:31:41Z</time>
      </trkpt>
      <trkpt lat="47.81715" lon="6.84216">
        <ele>1140.2</ele>
        <time>2019-05-17T07:31:43Z</time>
      </trkpt>
      <trkpt lat="47.81718" lon="6.84215">
        <ele>1140.6</ele>
        <time>2019-05-17T07:31:44Z</time>
      </trkpt>
      <trkpt lat="47.8172" lon="6.84214">
        <ele>1141</ele>
        <time>2019-05-17T07:31:45Z</time>
      </trkpt>
      <trkpt lat="47.81723" lon="6.84213">
        <ele>1141.4</ele>
        <time>2019-05-17T07:31:46Z</time>
      </trkpt>
      <trkpt lat="47.81726" lon="6.84212">
        <ele>1141.8</ele>
        <time>2019-05-17T07:31:47Z</time>
      </trkpt>
      <trkpt lat="47.81731" lon="6.8421">
        <ele>1141.8</ele>
        <time>2019-05-17T07:31:49Z</time>
      </trkpt>
      <trkpt lat="47.81738" lon="6.84207">
        <ele>1142.2</ele>
        <time>2019-05-17T07:31:52Z</time>
      </trkpt>
      <trkpt lat="47.81741" lon="6.84205">
        <ele>1142.8</ele>
        <time>2019-05-17T07:31:53Z</time>
      </trkpt>
      <trkpt lat="47.81743" lon="6.84204">
        <ele>1143.2</ele>
        <time>2019-05-17T07:31:54Z</time>
      </trkpt>
      <trkpt lat="47.81746" lon="6.84202">
        <ele>1143.6</ele>
        <time>2019-05-17T07:31:55Z</time>
      </trkpt>
      <trkpt lat="47.81748" lon="6.84201">
        <ele>1144</ele>
        <time>2019-05-17T07:31:56Z</time>
      </trkpt>
      <trkpt lat="47.81753" lon="6.84199">
        <ele>1144.4</ele>
        <time>2019-05-17T07:31:58Z</time>
      </trkpt>
      <trkpt lat="47.81756" lon="6.84198">
        <ele>1144.8</ele>
        <time>2019-05-17T07:31:59Z</time>
      </trkpt>
      <trkpt lat="47.81759" lon="6.84197">
        <ele>1145.2</ele>
        <time>2019-05-17T07:32:00Z</time>
      </trkpt>
      <trkpt lat="47.81762" lon="6.84196">
        <ele>1145.8</ele>
        <time>2019-05-17T07:32:01Z</time>
      </trkpt>
      <trkpt lat="47.81764" lon="6.84195">
        <ele>1146.2</ele>
        <time>2019-05-17T07:32:02Z</time>
      </trkpt>
      <trkpt lat="47.81772" lon="6.8419">
        <ele>1146.2</ele>
        <time>2019-05-17T07:32:05Z</time>
      </trkpt>
      <trkpt lat="47.81775" lon="6.84189">
        <ele>1146.6</ele>
        <time>2019-05-17T07:32:06Z</time>
      </trkpt>
      <trkpt lat="47.81777" lon="6.84187">
        <ele>1147.2</ele>
        <time>2019-05-17T07:32:07Z</time>
      </trkpt>
      <trkpt lat="47.8178" lon="6.84186">
        <ele>1147.8</ele>
        <time>2019-05-17T07:32:08Z</time>
      </trkpt>
      <trkpt lat="47.81783" lon="6.84184">
        <ele>1148.4</ele>
        <time>2019-05-17T07:32:09Z</time>
      </trkpt>
      <trkpt lat="47.81786" lon="6.84183">
        <ele>1148.8</ele>
        <time>2019-05-17T07:32:10Z</time>
      </trkpt>
      <trkpt lat="47.81794" lon="6.84179">
        <ele>1148.8</ele>
        <time>2019-05-17T07:32:13Z</time>
      </trkpt>
      <trkpt lat="47.81813" lon="6.8417">
        <ele>1149.4</ele>
        <time>2019-05-17T07:32:20Z</time>
      </trkpt>
      <trkpt lat="47.81815" lon="6.84168">
        <ele>1150.2</ele>
        <time>2019-05-17T07:32:21Z</time>
      </trkpt>
      <trkpt lat="47.81818" lon="6.84166">
        <ele>1150.6</ele>
        <time>2019-05-17T07:32:22Z</time>
      </trkpt>
      <trkpt lat="47.81821" lon="6.84164">
        <ele>1151</ele>
        <time>2019-05-17T07:32:23Z</time>
      </trkpt>
      <trkpt lat="47.81829" lon="6.84159">
        <ele>1151.6</ele>
        <time>2019-05-17T07:32:26Z</time>
      </trkpt>
      <trkpt lat="47.81831" lon="6.84157">
        <ele>1152</ele>
        <time>2019-05-17T07:32:27Z</time>
      </trkpt>
      <trkpt lat="47.81834" lon="6.84155">
        <ele>1152.4</ele>
        <time>2019-05-17T07:32:28Z</time>
      </trkpt>
      <trkpt lat="47.81836" lon="6.84153">
        <ele>1152.8</ele>
        <time>2019-05-17T07:32:29Z</time>
      </trkpt>
      <trkpt lat="47.81839" lon="6.84151">
        <ele>1153.4</ele>
        <time>2019-05-17T07:32:30Z</time>
      </trkpt>
      <trkpt lat="47.81845" lon="6.84149">
        <ele>1153.4</ele>
        <time>2019-05-17T07:32:32Z</time>
      </trkpt>
      <trkpt lat="47.8186" lon="6.84138">
        <ele>1153.4</ele>
        <time>2019-05-17T07:32:38Z</time>
      </trkpt>
      <trkpt lat="47.81863" lon="6.84137">
        <ele>1153.8</ele>
        <time>2019-05-17T07:32:39Z</time>
      </trkpt>
      <trkpt lat="47.81865" lon="6.84135">
        <ele>1154.2</ele>
        <time>2019-05-17T07:32:40Z</time>
      </trkpt>
      <trkpt lat="47.81868" lon="6.84133">
        <ele>1154.6</ele>
        <time>2019-05-17T07:32:41Z</time>
      </trkpt>
      <trkpt lat="47.8187" lon="6.84131">
        <ele>1155</ele>
        <time>2019-05-17T07:32:42Z</time>
      </trkpt>
      <trkpt lat="47.81873" lon="6.8413">
        <ele>1155.4</ele>
        <time>2019-05-17T07:32:43Z</time>
      </trkpt>
      <trkpt lat="47.81878" lon="6.84126">
        <ele>1155.4</ele>
        <time>2019-05-17T07:32:45Z</time>
      </trkpt>
      <trkpt lat="47.8188" lon="6.84124">
        <ele>1155.8</ele>
        <time>2019-05-17T07:32:46Z</time>
      </trkpt>
      <trkpt lat="47.81883" lon="6.84122">
        <ele>1156.2</ele>
        <time>2019-05-17T07:32:47Z</time>
      </trkpt>
      <trkpt lat="47.81885" lon="6.8412">
        <ele>1156.6</ele>
        <time>2019-05-17T07:32:48Z</time>
      </trkpt>
      <trkpt lat="47.81888" lon="6.84118">
        <ele>1157</ele>
        <time>2019-05-17T07:32:49Z</time>
      </trkpt>
      <trkpt lat="47.8189" lon="6.84116">
        <ele>1157.4</ele>
        <time>2019-05-17T07:32:50Z</time>
      </trkpt>
      <trkpt lat="47.819" lon="6.84108">
        <ele>1158</ele>
        <time>2019-05-17T07:32:54Z</time>
      </trkpt>
      <trkpt lat="47.81903" lon="6.84106">
        <ele>1158.4</ele>
        <time>2019-05-17T07:32:55Z</time>
      </trkpt>
      <trkpt lat="47.81905" lon="6.84104">
        <ele>1158.8</ele>
        <time>2019-05-17T07:32:56Z</time>
      </trkpt>
      <trkpt lat="47.81907" lon="6.84102">
        <ele>1159.4</ele>
        <time>2019-05-17T07:32:57Z</time>
      </trkpt>
      <trkpt lat="47.8191" lon="6.841">
        <ele>1159.8</ele>
        <time>2019-05-17T07:32:58Z</time>
      </trkpt>
      <trkpt lat="47.81922" lon="6.8409">
        <ele>1160.4</ele>
        <time>2019-05-17T07:33:03Z</time>
      </trkpt>
      <trkpt lat="47.81924" lon="6.84088">
        <ele>1161</ele>
        <time>2019-05-17T07:33:04Z</time>
      </trkpt>
      <trkpt lat="47.81927" lon="6.84086">
        <ele>1161.6</ele>
        <time>2019-05-17T07:33:05Z</time>
      </trkpt>
      <trkpt lat="47.81929" lon="6.84084">
        <ele>1162.2</ele>
        <time>2019-05-17T07:33:06Z</time>
      </trkpt>
      <trkpt lat="47.81932" lon="6.84081">
        <ele>1162.8</ele>
        <time>2019-05-17T07:33:07Z</time>
      </trkpt>
      <trkpt lat="47.81937" lon="6.84076">
        <ele>1162.8</ele>
        <time>2019-05-17T07:33:09Z</time>
      </trkpt>
      <trkpt lat="47.81956" lon="6.84061">
        <ele>1162.8</ele>
        <time>2019-05-17T07:33:16Z</time>
      </trkpt>
      <trkpt lat="47.81976" lon="6.84052">
        <ele>1162.8</ele>
        <time>2019-05-17T07:33:23Z</time>
      </trkpt>
      <trkpt lat="47.81978" lon="6.84053">
        <ele>1163.2</ele>
        <time>2019-05-17T07:33:24Z</time>
      </trkpt>
      <trkpt lat="47.81981" lon="6.84055">
        <ele>1163.8</ele>
        <time>2019-05-17T07:33:25Z</time>
      </trkpt>
      <trkpt lat="47.81984" lon="6.84055">
        <ele>1164.2</ele>
        <time>2019-05-17T07:33:26Z</time>
      </trkpt>
      <trkpt lat="47.81987" lon="6.84056">
        <ele>1164.6</ele>
        <time>2019-05-17T07:33:27Z</time>
      </trkpt>
      <trkpt lat="47.8199" lon="6.84057">
        <ele>1165</ele>
        <time>2019-05-17T07:33:28Z</time>
      </trkpt>
      <trkpt lat="47.81997" lon="6.84061">
        <ele>1165</ele>
        <time>2019-05-17T07:33:31Z</time>
      </trkpt>
      <trkpt lat="47.81999" lon="6.84063">
        <ele>1165</ele>
        <time>2019-05-17T07:33:32Z</time>
      </trkpt>
      <trkpt lat="47.82005" lon="6.84068">
        <ele>1165.4</ele>
        <time>2019-05-17T07:33:35Z</time>
      </trkpt>
      <trkpt lat="47.82006" lon="6.84069">
        <ele>1165.8</ele>
        <time>2019-05-17T07:33:36Z</time>
      </trkpt>
      <trkpt lat="47.82008" lon="6.8407">
        <ele>1166.2</ele>
        <time>2019-05-17T07:33:37Z</time>
      </trkpt>
      <trkpt lat="47.8201" lon="6.84072">
        <ele>1166.6</ele>
        <time>2019-05-17T07:33:38Z</time>
      </trkpt>
      <trkpt lat="47.82012" lon="6.84073">
        <ele>1167.2</ele>
        <time>2019-05-17T07:33:39Z</time>
      </trkpt>
      <trkpt lat="47.82016" lon="6.84077">
        <ele>1167.6</ele>
        <time>2019-05-17T07:33:42Z</time>
      </trkpt>
      <trkpt lat="47.82018" lon="6.84079">
        <ele>1168</ele>
        <time>2019-05-17T07:33:43Z</time>
      </trkpt>
      <trkpt lat="47.82019" lon="6.84082">
        <ele>1168.4</ele>
        <time>2019-05-17T07:33:44Z</time>
      </trkpt>
      <trkpt lat="47.82019" lon="6.84084">
        <ele>1168.8</ele>
        <time>2019-05-17T07:33:45Z</time>
      </trkpt>
      <trkpt lat="47.82021" lon="6.84086">
        <ele>1169.2</ele>
        <time>2019-05-17T07:33:46Z</time>
      </trkpt>
      <trkpt lat="47.82023" lon="6.84091">
        <ele>1169.2</ele>
        <time>2019-05-17T07:33:48Z</time>
      </trkpt>
      <trkpt lat="47.82025" lon="6.84108">
        <ele>1169.6</ele>
        <time>2019-05-17T07:33:54Z</time>
      </trkpt>
      <trkpt lat="47.82025" lon="6.84111">
        <ele>1170</ele>
        <time>2019-05-17T07:33:55Z</time>
      </trkpt>
      <trkpt lat="47.82025" lon="6.84114">
        <ele>1170.4</ele>
        <time>2019-05-17T07:33:56Z</time>
      </trkpt>
      <trkpt lat="47.82026" lon="6.84117">
        <ele>1170.8</ele>
        <time>2019-05-17T07:33:57Z</time>
      </trkpt>
      <trkpt lat="47.82026" lon="6.8412">
        <ele>1171.2</ele>
        <time>2019-05-17T07:33:58Z</time>
      </trkpt>
      <trkpt lat="47.82026" lon="6.84129">
        <ele>1171.2</ele>
        <time>2019-05-17T07:34:01Z</time>
      </trkpt>
      <trkpt lat="47.82026" lon="6.84131">
        <ele>1171.6</ele>
        <time>2019-05-17T07:34:02Z</time>
      </trkpt>
      <trkpt lat="47.82026" lon="6.84134">
        <ele>1172</ele>
        <time>2019-05-17T07:34:03Z</time>
      </trkpt>
      <trkpt lat="47.82026" lon="6.84136">
        <ele>1172.4</ele>
        <time>2019-05-17T07:34:04Z</time>
      </trkpt>
      <trkpt lat="47.82026" lon="6.84139">
        <ele>1172.8</ele>
        <time>2019-05-17T07:34:06Z</time>
      </trkpt>
      <trkpt lat="47.82026" lon="6.84142">
        <ele>1173.4</ele>
        <time>2019-05-17T07:34:07Z</time>
      </trkpt>
      <trkpt lat="47.82026" lon="6.84145">
        <ele>1173.4</ele>
        <time>2019-05-17T07:34:08Z</time>
      </trkpt>
      <trkpt lat="47.82028" lon="6.84157">
        <ele>1173.8</ele>
        <time>2019-05-17T07:34:13Z</time>
      </trkpt>
      <trkpt lat="47.82028" lon="6.8416">
        <ele>1174.2</ele>
        <time>2019-05-17T07:34:14Z</time>
      </trkpt>
      <trkpt lat="47.82028" lon="6.84162">
        <ele>1174.6</ele>
        <time>2019-05-17T07:34:15Z</time>
      </trkpt>
      <trkpt lat="47.82028" lon="6.84165">
        <ele>1175.2</ele>
        <time>2019-05-17T07:34:16Z</time>
      </trkpt>
      <trkpt lat="47.82028" lon="6.84168">
        <ele>1175.6</ele>
        <time>2019-05-17T07:34:17Z</time>
      </trkpt>
      <trkpt lat="47.82028" lon="6.84175">
        <ele>1176</ele>
        <time>2019-05-17T07:34:20Z</time>
      </trkpt>
      <trkpt lat="47.82029" lon="6.84177">
        <ele>1176.4</ele>
        <time>2019-05-17T07:34:21Z</time>
      </trkpt>
      <trkpt lat="47.8203" lon="6.84179">
        <ele>1176.8</ele>
        <time>2019-05-17T07:34:22Z</time>
      </trkpt>
      <trkpt lat="47.8203" lon="6.84182">
        <ele>1177.8</ele>
        <time>2019-05-17T07:34:23Z</time>
      </trkpt>
      <trkpt lat="47.8203" lon="6.84195">
        <ele>1178.2</ele>
        <time>2019-05-17T07:34:28Z</time>
      </trkpt>
      <trkpt lat="47.8203" lon="6.84198">
        <ele>1178.6</ele>
        <time>2019-05-17T07:34:29Z</time>
      </trkpt>
      <trkpt lat="47.8203" lon="6.842">
        <ele>1179</ele>
        <time>2019-05-17T07:34:30Z</time>
      </trkpt>
      <trkpt lat="47.8203" lon="6.84203">
        <ele>1179.4</ele>
        <time>2019-05-17T07:34:31Z</time>
      </trkpt>
      <trkpt lat="47.8203" lon="6.84205">
        <ele>1179.8</ele>
        <time>2019-05-17T07:34:32Z</time>
      </trkpt>
      <trkpt lat="47.82029" lon="6.84213">
        <ele>1179.8</ele>
        <time>2019-05-17T07:34:35Z</time>
      </trkpt>
      <trkpt lat="47.82029" lon="6.84218">
        <ele>1180.4</ele>
        <time>2019-05-17T07:34:37Z</time>
      </trkpt>
      <trkpt lat="47.82028" lon="6.8422">
        <ele>1180.8</ele>
        <time>2019-05-17T07:34:38Z</time>
      </trkpt>
      <trkpt lat="47.82028" lon="6.84223">
        <ele>1181.2</ele>
        <time>2019-05-17T07:34:39Z</time>
      </trkpt>
      <trkpt lat="47.82027" lon="6.84225">
        <ele>1181.6</ele>
        <time>2019-05-17T07:34:40Z</time>
      </trkpt>
      <trkpt lat="47.82027" lon="6.84228">
        <ele>1182.2</ele>
        <time>2019-05-17T07:34:41Z</time>
      </trkpt>
      <trkpt lat="47.82027" lon="6.84231">
        <ele>1182.2</ele>
        <time>2019-05-17T07:34:43Z</time>
      </trkpt>
      <trkpt lat="47.82026" lon="6.84235">
        <ele>1182.6</ele>
        <time>2019-05-17T07:34:45Z</time>
      </trkpt>
      <trkpt lat="47.82025" lon="6.84238">
        <ele>1183</ele>
        <time>2019-05-17T07:34:46Z</time>
      </trkpt>
      <trkpt lat="47.82026" lon="6.8424">
        <ele>1183.4</ele>
        <time>2019-05-17T07:34:47Z</time>
      </trkpt>
      <trkpt lat="47.82025" lon="6.84242">
        <ele>1183.8</ele>
        <time>2019-05-17T07:34:48Z</time>
      </trkpt>
      <trkpt lat="47.82025" lon="6.84244">
        <ele>1184.2</ele>
        <time>2019-05-17T07:34:49Z</time>
      </trkpt>
      <trkpt lat="47.82025" lon="6.84247">
        <ele>1184.2</ele>
        <time>2019-05-17T07:34:50Z</time>
      </trkpt>
      <trkpt lat="47.82024" lon="6.84255">
        <ele>1184.2</ele>
        <time>2019-05-17T07:34:53Z</time>
      </trkpt>
      <trkpt lat="47.82024" lon="6.84257">
        <ele>1184.6</ele>
        <time>2019-05-17T07:34:54Z</time>
      </trkpt>
      <trkpt lat="47.82024" lon="6.84259">
        <ele>1185</ele>
        <time>2019-05-17T07:34:55Z</time>
      </trkpt>
      <trkpt lat="47.82023" lon="6.84261">
        <ele>1185.4</ele>
        <time>2019-05-17T07:34:56Z</time>
      </trkpt>
      <trkpt lat="47.82023" lon="6.84264">
        <ele>1185.8</ele>
        <time>2019-05-17T07:34:57Z</time>
      </trkpt>
      <trkpt lat="47.82023" lon="6.84267">
        <ele>1186.2</ele>
        <time>2019-05-17T07:34:58Z</time>
      </trkpt>
      <trkpt lat="47.82022" lon="6.84268">
        <ele>1186.2</ele>
        <time>2019-05-17T07:34:59Z</time>
      </trkpt>
      <trkpt lat="47.82021" lon="6.84272">
        <ele>1186.6</ele>
        <time>2019-05-17T07:35:01Z</time>
      </trkpt>
      <trkpt lat="47.8202" lon="6.84274">
        <ele>1187</ele>
        <time>2019-05-17T07:35:02Z</time>
      </trkpt>
      <trkpt lat="47.8202" lon="6.84277">
        <ele>1187.4</ele>
        <time>2019-05-17T07:35:03Z</time>
      </trkpt>
      <trkpt lat="47.8202" lon="6.84279">
        <ele>1188</ele>
        <time>2019-05-17T07:35:04Z</time>
      </trkpt>
      <trkpt lat="47.82019" lon="6.84281">
        <ele>1188.4</ele>
        <time>2019-05-17T07:35:05Z</time>
      </trkpt>
      <trkpt lat="47.82019" lon="6.84283">
        <ele>1188.4</ele>
        <time>2019-05-17T07:35:06Z</time>
      </trkpt>
      <trkpt lat="47.82017" lon="6.84289">
        <ele>1188.8</ele>
        <time>2019-05-17T07:35:10Z</time>
      </trkpt>
      <trkpt lat="47.82018" lon="6.8429">
        <ele>1189.2</ele>
        <time>2019-05-17T07:35:11Z</time>
      </trkpt>
      <trkpt lat="47.8202" lon="6.8429">
        <ele>1189.6</ele>
        <time>2019-05-17T07:35:12Z</time>
      </trkpt>
      <trkpt lat="47.82021" lon="6.8429">
        <ele>1190</ele>
        <time>2019-05-17T07:35:13Z</time>
      </trkpt>
      <trkpt lat="47.82023" lon="6.84289">
        <ele>1190.4</ele>
        <time>2019-05-17T07:35:14Z</time>
      </trkpt>
      <trkpt lat="47.8203" lon="6.84287">
        <ele>1191</ele>
        <time>2019-05-17T07:35:18Z</time>
      </trkpt>
      <trkpt lat="47.82031" lon="6.84287">
        <ele>1191.4</ele>
        <time>2019-05-17T07:35:19Z</time>
      </trkpt>
      <trkpt lat="47.82033" lon="6.84286">
        <ele>1191.8</ele>
        <time>2019-05-17T07:35:20Z</time>
      </trkpt>
      <trkpt lat="47.82034" lon="6.84286">
        <ele>1192.2</ele>
        <time>2019-05-17T07:35:21Z</time>
      </trkpt>
      <trkpt lat="47.82035" lon="6.84284">
        <ele>1192.6</ele>
        <time>2019-05-17T07:35:22Z</time>
      </trkpt>
      <trkpt lat="47.8204" lon="6.84281">
        <ele>1192.6</ele>
        <time>2019-05-17T07:35:25Z</time>
      </trkpt>
      <trkpt lat="47.82046" lon="6.8428">
        <ele>1193</ele>
        <time>2019-05-17T07:35:28Z</time>
      </trkpt>
      <trkpt lat="47.82047" lon="6.84279">
        <ele>1193.6</ele>
        <time>2019-05-17T07:35:29Z</time>
      </trkpt>
      <trkpt lat="47.82049" lon="6.84278">
        <ele>1194</ele>
        <time>2019-05-17T07:35:30Z</time>
      </trkpt>
      <trkpt lat="47.82051" lon="6.84277">
        <ele>1194.4</ele>
        <time>2019-05-17T07:35:31Z</time>
      </trkpt>
      <trkpt lat="47.82052" lon="6.84276">
        <ele>1194.8</ele>
        <time>2019-05-17T07:35:32Z</time>
      </trkpt>
      <trkpt lat="47.82064" lon="6.8427">
        <ele>1195.2</ele>
        <time>2019-05-17T07:35:39Z</time>
      </trkpt>
      <trkpt lat="47.82066" lon="6.8427">
        <ele>1195.6</ele>
        <time>2019-05-17T07:35:40Z</time>
      </trkpt>
      <trkpt lat="47.82067" lon="6.84269">
        <ele>1196.2</ele>
        <time>2019-05-17T07:35:41Z</time>
      </trkpt>
      <trkpt lat="47.82069" lon="6.84268">
        <ele>1196.6</ele>
        <time>2019-05-17T07:35:42Z</time>
      </trkpt>
      <trkpt lat="47.8207" lon="6.84267">
        <ele>1197</ele>
        <time>2019-05-17T07:35:43Z</time>
      </trkpt>
      <trkpt lat="47.82074" lon="6.84265">
        <ele>1197</ele>
        <time>2019-05-17T07:35:45Z</time>
      </trkpt>
      <trkpt lat="47.82082" lon="6.84263">
        <ele>1197.4</ele>
        <time>2019-05-17T07:35:50Z</time>
      </trkpt>
      <trkpt lat="47.82084" lon="6.84262">
        <ele>1197.8</ele>
        <time>2019-05-17T07:35:51Z</time>
      </trkpt>
      <trkpt lat="47.82085" lon="6.84262">
        <ele>1198.2</ele>
        <time>2019-05-17T07:35:52Z</time>
      </trkpt>
      <trkpt lat="47.82087" lon="6.84261">
        <ele>1198.6</ele>
        <time>2019-05-17T07:35:53Z</time>
      </trkpt>
      <trkpt lat="47.82088" lon="6.84261">
        <ele>1199</ele>
        <time>2019-05-17T07:35:54Z</time>
      </trkpt>
      <trkpt lat="47.82091" lon="6.84261">
        <ele>1199</ele>
        <time>2019-05-17T07:35:56Z</time>
      </trkpt>
      <trkpt lat="47.82096" lon="6.8426">
        <ele>1199.6</ele>
        <time>2019-05-17T07:35:59Z</time>
      </trkpt>
      <trkpt lat="47.82098" lon="6.84258">
        <ele>1200.2</ele>
        <time>2019-05-17T07:36:00Z</time>
      </trkpt>
      <trkpt lat="47.821" lon="6.84258">
        <ele>1200.6</ele>
        <time>2019-05-17T07:36:01Z</time>
      </trkpt>
      <trkpt lat="47.82101" lon="6.84257">
        <ele>1201.2</ele>
        <time>2019-05-17T07:36:02Z</time>
      </trkpt>
      <trkpt lat="47.82103" lon="6.84256">
        <ele>1201.8</ele>
        <time>2019-05-17T07:36:03Z</time>
      </trkpt>
      <trkpt lat="47.82107" lon="6.84254">
        <ele>1201.8</ele>
        <time>2019-05-17T07:36:06Z</time>
      </trkpt>
      <trkpt lat="47.82113" lon="6.84253">
        <ele>1201.8</ele>
        <time>2019-05-17T07:36:09Z</time>
      </trkpt>
      <trkpt lat="47.82117" lon="6.8425">
        <ele>1201.8</ele>
        <time>2019-05-17T07:36:12Z</time>
      </trkpt>
      <trkpt lat="47.82121" lon="6.84248">
        <ele>1202.2</ele>
        <time>2019-05-17T07:36:14Z</time>
      </trkpt>
      <trkpt lat="47.82123" lon="6.84247">
        <ele>1202.6</ele>
        <time>2019-05-17T07:36:15Z</time>
      </trkpt>
      <trkpt lat="47.82125" lon="6.84246">
        <ele>1203.2</ele>
        <time>2019-05-17T07:36:16Z</time>
      </trkpt>
      <trkpt lat="47.82127" lon="6.84245">
        <ele>1203.6</ele>
        <time>2019-05-17T07:36:17Z</time>
      </trkpt>
      <trkpt lat="47.82129" lon="6.84244">
        <ele>1204</ele>
        <time>2019-05-17T07:36:18Z</time>
      </trkpt>
      <trkpt lat="47.82133" lon="6.84239">
        <ele>1204</ele>
        <time>2019-05-17T07:36:21Z</time>
      </trkpt>
      <trkpt lat="47.82136" lon="6.84237">
        <ele>1204</ele>
        <time>2019-05-17T07:36:23Z</time>
      </trkpt>
      <trkpt lat="47.82139" lon="6.84237">
        <ele>1204.4</ele>
        <time>2019-05-17T07:36:25Z</time>
      </trkpt>
      <trkpt lat="47.8214" lon="6.84239">
        <ele>1204.8</ele>
        <time>2019-05-17T07:36:26Z</time>
      </trkpt>
      <trkpt lat="47.82141" lon="6.84241">
        <ele>1205.2</ele>
        <time>2019-05-17T07:36:27Z</time>
      </trkpt>
      <trkpt lat="47.82141" lon="6.84243">
        <ele>1205.6</ele>
        <time>2019-05-17T07:36:28Z</time>
      </trkpt>
      <trkpt lat="47.8214" lon="6.84244">
        <ele>1206</ele>
        <time>2019-05-17T07:36:29Z</time>
      </trkpt>
      <trkpt lat="47.82135" lon="6.84251">
        <ele>1206</ele>
        <time>2019-05-17T07:36:32Z</time>
      </trkpt>
      <trkpt lat="47.82133" lon="6.84256">
        <ele>1206</ele>
        <time>2019-05-17T07:36:34Z</time>
      </trkpt>
      <trkpt lat="47.82128" lon="6.84264">
        <ele>1206.4</ele>
        <time>2019-05-17T07:36:38Z</time>
      </trkpt>
      <trkpt lat="47.82127" lon="6.84266">
        <ele>1207</ele>
        <time>2019-05-17T07:36:39Z</time>
      </trkpt>
      <trkpt lat="47.82126" lon="6.84269">
        <ele>1207.4</ele>
        <time>2019-05-17T07:36:40Z</time>
      </trkpt>
      <trkpt lat="47.82126" lon="6.84271">
        <ele>1207.8</ele>
        <time>2019-05-17T07:36:41Z</time>
      </trkpt>
      <trkpt lat="47.82126" lon="6.84273">
        <ele>1208.2</ele>
        <time>2019-05-17T07:36:42Z</time>
      </trkpt>
      <trkpt lat="47.82127" lon="6.84276">
        <ele>1208.2</ele>
        <time>2019-05-17T07:36:44Z</time>
      </trkpt>
      <trkpt lat="47.82131" lon="6.84277">
        <ele>1208.8</ele>
        <time>2019-05-17T07:36:46Z</time>
      </trkpt>
      <trkpt lat="47.82132" lon="6.84275">
        <ele>1209.2</ele>
        <time>2019-05-17T07:36:47Z</time>
      </trkpt>
      <trkpt lat="47.82133" lon="6.84276">
        <ele>1209.6</ele>
        <time>2019-05-17T07:36:48Z</time>
      </trkpt>
      <trkpt lat="47.82134" lon="6.84277">
        <ele>1210</ele>
        <time>2019-05-17T07:36:49Z</time>
      </trkpt>
      <trkpt lat="47.82136" lon="6.84278">
        <ele>1210.4</ele>
        <time>2019-05-17T07:36:50Z</time>
      </trkpt>
      <trkpt lat="47.82143" lon="6.84277">
        <ele>1210.4</ele>
        <time>2019-05-17T07:36:54Z</time>
      </trkpt>
      <trkpt lat="47.82145" lon="6.84276">
        <ele>1210.4</ele>
        <time>2019-05-17T07:36:55Z</time>
      </trkpt>
      <trkpt lat="47.82147" lon="6.84276">
        <ele>1210.8</ele>
        <time>2019-05-17T07:36:56Z</time>
      </trkpt>
      <trkpt lat="47.82149" lon="6.84277">
        <ele>1211.4</ele>
        <time>2019-05-17T07:36:57Z</time>
      </trkpt>
      <trkpt lat="47.82151" lon="6.84278">
        <ele>1211.8</ele>
        <time>2019-05-17T07:36:58Z</time>
      </trkpt>
      <trkpt lat="47.82152" lon="6.84278">
        <ele>1212.2</ele>
        <time>2019-05-17T07:36:59Z</time>
      </trkpt>
      <trkpt lat="47.82154" lon="6.84278">
        <ele>1212.6</ele>
        <time>2019-05-17T07:37:00Z</time>
      </trkpt>
      <trkpt lat="47.82157" lon="6.84278">
        <ele>1213</ele>
        <time>2019-05-17T07:37:02Z</time>
      </trkpt>
      <trkpt lat="47.82158" lon="6.84278">
        <ele>1213.4</ele>
        <time>2019-05-17T07:37:03Z</time>
      </trkpt>
      <trkpt lat="47.8216" lon="6.84278">
        <ele>1213.8</ele>
        <time>2019-05-17T07:37:04Z</time>
      </trkpt>
      <trkpt lat="47.82162" lon="6.84279">
        <ele>1214.2</ele>
        <time>2019-05-17T07:37:05Z</time>
      </trkpt>
      <trkpt lat="47.82163" lon="6.8428">
        <ele>1214.6</ele>
        <time>2019-05-17T07:37:06Z</time>
      </trkpt>
      <trkpt lat="47.82164" lon="6.84289">
        <ele>1215</ele>
        <time>2019-05-17T07:37:10Z</time>
      </trkpt>
      <trkpt lat="47.82164" lon="6.84291">
        <ele>1215.4</ele>
        <time>2019-05-17T07:37:11Z</time>
      </trkpt>
      <trkpt lat="47.82164" lon="6.84293">
        <ele>1216</ele>
        <time>2019-05-17T07:37:12Z</time>
      </trkpt>
      <trkpt lat="47.82162" lon="6.84294">
        <ele>1216.4</ele>
        <time>2019-05-17T07:37:13Z</time>
      </trkpt>
      <trkpt lat="47.82163" lon="6.84294">
        <ele>1216.8</ele>
        <time>2019-05-17T07:37:14Z</time>
      </trkpt>
      <trkpt lat="47.82161" lon="6.84299">
        <ele>1218.8</ele>
        <time>2019-05-17T07:37:34Z</time>
      </trkpt>
      <trkpt lat="47.82158" lon="6.84311">
        <ele>1218.8</ele>
        <time>2019-05-17T07:37:38Z</time>
      </trkpt>
      <trkpt lat="47.82155" lon="6.84315">
        <ele>1219.4</ele>
        <time>2019-05-17T07:37:40Z</time>
      </trkpt>
      <trkpt lat="47.82154" lon="6.84318">
        <ele>1219.8</ele>
        <time>2019-05-17T07:37:41Z</time>
      </trkpt>
      <trkpt lat="47.82153" lon="6.84321">
        <ele>1220.4</ele>
        <time>2019-05-17T07:37:42Z</time>
      </trkpt>
      <trkpt lat="47.82152" lon="6.84324">
        <ele>1221.2</ele>
        <time>2019-05-17T07:37:43Z</time>
      </trkpt>
      <trkpt lat="47.82152" lon="6.84326">
        <ele>1221.8</ele>
        <time>2019-05-17T07:37:44Z</time>
      </trkpt>
      <trkpt lat="47.8215" lon="6.84329">
        <ele>1222.2</ele>
        <time>2019-05-17T07:37:45Z</time>
      </trkpt>
      <trkpt lat="47.8215" lon="6.84331">
        <ele>1222.8</ele>
        <time>2019-05-17T07:37:46Z</time>
      </trkpt>
      <trkpt lat="47.82149" lon="6.84333">
        <ele>1223.2</ele>
        <time>2019-05-17T07:37:47Z</time>
      </trkpt>
      <trkpt lat="47.82148" lon="6.84335">
        <ele>1223.8</ele>
        <time>2019-05-17T07:37:48Z</time>
      </trkpt>
      <trkpt lat="47.82145" lon="6.84338">
        <ele>1223.8</ele>
        <time>2019-05-17T07:37:50Z</time>
      </trkpt>
      <trkpt lat="47.82144" lon="6.8434">
        <ele>1224.2</ele>
        <time>2019-05-17T07:37:51Z</time>
      </trkpt>
      <trkpt lat="47.82144" lon="6.84342">
        <ele>1224.6</ele>
        <time>2019-05-17T07:37:52Z</time>
      </trkpt>
      <trkpt lat="47.82143" lon="6.84344">
        <ele>1225</ele>
        <time>2019-05-17T07:37:53Z</time>
      </trkpt>
      <trkpt lat="47.82143" lon="6.84347">
        <ele>1225.4</ele>
        <time>2019-05-17T07:37:54Z</time>
      </trkpt>
      <trkpt lat="47.82142" lon="6.84349">
        <ele>1225.8</ele>
        <time>2019-05-17T07:37:55Z</time>
      </trkpt>
      <trkpt lat="47.8214" lon="6.84353">
        <ele>1225.8</ele>
        <time>2019-05-17T07:37:57Z</time>
      </trkpt>
      <trkpt lat="47.82136" lon="6.84357">
        <ele>1226.2</ele>
        <time>2019-05-17T07:38:00Z</time>
      </trkpt>
      <trkpt lat="47.82136" lon="6.84359">
        <ele>1226.6</ele>
        <time>2019-05-17T07:38:01Z</time>
      </trkpt>
      <trkpt lat="47.82135" lon="6.84362">
        <ele>1227</ele>
        <time>2019-05-17T07:38:02Z</time>
      </trkpt>
      <trkpt lat="47.82135" lon="6.84364">
        <ele>1227.4</ele>
        <time>2019-05-17T07:38:03Z</time>
      </trkpt>
      <trkpt lat="47.82135" lon="6.84365">
        <ele>1227.8</ele>
        <time>2019-05-17T07:38:04Z</time>
      </trkpt>
      <trkpt lat="47.82134" lon="6.84368">
        <ele>1227.8</ele>
        <time>2019-05-17T07:38:06Z</time>
      </trkpt>
      <trkpt lat="47.8213" lon="6.84376">
        <ele>1228.4</ele>
        <time>2019-05-17T07:38:10Z</time>
      </trkpt>
      <trkpt lat="47.82129" lon="6.84378">
        <ele>1228.8</ele>
        <time>2019-05-17T07:38:11Z</time>
      </trkpt>
      <trkpt lat="47.82129" lon="6.8438">
        <ele>1229.2</ele>
        <time>2019-05-17T07:38:12Z</time>
      </trkpt>
      <trkpt lat="47.82129" lon="6.84383">
        <ele>1229.6</ele>
        <time>2019-05-17T07:38:13Z</time>
      </trkpt>
      <trkpt lat="47.82128" lon="6.84385">
        <ele>1230</ele>
        <time>2019-05-17T07:38:14Z</time>
      </trkpt>
      <trkpt lat="47.82127" lon="6.84395">
        <ele>1230.4</ele>
        <time>2019-05-17T07:38:18Z</time>
      </trkpt>
      <trkpt lat="47.82127" lon="6.84398">
        <ele>1230.8</ele>
        <time>2019-05-17T07:38:19Z</time>
      </trkpt>
      <trkpt lat="47.82127" lon="6.844">
        <ele>1231.2</ele>
        <time>2019-05-17T07:38:20Z</time>
      </trkpt>
      <trkpt lat="47.82127" lon="6.84402">
        <ele>1231.6</ele>
        <time>2019-05-17T07:38:21Z</time>
      </trkpt>
      <trkpt lat="47.82128" lon="6.84404">
        <ele>1232</ele>
        <time>2019-05-17T07:38:22Z</time>
      </trkpt>
      <trkpt lat="47.82129" lon="6.84406">
        <ele>1232</ele>
        <time>2019-05-17T07:38:23Z</time>
      </trkpt>
      <trkpt lat="47.82132" lon="6.84413">
        <ele>1232.4</ele>
        <time>2019-05-17T07:38:26Z</time>
      </trkpt>
      <trkpt lat="47.82134" lon="6.84415">
        <ele>1233</ele>
        <time>2019-05-17T07:38:27Z</time>
      </trkpt>
      <trkpt lat="47.82135" lon="6.84417">
        <ele>1233.4</ele>
        <time>2019-05-17T07:38:28Z</time>
      </trkpt>
      <trkpt lat="47.82136" lon="6.84418">
        <ele>1233.8</ele>
        <time>2019-05-17T07:38:29Z</time>
      </trkpt>
      <trkpt lat="47.82137" lon="6.8442">
        <ele>1234.2</ele>
        <time>2019-05-17T07:38:30Z</time>
      </trkpt>
      <trkpt lat="47.82142" lon="6.84425">
        <ele>1234.6</ele>
        <time>2019-05-17T07:38:34Z</time>
      </trkpt>
      <trkpt lat="47.82143" lon="6.84425">
        <ele>1235</ele>
        <time>2019-05-17T07:38:35Z</time>
      </trkpt>
      <trkpt lat="47.82145" lon="6.84425">
        <ele>1235.4</ele>
        <time>2019-05-17T07:38:36Z</time>
      </trkpt>
      <trkpt lat="47.82146" lon="6.84425">
        <ele>1235.8</ele>
        <time>2019-05-17T07:38:37Z</time>
      </trkpt>
      <trkpt lat="47.82148" lon="6.84426">
        <ele>1236.2</ele>
        <time>2019-05-17T07:38:38Z</time>
      </trkpt>
      <trkpt lat="47.82149" lon="6.84427">
        <ele>1236.2</ele>
        <time>2019-05-17T07:38:39Z</time>
      </trkpt>
      <trkpt lat="47.82151" lon="6.84429">
        <ele>1236.2</ele>
        <time>2019-05-17T07:38:41Z</time>
      </trkpt>
      <trkpt lat="47.82153" lon="6.84429">
        <ele>1236.2</ele>
        <time>2019-05-17T07:38:44Z</time>
      </trkpt>
      <trkpt lat="47.82158" lon="6.84435">
        <ele>1238.2</ele>
        <time>2019-05-17T07:39:57Z</time>
      </trkpt>
      <trkpt lat="47.82164" lon="6.84443">
        <ele>1238.2</ele>
        <time>2019-05-17T07:40:02Z</time>
      </trkpt>
      <trkpt lat="47.82175" lon="6.84449">
        <ele>1238.2</ele>
        <time>2019-05-17T07:40:07Z</time>
      </trkpt>
      <trkpt lat="47.82187" lon="6.84461">
        <ele>1238.2</ele>
        <time>2019-05-17T07:40:12Z</time>
      </trkpt>
      <trkpt lat="47.82196" lon="6.84471">
        <ele>1238.6</ele>
        <time>2019-05-17T07:40:16Z</time>
      </trkpt>
      <trkpt lat="47.82198" lon="6.84474">
        <ele>1239</ele>
        <time>2019-05-17T07:40:17Z</time>
      </trkpt>
      <trkpt lat="47.82201" lon="6.84476">
        <ele>1239.4</ele>
        <time>2019-05-17T07:40:18Z</time>
      </trkpt>
      <trkpt lat="47.82204" lon="6.84478">
        <ele>1239.8</ele>
        <time>2019-05-17T07:40:19Z</time>
      </trkpt>
      <trkpt lat="47.82206" lon="6.84481">
        <ele>1240.2</ele>
        <time>2019-05-17T07:40:20Z</time>
      </trkpt>
      <trkpt lat="47.82213" lon="6.84487">
        <ele>1240.2</ele>
        <time>2019-05-17T07:40:23Z</time>
      </trkpt>
      <trkpt lat="47.82225" lon="6.84495">
        <ele>1240.6</ele>
        <time>2019-05-17T07:40:28Z</time>
      </trkpt>
      <trkpt lat="47.82227" lon="6.84496">
        <ele>1241.2</ele>
        <time>2019-05-17T07:40:29Z</time>
      </trkpt>
      <trkpt lat="47.8223" lon="6.84499">
        <ele>1241.6</ele>
        <time>2019-05-17T07:40:30Z</time>
      </trkpt>
      <trkpt lat="47.82232" lon="6.84502">
        <ele>1242</ele>
        <time>2019-05-17T07:40:31Z</time>
      </trkpt>
      <trkpt lat="47.82234" lon="6.84507">
        <ele>1242.6</ele>
        <time>2019-05-17T07:40:32Z</time>
      </trkpt>
      <trkpt lat="47.82236" lon="6.8451">
        <ele>1242.6</ele>
        <time>2019-05-17T07:40:33Z</time>
      </trkpt>
      <trkpt lat="47.82244" lon="6.8453">
        <ele>1242.6</ele>
        <time>2019-05-17T07:40:38Z</time>
      </trkpt>
      <trkpt lat="47.82252" lon="6.84542">
        <ele>1242.6</ele>
        <time>2019-05-17T07:40:41Z</time>
      </trkpt>
      <trkpt lat="47.82258" lon="6.84551">
        <ele>1242.6</ele>
        <time>2019-05-17T07:40:43Z</time>
      </trkpt>
      <trkpt lat="47.8228" lon="6.84577">
        <ele>1242.6</ele>
        <time>2019-05-17T07:40:50Z</time>
      </trkpt>
      <trkpt lat="47.82299" lon="6.84592">
        <ele>1242.6</ele>
        <time>2019-05-17T07:40:56Z</time>
      </trkpt>
      <trkpt lat="47.82312" lon="6.84608">
        <ele>1242.6</ele>
        <time>2019-05-17T07:41:02Z</time>
      </trkpt>
      <trkpt lat="47.82315" lon="6.84612">
        <ele>1242.2</ele>
        <time>2019-05-17T07:41:04Z</time>
      </trkpt>
      <trkpt lat="47.82317" lon="6.84614">
        <ele>1241.6</ele>
        <time>2019-05-17T07:41:05Z</time>
      </trkpt>
      <trkpt lat="47.82319" lon="6.84617">
        <ele>1241.2</ele>
        <time>2019-05-17T07:41:06Z</time>
      </trkpt>
      <trkpt lat="47.82321" lon="6.84621">
        <ele>1240.8</ele>
        <time>2019-05-17T07:41:07Z</time>
      </trkpt>
      <trkpt lat="47.82323" lon="6.84624">
        <ele>1240.4</ele>
        <time>2019-05-17T07:41:08Z</time>
      </trkpt>
      <trkpt lat="47.82331" lon="6.8463">
        <ele>1240.4</ele>
        <time>2019-05-17T07:41:11Z</time>
      </trkpt>
      <trkpt lat="47.82341" lon="6.84626">
        <ele>1240.4</ele>
        <time>2019-05-17T07:41:15Z</time>
      </trkpt>
      <trkpt lat="47.82343" lon="6.84623">
        <ele>1240</ele>
        <time>2019-05-17T07:41:16Z</time>
      </trkpt>
      <trkpt lat="47.82344" lon="6.84621">
        <ele>1239.6</ele>
        <time>2019-05-17T07:41:17Z</time>
      </trkpt>
      <trkpt lat="47.82345" lon="6.8462">
        <ele>1239.2</ele>
        <time>2019-05-17T07:41:18Z</time>
      </trkpt>
      <trkpt lat="47.82348" lon="6.8462">
        <ele>1238.8</ele>
        <time>2019-05-17T07:41:19Z</time>
      </trkpt>
      <trkpt lat="47.8235" lon="6.8462">
        <ele>1238.4</ele>
        <time>2019-05-17T07:41:20Z</time>
      </trkpt>
      <trkpt lat="47.82359" lon="6.84624">
        <ele>1238.4</ele>
        <time>2019-05-17T07:41:24Z</time>
      </trkpt>
      <trkpt lat="47.82361" lon="6.84625">
        <ele>1238.4</ele>
        <time>2019-05-17T07:41:25Z</time>
      </trkpt>
      <trkpt lat="47.82366" lon="6.84625">
        <ele>1238.4</ele>
        <time>2019-05-17T07:41:29Z</time>
      </trkpt>
      <trkpt lat="47.82366" lon="6.84626">
        <ele>1238.4</ele>
        <time>2019-05-17T07:41:30Z</time>
      </trkpt>
      <trkpt lat="47.82368" lon="6.84625">
        <ele>1236.6</ele>
        <time>2019-05-17T07:41:58Z</time>
      </trkpt>
      <trkpt lat="47.8237" lon="6.84624">
        <ele>1236.2</ele>
        <time>2019-05-17T07:41:59Z</time>
      </trkpt>
      <trkpt lat="47.82376" lon="6.84621">
        <ele>1236.2</ele>
        <time>2019-05-17T07:42:02Z</time>
      </trkpt>
      <trkpt lat="47.8238" lon="6.8462">
        <ele>1236.2</ele>
        <time>2019-05-17T07:42:04Z</time>
      </trkpt>
      <trkpt lat="47.82384" lon="6.84615">
        <ele>1236.2</ele>
        <time>2019-05-17T07:42:06Z</time>
      </trkpt>
      <trkpt lat="47.82385" lon="6.84609">
        <ele>1236.2</ele>
        <time>2019-05-17T07:42:08Z</time>
      </trkpt>
      <trkpt lat="47.82392" lon="6.84596">
        <ele>1236.2</ele>
        <time>2019-05-17T07:42:12Z</time>
      </trkpt>
      <trkpt lat="47.82395" lon="6.84597">
        <ele>1236.2</ele>
        <time>2019-05-17T07:42:13Z</time>
      </trkpt>
      <trkpt lat="47.82404" lon="6.84599">
        <ele>1235.8</ele>
        <time>2019-05-17T07:42:15Z</time>
      </trkpt>
      <trkpt lat="47.82409" lon="6.84601">
        <ele>1235.4</ele>
        <time>2019-05-17T07:42:16Z</time>
      </trkpt>
      <trkpt lat="47.82412" lon="6.84603">
        <ele>1235</ele>
        <time>2019-05-17T07:42:17Z</time>
      </trkpt>
      <trkpt lat="47.82414" lon="6.84605">
        <ele>1234.4</ele>
        <time>2019-05-17T07:42:18Z</time>
      </trkpt>
      <trkpt lat="47.82416" lon="6.84608">
        <ele>1234</ele>
        <time>2019-05-17T07:42:19Z</time>
      </trkpt>
      <trkpt lat="47.82419" lon="6.84612">
        <ele>1233.4</ele>
        <time>2019-05-17T07:42:20Z</time>
      </trkpt>
      <trkpt lat="47.82422" lon="6.84613">
        <ele>1233</ele>
        <time>2019-05-17T07:42:21Z</time>
      </trkpt>
      <trkpt lat="47.82424" lon="6.84616">
        <ele>1232.4</ele>
        <time>2019-05-17T07:42:22Z</time>
      </trkpt>
      <trkpt lat="47.82426" lon="6.84619">
        <ele>1232</ele>
        <time>2019-05-17T07:42:23Z</time>
      </trkpt>
      <trkpt lat="47.82427" lon="6.84622">
        <ele>1231.4</ele>
        <time>2019-05-17T07:42:24Z</time>
      </trkpt>
      <trkpt lat="47.82428" lon="6.84626">
        <ele>1231.4</ele>
        <time>2019-05-17T07:42:25Z</time>
      </trkpt>
      <trkpt lat="47.82427" lon="6.84627">
        <ele>1231.4</ele>
        <time>2019-05-17T07:42:28Z</time>
      </trkpt>
      <trkpt lat="47.82427" lon="6.84627">
        <ele>1231.4</ele>
        <time>2019-05-17T07:42:29Z</time>
      </trkpt>
      <trkpt lat="47.82431" lon="6.84626">
        <ele>1231.4</ele>
        <time>2019-05-17T07:43:59Z</time>
      </trkpt>
      <trkpt lat="47.82432" lon="6.84622">
        <ele>1231.4</ele>
        <time>2019-05-17T07:44:01Z</time>
      </trkpt>
      <trkpt lat="47.82434" lon="6.84616">
        <ele>1231.4</ele>
        <time>2019-05-17T07:44:03Z</time>
      </trkpt>
      <trkpt lat="47.82436" lon="6.84612">
        <ele>1231</ele>
        <time>2019-05-17T07:44:04Z</time>
      </trkpt>
      <trkpt lat="47.82438" lon="6.84606">
        <ele>1230.6</ele>
        <time>2019-05-17T07:44:05Z</time>
      </trkpt>
      <trkpt lat="47.8244" lon="6.84601">
        <ele>1230.2</ele>
        <time>2019-05-17T07:44:06Z</time>
      </trkpt>
      <trkpt lat="47.82442" lon="6.84596">
        <ele>1229.8</ele>
        <time>2019-05-17T07:44:07Z</time>
      </trkpt>
      <trkpt lat="47.82444" lon="6.84591">
        <ele>1229.4</ele>
        <time>2019-05-17T07:44:08Z</time>
      </trkpt>
      <trkpt lat="47.82446" lon="6.84585">
        <ele>1229.4</ele>
        <time>2019-05-17T07:44:10Z</time>
      </trkpt>
      <trkpt lat="47.82447" lon="6.84584">
        <ele>1229.4</ele>
        <time>2019-05-17T07:44:11Z</time>
      </trkpt>
      <trkpt lat="47.82451" lon="6.84577">
        <ele>1229.4</ele>
        <time>2019-05-17T07:44:15Z</time>
      </trkpt>
      <trkpt lat="47.82453" lon="6.84575">
        <ele>1229</ele>
        <time>2019-05-17T07:44:16Z</time>
      </trkpt>
      <trkpt lat="47.82455" lon="6.84571">
        <ele>1228.6</ele>
        <time>2019-05-17T07:44:17Z</time>
      </trkpt>
      <trkpt lat="47.82457" lon="6.84567">
        <ele>1228.2</ele>
        <time>2019-05-17T07:44:18Z</time>
      </trkpt>
      <trkpt lat="47.82459" lon="6.84563">
        <ele>1227.8</ele>
        <time>2019-05-17T07:44:19Z</time>
      </trkpt>
      <trkpt lat="47.82462" lon="6.84559">
        <ele>1227.4</ele>
        <time>2019-05-17T07:44:20Z</time>
      </trkpt>
      <trkpt lat="47.82469" lon="6.84543">
        <ele>1227</ele>
        <time>2019-05-17T07:44:23Z</time>
      </trkpt>
      <trkpt lat="47.82472" lon="6.84539">
        <ele>1226.6</ele>
        <time>2019-05-17T07:44:24Z</time>
      </trkpt>
      <trkpt lat="47.82473" lon="6.84535">
        <ele>1225.8</ele>
        <time>2019-05-17T07:44:25Z</time>
      </trkpt>
      <trkpt lat="47.82475" lon="6.8453">
        <ele>1225.4</ele>
        <time>2019-05-17T07:44:26Z</time>
      </trkpt>
      <trkpt lat="47.82479" lon="6.8452">
        <ele>1225.4</ele>
        <time>2019-05-17T07:44:28Z</time>
      </trkpt>
      <trkpt lat="47.82484" lon="6.84507">
        <ele>1225.4</ele>
        <time>2019-05-17T07:44:30Z</time>
      </trkpt>
      <trkpt lat="47.82493" lon="6.84486">
        <ele>1224.8</ele>
        <time>2019-05-17T07:44:33Z</time>
      </trkpt>
      <trkpt lat="47.82497" lon="6.8448">
        <ele>1224.4</ele>
        <time>2019-05-17T07:44:34Z</time>
      </trkpt>
      <trkpt lat="47.82501" lon="6.84475">
        <ele>1223.8</ele>
        <time>2019-05-17T07:44:35Z</time>
      </trkpt>
      <trkpt lat="47.82505" lon="6.84471">
        <ele>1223.4</ele>
        <time>2019-05-17T07:44:36Z</time>
      </trkpt>
      <trkpt lat="47.82507" lon="6.84469">
        <ele>1222.8</ele>
        <time>2019-05-17T07:44:37Z</time>
      </trkpt>
      <trkpt lat="47.82508" lon="6.84468">
        <ele>1223.4</ele>
        <time>2019-05-17T07:44:38Z</time>
      </trkpt>
      <trkpt lat="47.82509" lon="6.84465">
        <ele>1223.8</ele>
        <time>2019-05-17T07:44:39Z</time>
      </trkpt>
      <trkpt lat="47.82511" lon="6.84461">
        <ele>1224.4</ele>
        <time>2019-05-17T07:44:40Z</time>
      </trkpt>
      <trkpt lat="47.82511" lon="6.84456">
        <ele>1224.8</ele>
        <time>2019-05-17T07:44:41Z</time>
      </trkpt>
      <trkpt lat="47.82511" lon="6.8445">
        <ele>1225.4</ele>
        <time>2019-05-17T07:44:42Z</time>
      </trkpt>
      <trkpt lat="47.82509" lon="6.84437">
        <ele>1225.4</ele>
        <time>2019-05-17T07:44:46Z</time>
      </trkpt>
      <trkpt lat="47.82505" lon="6.84423">
        <ele>1225.4</ele>
        <time>2019-05-17T07:44:50Z</time>
      </trkpt>
      <trkpt lat="47.82501" lon="6.84407">
        <ele>1225.8</ele>
        <time>2019-05-17T07:44:54Z</time>
      </trkpt>
      <trkpt lat="47.82499" lon="6.84403">
        <ele>1226.2</ele>
        <time>2019-05-17T07:44:55Z</time>
      </trkpt>
      <trkpt lat="47.82498" lon="6.844">
        <ele>1226.6</ele>
        <time>2019-05-17T07:44:56Z</time>
      </trkpt>
      <trkpt lat="47.82498" lon="6.84397">
        <ele>1227</ele>
        <time>2019-05-17T07:44:57Z</time>
      </trkpt>
      <trkpt lat="47.82498" lon="6.84394">
        <ele>1227.4</ele>
        <time>2019-05-17T07:44:58Z</time>
      </trkpt>
      <trkpt lat="47.82498" lon="6.84391">
        <ele>1227.4</ele>
        <time>2019-05-17T07:44:59Z</time>
      </trkpt>
      <trkpt lat="47.82499" lon="6.84385">
        <ele>1228</ele>
        <time>2019-05-17T07:45:01Z</time>
      </trkpt>
      <trkpt lat="47.82499" lon="6.84381">
        <ele>1228.4</ele>
        <time>2019-05-17T07:45:02Z</time>
      </trkpt>
      <trkpt lat="47.82499" lon="6.84378">
        <ele>1228.8</ele>
        <time>2019-05-17T07:45:03Z</time>
      </trkpt>
      <trkpt lat="47.82499" lon="6.84375">
        <ele>1229.4</ele>
        <time>2019-05-17T07:45:04Z</time>
      </trkpt>
      <trkpt lat="47.82499" lon="6.84372">
        <ele>1229.8</ele>
        <time>2019-05-17T07:45:05Z</time>
      </trkpt>
      <trkpt lat="47.825" lon="6.8436">
        <ele>1230.2</ele>
        <time>2019-05-17T07:45:08Z</time>
      </trkpt>
      <trkpt lat="47.82501" lon="6.84357">
        <ele>1230.6</ele>
        <time>2019-05-17T07:45:09Z</time>
      </trkpt>
      <trkpt lat="47.82502" lon="6.84353">
        <ele>1231</ele>
        <time>2019-05-17T07:45:10Z</time>
      </trkpt>
      <trkpt lat="47.82503" lon="6.8435">
        <ele>1231.4</ele>
        <time>2019-05-17T07:45:11Z</time>
      </trkpt>
      <trkpt lat="47.82504" lon="6.84347">
        <ele>1231.8</ele>
        <time>2019-05-17T07:45:12Z</time>
      </trkpt>
      <trkpt lat="47.82506" lon="6.84337">
        <ele>1232.2</ele>
        <time>2019-05-17T07:45:15Z</time>
      </trkpt>
      <trkpt lat="47.82506" lon="6.84334">
        <ele>1232.6</ele>
        <time>2019-05-17T07:45:16Z</time>
      </trkpt>
      <trkpt lat="47.82505" lon="6.84331">
        <ele>1233.2</ele>
        <time>2019-05-17T07:45:17Z</time>
      </trkpt>
      <trkpt lat="47.82504" lon="6.84328">
        <ele>1233.6</ele>
        <time>2019-05-17T07:45:18Z</time>
      </trkpt>
      <trkpt lat="47.82503" lon="6.84325">
        <ele>1234</ele>
        <time>2019-05-17T07:45:19Z</time>
      </trkpt>
      <trkpt lat="47.82499" lon="6.84316">
        <ele>1234</ele>
        <time>2019-05-17T07:45:22Z</time>
      </trkpt>
      <trkpt lat="47.82493" lon="6.84297">
        <ele>1234.4</ele>
        <time>2019-05-17T07:45:28Z</time>
      </trkpt>
      <trkpt lat="47.82493" lon="6.84296">
        <ele>1234.8</ele>
        <time>2019-05-17T07:45:29Z</time>
      </trkpt>
      <trkpt lat="47.82493" lon="6.84296">
        <ele>1235.2</ele>
        <time>2019-05-17T07:45:30Z</time>
      </trkpt>
      <trkpt lat="47.8249" lon="6.84294">
        <ele>1236</ele>
        <time>2019-05-17T07:45:39Z</time>
      </trkpt>
      <trkpt lat="47.8249" lon="6.84293">
        <ele>1236</ele>
        <time>2019-05-17T07:45:40Z</time>
      </trkpt>
      <trkpt lat="47.8249" lon="6.8429">
        <ele>1236</ele>
        <time>2019-05-17T07:45:42Z</time>
      </trkpt>
      <trkpt lat="47.82491" lon="6.84285">
        <ele>1236</ele>
        <time>2019-05-17T07:45:44Z</time>
      </trkpt>
      <trkpt lat="47.82501" lon="6.84265">
        <ele>1236</ele>
        <time>2019-05-17T07:45:50Z</time>
      </trkpt>
      <trkpt lat="47.8251" lon="6.84244">
        <ele>1236</ele>
        <time>2019-05-17T07:45:55Z</time>
      </trkpt>
      <trkpt lat="47.82511" lon="6.84239">
        <ele>1236.4</ele>
        <time>2019-05-17T07:45:56Z</time>
      </trkpt>
      <trkpt lat="47.82513" lon="6.84235">
        <ele>1236.8</ele>
        <time>2019-05-17T07:45:57Z</time>
      </trkpt>
      <trkpt lat="47.82514" lon="6.84229">
        <ele>1237.2</ele>
        <time>2019-05-17T07:45:58Z</time>
      </trkpt>
      <trkpt lat="47.82513" lon="6.84223">
        <ele>1237.8</ele>
        <time>2019-05-17T07:45:59Z</time>
      </trkpt>
      <trkpt lat="47.82512" lon="6.84217">
        <ele>1238.2</ele>
        <time>2019-05-17T07:46:00Z</time>
      </trkpt>
      <trkpt lat="47.82506" lon="6.8419">
        <ele>1238.2</ele>
        <time>2019-05-17T07:46:04Z</time>
      </trkpt>
      <trkpt lat="47.82503" lon="6.84176">
        <ele>1238.2</ele>
        <time>2019-05-17T07:46:06Z</time>
      </trkpt>
      <trkpt lat="47.82501" lon="6.84169">
        <ele>1237.6</ele>
        <time>2019-05-17T07:46:07Z</time>
      </trkpt>
      <trkpt lat="47.825" lon="6.84161">
        <ele>1237.2</ele>
        <time>2019-05-17T07:46:08Z</time>
      </trkpt>
      <trkpt lat="47.82499" lon="6.84154">
        <ele>1236.8</ele>
        <time>2019-05-17T07:46:09Z</time>
      </trkpt>
      <trkpt lat="47.82498" lon="6.84146">
        <ele>1236.2</ele>
        <time>2019-05-17T07:46:10Z</time>
      </trkpt>
      <trkpt lat="47.82497" lon="6.84139">
        <ele>1235.8</ele>
        <time>2019-05-17T07:46:11Z</time>
      </trkpt>
      <trkpt lat="47.82494" lon="6.84117">
        <ele>1235.8</ele>
        <time>2019-05-17T07:46:14Z</time>
      </trkpt>
      <trkpt lat="47.82491" lon="6.84104">
        <ele>1235.8</ele>
        <time>2019-05-17T07:46:16Z</time>
      </trkpt>
      <trkpt lat="47.8249" lon="6.84097">
        <ele>1235.8</ele>
        <time>2019-05-17T07:46:17Z</time>
      </trkpt>
      <trkpt lat="47.82487" lon="6.84069">
        <ele>1235.8</ele>
        <time>2019-05-17T07:46:21Z</time>
      </trkpt>
      <trkpt lat="47.82488" lon="6.84062">
        <ele>1235.8</ele>
        <time>2019-05-17T07:46:22Z</time>
      </trkpt>
      <trkpt lat="47.82489" lon="6.84055">
        <ele>1235.8</ele>
        <time>2019-05-17T07:46:23Z</time>
      </trkpt>
      <trkpt lat="47.8249" lon="6.84034">
        <ele>1235.8</ele>
        <time>2019-05-17T07:46:26Z</time>
      </trkpt>
      <trkpt lat="47.82489" lon="6.84028">
        <ele>1235.8</ele>
        <time>2019-05-17T07:46:27Z</time>
      </trkpt>
      <trkpt lat="47.82488" lon="6.84016">
        <ele>1235.8</ele>
        <time>2019-05-17T07:46:29Z</time>
      </trkpt>
      <trkpt lat="47.82485" lon="6.84003">
        <ele>1235.8</ele>
        <time>2019-05-17T07:46:31Z</time>
      </trkpt>
      <trkpt lat="47.82484" lon="6.83996">
        <ele>1235.8</ele>
        <time>2019-05-17T07:46:32Z</time>
      </trkpt>
      <trkpt lat="47.82477" lon="6.83964">
        <ele>1235.8</ele>
        <time>2019-05-17T07:46:37Z</time>
      </trkpt>
      <trkpt lat="47.82474" lon="6.83952">
        <ele>1235.8</ele>
        <time>2019-05-17T07:46:39Z</time>
      </trkpt>
      <trkpt lat="47.8247" lon="6.8394">
        <ele>1235.8</ele>
        <time>2019-05-17T07:46:41Z</time>
      </trkpt>
      <trkpt lat="47.82462" lon="6.83926">
        <ele>1235.8</ele>
        <time>2019-05-17T07:46:44Z</time>
      </trkpt>
      <trkpt lat="47.82451" lon="6.83908">
        <ele>1235.8</ele>
        <time>2019-05-17T07:46:49Z</time>
      </trkpt>
      <trkpt lat="47.82449" lon="6.83906">
        <ele>1235.8</ele>
        <time>2019-05-17T07:46:50Z</time>
      </trkpt>
      <trkpt lat="47.82448" lon="6.83905">
        <ele>1235.8</ele>
        <time>2019-05-17T07:46:52Z</time>
      </trkpt>
      <trkpt lat="47.82448" lon="6.83904">
        <ele>1233.8</ele>
        <time>2019-05-17T07:47:31Z</time>
      </trkpt>
      <trkpt lat="47.82441" lon="6.8389">
        <ele>1233.8</ele>
        <time>2019-05-17T07:47:35Z</time>
      </trkpt>
      <trkpt lat="47.82434" lon="6.83884">
        <ele>1233.4</ele>
        <time>2019-05-17T07:47:37Z</time>
      </trkpt>
      <trkpt lat="47.8243" lon="6.83881">
        <ele>1232.8</ele>
        <time>2019-05-17T07:47:38Z</time>
      </trkpt>
      <trkpt lat="47.82426" lon="6.8388">
        <ele>1232.2</ele>
        <time>2019-05-17T07:47:39Z</time>
      </trkpt>
      <trkpt lat="47.82422" lon="6.83879">
        <ele>1231.6</ele>
        <time>2019-05-17T07:47:40Z</time>
      </trkpt>
      <trkpt lat="47.82418" lon="6.83877">
        <ele>1230.8</ele>
        <time>2019-05-17T07:47:41Z</time>
      </trkpt>
      <trkpt lat="47.82413" lon="6.83876">
        <ele>1229.4</ele>
        <time>2019-05-17T07:47:42Z</time>
      </trkpt>
      <trkpt lat="47.82408" lon="6.83874">
        <ele>1228.8</ele>
        <time>2019-05-17T07:47:43Z</time>
      </trkpt>
      <trkpt lat="47.82404" lon="6.83873">
        <ele>1228</ele>
        <time>2019-05-17T07:47:44Z</time>
      </trkpt>
      <trkpt lat="47.82399" lon="6.83871">
        <ele>1227.2</ele>
        <time>2019-05-17T07:47:45Z</time>
      </trkpt>
      <trkpt lat="47.82395" lon="6.8387">
        <ele>1226.4</ele>
        <time>2019-05-17T07:47:46Z</time>
      </trkpt>
      <trkpt lat="47.82391" lon="6.83869">
        <ele>1225.6</ele>
        <time>2019-05-17T07:47:47Z</time>
      </trkpt>
      <trkpt lat="47.82387" lon="6.83868">
        <ele>1224.6</ele>
        <time>2019-05-17T07:47:48Z</time>
      </trkpt>
      <trkpt lat="47.82384" lon="6.83867">
        <ele>1223.6</ele>
        <time>2019-05-17T07:47:49Z</time>
      </trkpt>
      <trkpt lat="47.82382" lon="6.83866">
        <ele>1222.8</ele>
        <time>2019-05-17T07:47:50Z</time>
      </trkpt>
      <trkpt lat="47.82379" lon="6.83864">
        <ele>1221.8</ele>
        <time>2019-05-17T07:47:51Z</time>
      </trkpt>
      <trkpt lat="47.82375" lon="6.83862">
        <ele>1221.8</ele>
        <time>2019-05-17T07:47:52Z</time>
      </trkpt>
      <trkpt lat="47.82368" lon="6.83858">
        <ele>1221.2</ele>
        <time>2019-05-17T07:47:54Z</time>
      </trkpt>
      <trkpt lat="47.82365" lon="6.83855">
        <ele>1220.8</ele>
        <time>2019-05-17T07:47:55Z</time>
      </trkpt>
      <trkpt lat="47.82361" lon="6.8385">
        <ele>1220.2</ele>
        <time>2019-05-17T07:47:56Z</time>
      </trkpt>
      <trkpt lat="47.82358" lon="6.83846">
        <ele>1219.8</ele>
        <time>2019-05-17T07:47:57Z</time>
      </trkpt>
      <trkpt lat="47.82354" lon="6.83842">
        <ele>1219</ele>
        <time>2019-05-17T07:47:58Z</time>
      </trkpt>
      <trkpt lat="47.8235" lon="6.83838">
        <ele>1218.4</ele>
        <time>2019-05-17T07:47:59Z</time>
      </trkpt>
      <trkpt lat="47.82347" lon="6.83835">
        <ele>1217.6</ele>
        <time>2019-05-17T07:48:00Z</time>
      </trkpt>
      <trkpt lat="47.82344" lon="6.83833">
        <ele>1216.8</ele>
        <time>2019-05-17T07:48:01Z</time>
      </trkpt>
      <trkpt lat="47.82342" lon="6.8383">
        <ele>1216</ele>
        <time>2019-05-17T07:48:02Z</time>
      </trkpt>
      <trkpt lat="47.82339" lon="6.83827">
        <ele>1215.2</ele>
        <time>2019-05-17T07:48:03Z</time>
      </trkpt>
      <trkpt lat="47.82338" lon="6.83825">
        <ele>1214.4</ele>
        <time>2019-05-17T07:48:04Z</time>
      </trkpt>
      <trkpt lat="47.82335" lon="6.83822">
        <ele>1214</ele>
        <time>2019-05-17T07:48:05Z</time>
      </trkpt>
      <trkpt lat="47.82333" lon="6.8382">
        <ele>1213.4</ele>
        <time>2019-05-17T07:48:06Z</time>
      </trkpt>
      <trkpt lat="47.8233" lon="6.83819">
        <ele>1212.6</ele>
        <time>2019-05-17T07:48:07Z</time>
      </trkpt>
      <trkpt lat="47.82328" lon="6.83817">
        <ele>1212</ele>
        <time>2019-05-17T07:48:08Z</time>
      </trkpt>
      <trkpt lat="47.82322" lon="6.8381">
        <ele>1211.6</ele>
        <time>2019-05-17T07:48:10Z</time>
      </trkpt>
      <trkpt lat="47.82318" lon="6.83807">
        <ele>1211</ele>
        <time>2019-05-17T07:48:11Z</time>
      </trkpt>
      <trkpt lat="47.82315" lon="6.83804">
        <ele>1210.6</ele>
        <time>2019-05-17T07:48:12Z</time>
      </trkpt>
      <trkpt lat="47.82311" lon="6.838">
        <ele>1209.8</ele>
        <time>2019-05-17T07:48:13Z</time>
      </trkpt>
      <trkpt lat="47.82307" lon="6.83796">
        <ele>1209.2</ele>
        <time>2019-05-17T07:48:14Z</time>
      </trkpt>
      <trkpt lat="47.82304" lon="6.83792">
        <ele>1208.4</ele>
        <time>2019-05-17T07:48:15Z</time>
      </trkpt>
      <trkpt lat="47.82301" lon="6.83788">
        <ele>1207.6</ele>
        <time>2019-05-17T07:48:16Z</time>
      </trkpt>
      <trkpt lat="47.82299" lon="6.83784">
        <ele>1207</ele>
        <time>2019-05-17T07:48:17Z</time>
      </trkpt>
      <trkpt lat="47.82295" lon="6.8378">
        <ele>1206.2</ele>
        <time>2019-05-17T07:48:18Z</time>
      </trkpt>
      <trkpt lat="47.82293" lon="6.83776">
        <ele>1205.6</ele>
        <time>2019-05-17T07:48:19Z</time>
      </trkpt>
      <trkpt lat="47.82291" lon="6.83773">
        <ele>1204.8</ele>
        <time>2019-05-17T07:48:20Z</time>
      </trkpt>
      <trkpt lat="47.82288" lon="6.83767">
        <ele>1204.4</ele>
        <time>2019-05-17T07:48:22Z</time>
      </trkpt>
      <trkpt lat="47.82286" lon="6.83764">
        <ele>1204</ele>
        <time>2019-05-17T07:48:23Z</time>
      </trkpt>
      <trkpt lat="47.82284" lon="6.83762">
        <ele>1203.6</ele>
        <time>2019-05-17T07:48:24Z</time>
      </trkpt>
      <trkpt lat="47.82281" lon="6.83758">
        <ele>1203.2</ele>
        <time>2019-05-17T07:48:25Z</time>
      </trkpt>
      <trkpt lat="47.82278" lon="6.83752">
        <ele>1202.6</ele>
        <time>2019-05-17T07:48:26Z</time>
      </trkpt>
      <trkpt lat="47.82275" lon="6.83748">
        <ele>1202</ele>
        <time>2019-05-17T07:48:27Z</time>
      </trkpt>
      <trkpt lat="47.82272" lon="6.83744">
        <ele>1201.6</ele>
        <time>2019-05-17T07:48:28Z</time>
      </trkpt>
      <trkpt lat="47.82268" lon="6.83739">
        <ele>1201</ele>
        <time>2019-05-17T07:48:29Z</time>
      </trkpt>
      <trkpt lat="47.82265" lon="6.83734">
        <ele>1200.4</ele>
        <time>2019-05-17T07:48:30Z</time>
      </trkpt>
      <trkpt lat="47.82263" lon="6.8373">
        <ele>1199.8</ele>
        <time>2019-05-17T07:48:31Z</time>
      </trkpt>
      <trkpt lat="47.8226" lon="6.83726">
        <ele>1198.4</ele>
        <time>2019-05-17T07:48:32Z</time>
      </trkpt>
      <trkpt lat="47.82256" lon="6.83721">
        <ele>1197.8</ele>
        <time>2019-05-17T07:48:33Z</time>
      </trkpt>
      <trkpt lat="47.82253" lon="6.83715">
        <ele>1197.2</ele>
        <time>2019-05-17T07:48:34Z</time>
      </trkpt>
      <trkpt lat="47.82249" lon="6.8371">
        <ele>1196.4</ele>
        <time>2019-05-17T07:48:35Z</time>
      </trkpt>
      <trkpt lat="47.82246" lon="6.83706">
        <ele>1195.8</ele>
        <time>2019-05-17T07:48:36Z</time>
      </trkpt>
      <trkpt lat="47.82243" lon="6.83702">
        <ele>1195.2</ele>
        <time>2019-05-17T07:48:37Z</time>
      </trkpt>
      <trkpt lat="47.82239" lon="6.83696">
        <ele>1194.4</ele>
        <time>2019-05-17T07:48:38Z</time>
      </trkpt>
      <trkpt lat="47.82235" lon="6.83691">
        <ele>1193.8</ele>
        <time>2019-05-17T07:48:39Z</time>
      </trkpt>
      <trkpt lat="47.82231" lon="6.83685">
        <ele>1193</ele>
        <time>2019-05-17T07:48:40Z</time>
      </trkpt>
      <trkpt lat="47.82228" lon="6.83681">
        <ele>1192</ele>
        <time>2019-05-17T07:48:41Z</time>
      </trkpt>
      <trkpt lat="47.82225" lon="6.83675">
        <ele>1191.2</ele>
        <time>2019-05-17T07:48:42Z</time>
      </trkpt>
      <trkpt lat="47.82221" lon="6.83669">
        <ele>1190.4</ele>
        <time>2019-05-17T07:48:43Z</time>
      </trkpt>
      <trkpt lat="47.82218" lon="6.83664">
        <ele>1189.6</ele>
        <time>2019-05-17T07:48:44Z</time>
      </trkpt>
      <trkpt lat="47.82215" lon="6.83659">
        <ele>1188.8</ele>
        <time>2019-05-17T07:48:45Z</time>
      </trkpt>
      <trkpt lat="47.82212" lon="6.83653">
        <ele>1188</ele>
        <time>2019-05-17T07:48:46Z</time>
      </trkpt>
      <trkpt lat="47.82207" lon="6.83646">
        <ele>1187.4</ele>
        <time>2019-05-17T07:48:47Z</time>
      </trkpt>
      <trkpt lat="47.82203" lon="6.83639">
        <ele>1186.8</ele>
        <time>2019-05-17T07:48:48Z</time>
      </trkpt>
      <trkpt lat="47.822" lon="6.83633">
        <ele>1186.2</ele>
        <time>2019-05-17T07:48:49Z</time>
      </trkpt>
      <trkpt lat="47.82198" lon="6.83626">
        <ele>1185.4</ele>
        <time>2019-05-17T07:48:50Z</time>
      </trkpt>
      <trkpt lat="47.82196" lon="6.83618">
        <ele>1184.6</ele>
        <time>2019-05-17T07:48:51Z</time>
      </trkpt>
      <trkpt lat="47.82195" lon="6.83612">
        <ele>1184</ele>
        <time>2019-05-17T07:48:52Z</time>
      </trkpt>
      <trkpt lat="47.82192" lon="6.83606">
        <ele>1183.2</ele>
        <time>2019-05-17T07:48:53Z</time>
      </trkpt>
      <trkpt lat="47.8219" lon="6.83602">
        <ele>1182.6</ele>
        <time>2019-05-17T07:48:54Z</time>
      </trkpt>
      <trkpt lat="47.82186" lon="6.836">
        <ele>1182.6</ele>
        <time>2019-05-17T07:48:55Z</time>
      </trkpt>
      <trkpt lat="47.82179" lon="6.83592">
        <ele>1181.4</ele>
        <time>2019-05-17T07:48:57Z</time>
      </trkpt>
      <trkpt lat="47.82175" lon="6.83587">
        <ele>1181</ele>
        <time>2019-05-17T07:48:58Z</time>
      </trkpt>
      <trkpt lat="47.82171" lon="6.8358">
        <ele>1180.4</ele>
        <time>2019-05-17T07:48:59Z</time>
      </trkpt>
      <trkpt lat="47.82166" lon="6.83573">
        <ele>1179.8</ele>
        <time>2019-05-17T07:49:00Z</time>
      </trkpt>
      <trkpt lat="47.82162" lon="6.83566">
        <ele>1179.2</ele>
        <time>2019-05-17T07:49:01Z</time>
      </trkpt>
      <trkpt lat="47.82159" lon="6.8356">
        <ele>1178.4</ele>
        <time>2019-05-17T07:49:02Z</time>
      </trkpt>
      <trkpt lat="47.82154" lon="6.83556">
        <ele>1177.8</ele>
        <time>2019-05-17T07:49:03Z</time>
      </trkpt>
      <trkpt lat="47.8215" lon="6.83551">
        <ele>1177.4</ele>
        <time>2019-05-17T07:49:04Z</time>
      </trkpt>
      <trkpt lat="47.82145" lon="6.83547">
        <ele>1177</ele>
        <time>2019-05-17T07:49:05Z</time>
      </trkpt>
      <trkpt lat="47.8214" lon="6.83543">
        <ele>1176.6</ele>
        <time>2019-05-17T07:49:06Z</time>
      </trkpt>
      <trkpt lat="47.82134" lon="6.83539">
        <ele>1176</ele>
        <time>2019-05-17T07:49:07Z</time>
      </trkpt>
      <trkpt lat="47.82128" lon="6.83535">
        <ele>1175.6</ele>
        <time>2019-05-17T07:49:08Z</time>
      </trkpt>
      <trkpt lat="47.82122" lon="6.83532">
        <ele>1175</ele>
        <time>2019-05-17T07:49:09Z</time>
      </trkpt>
      <trkpt lat="47.82116" lon="6.83528">
        <ele>1174.4</ele>
        <time>2019-05-17T07:49:10Z</time>
      </trkpt>
      <trkpt lat="47.82109" lon="6.83524">
        <ele>1174</ele>
        <time>2019-05-17T07:49:11Z</time>
      </trkpt>
      <trkpt lat="47.82104" lon="6.83521">
        <ele>1173.4</ele>
        <time>2019-05-17T07:49:12Z</time>
      </trkpt>
      <trkpt lat="47.82095" lon="6.83516">
        <ele>1173.4</ele>
        <time>2019-05-17T07:49:14Z</time>
      </trkpt>
      <trkpt lat="47.82087" lon="6.83513">
        <ele>1173</ele>
        <time>2019-05-17T07:49:16Z</time>
      </trkpt>
      <trkpt lat="47.82083" lon="6.83511">
        <ele>1172.4</ele>
        <time>2019-05-17T07:49:17Z</time>
      </trkpt>
      <trkpt lat="47.8208" lon="6.8351">
        <ele>1172</ele>
        <time>2019-05-17T07:49:18Z</time>
      </trkpt>
      <trkpt lat="47.82076" lon="6.83508">
        <ele>1171.6</ele>
        <time>2019-05-17T07:49:19Z</time>
      </trkpt>
      <trkpt lat="47.82072" lon="6.83506">
        <ele>1171.2</ele>
        <time>2019-05-17T07:49:20Z</time>
      </trkpt>
      <trkpt lat="47.82061" lon="6.83501">
        <ele>1171.2</ele>
        <time>2019-05-17T07:49:23Z</time>
      </trkpt>
      <trkpt lat="47.82052" lon="6.83497">
        <ele>1171.2</ele>
        <time>2019-05-17T07:49:25Z</time>
      </trkpt>
      <trkpt lat="47.82045" lon="6.83494">
        <ele>1170.8</ele>
        <time>2019-05-17T07:49:27Z</time>
      </trkpt>
      <trkpt lat="47.82043" lon="6.83492">
        <ele>1170.4</ele>
        <time>2019-05-17T07:49:28Z</time>
      </trkpt>
      <trkpt lat="47.82039" lon="6.83492">
        <ele>1170</ele>
        <time>2019-05-17T07:49:29Z</time>
      </trkpt>
      <trkpt lat="47.82036" lon="6.83492">
        <ele>1169.4</ele>
        <time>2019-05-17T07:49:30Z</time>
      </trkpt>
      <trkpt lat="47.82035" lon="6.83497">
        <ele>1169</ele>
        <time>2019-05-17T07:49:31Z</time>
      </trkpt>
      <trkpt lat="47.82036" lon="6.83502">
        <ele>1168.4</ele>
        <time>2019-05-17T07:49:32Z</time>
      </trkpt>
      <trkpt lat="47.82037" lon="6.83508">
        <ele>1168</ele>
        <time>2019-05-17T07:49:33Z</time>
      </trkpt>
      <trkpt lat="47.82038" lon="6.83514">
        <ele>1167.4</ele>
        <time>2019-05-17T07:49:34Z</time>
      </trkpt>
      <trkpt lat="47.8204" lon="6.8352">
        <ele>1166.8</ele>
        <time>2019-05-17T07:49:35Z</time>
      </trkpt>
      <trkpt lat="47.82042" lon="6.83528">
        <ele>1166.2</ele>
        <time>2019-05-17T07:49:36Z</time>
      </trkpt>
      <trkpt lat="47.82043" lon="6.83534">
        <ele>1166.2</ele>
        <time>2019-05-17T07:49:37Z</time>
      </trkpt>
      <trkpt lat="47.82046" lon="6.83541">
        <ele>1166.2</ele>
        <time>2019-05-17T07:49:38Z</time>
      </trkpt>
      <trkpt lat="47.82054" lon="6.83564">
        <ele>1166.2</ele>
        <time>2019-05-17T07:49:41Z</time>
      </trkpt>
      <trkpt lat="47.82057" lon="6.83572">
        <ele>1166.2</ele>
        <time>2019-05-17T07:49:42Z</time>
      </trkpt>
      <trkpt lat="47.82073" lon="6.83624">
        <ele>1166.2</ele>
        <time>2019-05-17T07:49:48Z</time>
      </trkpt>
      <trkpt lat="47.82084" lon="6.83681">
        <ele>1166.2</ele>
        <time>2019-05-17T07:49:54Z</time>
      </trkpt>
      <trkpt lat="47.82086" lon="6.83717">
        <ele>1166.2</ele>
        <time>2019-05-17T07:49:58Z</time>
      </trkpt>
      <trkpt lat="47.82086" lon="6.83726">
        <ele>1166.2</ele>
        <time>2019-05-17T07:49:59Z</time>
      </trkpt>
      <trkpt lat="47.82085" lon="6.83745">
        <ele>1166.2</ele>
        <time>2019-05-17T07:50:01Z</time>
      </trkpt>
      <trkpt lat="47.82082" lon="6.83773">
        <ele>1166.2</ele>
        <time>2019-05-17T07:50:04Z</time>
      </trkpt>
      <trkpt lat="47.82075" lon="6.83843">
        <ele>1166.2</ele>
        <time>2019-05-17T07:50:11Z</time>
      </trkpt>
      <trkpt lat="47.82067" lon="6.83884">
        <ele>1165.8</ele>
        <time>2019-05-17T07:50:15Z</time>
      </trkpt>
      <trkpt lat="47.82064" lon="6.83894">
        <ele>1165.4</ele>
        <time>2019-05-17T07:50:16Z</time>
      </trkpt>
      <trkpt lat="47.82061" lon="6.83904">
        <ele>1164.8</ele>
        <time>2019-05-17T07:50:17Z</time>
      </trkpt>
      <trkpt lat="47.82058" lon="6.83913">
        <ele>1164.4</ele>
        <time>2019-05-17T07:50:18Z</time>
      </trkpt>
      <trkpt lat="47.82054" lon="6.83922">
        <ele>1164</ele>
        <time>2019-05-17T07:50:19Z</time>
      </trkpt>
      <trkpt lat="47.82044" lon="6.83948">
        <ele>1164</ele>
        <time>2019-05-17T07:50:22Z</time>
      </trkpt>
      <trkpt lat="47.82031" lon="6.83973">
        <ele>1164</ele>
        <time>2019-05-17T07:50:25Z</time>
      </trkpt>
      <trkpt lat="47.82021" lon="6.83988">
        <ele>1164</ele>
        <time>2019-05-17T07:50:27Z</time>
      </trkpt>
      <trkpt lat="47.81992" lon="6.8402">
        <ele>1163.6</ele>
        <time>2019-05-17T07:50:32Z</time>
      </trkpt>
      <trkpt lat="47.81986" lon="6.84025">
        <ele>1163.2</ele>
        <time>2019-05-17T07:50:33Z</time>
      </trkpt>
      <trkpt lat="47.8198" lon="6.84031">
        <ele>1162.8</ele>
        <time>2019-05-17T07:50:34Z</time>
      </trkpt>
      <trkpt lat="47.81973" lon="6.84036">
        <ele>1161.8</ele>
        <time>2019-05-17T07:50:35Z</time>
      </trkpt>
      <trkpt lat="47.81959" lon="6.84047">
        <ele>1161.4</ele>
        <time>2019-05-17T07:50:37Z</time>
      </trkpt>
      <trkpt lat="47.81952" lon="6.84053">
        <ele>1161</ele>
        <time>2019-05-17T07:50:38Z</time>
      </trkpt>
      <trkpt lat="47.81946" lon="6.84058">
        <ele>1160.6</ele>
        <time>2019-05-17T07:50:39Z</time>
      </trkpt>
      <trkpt lat="47.81939" lon="6.84062">
        <ele>1160.2</ele>
        <time>2019-05-17T07:50:40Z</time>
      </trkpt>
      <trkpt lat="47.81933" lon="6.84067">
        <ele>1159.8</ele>
        <time>2019-05-17T07:50:41Z</time>
      </trkpt>
      <trkpt lat="47.8192" lon="6.84077">
        <ele>1159.2</ele>
        <time>2019-05-17T07:50:43Z</time>
      </trkpt>
      <trkpt lat="47.81913" lon="6.84083">
        <ele>1158.8</ele>
        <time>2019-05-17T07:50:44Z</time>
      </trkpt>
      <trkpt lat="47.81907" lon="6.84089">
        <ele>1158.2</ele>
        <time>2019-05-17T07:50:45Z</time>
      </trkpt>
      <trkpt lat="47.819" lon="6.84095">
        <ele>1157.8</ele>
        <time>2019-05-17T07:50:46Z</time>
      </trkpt>
      <trkpt lat="47.81892" lon="6.84101">
        <ele>1157.4</ele>
        <time>2019-05-17T07:50:47Z</time>
      </trkpt>
      <trkpt lat="47.81885" lon="6.84108">
        <ele>1156.8</ele>
        <time>2019-05-17T07:50:48Z</time>
      </trkpt>
      <trkpt lat="47.81877" lon="6.84114">
        <ele>1156.4</ele>
        <time>2019-05-17T07:50:49Z</time>
      </trkpt>
      <trkpt lat="47.81868" lon="6.8412">
        <ele>1155.6</ele>
        <time>2019-05-17T07:50:50Z</time>
      </trkpt>
      <trkpt lat="47.81859" lon="6.84127">
        <ele>1154.8</ele>
        <time>2019-05-17T07:50:51Z</time>
      </trkpt>
      <trkpt lat="47.81851" lon="6.84133">
        <ele>1153.8</ele>
        <time>2019-05-17T07:50:52Z</time>
      </trkpt>
      <trkpt lat="47.81841" lon="6.84139">
        <ele>1152.8</ele>
        <time>2019-05-17T07:50:53Z</time>
      </trkpt>
      <trkpt lat="47.81832" lon="6.84145">
        <ele>1151.8</ele>
        <time>2019-05-17T07:50:54Z</time>
      </trkpt>
      <trkpt lat="47.81822" lon="6.84151">
        <ele>1150.6</ele>
        <time>2019-05-17T07:50:55Z</time>
      </trkpt>
      <trkpt lat="47.81813" lon="6.84157">
        <ele>1149.4</ele>
        <time>2019-05-17T07:50:56Z</time>
      </trkpt>
      <trkpt lat="47.81803" lon="6.84163">
        <ele>1148.4</ele>
        <time>2019-05-17T07:50:57Z</time>
      </trkpt>
      <trkpt lat="47.81794" lon="6.84168">
        <ele>1147.2</ele>
        <time>2019-05-17T07:50:58Z</time>
      </trkpt>
      <trkpt lat="47.81783" lon="6.84173">
        <ele>1146</ele>
        <time>2019-05-17T07:50:59Z</time>
      </trkpt>
      <trkpt lat="47.81774" lon="6.84178">
        <ele>1144.8</ele>
        <time>2019-05-17T07:51:00Z</time>
      </trkpt>
      <trkpt lat="47.81764" lon="6.84184">
        <ele>1144</ele>
        <time>2019-05-17T07:51:01Z</time>
      </trkpt>
      <trkpt lat="47.81754" lon="6.84189">
        <ele>1143.4</ele>
        <time>2019-05-17T07:51:02Z</time>
      </trkpt>
      <trkpt lat="47.81744" lon="6.84193">
        <ele>1142.8</ele>
        <time>2019-05-17T07:51:03Z</time>
      </trkpt>
      <trkpt lat="47.81734" lon="6.84199">
        <ele>1142.2</ele>
        <time>2019-05-17T07:51:04Z</time>
      </trkpt>
      <trkpt lat="47.81723" lon="6.84203">
        <ele>1141.6</ele>
        <time>2019-05-17T07:51:05Z</time>
      </trkpt>
      <trkpt lat="47.81711" lon="6.84207">
        <ele>1140.8</ele>
        <time>2019-05-17T07:51:06Z</time>
      </trkpt>
      <trkpt lat="47.817" lon="6.84211">
        <ele>1139.8</ele>
        <time>2019-05-17T07:51:07Z</time>
      </trkpt>
      <trkpt lat="47.81688" lon="6.84214">
        <ele>1139</ele>
        <time>2019-05-17T07:51:08Z</time>
      </trkpt>
      <trkpt lat="47.81676" lon="6.84217">
        <ele>1138.2</ele>
        <time>2019-05-17T07:51:09Z</time>
      </trkpt>
      <trkpt lat="47.81664" lon="6.84219">
        <ele>1137.2</ele>
        <time>2019-05-17T07:51:10Z</time>
      </trkpt>
      <trkpt lat="47.81651" lon="6.84221">
        <ele>1136.2</ele>
        <time>2019-05-17T07:51:11Z</time>
      </trkpt>
      <trkpt lat="47.81639" lon="6.84222">
        <ele>1135.2</ele>
        <time>2019-05-17T07:51:12Z</time>
      </trkpt>
      <trkpt lat="47.81627" lon="6.84222">
        <ele>1134.2</ele>
        <time>2019-05-17T07:51:13Z</time>
      </trkpt>
      <trkpt lat="47.81614" lon="6.84224">
        <ele>1133.2</ele>
        <time>2019-05-17T07:51:14Z</time>
      </trkpt>
      <trkpt lat="47.81602" lon="6.84225">
        <ele>1132.2</ele>
        <time>2019-05-17T07:51:15Z</time>
      </trkpt>
      <trkpt lat="47.81567" lon="6.84228">
        <ele>1132.2</ele>
        <time>2019-05-17T07:51:18Z</time>
      </trkpt>
      <trkpt lat="47.81556" lon="6.84229">
        <ele>1131.6</ele>
        <time>2019-05-17T07:51:19Z</time>
      </trkpt>
      <trkpt lat="47.81545" lon="6.8423">
        <ele>1131</ele>
        <time>2019-05-17T07:51:20Z</time>
      </trkpt>
      <trkpt lat="47.81534" lon="6.84231">
        <ele>1130.6</ele>
        <time>2019-05-17T07:51:21Z</time>
      </trkpt>
      <trkpt lat="47.81523" lon="6.84231">
        <ele>1130</ele>
        <time>2019-05-17T07:51:22Z</time>
      </trkpt>
      <trkpt lat="47.81513" lon="6.84233">
        <ele>1129.6</ele>
        <time>2019-05-17T07:51:23Z</time>
      </trkpt>
      <trkpt lat="47.81465" lon="6.84229">
        <ele>1129.6</ele>
        <time>2019-05-17T07:51:28Z</time>
      </trkpt>
      <trkpt lat="47.81456" lon="6.84225">
        <ele>1129.6</ele>
        <time>2019-05-17T07:51:29Z</time>
      </trkpt>
      <trkpt lat="47.8144" lon="6.84214">
        <ele>1129.6</ele>
        <time>2019-05-17T07:51:31Z</time>
      </trkpt>
      <trkpt lat="47.81407" lon="6.84183">
        <ele>1129.6</ele>
        <time>2019-05-17T07:51:36Z</time>
      </trkpt>
      <trkpt lat="47.81362" lon="6.84136">
        <ele>1129.6</ele>
        <time>2019-05-17T07:51:43Z</time>
      </trkpt>
      <trkpt lat="47.81356" lon="6.84129">
        <ele>1129.6</ele>
        <time>2019-05-17T07:51:44Z</time>
      </trkpt>
      <trkpt lat="47.81309" lon="6.84083">
        <ele>1129.6</ele>
        <time>2019-05-17T07:51:51Z</time>
      </trkpt>
      <trkpt lat="47.81287" lon="6.84063">
        <ele>1129</ele>
        <time>2019-05-17T07:51:54Z</time>
      </trkpt>
      <trkpt lat="47.81279" lon="6.84057">
        <ele>1128.6</ele>
        <time>2019-05-17T07:51:55Z</time>
      </trkpt>
      <trkpt lat="47.81272" lon="6.8405">
        <ele>1128.2</ele>
        <time>2019-05-17T07:51:56Z</time>
      </trkpt>
      <trkpt lat="47.81264" lon="6.84042">
        <ele>1127.8</ele>
        <time>2019-05-17T07:51:57Z</time>
      </trkpt>
      <trkpt lat="47.81257" lon="6.84035">
        <ele>1127.2</ele>
        <time>2019-05-17T07:51:58Z</time>
      </trkpt>
      <trkpt lat="47.81249" lon="6.84027">
        <ele>1126.8</ele>
        <time>2019-05-17T07:51:59Z</time>
      </trkpt>
      <trkpt lat="47.8124" lon="6.84019">
        <ele>1126.2</ele>
        <time>2019-05-17T07:52:00Z</time>
      </trkpt>
      <trkpt lat="47.81232" lon="6.84011">
        <ele>1125.8</ele>
        <time>2019-05-17T07:52:01Z</time>
      </trkpt>
      <trkpt lat="47.81224" lon="6.84003">
        <ele>1125.2</ele>
        <time>2019-05-17T07:52:02Z</time>
      </trkpt>
      <trkpt lat="47.81216" lon="6.83995">
        <ele>1124.6</ele>
        <time>2019-05-17T07:52:03Z</time>
      </trkpt>
      <trkpt lat="47.81208" lon="6.83987">
        <ele>1124</ele>
        <time>2019-05-17T07:52:04Z</time>
      </trkpt>
      <trkpt lat="47.81199" lon="6.8398">
        <ele>1123.4</ele>
        <time>2019-05-17T07:52:05Z</time>
      </trkpt>
      <trkpt lat="47.81191" lon="6.83973">
        <ele>1122.6</ele>
        <time>2019-05-17T07:52:06Z</time>
      </trkpt>
      <trkpt lat="47.81181" lon="6.83966">
        <ele>1122.2</ele>
        <time>2019-05-17T07:52:07Z</time>
      </trkpt>
      <trkpt lat="47.81171" lon="6.83961">
        <ele>1121.6</ele>
        <time>2019-05-17T07:52:08Z</time>
      </trkpt>
      <trkpt lat="47.81161" lon="6.83954">
        <ele>1120.8</ele>
        <time>2019-05-17T07:52:09Z</time>
      </trkpt>
      <trkpt lat="47.81151" lon="6.83948">
        <ele>1120</ele>
        <time>2019-05-17T07:52:10Z</time>
      </trkpt>
      <trkpt lat="47.81142" lon="6.83943">
        <ele>1119.4</ele>
        <time>2019-05-17T07:52:11Z</time>
      </trkpt>
      <trkpt lat="47.81131" lon="6.83938">
        <ele>1118.6</ele>
        <time>2019-05-17T07:52:12Z</time>
      </trkpt>
      <trkpt lat="47.81121" lon="6.83933">
        <ele>1117.8</ele>
        <time>2019-05-17T07:52:13Z</time>
      </trkpt>
      <trkpt lat="47.8111" lon="6.83931">
        <ele>1116.2</ele>
        <time>2019-05-17T07:52:14Z</time>
      </trkpt>
      <trkpt lat="47.81099" lon="6.83929">
        <ele>1115.6</ele>
        <time>2019-05-17T07:52:15Z</time>
      </trkpt>
      <trkpt lat="47.81088" lon="6.83928">
        <ele>1114.8</ele>
        <time>2019-05-17T07:52:16Z</time>
      </trkpt>
      <trkpt lat="47.81077" lon="6.83927">
        <ele>1114.2</ele>
        <time>2019-05-17T07:52:17Z</time>
      </trkpt>
      <trkpt lat="47.81067" lon="6.83926">
        <ele>1113.4</ele>
        <time>2019-05-17T07:52:18Z</time>
      </trkpt>
      <trkpt lat="47.81056" lon="6.83926">
        <ele>1112.8</ele>
        <time>2019-05-17T07:52:19Z</time>
      </trkpt>
      <trkpt lat="47.81045" lon="6.83928">
        <ele>1112</ele>
        <time>2019-05-17T07:52:20Z</time>
      </trkpt>
      <trkpt lat="47.81034" lon="6.83932">
        <ele>1111.4</ele>
        <time>2019-05-17T07:52:21Z</time>
      </trkpt>
      <trkpt lat="47.81024" lon="6.83938">
        <ele>1110.6</ele>
        <time>2019-05-17T07:52:22Z</time>
      </trkpt>
      <trkpt lat="47.81014" lon="6.83944">
        <ele>1109.8</ele>
        <time>2019-05-17T07:52:23Z</time>
      </trkpt>
      <trkpt lat="47.81003" lon="6.83949">
        <ele>1109</ele>
        <time>2019-05-17T07:52:24Z</time>
      </trkpt>
      <trkpt lat="47.80993" lon="6.83955">
        <ele>1108.2</ele>
        <time>2019-05-17T07:52:25Z</time>
      </trkpt>
      <trkpt lat="47.80984" lon="6.8396">
        <ele>1107.4</ele>
        <time>2019-05-17T07:52:26Z</time>
      </trkpt>
      <trkpt lat="47.80974" lon="6.83967">
        <ele>1106.6</ele>
        <time>2019-05-17T07:52:27Z</time>
      </trkpt>
      <trkpt lat="47.80965" lon="6.83974">
        <ele>1105.8</ele>
        <time>2019-05-17T07:52:28Z</time>
      </trkpt>
      <trkpt lat="47.80958" lon="6.83985">
        <ele>1105</ele>
        <time>2019-05-17T07:52:29Z</time>
      </trkpt>
      <trkpt lat="47.80953" lon="6.83998">
        <ele>1104.6</ele>
        <time>2019-05-17T07:52:30Z</time>
      </trkpt>
      <trkpt lat="47.80949" lon="6.84013">
        <ele>1104.2</ele>
        <time>2019-05-17T07:52:31Z</time>
      </trkpt>
      <trkpt lat="47.80947" lon="6.84028">
        <ele>1103.8</ele>
        <time>2019-05-17T07:52:32Z</time>
      </trkpt>
      <trkpt lat="47.80945" lon="6.84043">
        <ele>1103.2</ele>
        <time>2019-05-17T07:52:33Z</time>
      </trkpt>
      <trkpt lat="47.80945" lon="6.84058">
        <ele>1102.4</ele>
        <time>2019-05-17T07:52:34Z</time>
      </trkpt>
      <trkpt lat="47.80945" lon="6.84073">
        <ele>1101.8</ele>
        <time>2019-05-17T07:52:35Z</time>
      </trkpt>
      <trkpt lat="47.80947" lon="6.84087">
        <ele>1101.2</ele>
        <time>2019-05-17T07:52:36Z</time>
      </trkpt>
      <trkpt lat="47.80949" lon="6.84103">
        <ele>1100.4</ele>
        <time>2019-05-17T07:52:37Z</time>
      </trkpt>
      <trkpt lat="47.80951" lon="6.84117">
        <ele>1099.6</ele>
        <time>2019-05-17T07:52:38Z</time>
      </trkpt>
      <trkpt lat="47.80954" lon="6.84131">
        <ele>1098.2</ele>
        <time>2019-05-17T07:52:39Z</time>
      </trkpt>
      <trkpt lat="47.80962" lon="6.84171">
        <ele>1098.2</ele>
        <time>2019-05-17T07:52:42Z</time>
      </trkpt>
      <trkpt lat="47.80966" lon="6.84183">
        <ele>1097.6</ele>
        <time>2019-05-17T07:52:43Z</time>
      </trkpt>
      <trkpt lat="47.80969" lon="6.84192">
        <ele>1097.2</ele>
        <time>2019-05-17T07:52:44Z</time>
      </trkpt>
      <trkpt lat="47.80973" lon="6.842">
        <ele>1096.6</ele>
        <time>2019-05-17T07:52:45Z</time>
      </trkpt>
      <trkpt lat="47.80978" lon="6.84207">
        <ele>1096.2</ele>
        <time>2019-05-17T07:52:46Z</time>
      </trkpt>
      <trkpt lat="47.80985" lon="6.84214">
        <ele>1095.8</ele>
        <time>2019-05-17T07:52:47Z</time>
      </trkpt>
      <trkpt lat="47.80995" lon="6.84225">
        <ele>1095.2</ele>
        <time>2019-05-17T07:52:48Z</time>
      </trkpt>
      <trkpt lat="47.80999" lon="6.8424">
        <ele>1094.6</ele>
        <time>2019-05-17T07:52:49Z</time>
      </trkpt>
      <trkpt lat="47.81003" lon="6.84254">
        <ele>1094</ele>
        <time>2019-05-17T07:52:50Z</time>
      </trkpt>
      <trkpt lat="47.81003" lon="6.84268">
        <ele>1093.4</ele>
        <time>2019-05-17T07:52:51Z</time>
      </trkpt>
      <trkpt lat="47.81005" lon="6.84283">
        <ele>1092.6</ele>
        <time>2019-05-17T07:52:52Z</time>
      </trkpt>
      <trkpt lat="47.81008" lon="6.84297">
        <ele>1091.8</ele>
        <time>2019-05-17T07:52:53Z</time>
      </trkpt>
      <trkpt lat="47.8101" lon="6.84312">
        <ele>1091</ele>
        <time>2019-05-17T07:52:54Z</time>
      </trkpt>
      <trkpt lat="47.81012" lon="6.84327">
        <ele>1090</ele>
        <time>2019-05-17T07:52:55Z</time>
      </trkpt>
      <trkpt lat="47.81014" lon="6.84342">
        <ele>1089.2</ele>
        <time>2019-05-17T07:52:56Z</time>
      </trkpt>
      <trkpt lat="47.81015" lon="6.84358">
        <ele>1088.8</ele>
        <time>2019-05-17T07:52:57Z</time>
      </trkpt>
      <trkpt lat="47.81017" lon="6.84373">
        <ele>1088.4</ele>
        <time>2019-05-17T07:52:58Z</time>
      </trkpt>
      <trkpt lat="47.81018" lon="6.84388">
        <ele>1088</ele>
        <time>2019-05-17T07:52:59Z</time>
      </trkpt>
      <trkpt lat="47.8102" lon="6.84403">
        <ele>1087.6</ele>
        <time>2019-05-17T07:53:00Z</time>
      </trkpt>
      <trkpt lat="47.81021" lon="6.84418">
        <ele>1087.2</ele>
        <time>2019-05-17T07:53:01Z</time>
      </trkpt>
      <trkpt lat="47.81023" lon="6.84434">
        <ele>1086.8</ele>
        <time>2019-05-17T07:53:02Z</time>
      </trkpt>
      <trkpt lat="47.81023" lon="6.84449">
        <ele>1086.4</ele>
        <time>2019-05-17T07:53:03Z</time>
      </trkpt>
      <trkpt lat="47.81024" lon="6.84464">
        <ele>1085.4</ele>
        <time>2019-05-17T07:53:04Z</time>
      </trkpt>
      <trkpt lat="47.81024" lon="6.84479">
        <ele>1084.6</ele>
        <time>2019-05-17T07:53:05Z</time>
      </trkpt>
      <trkpt lat="47.81024" lon="6.84495">
        <ele>1084</ele>
        <time>2019-05-17T07:53:06Z</time>
      </trkpt>
      <trkpt lat="47.81024" lon="6.84511">
        <ele>1083.2</ele>
        <time>2019-05-17T07:53:07Z</time>
      </trkpt>
      <trkpt lat="47.81023" lon="6.84527">
        <ele>1082.6</ele>
        <time>2019-05-17T07:53:08Z</time>
      </trkpt>
      <trkpt lat="47.81022" lon="6.84543">
        <ele>1081.8</ele>
        <time>2019-05-17T07:53:09Z</time>
      </trkpt>
      <trkpt lat="47.81022" lon="6.8456">
        <ele>1081</ele>
        <time>2019-05-17T07:53:10Z</time>
      </trkpt>
      <trkpt lat="47.8102" lon="6.84575">
        <ele>1080</ele>
        <time>2019-05-17T07:53:11Z</time>
      </trkpt>
      <trkpt lat="47.81019" lon="6.84591">
        <ele>1079.2</ele>
        <time>2019-05-17T07:53:12Z</time>
      </trkpt>
      <trkpt lat="47.81017" lon="6.84607">
        <ele>1078.4</ele>
        <time>2019-05-17T07:53:13Z</time>
      </trkpt>
      <trkpt lat="47.81014" lon="6.84622">
        <ele>1077.6</ele>
        <time>2019-05-17T07:53:14Z</time>
      </trkpt>
      <trkpt lat="47.81009" lon="6.84636">
        <ele>1076.8</ele>
        <time>2019-05-17T07:53:15Z</time>
      </trkpt>
      <trkpt lat="47.81003" lon="6.84649">
        <ele>1076.2</ele>
        <time>2019-05-17T07:53:16Z</time>
      </trkpt>
      <trkpt lat="47.80995" lon="6.84662">
        <ele>1075.4</ele>
        <time>2019-05-17T07:53:17Z</time>
      </trkpt>
      <trkpt lat="47.80987" lon="6.84674">
        <ele>1074.6</ele>
        <time>2019-05-17T07:53:18Z</time>
      </trkpt>
      <trkpt lat="47.80968" lon="6.8469">
        <ele>1074.2</ele>
        <time>2019-05-17T07:53:20Z</time>
      </trkpt>
      <trkpt lat="47.80957" lon="6.84695">
        <ele>1073.8</ele>
        <time>2019-05-17T07:53:21Z</time>
      </trkpt>
      <trkpt lat="47.80947" lon="6.84697">
        <ele>1073.4</ele>
        <time>2019-05-17T07:53:22Z</time>
      </trkpt>
      <trkpt lat="47.80937" lon="6.847">
        <ele>1072.8</ele>
        <time>2019-05-17T07:53:23Z</time>
      </trkpt>
      <trkpt lat="47.80925" lon="6.84703">
        <ele>1072.2</ele>
        <time>2019-05-17T07:53:24Z</time>
      </trkpt>
      <trkpt lat="47.80913" lon="6.84705">
        <ele>1071.6</ele>
        <time>2019-05-17T07:53:25Z</time>
      </trkpt>
      <trkpt lat="47.80902" lon="6.84708">
        <ele>1070.8</ele>
        <time>2019-05-17T07:53:26Z</time>
      </trkpt>
      <trkpt lat="47.8089" lon="6.8471">
        <ele>1070</ele>
        <time>2019-05-17T07:53:27Z</time>
      </trkpt>
      <trkpt lat="47.80879" lon="6.84715">
        <ele>1068.4</ele>
        <time>2019-05-17T07:53:28Z</time>
      </trkpt>
      <trkpt lat="47.80868" lon="6.84721">
        <ele>1067.6</ele>
        <time>2019-05-17T07:53:29Z</time>
      </trkpt>
      <trkpt lat="47.80857" lon="6.84728">
        <ele>1066.6</ele>
        <time>2019-05-17T07:53:30Z</time>
      </trkpt>
      <trkpt lat="47.80846" lon="6.84734">
        <ele>1065.8</ele>
        <time>2019-05-17T07:53:31Z</time>
      </trkpt>
      <trkpt lat="47.80834" lon="6.8474">
        <ele>1065</ele>
        <time>2019-05-17T07:53:32Z</time>
      </trkpt>
      <trkpt lat="47.80824" lon="6.84745">
        <ele>1064.2</ele>
        <time>2019-05-17T07:53:33Z</time>
      </trkpt>
      <trkpt lat="47.80812" lon="6.84748">
        <ele>1063.4</ele>
        <time>2019-05-17T07:53:34Z</time>
      </trkpt>
      <trkpt lat="47.80801" lon="6.8475">
        <ele>1062.6</ele>
        <time>2019-05-17T07:53:35Z</time>
      </trkpt>
      <trkpt lat="47.80789" lon="6.84751">
        <ele>1061.8</ele>
        <time>2019-05-17T07:53:36Z</time>
      </trkpt>
      <trkpt lat="47.80777" lon="6.84752">
        <ele>1061.2</ele>
        <time>2019-05-17T07:53:37Z</time>
      </trkpt>
      <trkpt lat="47.80766" lon="6.84752">
        <ele>1060.4</ele>
        <time>2019-05-17T07:53:38Z</time>
      </trkpt>
      <trkpt lat="47.80754" lon="6.84751">
        <ele>1059.6</ele>
        <time>2019-05-17T07:53:39Z</time>
      </trkpt>
      <trkpt lat="47.80742" lon="6.8475">
        <ele>1058.8</ele>
        <time>2019-05-17T07:53:40Z</time>
      </trkpt>
      <trkpt lat="47.8073" lon="6.84747">
        <ele>1058.2</ele>
        <time>2019-05-17T07:53:41Z</time>
      </trkpt>
      <trkpt lat="47.80719" lon="6.84743">
        <ele>1057.6</ele>
        <time>2019-05-17T07:53:42Z</time>
      </trkpt>
      <trkpt lat="47.80708" lon="6.8474">
        <ele>1057</ele>
        <time>2019-05-17T07:53:43Z</time>
      </trkpt>
      <trkpt lat="47.80696" lon="6.84735">
        <ele>1056.4</ele>
        <time>2019-05-17T07:53:44Z</time>
      </trkpt>
      <trkpt lat="47.80686" lon="6.84731">
        <ele>1055.6</ele>
        <time>2019-05-17T07:53:45Z</time>
      </trkpt>
      <trkpt lat="47.80675" lon="6.84724">
        <ele>1055</ele>
        <time>2019-05-17T07:53:46Z</time>
      </trkpt>
      <trkpt lat="47.80664" lon="6.84717">
        <ele>1054.2</ele>
        <time>2019-05-17T07:53:47Z</time>
      </trkpt>
      <trkpt lat="47.80652" lon="6.84711">
        <ele>1053.6</ele>
        <time>2019-05-17T07:53:48Z</time>
      </trkpt>
      <trkpt lat="47.80641" lon="6.84704">
        <ele>1053</ele>
        <time>2019-05-17T07:53:49Z</time>
      </trkpt>
      <trkpt lat="47.8063" lon="6.84698">
        <ele>1052.6</ele>
        <time>2019-05-17T07:53:50Z</time>
      </trkpt>
      <trkpt lat="47.80618" lon="6.84692">
        <ele>1052</ele>
        <time>2019-05-17T07:53:51Z</time>
      </trkpt>
      <trkpt lat="47.80607" lon="6.84687">
        <ele>1051.2</ele>
        <time>2019-05-17T07:53:52Z</time>
      </trkpt>
      <trkpt lat="47.80595" lon="6.84682">
        <ele>1049.8</ele>
        <time>2019-05-17T07:53:53Z</time>
      </trkpt>
      <trkpt lat="47.80584" lon="6.84678">
        <ele>1049.2</ele>
        <time>2019-05-17T07:53:54Z</time>
      </trkpt>
      <trkpt lat="47.80573" lon="6.84675">
        <ele>1048.4</ele>
        <time>2019-05-17T07:53:55Z</time>
      </trkpt>
      <trkpt lat="47.80542" lon="6.84669">
        <ele>1048.4</ele>
        <time>2019-05-17T07:53:58Z</time>
      </trkpt>
      <trkpt lat="47.80526" lon="6.84661">
        <ele>1048.4</ele>
        <time>2019-05-17T07:54:00Z</time>
      </trkpt>
      <trkpt lat="47.80523" lon="6.84652">
        <ele>1048.4</ele>
        <time>2019-05-17T07:54:01Z</time>
      </trkpt>
      <trkpt lat="47.80527" lon="6.84636">
        <ele>1048.4</ele>
        <time>2019-05-17T07:54:03Z</time>
      </trkpt>
      <trkpt lat="47.80538" lon="6.84641">
        <ele>1048.4</ele>
        <time>2019-05-17T07:54:06Z</time>
      </trkpt>
      <trkpt lat="47.80558" lon="6.8465">
        <ele>1048.4</ele>
        <time>2019-05-17T07:54:08Z</time>
      </trkpt>
      <trkpt lat="47.80568" lon="6.84654">
        <ele>1048</ele>
        <time>2019-05-17T07:54:09Z</time>
      </trkpt>
      <trkpt lat="47.80578" lon="6.84657">
        <ele>1047.4</ele>
        <time>2019-05-17T07:54:10Z</time>
      </trkpt>
      <trkpt lat="47.80588" lon="6.84661">
        <ele>1046.8</ele>
        <time>2019-05-17T07:54:11Z</time>
      </trkpt>
      <trkpt lat="47.80598" lon="6.84664">
        <ele>1046.2</ele>
        <time>2019-05-17T07:54:12Z</time>
      </trkpt>
      <trkpt lat="47.80608" lon="6.84666">
        <ele>1045.4</ele>
        <time>2019-05-17T07:54:13Z</time>
      </trkpt>
      <trkpt lat="47.80618" lon="6.84666">
        <ele>1044.6</ele>
        <time>2019-05-17T07:54:14Z</time>
      </trkpt>
      <trkpt lat="47.80629" lon="6.84668">
        <ele>1043.8</ele>
        <time>2019-05-17T07:54:15Z</time>
      </trkpt>
      <trkpt lat="47.80639" lon="6.84669">
        <ele>1043</ele>
        <time>2019-05-17T07:54:16Z</time>
      </trkpt>
      <trkpt lat="47.80649" lon="6.8467">
        <ele>1042.2</ele>
        <time>2019-05-17T07:54:17Z</time>
      </trkpt>
      <trkpt lat="47.8066" lon="6.84672">
        <ele>1040.8</ele>
        <time>2019-05-17T07:54:18Z</time>
      </trkpt>
      <trkpt lat="47.80671" lon="6.84672">
        <ele>1040.2</ele>
        <time>2019-05-17T07:54:19Z</time>
      </trkpt>
      <trkpt lat="47.80681" lon="6.84672">
        <ele>1039.6</ele>
        <time>2019-05-17T07:54:20Z</time>
      </trkpt>
      <trkpt lat="47.80692" lon="6.84671">
        <ele>1039</ele>
        <time>2019-05-17T07:54:21Z</time>
      </trkpt>
      <trkpt lat="47.80703" lon="6.8467">
        <ele>1038.4</ele>
        <time>2019-05-17T07:54:22Z</time>
      </trkpt>
      <trkpt lat="47.80713" lon="6.84669">
        <ele>1037.6</ele>
        <time>2019-05-17T07:54:23Z</time>
      </trkpt>
      <trkpt lat="47.80724" lon="6.84667">
        <ele>1037</ele>
        <time>2019-05-17T07:54:24Z</time>
      </trkpt>
      <trkpt lat="47.80735" lon="6.84665">
        <ele>1036.4</ele>
        <time>2019-05-17T07:54:25Z</time>
      </trkpt>
      <trkpt lat="47.80757" lon="6.8466">
        <ele>1036</ele>
        <time>2019-05-17T07:54:27Z</time>
      </trkpt>
      <trkpt lat="47.80767" lon="6.84656">
        <ele>1035.6</ele>
        <time>2019-05-17T07:54:28Z</time>
      </trkpt>
      <trkpt lat="47.80778" lon="6.84651">
        <ele>1035.2</ele>
        <time>2019-05-17T07:54:29Z</time>
      </trkpt>
      <trkpt lat="47.80787" lon="6.84643">
        <ele>1034.8</ele>
        <time>2019-05-17T07:54:30Z</time>
      </trkpt>
      <trkpt lat="47.80795" lon="6.84635">
        <ele>1034.2</ele>
        <time>2019-05-17T07:54:31Z</time>
      </trkpt>
      <trkpt lat="47.80803" lon="6.84624">
        <ele>1033.8</ele>
        <time>2019-05-17T07:54:32Z</time>
      </trkpt>
      <trkpt lat="47.80811" lon="6.84613">
        <ele>1033.4</ele>
        <time>2019-05-17T07:54:33Z</time>
      </trkpt>
      <trkpt lat="47.80819" lon="6.84601">
        <ele>1032.8</ele>
        <time>2019-05-17T07:54:34Z</time>
      </trkpt>
      <trkpt lat="47.80828" lon="6.8459">
        <ele>1032</ele>
        <time>2019-05-17T07:54:35Z</time>
      </trkpt>
      <trkpt lat="47.80837" lon="6.84581">
        <ele>1031.4</ele>
        <time>2019-05-17T07:54:36Z</time>
      </trkpt>
      <trkpt lat="47.80846" lon="6.84572">
        <ele>1030.6</ele>
        <time>2019-05-17T07:54:37Z</time>
      </trkpt>
      <trkpt lat="47.80855" lon="6.84562">
        <ele>1029.8</ele>
        <time>2019-05-17T07:54:38Z</time>
      </trkpt>
      <trkpt lat="47.80863" lon="6.8455">
        <ele>1029</ele>
        <time>2019-05-17T07:54:39Z</time>
      </trkpt>
      <trkpt lat="47.80871" lon="6.84538">
        <ele>1028.2</ele>
        <time>2019-05-17T07:54:40Z</time>
      </trkpt>
      <trkpt lat="47.80879" lon="6.84528">
        <ele>1027.6</ele>
        <time>2019-05-17T07:54:41Z</time>
      </trkpt>
      <trkpt lat="47.80887" lon="6.84518">
        <ele>1026.4</ele>
        <time>2019-05-17T07:54:42Z</time>
      </trkpt>
      <trkpt lat="47.80895" lon="6.84507">
        <ele>1025.8</ele>
        <time>2019-05-17T07:54:43Z</time>
      </trkpt>
      <trkpt lat="47.80902" lon="6.84498">
        <ele>1025.2</ele>
        <time>2019-05-17T07:54:44Z</time>
      </trkpt>
      <trkpt lat="47.80907" lon="6.84486">
        <ele>1025.2</ele>
        <time>2019-05-17T07:54:45Z</time>
      </trkpt>
      <trkpt lat="47.80908" lon="6.84471">
        <ele>1025.2</ele>
        <time>2019-05-17T07:54:46Z</time>
      </trkpt>
      <trkpt lat="47.809" lon="6.84444">
        <ele>1025.2</ele>
        <time>2019-05-17T07:54:48Z</time>
      </trkpt>
      <trkpt lat="47.80884" lon="6.84445">
        <ele>1024.8</ele>
        <time>2019-05-17T07:54:50Z</time>
      </trkpt>
      <trkpt lat="47.80878" lon="6.84448">
        <ele>1024.4</ele>
        <time>2019-05-17T07:54:51Z</time>
      </trkpt>
      <trkpt lat="47.80873" lon="6.84464">
        <ele>1024</ele>
        <time>2019-05-17T07:54:52Z</time>
      </trkpt>
      <trkpt lat="47.80866" lon="6.84481">
        <ele>1023.6</ele>
        <time>2019-05-17T07:54:53Z</time>
      </trkpt>
      <trkpt lat="47.80858" lon="6.84494">
        <ele>1023.2</ele>
        <time>2019-05-17T07:54:54Z</time>
      </trkpt>
      <trkpt lat="47.80849" lon="6.84505">
        <ele>1022.8</ele>
        <time>2019-05-17T07:54:55Z</time>
      </trkpt>
      <trkpt lat="47.8084" lon="6.84514">
        <ele>1022.2</ele>
        <time>2019-05-17T07:54:56Z</time>
      </trkpt>
      <trkpt lat="47.80831" lon="6.84521">
        <ele>1021.8</ele>
        <time>2019-05-17T07:54:57Z</time>
      </trkpt>
      <trkpt lat="47.80821" lon="6.84528">
        <ele>1021.2</ele>
        <time>2019-05-17T07:54:58Z</time>
      </trkpt>
      <trkpt lat="47.80812" lon="6.84535">
        <ele>1020.6</ele>
        <time>2019-05-17T07:54:59Z</time>
      </trkpt>
      <trkpt lat="47.80803" lon="6.84543">
        <ele>1020</ele>
        <time>2019-05-17T07:55:00Z</time>
      </trkpt>
      <trkpt lat="47.80795" lon="6.84552">
        <ele>1019.4</ele>
        <time>2019-05-17T07:55:01Z</time>
      </trkpt>
      <trkpt lat="47.80786" lon="6.84561">
        <ele>1018.8</ele>
        <time>2019-05-17T07:55:02Z</time>
      </trkpt>
      <trkpt lat="47.80778" lon="6.8457">
        <ele>1018</ele>
        <time>2019-05-17T07:55:03Z</time>
      </trkpt>
      <trkpt lat="47.80769" lon="6.84579">
        <ele>1017.4</ele>
        <time>2019-05-17T07:55:04Z</time>
      </trkpt>
      <trkpt lat="47.80758" lon="6.84587">
        <ele>1016.6</ele>
        <time>2019-05-17T07:55:05Z</time>
      </trkpt>
      <trkpt lat="47.80748" lon="6.84591">
        <ele>1015.8</ele>
        <time>2019-05-17T07:55:06Z</time>
      </trkpt>
      <trkpt lat="47.80738" lon="6.84591">
        <ele>1014.4</ele>
        <time>2019-05-17T07:55:07Z</time>
      </trkpt>
      <trkpt lat="47.80727" lon="6.84589">
        <ele>1013.6</ele>
        <time>2019-05-17T07:55:08Z</time>
      </trkpt>
      <trkpt lat="47.80717" lon="6.84588">
        <ele>1012.8</ele>
        <time>2019-05-17T07:55:09Z</time>
      </trkpt>
      <trkpt lat="47.80707" lon="6.84586">
        <ele>1012</ele>
        <time>2019-05-17T07:55:10Z</time>
      </trkpt>
      <trkpt lat="47.80696" lon="6.84584">
        <ele>1011.4</ele>
        <time>2019-05-17T07:55:11Z</time>
      </trkpt>
      <trkpt lat="47.80686" lon="6.84581">
        <ele>1010.8</ele>
        <time>2019-05-17T07:55:12Z</time>
      </trkpt>
      <trkpt lat="47.80675" lon="6.84578">
        <ele>1010.4</ele>
        <time>2019-05-17T07:55:13Z</time>
      </trkpt>
      <trkpt lat="47.80664" lon="6.84575">
        <ele>1009.8</ele>
        <time>2019-05-17T07:55:14Z</time>
      </trkpt>
      <trkpt lat="47.80654" lon="6.84572">
        <ele>1009.4</ele>
        <time>2019-05-17T07:55:15Z</time>
      </trkpt>
      <trkpt lat="47.80643" lon="6.84568">
        <ele>1009</ele>
        <time>2019-05-17T07:55:16Z</time>
      </trkpt>
      <trkpt lat="47.80622" lon="6.84557">
        <ele>1008.4</ele>
        <time>2019-05-17T07:55:18Z</time>
      </trkpt>
      <trkpt lat="47.80612" lon="6.84551">
        <ele>1007.8</ele>
        <time>2019-05-17T07:55:19Z</time>
      </trkpt>
      <trkpt lat="47.80602" lon="6.84546">
        <ele>1007.2</ele>
        <time>2019-05-17T07:55:20Z</time>
      </trkpt>
      <trkpt lat="47.80592" lon="6.8454">
        <ele>1006.4</ele>
        <time>2019-05-17T07:55:21Z</time>
      </trkpt>
      <trkpt lat="47.80583" lon="6.84535">
        <ele>1005.6</ele>
        <time>2019-05-17T07:55:22Z</time>
      </trkpt>
      <trkpt lat="47.80573" lon="6.84528">
        <ele>1004.8</ele>
        <time>2019-05-17T07:55:23Z</time>
      </trkpt>
      <trkpt lat="47.80563" lon="6.8452">
        <ele>1004.2</ele>
        <time>2019-05-17T07:55:24Z</time>
      </trkpt>
      <trkpt lat="47.80553" lon="6.84512">
        <ele>1003.8</ele>
        <time>2019-05-17T07:55:25Z</time>
      </trkpt>
      <trkpt lat="47.80543" lon="6.84503">
        <ele>1003.2</ele>
        <time>2019-05-17T07:55:26Z</time>
      </trkpt>
      <trkpt lat="47.80533" lon="6.84493">
        <ele>1002.6</ele>
        <time>2019-05-17T07:55:27Z</time>
      </trkpt>
      <trkpt lat="47.80522" lon="6.84485">
        <ele>1002</ele>
        <time>2019-05-17T07:55:28Z</time>
      </trkpt>
      <trkpt lat="47.80512" lon="6.84477">
        <ele>1001.2</ele>
        <time>2019-05-17T07:55:29Z</time>
      </trkpt>
      <trkpt lat="47.80502" lon="6.84469">
        <ele>1000.6</ele>
        <time>2019-05-17T07:55:30Z</time>
      </trkpt>
      <trkpt lat="47.80491" lon="6.8446">
        <ele>999.2</ele>
        <time>2019-05-17T07:55:31Z</time>
      </trkpt>
      <trkpt lat="47.80481" lon="6.84452">
        <ele>998.6</ele>
        <time>2019-05-17T07:55:32Z</time>
      </trkpt>
      <trkpt lat="47.80471" lon="6.84443">
        <ele>997.8</ele>
        <time>2019-05-17T07:55:33Z</time>
      </trkpt>
      <trkpt lat="47.8046" lon="6.84437">
        <ele>997.2</ele>
        <time>2019-05-17T07:55:34Z</time>
      </trkpt>
      <trkpt lat="47.80449" lon="6.8443">
        <ele>996.4</ele>
        <time>2019-05-17T07:55:35Z</time>
      </trkpt>
      <trkpt lat="47.80437" lon="6.84425">
        <ele>995.6</ele>
        <time>2019-05-17T07:55:36Z</time>
      </trkpt>
      <trkpt lat="47.80426" lon="6.8442">
        <ele>995</ele>
        <time>2019-05-17T07:55:37Z</time>
      </trkpt>
      <trkpt lat="47.80414" lon="6.84416">
        <ele>994.4</ele>
        <time>2019-05-17T07:55:38Z</time>
      </trkpt>
      <trkpt lat="47.80403" lon="6.84413">
        <ele>993.8</ele>
        <time>2019-05-17T07:55:39Z</time>
      </trkpt>
      <trkpt lat="47.80392" lon="6.8441">
        <ele>993.2</ele>
        <time>2019-05-17T07:55:40Z</time>
      </trkpt>
      <trkpt lat="47.8038" lon="6.84406">
        <ele>992.6</ele>
        <time>2019-05-17T07:55:41Z</time>
      </trkpt>
      <trkpt lat="47.80368" lon="6.84404">
        <ele>992</ele>
        <time>2019-05-17T07:55:42Z</time>
      </trkpt>
      <trkpt lat="47.80356" lon="6.84402">
        <ele>991.6</ele>
        <time>2019-05-17T07:55:43Z</time>
      </trkpt>
      <trkpt lat="47.80343" lon="6.84401">
        <ele>991</ele>
        <time>2019-05-17T07:55:44Z</time>
      </trkpt>
      <trkpt lat="47.80332" lon="6.84399">
        <ele>990.2</ele>
        <time>2019-05-17T07:55:45Z</time>
      </trkpt>
      <trkpt lat="47.8032" lon="6.84399">
        <ele>989.6</ele>
        <time>2019-05-17T07:55:46Z</time>
      </trkpt>
      <trkpt lat="47.80308" lon="6.84398">
        <ele>989</ele>
        <time>2019-05-17T07:55:47Z</time>
      </trkpt>
      <trkpt lat="47.80297" lon="6.84396">
        <ele>988.4</ele>
        <time>2019-05-17T07:55:48Z</time>
      </trkpt>
      <trkpt lat="47.80285" lon="6.84395">
        <ele>987.6</ele>
        <time>2019-05-17T07:55:49Z</time>
      </trkpt>
      <trkpt lat="47.80274" lon="6.84391">
        <ele>986.8</ele>
        <time>2019-05-17T07:55:50Z</time>
      </trkpt>
      <trkpt lat="47.80263" lon="6.84387">
        <ele>986</ele>
        <time>2019-05-17T07:55:51Z</time>
      </trkpt>
      <trkpt lat="47.80252" lon="6.84381">
        <ele>985</ele>
        <time>2019-05-17T07:55:52Z</time>
      </trkpt>
      <trkpt lat="47.80241" lon="6.84375">
        <ele>984.2</ele>
        <time>2019-05-17T07:55:53Z</time>
      </trkpt>
      <trkpt lat="47.8023" lon="6.84369">
        <ele>983.2</ele>
        <time>2019-05-17T07:55:54Z</time>
      </trkpt>
      <trkpt lat="47.80219" lon="6.84363">
        <ele>982.4</ele>
        <time>2019-05-17T07:55:55Z</time>
      </trkpt>
      <trkpt lat="47.80208" lon="6.84357">
        <ele>980.6</ele>
        <time>2019-05-17T07:55:56Z</time>
      </trkpt>
      <trkpt lat="47.80198" lon="6.84352">
        <ele>979.8</ele>
        <time>2019-05-17T07:55:57Z</time>
      </trkpt>
      <trkpt lat="47.80186" lon="6.84351">
        <ele>978.8</ele>
        <time>2019-05-17T07:55:58Z</time>
      </trkpt>
      <trkpt lat="47.80164" lon="6.84359">
        <ele>978.4</ele>
        <time>2019-05-17T07:56:00Z</time>
      </trkpt>
      <trkpt lat="47.80154" lon="6.84369">
        <ele>978</ele>
        <time>2019-05-17T07:56:01Z</time>
      </trkpt>
      <trkpt lat="47.80147" lon="6.84381">
        <ele>977.4</ele>
        <time>2019-05-17T07:56:02Z</time>
      </trkpt>
      <trkpt lat="47.8014" lon="6.84394">
        <ele>977</ele>
        <time>2019-05-17T07:56:03Z</time>
      </trkpt>
      <trkpt lat="47.80134" lon="6.84408">
        <ele>976.4</ele>
        <time>2019-05-17T07:56:04Z</time>
      </trkpt>
      <trkpt lat="47.8013" lon="6.84422">
        <ele>976</ele>
        <time>2019-05-17T07:56:05Z</time>
      </trkpt>
      <trkpt lat="47.80124" lon="6.84438">
        <ele>975.6</ele>
        <time>2019-05-17T07:56:06Z</time>
      </trkpt>
      <trkpt lat="47.80119" lon="6.84452">
        <ele>975.2</ele>
        <time>2019-05-17T07:56:07Z</time>
      </trkpt>
      <trkpt lat="47.80114" lon="6.84466">
        <ele>974.6</ele>
        <time>2019-05-17T07:56:08Z</time>
      </trkpt>
      <trkpt lat="47.80109" lon="6.8448">
        <ele>973.8</ele>
        <time>2019-05-17T07:56:09Z</time>
      </trkpt>
      <trkpt lat="47.80103" lon="6.84493">
        <ele>973.2</ele>
        <time>2019-05-17T07:56:10Z</time>
      </trkpt>
      <trkpt lat="47.80097" lon="6.84506">
        <ele>972.6</ele>
        <time>2019-05-17T07:56:11Z</time>
      </trkpt>
      <trkpt lat="47.80091" lon="6.84518">
        <ele>972</ele>
        <time>2019-05-17T07:56:12Z</time>
      </trkpt>
      <trkpt lat="47.80083" lon="6.84527">
        <ele>972</ele>
        <time>2019-05-17T07:56:13Z</time>
      </trkpt>
      <trkpt lat="47.80075" lon="6.84535">
        <ele>971.4</ele>
        <time>2019-05-17T07:56:14Z</time>
      </trkpt>
      <trkpt lat="47.80066" lon="6.84542">
        <ele>971</ele>
        <time>2019-05-17T07:56:15Z</time>
      </trkpt>
      <trkpt lat="47.80057" lon="6.84547">
        <ele>970.6</ele>
        <time>2019-05-17T07:56:16Z</time>
      </trkpt>
      <trkpt lat="47.80047" lon="6.84549">
        <ele>970.2</ele>
        <time>2019-05-17T07:56:17Z</time>
      </trkpt>
      <trkpt lat="47.80038" lon="6.84552">
        <ele>969.8</ele>
        <time>2019-05-17T07:56:18Z</time>
      </trkpt>
      <trkpt lat="47.80017" lon="6.84556">
        <ele>969.2</ele>
        <time>2019-05-17T07:56:20Z</time>
      </trkpt>
      <trkpt lat="47.80007" lon="6.84558">
        <ele>968.4</ele>
        <time>2019-05-17T07:56:21Z</time>
      </trkpt>
      <trkpt lat="47.79996" lon="6.8456">
        <ele>967.8</ele>
        <time>2019-05-17T07:56:22Z</time>
      </trkpt>
      <trkpt lat="47.79985" lon="6.84561">
        <ele>967.2</ele>
        <time>2019-05-17T07:56:23Z</time>
      </trkpt>
      <trkpt lat="47.79975" lon="6.84561">
        <ele>966.6</ele>
        <time>2019-05-17T07:56:24Z</time>
      </trkpt>
      <trkpt lat="47.79964" lon="6.84559">
        <ele>965.8</ele>
        <time>2019-05-17T07:56:25Z</time>
      </trkpt>
      <trkpt lat="47.79954" lon="6.84555">
        <ele>965</ele>
        <time>2019-05-17T07:56:26Z</time>
      </trkpt>
      <trkpt lat="47.79945" lon="6.84549">
        <ele>964.2</ele>
        <time>2019-05-17T07:56:27Z</time>
      </trkpt>
      <trkpt lat="47.79936" lon="6.8454">
        <ele>963.4</ele>
        <time>2019-05-17T07:56:28Z</time>
      </trkpt>
      <trkpt lat="47.79928" lon="6.84531">
        <ele>962.6</ele>
        <time>2019-05-17T07:56:29Z</time>
      </trkpt>
      <trkpt lat="47.7992" lon="6.84522">
        <ele>961.8</ele>
        <time>2019-05-17T07:56:30Z</time>
      </trkpt>
      <trkpt lat="47.79911" lon="6.84511">
        <ele>961</ele>
        <time>2019-05-17T07:56:31Z</time>
      </trkpt>
      <trkpt lat="47.79903" lon="6.84501">
        <ele>960.4</ele>
        <time>2019-05-17T07:56:32Z</time>
      </trkpt>
      <trkpt lat="47.79894" lon="6.8449">
        <ele>959.8</ele>
        <time>2019-05-17T07:56:33Z</time>
      </trkpt>
      <trkpt lat="47.79886" lon="6.84479">
        <ele>959.2</ele>
        <time>2019-05-17T07:56:34Z</time>
      </trkpt>
      <trkpt lat="47.79878" lon="6.84467">
        <ele>958.6</ele>
        <time>2019-05-17T07:56:35Z</time>
      </trkpt>
      <trkpt lat="47.79869" lon="6.84456">
        <ele>958</ele>
        <time>2019-05-17T07:56:36Z</time>
      </trkpt>
      <trkpt lat="47.79861" lon="6.84444">
        <ele>957.4</ele>
        <time>2019-05-17T07:56:37Z</time>
      </trkpt>
      <trkpt lat="47.79852" lon="6.84433">
        <ele>956.8</ele>
        <time>2019-05-17T07:56:38Z</time>
      </trkpt>
      <trkpt lat="47.79844" lon="6.84421">
        <ele>956.2</ele>
        <time>2019-05-17T07:56:39Z</time>
      </trkpt>
      <trkpt lat="47.79834" lon="6.84409">
        <ele>955.6</ele>
        <time>2019-05-17T07:56:40Z</time>
      </trkpt>
      <trkpt lat="47.79825" lon="6.84398">
        <ele>955.2</ele>
        <time>2019-05-17T07:56:41Z</time>
      </trkpt>
      <trkpt lat="47.79816" lon="6.84387">
        <ele>954.6</ele>
        <time>2019-05-17T07:56:42Z</time>
      </trkpt>
      <trkpt lat="47.79806" lon="6.84378">
        <ele>954</ele>
        <time>2019-05-17T07:56:43Z</time>
      </trkpt>
      <trkpt lat="47.79796" lon="6.8437">
        <ele>953.2</ele>
        <time>2019-05-17T07:56:44Z</time>
      </trkpt>
      <trkpt lat="47.79786" lon="6.84363">
        <ele>952.6</ele>
        <time>2019-05-17T07:56:45Z</time>
      </trkpt>
      <trkpt lat="47.79775" lon="6.84357">
        <ele>951.4</ele>
        <time>2019-05-17T07:56:46Z</time>
      </trkpt>
      <trkpt lat="47.79765" lon="6.8435">
        <ele>950.8</ele>
        <time>2019-05-17T07:56:47Z</time>
      </trkpt>
      <trkpt lat="47.79754" lon="6.84344">
        <ele>950.4</ele>
        <time>2019-05-17T07:56:48Z</time>
      </trkpt>
      <trkpt lat="47.79744" lon="6.84336">
        <ele>950</ele>
        <time>2019-05-17T07:56:49Z</time>
      </trkpt>
      <trkpt lat="47.79733" lon="6.84329">
        <ele>949.4</ele>
        <time>2019-05-17T07:56:50Z</time>
      </trkpt>
      <trkpt lat="47.79723" lon="6.84322">
        <ele>949</ele>
        <time>2019-05-17T07:56:51Z</time>
      </trkpt>
      <trkpt lat="47.79713" lon="6.84314">
        <ele>948.4</ele>
        <time>2019-05-17T07:56:52Z</time>
      </trkpt>
      <trkpt lat="47.79702" lon="6.84307">
        <ele>947.6</ele>
        <time>2019-05-17T07:56:53Z</time>
      </trkpt>
      <trkpt lat="47.79692" lon="6.843">
        <ele>947</ele>
        <time>2019-05-17T07:56:54Z</time>
      </trkpt>
      <trkpt lat="47.79681" lon="6.84294">
        <ele>946</ele>
        <time>2019-05-17T07:56:55Z</time>
      </trkpt>
      <trkpt lat="47.79673" lon="6.84284">
        <ele>945.2</ele>
        <time>2019-05-17T07:56:56Z</time>
      </trkpt>
      <trkpt lat="47.79664" lon="6.84275">
        <ele>944.2</ele>
        <time>2019-05-17T07:56:57Z</time>
      </trkpt>
      <trkpt lat="47.79657" lon="6.84267">
        <ele>943.4</ele>
        <time>2019-05-17T07:56:58Z</time>
      </trkpt>
      <trkpt lat="47.79649" lon="6.8426">
        <ele>942.4</ele>
        <time>2019-05-17T07:56:59Z</time>
      </trkpt>
      <trkpt lat="47.79645" lon="6.84251">
        <ele>942.4</ele>
        <time>2019-05-17T07:57:00Z</time>
      </trkpt>
      <trkpt lat="47.79644" lon="6.84242">
        <ele>942.4</ele>
        <time>2019-05-17T07:57:01Z</time>
      </trkpt>
      <trkpt lat="47.79643" lon="6.84223">
        <ele>942.4</ele>
        <time>2019-05-17T07:57:04Z</time>
      </trkpt>
      <trkpt lat="47.79653" lon="6.8421">
        <ele>942.4</ele>
        <time>2019-05-17T07:57:07Z</time>
      </trkpt>
      <trkpt lat="47.79662" lon="6.84209">
        <ele>942</ele>
        <time>2019-05-17T07:57:08Z</time>
      </trkpt>
      <trkpt lat="47.79671" lon="6.8421">
        <ele>941.6</ele>
        <time>2019-05-17T07:57:09Z</time>
      </trkpt>
      <trkpt lat="47.79679" lon="6.84216">
        <ele>941</ele>
        <time>2019-05-17T07:57:10Z</time>
      </trkpt>
      <trkpt lat="47.79689" lon="6.8422">
        <ele>939.6</ele>
        <time>2019-05-17T07:57:11Z</time>
      </trkpt>
      <trkpt lat="47.79697" lon="6.84225">
        <ele>938.8</ele>
        <time>2019-05-17T07:57:12Z</time>
      </trkpt>
      <trkpt lat="47.79707" lon="6.84231">
        <ele>938</ele>
        <time>2019-05-17T07:57:13Z</time>
      </trkpt>
      <trkpt lat="47.79718" lon="6.84244">
        <ele>937.2</ele>
        <time>2019-05-17T07:57:14Z</time>
      </trkpt>
      <trkpt lat="47.79729" lon="6.84254">
        <ele>936.4</ele>
        <time>2019-05-17T07:57:15Z</time>
      </trkpt>
      <trkpt lat="47.7974" lon="6.84264">
        <ele>935.6</ele>
        <time>2019-05-17T07:57:16Z</time>
      </trkpt>
      <trkpt lat="47.79751" lon="6.84271">
        <ele>935</ele>
        <time>2019-05-17T07:57:17Z</time>
      </trkpt>
      <trkpt lat="47.79792" lon="6.84287">
        <ele>935</ele>
        <time>2019-05-17T07:57:21Z</time>
      </trkpt>
      <trkpt lat="47.79802" lon="6.84291">
        <ele>934.4</ele>
        <time>2019-05-17T07:57:22Z</time>
      </trkpt>
      <trkpt lat="47.79813" lon="6.84296">
        <ele>933.8</ele>
        <time>2019-05-17T07:57:23Z</time>
      </trkpt>
      <trkpt lat="47.79826" lon="6.84308">
        <ele>933.2</ele>
        <time>2019-05-17T07:57:24Z</time>
      </trkpt>
      <trkpt lat="47.79838" lon="6.84317">
        <ele>932.6</ele>
        <time>2019-05-17T07:57:25Z</time>
      </trkpt>
      <trkpt lat="47.79848" lon="6.84324">
        <ele>932</ele>
        <time>2019-05-17T07:57:26Z</time>
      </trkpt>
      <trkpt lat="47.79858" lon="6.84332">
        <ele>931.4</ele>
        <time>2019-05-17T07:57:27Z</time>
      </trkpt>
      <trkpt lat="47.79868" lon="6.84338">
        <ele>930.6</ele>
        <time>2019-05-17T07:57:28Z</time>
      </trkpt>
      <trkpt lat="47.79877" lon="6.84346">
        <ele>929.8</ele>
        <time>2019-05-17T07:57:29Z</time>
      </trkpt>
      <trkpt lat="47.79887" lon="6.84355">
        <ele>929</ele>
        <time>2019-05-17T07:57:30Z</time>
      </trkpt>
      <trkpt lat="47.79896" lon="6.84363">
        <ele>928.2</ele>
        <time>2019-05-17T07:57:31Z</time>
      </trkpt>
      <trkpt lat="47.79904" lon="6.84372">
        <ele>927.4</ele>
        <time>2019-05-17T07:57:32Z</time>
      </trkpt>
      <trkpt lat="47.79914" lon="6.84381">
        <ele>926.6</ele>
        <time>2019-05-17T07:57:33Z</time>
      </trkpt>
      <trkpt lat="47.79922" lon="6.84389">
        <ele>925.8</ele>
        <time>2019-05-17T07:57:34Z</time>
      </trkpt>
      <trkpt lat="47.79931" lon="6.84397">
        <ele>925</ele>
        <time>2019-05-17T07:57:35Z</time>
      </trkpt>
      <trkpt lat="47.79941" lon="6.84405">
        <ele>924.4</ele>
        <time>2019-05-17T07:57:36Z</time>
      </trkpt>
      <trkpt lat="47.79951" lon="6.84411">
        <ele>924</ele>
        <time>2019-05-17T07:57:37Z</time>
      </trkpt>
      <trkpt lat="47.79961" lon="6.84418">
        <ele>923.6</ele>
        <time>2019-05-17T07:57:38Z</time>
      </trkpt>
      <trkpt lat="47.79972" lon="6.84424">
        <ele>923</ele>
        <time>2019-05-17T07:57:39Z</time>
      </trkpt>
      <trkpt lat="47.79983" lon="6.84429">
        <ele>922.6</ele>
        <time>2019-05-17T07:57:40Z</time>
      </trkpt>
      <trkpt lat="47.79992" lon="6.8443">
        <ele>922.6</ele>
        <time>2019-05-17T07:57:41Z</time>
      </trkpt>
      <trkpt lat="47.80005" lon="6.8443">
        <ele>922.6</ele>
        <time>2019-05-17T07:57:42Z</time>
      </trkpt>
      <trkpt lat="47.80025" lon="6.84428">
        <ele>922.6</ele>
        <time>2019-05-17T07:57:44Z</time>
      </trkpt>
      <trkpt lat="47.80032" lon="6.84422">
        <ele>922.6</ele>
        <time>2019-05-17T07:57:45Z</time>
      </trkpt>
      <trkpt lat="47.80041" lon="6.84399">
        <ele>922.2</ele>
        <time>2019-05-17T07:57:47Z</time>
      </trkpt>
      <trkpt lat="47.80043" lon="6.84384">
        <ele>921.8</ele>
        <time>2019-05-17T07:57:48Z</time>
      </trkpt>
      <trkpt lat="47.80046" lon="6.8437">
        <ele>921.4</ele>
        <time>2019-05-17T07:57:49Z</time>
      </trkpt>
      <trkpt lat="47.80049" lon="6.84355">
        <ele>921</ele>
        <time>2019-05-17T07:57:50Z</time>
      </trkpt>
      <trkpt lat="47.80051" lon="6.8434">
        <ele>920.4</ele>
        <time>2019-05-17T07:57:51Z</time>
      </trkpt>
      <trkpt lat="47.80052" lon="6.84324">
        <ele>919.6</ele>
        <time>2019-05-17T07:57:52Z</time>
      </trkpt>
      <trkpt lat="47.80055" lon="6.84308">
        <ele>919</ele>
        <time>2019-05-17T07:57:53Z</time>
      </trkpt>
      <trkpt lat="47.80059" lon="6.84292">
        <ele>918.4</ele>
        <time>2019-05-17T07:57:54Z</time>
      </trkpt>
      <trkpt lat="47.80062" lon="6.84276">
        <ele>917.8</ele>
        <time>2019-05-17T07:57:55Z</time>
      </trkpt>
      <trkpt lat="47.80065" lon="6.84261">
        <ele>917.2</ele>
        <time>2019-05-17T07:57:56Z</time>
      </trkpt>
      <trkpt lat="47.80069" lon="6.84246">
        <ele>916.4</ele>
        <time>2019-05-17T07:57:57Z</time>
      </trkpt>
      <trkpt lat="47.80075" lon="6.84232">
        <ele>915.4</ele>
        <time>2019-05-17T07:57:58Z</time>
      </trkpt>
      <trkpt lat="47.80081" lon="6.84218">
        <ele>914.6</ele>
        <time>2019-05-17T07:57:59Z</time>
      </trkpt>
      <trkpt lat="47.80088" lon="6.84204">
        <ele>913.8</ele>
        <time>2019-05-17T07:58:00Z</time>
      </trkpt>
      <trkpt lat="47.80096" lon="6.84194">
        <ele>912.2</ele>
        <time>2019-05-17T07:58:01Z</time>
      </trkpt>
      <trkpt lat="47.80105" lon="6.84184">
        <ele>911.2</ele>
        <time>2019-05-17T07:58:02Z</time>
      </trkpt>
      <trkpt lat="47.80114" lon="6.84174">
        <ele>910.8</ele>
        <time>2019-05-17T07:58:03Z</time>
      </trkpt>
      <trkpt lat="47.80122" lon="6.84165">
        <ele>910.2</ele>
        <time>2019-05-17T07:58:04Z</time>
      </trkpt>
      <trkpt lat="47.8013" lon="6.84157">
        <ele>909.6</ele>
        <time>2019-05-17T07:58:05Z</time>
      </trkpt>
      <trkpt lat="47.80139" lon="6.84148">
        <ele>909</ele>
        <time>2019-05-17T07:58:06Z</time>
      </trkpt>
      <trkpt lat="47.80147" lon="6.84139">
        <ele>908.4</ele>
        <time>2019-05-17T07:58:07Z</time>
      </trkpt>
      <trkpt lat="47.80155" lon="6.84131">
        <ele>907.8</ele>
        <time>2019-05-17T07:58:08Z</time>
      </trkpt>
      <trkpt lat="47.80165" lon="6.84126">
        <ele>907.4</ele>
        <time>2019-05-17T07:58:09Z</time>
      </trkpt>
      <trkpt lat="47.80176" lon="6.84124">
        <ele>906.8</ele>
        <time>2019-05-17T07:58:10Z</time>
      </trkpt>
      <trkpt lat="47.80187" lon="6.84122">
        <ele>906.2</ele>
        <time>2019-05-17T07:58:11Z</time>
      </trkpt>
      <trkpt lat="47.80197" lon="6.84121">
        <ele>905.6</ele>
        <time>2019-05-17T07:58:12Z</time>
      </trkpt>
      <trkpt lat="47.80208" lon="6.84122">
        <ele>904.8</ele>
        <time>2019-05-17T07:58:13Z</time>
      </trkpt>
      <trkpt lat="47.80219" lon="6.84125">
        <ele>904</ele>
        <time>2019-05-17T07:58:14Z</time>
      </trkpt>
      <trkpt lat="47.80229" lon="6.84129">
        <ele>903.2</ele>
        <time>2019-05-17T07:58:15Z</time>
      </trkpt>
      <trkpt lat="47.80239" lon="6.84133">
        <ele>902.4</ele>
        <time>2019-05-17T07:58:16Z</time>
      </trkpt>
      <trkpt lat="47.8025" lon="6.84138">
        <ele>901.6</ele>
        <time>2019-05-17T07:58:17Z</time>
      </trkpt>
      <trkpt lat="47.8026" lon="6.84142">
        <ele>901.2</ele>
        <time>2019-05-17T07:58:18Z</time>
      </trkpt>
      <trkpt lat="47.80271" lon="6.84148">
        <ele>900.6</ele>
        <time>2019-05-17T07:58:19Z</time>
      </trkpt>
      <trkpt lat="47.80283" lon="6.84153">
        <ele>900</ele>
        <time>2019-05-17T07:58:20Z</time>
      </trkpt>
      <trkpt lat="47.80294" lon="6.84157">
        <ele>899.4</ele>
        <time>2019-05-17T07:58:21Z</time>
      </trkpt>
      <trkpt lat="47.80305" lon="6.84159">
        <ele>898.6</ele>
        <time>2019-05-17T07:58:22Z</time>
      </trkpt>
      <trkpt lat="47.80315" lon="6.8416">
        <ele>898</ele>
        <time>2019-05-17T07:58:23Z</time>
      </trkpt>
      <trkpt lat="47.80326" lon="6.84159">
        <ele>897.4</ele>
        <time>2019-05-17T07:58:24Z</time>
      </trkpt>
      <trkpt lat="47.80337" lon="6.84159">
        <ele>896.6</ele>
        <time>2019-05-17T07:58:25Z</time>
      </trkpt>
      <trkpt lat="47.80348" lon="6.84159">
        <ele>895.2</ele>
        <time>2019-05-17T07:58:26Z</time>
      </trkpt>
      <trkpt lat="47.80359" lon="6.84158">
        <ele>894.6</ele>
        <time>2019-05-17T07:58:27Z</time>
      </trkpt>
      <trkpt lat="47.8037" lon="6.84158">
        <ele>893.8</ele>
        <time>2019-05-17T07:58:28Z</time>
      </trkpt>
      <trkpt lat="47.80381" lon="6.84158">
        <ele>893</ele>
        <time>2019-05-17T07:58:29Z</time>
      </trkpt>
      <trkpt lat="47.80392" lon="6.84158">
        <ele>892.4</ele>
        <time>2019-05-17T07:58:30Z</time>
      </trkpt>
      <trkpt lat="47.80404" lon="6.84159">
        <ele>891.6</ele>
        <time>2019-05-17T07:58:31Z</time>
      </trkpt>
      <trkpt lat="47.80415" lon="6.84161">
        <ele>891</ele>
        <time>2019-05-17T07:58:32Z</time>
      </trkpt>
      <trkpt lat="47.80426" lon="6.84162">
        <ele>890.2</ele>
        <time>2019-05-17T07:58:33Z</time>
      </trkpt>
      <trkpt lat="47.80438" lon="6.84163">
        <ele>889.8</ele>
        <time>2019-05-17T07:58:34Z</time>
      </trkpt>
      <trkpt lat="47.80449" lon="6.84165">
        <ele>889.2</ele>
        <time>2019-05-17T07:58:35Z</time>
      </trkpt>
      <trkpt lat="47.8046" lon="6.84166">
        <ele>888.8</ele>
        <time>2019-05-17T07:58:36Z</time>
      </trkpt>
      <trkpt lat="47.80471" lon="6.84168">
        <ele>888.2</ele>
        <time>2019-05-17T07:58:37Z</time>
      </trkpt>
      <trkpt lat="47.80482" lon="6.84169">
        <ele>887.4</ele>
        <time>2019-05-17T07:58:38Z</time>
      </trkpt>
      <trkpt lat="47.80493" lon="6.84171">
        <ele>886.6</ele>
        <time>2019-05-17T07:58:39Z</time>
      </trkpt>
      <trkpt lat="47.80504" lon="6.84176">
        <ele>885.8</ele>
        <time>2019-05-17T07:58:40Z</time>
      </trkpt>
      <trkpt lat="47.80514" lon="6.84183">
        <ele>885</ele>
        <time>2019-05-17T07:58:41Z</time>
      </trkpt>
      <trkpt lat="47.80522" lon="6.84189">
        <ele>884.2</ele>
        <time>2019-05-17T07:58:42Z</time>
      </trkpt>
      <trkpt lat="47.80531" lon="6.84194">
        <ele>883.4</ele>
        <time>2019-05-17T07:58:43Z</time>
      </trkpt>
      <trkpt lat="47.8054" lon="6.84197">
        <ele>883.4</ele>
        <time>2019-05-17T07:58:44Z</time>
      </trkpt>
      <trkpt lat="47.80548" lon="6.84199">
        <ele>883.4</ele>
        <time>2019-05-17T07:58:45Z</time>
      </trkpt>
      <trkpt lat="47.80558" lon="6.84197">
        <ele>883.4</ele>
        <time>2019-05-17T07:58:48Z</time>
      </trkpt>
      <trkpt lat="47.8056" lon="6.84192">
        <ele>883.4</ele>
        <time>2019-05-17T07:58:49Z</time>
      </trkpt>
      <trkpt lat="47.80568" lon="6.84189">
        <ele>882.4</ele>
        <time>2019-05-17T07:58:51Z</time>
      </trkpt>
      <trkpt lat="47.80566" lon="6.84183">
        <ele>882</ele>
        <time>2019-05-17T07:58:52Z</time>
      </trkpt>
      <trkpt lat="47.80563" lon="6.8418">
        <ele>881.2</ele>
        <time>2019-05-17T07:58:53Z</time>
      </trkpt>
      <trkpt lat="47.8056" lon="6.84177">
        <ele>880.6</ele>
        <time>2019-05-17T07:58:54Z</time>
      </trkpt>
      <trkpt lat="47.80557" lon="6.84174">
        <ele>880</ele>
        <time>2019-05-17T07:58:55Z</time>
      </trkpt>
      <trkpt lat="47.80555" lon="6.84171">
        <ele>879.4</ele>
        <time>2019-05-17T07:58:56Z</time>
      </trkpt>
      <trkpt lat="47.80544" lon="6.84165">
        <ele>878.6</ele>
        <time>2019-05-17T07:58:57Z</time>
      </trkpt>
      <trkpt lat="47.80488" lon="6.84145">
        <ele>878.2</ele>
        <time>2019-05-17T07:58:58Z</time>
      </trkpt>
      <trkpt lat="47.80432" lon="6.84125">
        <ele>877.8</ele>
        <time>2019-05-17T07:58:59Z</time>
      </trkpt>
      <trkpt lat="47.80421" lon="6.84123">
        <ele>877.2</ele>
        <time>2019-05-17T07:59:00Z</time>
      </trkpt>
      <trkpt lat="47.8041" lon="6.84121">
        <ele>876.4</ele>
        <time>2019-05-17T07:59:01Z</time>
      </trkpt>
      <trkpt lat="47.804" lon="6.84119">
        <ele>875.6</ele>
        <time>2019-05-17T07:59:02Z</time>
      </trkpt>
      <trkpt lat="47.8039" lon="6.84113">
        <ele>875</ele>
        <time>2019-05-17T07:59:03Z</time>
      </trkpt>
      <trkpt lat="47.8038" lon="6.84108">
        <ele>874</ele>
        <time>2019-05-17T07:59:04Z</time>
      </trkpt>
      <trkpt lat="47.8037" lon="6.84102">
        <ele>873.2</ele>
        <time>2019-05-17T07:59:05Z</time>
      </trkpt>
      <trkpt lat="47.8036" lon="6.84096">
        <ele>872.4</ele>
        <time>2019-05-17T07:59:06Z</time>
      </trkpt>
      <trkpt lat="47.8035" lon="6.8409">
        <ele>871.6</ele>
        <time>2019-05-17T07:59:07Z</time>
      </trkpt>
      <trkpt lat="47.80339" lon="6.84085">
        <ele>870.8</ele>
        <time>2019-05-17T07:59:08Z</time>
      </trkpt>
      <trkpt lat="47.80328" lon="6.84081">
        <ele>870</ele>
        <time>2019-05-17T07:59:09Z</time>
      </trkpt>
      <trkpt lat="47.80316" lon="6.84079">
        <ele>869.2</ele>
        <time>2019-05-17T07:59:10Z</time>
      </trkpt>
      <trkpt lat="47.80305" lon="6.84076">
        <ele>868.4</ele>
        <time>2019-05-17T07:59:11Z</time>
      </trkpt>
      <trkpt lat="47.80294" lon="6.84073">
        <ele>867.6</ele>
        <time>2019-05-17T07:59:12Z</time>
      </trkpt>
      <trkpt lat="47.80282" lon="6.84067">
        <ele>866.8</ele>
        <time>2019-05-17T07:59:13Z</time>
      </trkpt>
      <trkpt lat="47.80272" lon="6.8406">
        <ele>866</ele>
        <time>2019-05-17T07:59:14Z</time>
      </trkpt>
      <trkpt lat="47.80261" lon="6.84052">
        <ele>864.4</ele>
        <time>2019-05-17T07:59:15Z</time>
      </trkpt>
      <trkpt lat="47.80251" lon="6.84043">
        <ele>863.4</ele>
        <time>2019-05-17T07:59:16Z</time>
      </trkpt>
      <trkpt lat="47.8024" lon="6.84034">
        <ele>862.4</ele>
        <time>2019-05-17T07:59:17Z</time>
      </trkpt>
      <trkpt lat="47.80229" lon="6.84026">
        <ele>861.4</ele>
        <time>2019-05-17T07:59:18Z</time>
      </trkpt>
      <trkpt lat="47.80217" lon="6.84021">
        <ele>860.6</ele>
        <time>2019-05-17T07:59:19Z</time>
      </trkpt>
      <trkpt lat="47.80206" lon="6.84017">
        <ele>859.6</ele>
        <time>2019-05-17T07:59:20Z</time>
      </trkpt>
      <trkpt lat="47.80194" lon="6.84015">
        <ele>858.8</ele>
        <time>2019-05-17T07:59:21Z</time>
      </trkpt>
      <trkpt lat="47.80181" lon="6.84012">
        <ele>858</ele>
        <time>2019-05-17T07:59:22Z</time>
      </trkpt>
      <trkpt lat="47.8017" lon="6.84011">
        <ele>857</ele>
        <time>2019-05-17T07:59:23Z</time>
      </trkpt>
      <trkpt lat="47.80157" lon="6.8401">
        <ele>856.2</ele>
        <time>2019-05-17T07:59:24Z</time>
      </trkpt>
      <trkpt lat="47.80145" lon="6.8401">
        <ele>855.2</ele>
        <time>2019-05-17T07:59:25Z</time>
      </trkpt>
      <trkpt lat="47.80132" lon="6.8401">
        <ele>854.6</ele>
        <time>2019-05-17T07:59:26Z</time>
      </trkpt>
      <trkpt lat="47.8012" lon="6.84008">
        <ele>854</ele>
        <time>2019-05-17T07:59:27Z</time>
      </trkpt>
      <trkpt lat="47.80108" lon="6.84006">
        <ele>853</ele>
        <time>2019-05-17T07:59:28Z</time>
      </trkpt>
      <trkpt lat="47.80096" lon="6.84005">
        <ele>852.2</ele>
        <time>2019-05-17T07:59:29Z</time>
      </trkpt>
      <trkpt lat="47.80084" lon="6.84005">
        <ele>851</ele>
        <time>2019-05-17T07:59:30Z</time>
      </trkpt>
      <trkpt lat="47.80072" lon="6.84008">
        <ele>850</ele>
        <time>2019-05-17T07:59:31Z</time>
      </trkpt>
      <trkpt lat="47.8006" lon="6.84014">
        <ele>849</ele>
        <time>2019-05-17T07:59:32Z</time>
      </trkpt>
      <trkpt lat="47.8005" lon="6.84022">
        <ele>848</ele>
        <time>2019-05-17T07:59:33Z</time>
      </trkpt>
      <trkpt lat="47.8004" lon="6.84032">
        <ele>847.4</ele>
        <time>2019-05-17T07:59:34Z</time>
      </trkpt>
      <trkpt lat="47.80031" lon="6.84041">
        <ele>846.6</ele>
        <time>2019-05-17T07:59:35Z</time>
      </trkpt>
      <trkpt lat="47.8002" lon="6.84044">
        <ele>845.8</ele>
        <time>2019-05-17T07:59:36Z</time>
      </trkpt>
      <trkpt lat="47.80009" lon="6.84044">
        <ele>844.8</ele>
        <time>2019-05-17T07:59:37Z</time>
      </trkpt>
      <trkpt lat="47.79998" lon="6.84045">
        <ele>844</ele>
        <time>2019-05-17T07:59:38Z</time>
      </trkpt>
      <trkpt lat="47.79988" lon="6.84052">
        <ele>843</ele>
        <time>2019-05-17T07:59:39Z</time>
      </trkpt>
      <trkpt lat="47.79979" lon="6.84059">
        <ele>842.2</ele>
        <time>2019-05-17T07:59:40Z</time>
      </trkpt>
      <trkpt lat="47.79971" lon="6.84074">
        <ele>842.2</ele>
        <time>2019-05-17T07:59:41Z</time>
      </trkpt>
      <trkpt lat="47.7997" lon="6.84089">
        <ele>842.2</ele>
        <time>2019-05-17T07:59:42Z</time>
      </trkpt>
      <trkpt lat="47.79962" lon="6.84113">
        <ele>842.2</ele>
        <time>2019-05-17T07:59:44Z</time>
      </trkpt>
      <trkpt lat="47.79956" lon="6.84119">
        <ele>842.2</ele>
        <time>2019-05-17T07:59:45Z</time>
      </trkpt>
      <trkpt lat="47.79945" lon="6.84126">
        <ele>841.6</ele>
        <time>2019-05-17T07:59:47Z</time>
      </trkpt>
      <trkpt lat="47.79941" lon="6.84126">
        <ele>841.2</ele>
        <time>2019-05-17T07:59:48Z</time>
      </trkpt>
      <trkpt lat="47.79937" lon="6.84124">
        <ele>840.2</ele>
        <time>2019-05-17T07:59:49Z</time>
      </trkpt>
      <trkpt lat="47.79932" lon="6.84121">
        <ele>839.4</ele>
        <time>2019-05-17T07:59:50Z</time>
      </trkpt>
      <trkpt lat="47.79927" lon="6.84115">
        <ele>838.6</ele>
        <time>2019-05-17T07:59:51Z</time>
      </trkpt>
      <trkpt lat="47.79922" lon="6.84104">
        <ele>837.8</ele>
        <time>2019-05-17T07:59:52Z</time>
      </trkpt>
      <trkpt lat="47.79915" lon="6.84086">
        <ele>837</ele>
        <time>2019-05-17T07:59:53Z</time>
      </trkpt>
      <trkpt lat="47.79906" lon="6.84066">
        <ele>836.2</ele>
        <time>2019-05-17T07:59:54Z</time>
      </trkpt>
      <trkpt lat="47.79896" lon="6.84053">
        <ele>835.4</ele>
        <time>2019-05-17T07:59:55Z</time>
      </trkpt>
      <trkpt lat="47.79887" lon="6.84043">
        <ele>834.4</ele>
        <time>2019-05-17T07:59:56Z</time>
      </trkpt>
      <trkpt lat="47.79876" lon="6.84035">
        <ele>833.2</ele>
        <time>2019-05-17T07:59:57Z</time>
      </trkpt>
      <trkpt lat="47.79865" lon="6.84028">
        <ele>832.2</ele>
        <time>2019-05-17T07:59:58Z</time>
      </trkpt>
      <trkpt lat="47.79854" lon="6.84025">
        <ele>831</ele>
        <time>2019-05-17T07:59:59Z</time>
      </trkpt>
      <trkpt lat="47.79842" lon="6.84021">
        <ele>830</ele>
        <time>2019-05-17T08:00:00Z</time>
      </trkpt>
      <trkpt lat="47.79832" lon="6.84019">
        <ele>828.8</ele>
        <time>2019-05-17T08:00:01Z</time>
      </trkpt>
      <trkpt lat="47.79813" lon="6.84">
        <ele>828.8</ele>
        <time>2019-05-17T08:00:03Z</time>
      </trkpt>
      <trkpt lat="47.79809" lon="6.83983">
        <ele>828.4</ele>
        <time>2019-05-17T08:00:04Z</time>
      </trkpt>
      <trkpt lat="47.79804" lon="6.83967">
        <ele>827.6</ele>
        <time>2019-05-17T08:00:05Z</time>
      </trkpt>
      <trkpt lat="47.79796" lon="6.83955">
        <ele>826.8</ele>
        <time>2019-05-17T08:00:06Z</time>
      </trkpt>
      <trkpt lat="47.79786" lon="6.83947">
        <ele>826</ele>
        <time>2019-05-17T08:00:07Z</time>
      </trkpt>
      <trkpt lat="47.79775" lon="6.83941">
        <ele>825.2</ele>
        <time>2019-05-17T08:00:08Z</time>
      </trkpt>
      <trkpt lat="47.79765" lon="6.83939">
        <ele>824.2</ele>
        <time>2019-05-17T08:00:09Z</time>
      </trkpt>
      <trkpt lat="47.79753" lon="6.83938">
        <ele>823.2</ele>
        <time>2019-05-17T08:00:10Z</time>
      </trkpt>
      <trkpt lat="47.79742" lon="6.83942">
        <ele>822.2</ele>
        <time>2019-05-17T08:00:11Z</time>
      </trkpt>
      <trkpt lat="47.79732" lon="6.83945">
        <ele>821.4</ele>
        <time>2019-05-17T08:00:12Z</time>
      </trkpt>
      <trkpt lat="47.79724" lon="6.83944">
        <ele>820.4</ele>
        <time>2019-05-17T08:00:13Z</time>
      </trkpt>
      <trkpt lat="47.79714" lon="6.83942">
        <ele>819.4</ele>
        <time>2019-05-17T08:00:14Z</time>
      </trkpt>
      <trkpt lat="47.79707" lon="6.83941">
        <ele>818.4</ele>
        <time>2019-05-17T08:00:15Z</time>
      </trkpt>
      <trkpt lat="47.79701" lon="6.83937">
        <ele>818.4</ele>
        <time>2019-05-17T08:00:16Z</time>
      </trkpt>
      <trkpt lat="47.79688" lon="6.83935">
        <ele>818.4</ele>
        <time>2019-05-17T08:00:18Z</time>
      </trkpt>
      <trkpt lat="47.79678" lon="6.83935">
        <ele>818.4</ele>
        <time>2019-05-17T08:00:21Z</time>
      </trkpt>
      <trkpt lat="47.79681" lon="6.83937">
        <ele>818</ele>
        <time>2019-05-17T08:00:22Z</time>
      </trkpt>
      <trkpt lat="47.79689" lon="6.8394">
        <ele>817.6</ele>
        <time>2019-05-17T08:00:23Z</time>
      </trkpt>
      <trkpt lat="47.79696" lon="6.83943">
        <ele>817.2</ele>
        <time>2019-05-17T08:00:24Z</time>
      </trkpt>
      <trkpt lat="47.79709" lon="6.83943">
        <ele>816.6</ele>
        <time>2019-05-17T08:00:25Z</time>
      </trkpt>
      <trkpt lat="47.79726" lon="6.83943">
        <ele>816</ele>
        <time>2019-05-17T08:00:26Z</time>
      </trkpt>
      <trkpt lat="47.79736" lon="6.83944">
        <ele>815.2</ele>
        <time>2019-05-17T08:00:27Z</time>
      </trkpt>
      <trkpt lat="47.79749" lon="6.83948">
        <ele>814.4</ele>
        <time>2019-05-17T08:00:28Z</time>
      </trkpt>
      <trkpt lat="47.79762" lon="6.83958">
        <ele>813.6</ele>
        <time>2019-05-17T08:00:29Z</time>
      </trkpt>
      <trkpt lat="47.79774" lon="6.83964">
        <ele>812</ele>
        <time>2019-05-17T08:00:30Z</time>
      </trkpt>
      <trkpt lat="47.79784" lon="6.83969">
        <ele>811.2</ele>
        <time>2019-05-17T08:00:31Z</time>
      </trkpt>
      <trkpt lat="47.79801" lon="6.83964">
        <ele>810.4</ele>
        <time>2019-05-17T08:00:32Z</time>
      </trkpt>
      <trkpt lat="47.79813" lon="6.83961">
        <ele>809.6</ele>
        <time>2019-05-17T08:00:33Z</time>
      </trkpt>
      <trkpt lat="47.79824" lon="6.83957">
        <ele>809</ele>
        <time>2019-05-17T08:00:34Z</time>
      </trkpt>
      <trkpt lat="47.79834" lon="6.83954">
        <ele>808.4</ele>
        <time>2019-05-17T08:00:35Z</time>
      </trkpt>
      <trkpt lat="47.79844" lon="6.83953">
        <ele>807.8</ele>
        <time>2019-05-17T08:00:36Z</time>
      </trkpt>
      <trkpt lat="47.79861" lon="6.83959">
        <ele>807</ele>
        <time>2019-05-17T08:00:37Z</time>
      </trkpt>
      <trkpt lat="47.79879" lon="6.83965">
        <ele>806.2</ele>
        <time>2019-05-17T08:00:38Z</time>
      </trkpt>
      <trkpt lat="47.79892" lon="6.83967">
        <ele>805.4</ele>
        <time>2019-05-17T08:00:39Z</time>
      </trkpt>
      <trkpt lat="47.79903" lon="6.83967">
        <ele>804.6</ele>
        <time>2019-05-17T08:00:40Z</time>
      </trkpt>
      <trkpt lat="47.79914" lon="6.83968">
        <ele>803.6</ele>
        <time>2019-05-17T08:00:41Z</time>
      </trkpt>
      <trkpt lat="47.79927" lon="6.83966">
        <ele>802.8</ele>
        <time>2019-05-17T08:00:42Z</time>
      </trkpt>
      <trkpt lat="47.7994" lon="6.83962">
        <ele>802</ele>
        <time>2019-05-17T08:00:43Z</time>
      </trkpt>
      <trkpt lat="47.79952" lon="6.83949">
        <ele>801</ele>
        <time>2019-05-17T08:00:44Z</time>
      </trkpt>
      <trkpt lat="47.79964" lon="6.83934">
        <ele>800</ele>
        <time>2019-05-17T08:00:45Z</time>
      </trkpt>
      <trkpt lat="47.79978" lon="6.83919">
        <ele>798.8</ele>
        <time>2019-05-17T08:00:46Z</time>
      </trkpt>
      <trkpt lat="47.79989" lon="6.83906">
        <ele>797.8</ele>
        <time>2019-05-17T08:00:47Z</time>
      </trkpt>
      <trkpt lat="47.80001" lon="6.83896">
        <ele>796.8</ele>
        <time>2019-05-17T08:00:48Z</time>
      </trkpt>
      <trkpt lat="47.80013" lon="6.83891">
        <ele>795.8</ele>
        <time>2019-05-17T08:00:49Z</time>
      </trkpt>
      <trkpt lat="47.80027" lon="6.83887">
        <ele>794.8</ele>
        <time>2019-05-17T08:00:50Z</time>
      </trkpt>
      <trkpt lat="47.8004" lon="6.8388">
        <ele>793.8</ele>
        <time>2019-05-17T08:00:51Z</time>
      </trkpt>
      <trkpt lat="47.80051" lon="6.83874">
        <ele>792.8</ele>
        <time>2019-05-17T08:00:52Z</time>
      </trkpt>
      <trkpt lat="47.80063" lon="6.8387">
        <ele>791.8</ele>
        <time>2019-05-17T08:00:53Z</time>
      </trkpt>
      <trkpt lat="47.80074" lon="6.83865">
        <ele>790.8</ele>
        <time>2019-05-17T08:00:54Z</time>
      </trkpt>
      <trkpt lat="47.80087" lon="6.8386">
        <ele>789.8</ele>
        <time>2019-05-17T08:00:55Z</time>
      </trkpt>
      <trkpt lat="47.80098" lon="6.83856">
        <ele>789.4</ele>
        <time>2019-05-17T08:00:56Z</time>
      </trkpt>
      <trkpt lat="47.80109" lon="6.83852">
        <ele>788.8</ele>
        <time>2019-05-17T08:00:57Z</time>
      </trkpt>
      <trkpt lat="47.8012" lon="6.83848">
        <ele>788.4</ele>
        <time>2019-05-17T08:00:58Z</time>
      </trkpt>
      <trkpt lat="47.80131" lon="6.83842">
        <ele>787.8</ele>
        <time>2019-05-17T08:00:59Z</time>
      </trkpt>
      <trkpt lat="47.80142" lon="6.83839">
        <ele>787.2</ele>
        <time>2019-05-17T08:01:00Z</time>
      </trkpt>
      <trkpt lat="47.80154" lon="6.83835">
        <ele>786.8</ele>
        <time>2019-05-17T08:01:01Z</time>
      </trkpt>
      <trkpt lat="47.80165" lon="6.83826">
        <ele>786.2</ele>
        <time>2019-05-17T08:01:02Z</time>
      </trkpt>
      <trkpt lat="47.80173" lon="6.83812">
        <ele>785.8</ele>
        <time>2019-05-17T08:01:03Z</time>
      </trkpt>
      <trkpt lat="47.80177" lon="6.83796">
        <ele>785.4</ele>
        <time>2019-05-17T08:01:04Z</time>
      </trkpt>
      <trkpt lat="47.80178" lon="6.83781">
        <ele>785</ele>
        <time>2019-05-17T08:01:05Z</time>
      </trkpt>
      <trkpt lat="47.80176" lon="6.83768">
        <ele>784.6</ele>
        <time>2019-05-17T08:01:06Z</time>
      </trkpt>
      <trkpt lat="47.80175" lon="6.83753">
        <ele>784.2</ele>
        <time>2019-05-17T08:01:07Z</time>
      </trkpt>
      <trkpt lat="47.80169" lon="6.83739">
        <ele>784.2</ele>
        <time>2019-05-17T08:01:08Z</time>
      </trkpt>
      <trkpt lat="47.80162" lon="6.83726">
        <ele>783.8</ele>
        <time>2019-05-17T08:01:09Z</time>
      </trkpt>
      <trkpt lat="47.80157" lon="6.83712">
        <ele>783.4</ele>
        <time>2019-05-17T08:01:10Z</time>
      </trkpt>
      <trkpt lat="47.80154" lon="6.83696">
        <ele>783</ele>
        <time>2019-05-17T08:01:11Z</time>
      </trkpt>
      <trkpt lat="47.80152" lon="6.83681">
        <ele>782.6</ele>
        <time>2019-05-17T08:01:12Z</time>
      </trkpt>
      <trkpt lat="47.80149" lon="6.83665">
        <ele>782</ele>
        <time>2019-05-17T08:01:13Z</time>
      </trkpt>
      <trkpt lat="47.80145" lon="6.8365">
        <ele>781.6</ele>
        <time>2019-05-17T08:01:14Z</time>
      </trkpt>
      <trkpt lat="47.80142" lon="6.83634">
        <ele>780.8</ele>
        <time>2019-05-17T08:01:15Z</time>
      </trkpt>
      <trkpt lat="47.80138" lon="6.8362">
        <ele>780.2</ele>
        <time>2019-05-17T08:01:16Z</time>
      </trkpt>
      <trkpt lat="47.80135" lon="6.83605">
        <ele>779.2</ele>
        <time>2019-05-17T08:01:17Z</time>
      </trkpt>
      <trkpt lat="47.80133" lon="6.83588">
        <ele>778.2</ele>
        <time>2019-05-17T08:01:18Z</time>
      </trkpt>
      <trkpt lat="47.8013" lon="6.83572">
        <ele>776.2</ele>
        <time>2019-05-17T08:01:19Z</time>
      </trkpt>
      <trkpt lat="47.80126" lon="6.83556">
        <ele>775.2</ele>
        <time>2019-05-17T08:01:20Z</time>
      </trkpt>
      <trkpt lat="47.80122" lon="6.8354">
        <ele>774.2</ele>
        <time>2019-05-17T08:01:21Z</time>
      </trkpt>
      <trkpt lat="47.8012" lon="6.83523">
        <ele>773.4</ele>
        <time>2019-05-17T08:01:22Z</time>
      </trkpt>
      <trkpt lat="47.80117" lon="6.83506">
        <ele>772.4</ele>
        <time>2019-05-17T08:01:23Z</time>
      </trkpt>
      <trkpt lat="47.80116" lon="6.83489">
        <ele>771.6</ele>
        <time>2019-05-17T08:01:24Z</time>
      </trkpt>
      <trkpt lat="47.80116" lon="6.83472">
        <ele>770.8</ele>
        <time>2019-05-17T08:01:25Z</time>
      </trkpt>
      <trkpt lat="47.8012" lon="6.83456">
        <ele>770</ele>
        <time>2019-05-17T08:01:26Z</time>
      </trkpt>
      <trkpt lat="47.80125" lon="6.83442">
        <ele>769.2</ele>
        <time>2019-05-17T08:01:27Z</time>
      </trkpt>
      <trkpt lat="47.80132" lon="6.83429">
        <ele>768.6</ele>
        <time>2019-05-17T08:01:28Z</time>
      </trkpt>
      <trkpt lat="47.80137" lon="6.83419">
        <ele>767.8</ele>
        <time>2019-05-17T08:01:29Z</time>
      </trkpt>
      <trkpt lat="47.80139" lon="6.83407">
        <ele>767</ele>
        <time>2019-05-17T08:01:30Z</time>
      </trkpt>
      <trkpt lat="47.80137" lon="6.83393">
        <ele>766.4</ele>
        <time>2019-05-17T08:01:31Z</time>
      </trkpt>
      <trkpt lat="47.80134" lon="6.83381">
        <ele>766.4</ele>
        <time>2019-05-17T08:01:32Z</time>
      </trkpt>
      <trkpt lat="47.80122" lon="6.83357">
        <ele>765.8</ele>
        <time>2019-05-17T08:01:35Z</time>
      </trkpt>
      <trkpt lat="47.80114" lon="6.83352">
        <ele>765.4</ele>
        <time>2019-05-17T08:01:36Z</time>
      </trkpt>
      <trkpt lat="47.80103" lon="6.83349">
        <ele>765</ele>
        <time>2019-05-17T08:01:37Z</time>
      </trkpt>
      <trkpt lat="47.80093" lon="6.83353">
        <ele>764.2</ele>
        <time>2019-05-17T08:01:38Z</time>
      </trkpt>
      <trkpt lat="47.80084" lon="6.8336">
        <ele>763.6</ele>
        <time>2019-05-17T08:01:39Z</time>
      </trkpt>
      <trkpt lat="47.80076" lon="6.83378">
        <ele>763</ele>
        <time>2019-05-17T08:01:40Z</time>
      </trkpt>
      <trkpt lat="47.80068" lon="6.8339">
        <ele>762.2</ele>
        <time>2019-05-17T08:01:41Z</time>
      </trkpt>
      <trkpt lat="47.80061" lon="6.83407">
        <ele>761.4</ele>
        <time>2019-05-17T08:01:42Z</time>
      </trkpt>
      <trkpt lat="47.80055" lon="6.83429">
        <ele>760.6</ele>
        <time>2019-05-17T08:01:43Z</time>
      </trkpt>
      <trkpt lat="47.80048" lon="6.83445">
        <ele>758.8</ele>
        <time>2019-05-17T08:01:44Z</time>
      </trkpt>
      <trkpt lat="47.80045" lon="6.83464">
        <ele>758</ele>
        <time>2019-05-17T08:01:45Z</time>
      </trkpt>
      <trkpt lat="47.80043" lon="6.83484">
        <ele>757.2</ele>
        <time>2019-05-17T08:01:46Z</time>
      </trkpt>
      <trkpt lat="47.80042" lon="6.83501">
        <ele>756.6</ele>
        <time>2019-05-17T08:01:47Z</time>
      </trkpt>
      <trkpt lat="47.80042" lon="6.83519">
        <ele>756</ele>
        <time>2019-05-17T08:01:48Z</time>
      </trkpt>
      <trkpt lat="47.80043" lon="6.83536">
        <ele>755.4</ele>
        <time>2019-05-17T08:01:49Z</time>
      </trkpt>
      <trkpt lat="47.80044" lon="6.83553">
        <ele>754.8</ele>
        <time>2019-05-17T08:01:50Z</time>
      </trkpt>
      <trkpt lat="47.80047" lon="6.83569">
        <ele>754.2</ele>
        <time>2019-05-17T08:01:51Z</time>
      </trkpt>
      <trkpt lat="47.80051" lon="6.83583">
        <ele>753.6</ele>
        <time>2019-05-17T08:01:52Z</time>
      </trkpt>
      <trkpt lat="47.80053" lon="6.836">
        <ele>753.2</ele>
        <time>2019-05-17T08:01:53Z</time>
      </trkpt>
      <trkpt lat="47.80051" lon="6.83618">
        <ele>752.6</ele>
        <time>2019-05-17T08:01:54Z</time>
      </trkpt>
      <trkpt lat="47.80048" lon="6.83634">
        <ele>751.8</ele>
        <time>2019-05-17T08:01:55Z</time>
      </trkpt>
      <trkpt lat="47.80042" lon="6.8365">
        <ele>751</ele>
        <time>2019-05-17T08:01:56Z</time>
      </trkpt>
      <trkpt lat="47.80032" lon="6.83662">
        <ele>750</ele>
        <time>2019-05-17T08:01:57Z</time>
      </trkpt>
      <trkpt lat="47.8002" lon="6.83669">
        <ele>749</ele>
        <time>2019-05-17T08:01:58Z</time>
      </trkpt>
      <trkpt lat="47.8001" lon="6.83669">
        <ele>748</ele>
        <time>2019-05-17T08:01:59Z</time>
      </trkpt>
      <trkpt lat="47.79998" lon="6.83671">
        <ele>747</ele>
        <time>2019-05-17T08:02:00Z</time>
      </trkpt>
      <trkpt lat="47.79989" lon="6.8368">
        <ele>746</ele>
        <time>2019-05-17T08:02:01Z</time>
      </trkpt>
      <trkpt lat="47.7998" lon="6.83694">
        <ele>745</ele>
        <time>2019-05-17T08:02:02Z</time>
      </trkpt>
      <trkpt lat="47.79971" lon="6.83704">
        <ele>744</ele>
        <time>2019-05-17T08:02:03Z</time>
      </trkpt>
      <trkpt lat="47.79959" lon="6.83707">
        <ele>743.2</ele>
        <time>2019-05-17T08:02:04Z</time>
      </trkpt>
      <trkpt lat="47.79946" lon="6.83708">
        <ele>742.2</ele>
        <time>2019-05-17T08:02:05Z</time>
      </trkpt>
      <trkpt lat="47.79934" lon="6.83708">
        <ele>741.2</ele>
        <time>2019-05-17T08:02:06Z</time>
      </trkpt>
      <trkpt lat="47.79922" lon="6.83707">
        <ele>740.4</ele>
        <time>2019-05-17T08:02:07Z</time>
      </trkpt>
      <trkpt lat="47.79911" lon="6.83705">
        <ele>739.6</ele>
        <time>2019-05-17T08:02:08Z</time>
      </trkpt>
      <trkpt lat="47.79899" lon="6.83703">
        <ele>737.8</ele>
        <time>2019-05-17T08:02:09Z</time>
      </trkpt>
      <trkpt lat="47.79887" lon="6.83699">
        <ele>736.8</ele>
        <time>2019-05-17T08:02:10Z</time>
      </trkpt>
      <trkpt lat="47.79875" lon="6.83694">
        <ele>735.8</ele>
        <time>2019-05-17T08:02:11Z</time>
      </trkpt>
      <trkpt lat="47.79864" lon="6.83686">
        <ele>734.8</ele>
        <time>2019-05-17T08:02:12Z</time>
      </trkpt>
      <trkpt lat="47.79853" lon="6.83678">
        <ele>733.8</ele>
        <time>2019-05-17T08:02:13Z</time>
      </trkpt>
      <trkpt lat="47.7984" lon="6.83678">
        <ele>733</ele>
        <time>2019-05-17T08:02:14Z</time>
      </trkpt>
      <trkpt lat="47.79829" lon="6.83675">
        <ele>732.2</ele>
        <time>2019-05-17T08:02:15Z</time>
      </trkpt>
      <trkpt lat="47.79817" lon="6.83674">
        <ele>731.4</ele>
        <time>2019-05-17T08:02:16Z</time>
      </trkpt>
      <trkpt lat="47.79805" lon="6.83673">
        <ele>730.6</ele>
        <time>2019-05-17T08:02:17Z</time>
      </trkpt>
      <trkpt lat="47.79793" lon="6.83674">
        <ele>729.6</ele>
        <time>2019-05-17T08:02:18Z</time>
      </trkpt>
      <trkpt lat="47.79782" lon="6.83675">
        <ele>728.8</ele>
        <time>2019-05-17T08:02:19Z</time>
      </trkpt>
      <trkpt lat="47.7977" lon="6.83675">
        <ele>728</ele>
        <time>2019-05-17T08:02:20Z</time>
      </trkpt>
      <trkpt lat="47.7976" lon="6.83675">
        <ele>727</ele>
        <time>2019-05-17T08:02:21Z</time>
      </trkpt>
      <trkpt lat="47.7975" lon="6.83677">
        <ele>726.2</ele>
        <time>2019-05-17T08:02:22Z</time>
      </trkpt>
      <trkpt lat="47.79741" lon="6.83678">
        <ele>725.4</ele>
        <time>2019-05-17T08:02:23Z</time>
      </trkpt>
      <trkpt lat="47.79733" lon="6.83675">
        <ele>724.4</ele>
        <time>2019-05-17T08:02:24Z</time>
      </trkpt>
      <trkpt lat="47.79727" lon="6.83667">
        <ele>724.4</ele>
        <time>2019-05-17T08:02:25Z</time>
      </trkpt>
      <trkpt lat="47.79719" lon="6.83648">
        <ele>724.4</ele>
        <time>2019-05-17T08:02:28Z</time>
      </trkpt>
      <trkpt lat="47.79716" lon="6.83642">
        <ele>724.4</ele>
        <time>2019-05-17T08:02:29Z</time>
      </trkpt>
      <trkpt lat="47.79716" lon="6.83641">
        <ele>724</ele>
        <time>2019-05-17T08:02:31Z</time>
      </trkpt>
      <trkpt lat="47.79719" lon="6.83641">
        <ele>723.6</ele>
        <time>2019-05-17T08:02:32Z</time>
      </trkpt>
      <trkpt lat="47.79721" lon="6.83642">
        <ele>722.8</ele>
        <time>2019-05-17T08:02:33Z</time>
      </trkpt>
      <trkpt lat="47.7973" lon="6.83644">
        <ele>721.2</ele>
        <time>2019-05-17T08:02:34Z</time>
      </trkpt>
      <trkpt lat="47.79736" lon="6.83647">
        <ele>720.4</ele>
        <time>2019-05-17T08:02:35Z</time>
      </trkpt>
      <trkpt lat="47.79742" lon="6.83649">
        <ele>719.4</ele>
        <time>2019-05-17T08:02:36Z</time>
      </trkpt>
      <trkpt lat="47.7975" lon="6.83651">
        <ele>718.4</ele>
        <time>2019-05-17T08:02:37Z</time>
      </trkpt>
      <trkpt lat="47.79758" lon="6.83654">
        <ele>717.4</ele>
        <time>2019-05-17T08:02:38Z</time>
      </trkpt>
      <trkpt lat="47.79766" lon="6.83657">
        <ele>716.4</ele>
        <time>2019-05-17T08:02:39Z</time>
      </trkpt>
      <trkpt lat="47.79774" lon="6.83657">
        <ele>715.4</ele>
        <time>2019-05-17T08:02:40Z</time>
      </trkpt>
      <trkpt lat="47.79783" lon="6.83657">
        <ele>714.4</ele>
        <time>2019-05-17T08:02:41Z</time>
      </trkpt>
      <trkpt lat="47.79792" lon="6.83655">
        <ele>713.4</ele>
        <time>2019-05-17T08:02:42Z</time>
      </trkpt>
      <trkpt lat="47.79847" lon="6.83612">
        <ele>712.6</ele>
        <time>2019-05-17T08:02:43Z</time>
      </trkpt>
      <trkpt lat="47.79901" lon="6.8357">
        <ele>711.6</ele>
        <time>2019-05-17T08:02:44Z</time>
      </trkpt>
      <trkpt lat="47.79905" lon="6.83554">
        <ele>711</ele>
        <time>2019-05-17T08:02:45Z</time>
      </trkpt>
      <trkpt lat="47.79903" lon="6.83538">
        <ele>710.4</ele>
        <time>2019-05-17T08:02:46Z</time>
      </trkpt>
      <trkpt lat="47.79902" lon="6.83522">
        <ele>709.8</ele>
        <time>2019-05-17T08:02:47Z</time>
      </trkpt>
      <trkpt lat="47.79902" lon="6.83505">
        <ele>709</ele>
        <time>2019-05-17T08:02:48Z</time>
      </trkpt>
      <trkpt lat="47.79903" lon="6.83488">
        <ele>708.6</ele>
        <time>2019-05-17T08:02:49Z</time>
      </trkpt>
      <trkpt lat="47.79906" lon="6.83473">
        <ele>708</ele>
        <time>2019-05-17T08:02:50Z</time>
      </trkpt>
      <trkpt lat="47.79909" lon="6.83458">
        <ele>707.4</ele>
        <time>2019-05-17T08:02:51Z</time>
      </trkpt>
      <trkpt lat="47.79912" lon="6.83443">
        <ele>706.8</ele>
        <time>2019-05-17T08:02:52Z</time>
      </trkpt>
      <trkpt lat="47.79915" lon="6.83428">
        <ele>706.2</ele>
        <time>2019-05-17T08:02:53Z</time>
      </trkpt>
      <trkpt lat="47.79919" lon="6.83413">
        <ele>705.8</ele>
        <time>2019-05-17T08:02:54Z</time>
      </trkpt>
      <trkpt lat="47.79924" lon="6.83398">
        <ele>705.2</ele>
        <time>2019-05-17T08:02:55Z</time>
      </trkpt>
      <trkpt lat="47.7993" lon="6.83384">
        <ele>704.8</ele>
        <time>2019-05-17T08:02:56Z</time>
      </trkpt>
      <trkpt lat="47.79937" lon="6.83372">
        <ele>704</ele>
        <time>2019-05-17T08:02:57Z</time>
      </trkpt>
      <trkpt lat="47.79947" lon="6.83362">
        <ele>702.6</ele>
        <time>2019-05-17T08:02:58Z</time>
      </trkpt>
      <trkpt lat="47.79955" lon="6.83353">
        <ele>702</ele>
        <time>2019-05-17T08:02:59Z</time>
      </trkpt>
      <trkpt lat="47.79964" lon="6.83343">
        <ele>701.2</ele>
        <time>2019-05-17T08:03:00Z</time>
      </trkpt>
      <trkpt lat="47.79973" lon="6.83335">
        <ele>700.8</ele>
        <time>2019-05-17T08:03:01Z</time>
      </trkpt>
      <trkpt lat="47.79982" lon="6.83326">
        <ele>700.4</ele>
        <time>2019-05-17T08:03:02Z</time>
      </trkpt>
      <trkpt lat="47.79991" lon="6.83318">
        <ele>700</ele>
        <time>2019-05-17T08:03:03Z</time>
      </trkpt>
      <trkpt lat="47.79999" lon="6.83311">
        <ele>699.6</ele>
        <time>2019-05-17T08:03:04Z</time>
      </trkpt>
      <trkpt lat="47.80007" lon="6.83299">
        <ele>699</ele>
        <time>2019-05-17T08:03:05Z</time>
      </trkpt>
      <trkpt lat="47.80012" lon="6.83285">
        <ele>698.6</ele>
        <time>2019-05-17T08:03:06Z</time>
      </trkpt>
      <trkpt lat="47.80014" lon="6.83269">
        <ele>698.2</ele>
        <time>2019-05-17T08:03:07Z</time>
      </trkpt>
      <trkpt lat="47.80014" lon="6.83253">
        <ele>697.8</ele>
        <time>2019-05-17T08:03:08Z</time>
      </trkpt>
      <trkpt lat="47.8001" lon="6.83237">
        <ele>697.2</ele>
        <time>2019-05-17T08:03:09Z</time>
      </trkpt>
      <trkpt lat="47.80003" lon="6.83223">
        <ele>696.6</ele>
        <time>2019-05-17T08:03:10Z</time>
      </trkpt>
      <trkpt lat="47.79995" lon="6.83212">
        <ele>695.8</ele>
        <time>2019-05-17T08:03:11Z</time>
      </trkpt>
      <trkpt lat="47.79988" lon="6.83201">
        <ele>695.2</ele>
        <time>2019-05-17T08:03:12Z</time>
      </trkpt>
      <trkpt lat="47.7998" lon="6.83191">
        <ele>694.4</ele>
        <time>2019-05-17T08:03:13Z</time>
      </trkpt>
      <trkpt lat="47.79971" lon="6.83184">
        <ele>693.8</ele>
        <time>2019-05-17T08:03:14Z</time>
      </trkpt>
      <trkpt lat="47.79962" lon="6.83178">
        <ele>693</ele>
        <time>2019-05-17T08:03:15Z</time>
      </trkpt>
      <trkpt lat="47.79954" lon="6.83173">
        <ele>692.4</ele>
        <time>2019-05-17T08:03:16Z</time>
      </trkpt>
      <trkpt lat="47.79926" lon="6.83169">
        <ele>692.4</ele>
        <time>2019-05-17T08:03:19Z</time>
      </trkpt>
      <trkpt lat="47.79903" lon="6.8319">
        <ele>692.4</ele>
        <time>2019-05-17T08:03:22Z</time>
      </trkpt>
      <trkpt lat="47.79897" lon="6.83202">
        <ele>691.2</ele>
        <time>2019-05-17T08:03:23Z</time>
      </trkpt>
      <trkpt lat="47.79893" lon="6.83214">
        <ele>690.6</ele>
        <time>2019-05-17T08:03:24Z</time>
      </trkpt>
      <trkpt lat="47.79884" lon="6.83224">
        <ele>689.8</ele>
        <time>2019-05-17T08:03:25Z</time>
      </trkpt>
      <trkpt lat="47.79876" lon="6.83236">
        <ele>689</ele>
        <time>2019-05-17T08:03:26Z</time>
      </trkpt>
      <trkpt lat="47.79865" lon="6.83236">
        <ele>688.2</ele>
        <time>2019-05-17T08:03:27Z</time>
      </trkpt>
      <trkpt lat="47.79855" lon="6.83235">
        <ele>687.2</ele>
        <time>2019-05-17T08:03:28Z</time>
      </trkpt>
      <trkpt lat="47.79844" lon="6.8323">
        <ele>686.6</ele>
        <time>2019-05-17T08:03:29Z</time>
      </trkpt>
      <trkpt lat="47.79833" lon="6.83226">
        <ele>686</ele>
        <time>2019-05-17T08:03:30Z</time>
      </trkpt>
      <trkpt lat="47.79822" lon="6.83223">
        <ele>685.4</ele>
        <time>2019-05-17T08:03:31Z</time>
      </trkpt>
      <trkpt lat="47.79812" lon="6.8322">
        <ele>684.8</ele>
        <time>2019-05-17T08:03:32Z</time>
      </trkpt>
      <trkpt lat="47.79801" lon="6.83217">
        <ele>684</ele>
        <time>2019-05-17T08:03:33Z</time>
      </trkpt>
      <trkpt lat="47.7979" lon="6.83214">
        <ele>683.2</ele>
        <time>2019-05-17T08:03:34Z</time>
      </trkpt>
      <trkpt lat="47.79779" lon="6.83211">
        <ele>682.4</ele>
        <time>2019-05-17T08:03:35Z</time>
      </trkpt>
      <trkpt lat="47.79767" lon="6.83207">
        <ele>681.8</ele>
        <time>2019-05-17T08:03:36Z</time>
      </trkpt>
      <trkpt lat="47.79757" lon="6.83202">
        <ele>681.2</ele>
        <time>2019-05-17T08:03:37Z</time>
      </trkpt>
      <trkpt lat="47.79746" lon="6.83196">
        <ele>680.6</ele>
        <time>2019-05-17T08:03:38Z</time>
      </trkpt>
      <trkpt lat="47.79736" lon="6.8319">
        <ele>679.8</ele>
        <time>2019-05-17T08:03:39Z</time>
      </trkpt>
      <trkpt lat="47.79725" lon="6.83189">
        <ele>679.2</ele>
        <time>2019-05-17T08:03:40Z</time>
      </trkpt>
      <trkpt lat="47.79714" lon="6.83192">
        <ele>678.4</ele>
        <time>2019-05-17T08:03:41Z</time>
      </trkpt>
      <trkpt lat="47.79703" lon="6.83192">
        <ele>677.6</ele>
        <time>2019-05-17T08:03:42Z</time>
      </trkpt>
      <trkpt lat="47.79692" lon="6.8319">
        <ele>676.8</ele>
        <time>2019-05-17T08:03:43Z</time>
      </trkpt>
      <trkpt lat="47.79681" lon="6.83187">
        <ele>676.2</ele>
        <time>2019-05-17T08:03:44Z</time>
      </trkpt>
      <trkpt lat="47.79671" lon="6.8318">
        <ele>675.4</ele>
        <time>2019-05-17T08:03:45Z</time>
      </trkpt>
      <trkpt lat="47.7966" lon="6.83175">
        <ele>674.6</ele>
        <time>2019-05-17T08:03:46Z</time>
      </trkpt>
      <trkpt lat="47.7965" lon="6.83168">
        <ele>674.2</ele>
        <time>2019-05-17T08:03:47Z</time>
      </trkpt>
      <trkpt lat="47.79639" lon="6.83164">
        <ele>673.4</ele>
        <time>2019-05-17T08:03:48Z</time>
      </trkpt>
      <trkpt lat="47.79628" lon="6.83159">
        <ele>672.8</ele>
        <time>2019-05-17T08:03:49Z</time>
      </trkpt>
      <trkpt lat="47.79618" lon="6.83152">
        <ele>672.2</ele>
        <time>2019-05-17T08:03:50Z</time>
      </trkpt>
      <trkpt lat="47.79607" lon="6.83145">
        <ele>671.6</ele>
        <time>2019-05-17T08:03:51Z</time>
      </trkpt>
      <trkpt lat="47.79597" lon="6.83137">
        <ele>670.6</ele>
        <time>2019-05-17T08:03:52Z</time>
      </trkpt>
      <trkpt lat="47.79587" lon="6.83129">
        <ele>669.8</ele>
        <time>2019-05-17T08:03:53Z</time>
      </trkpt>
      <trkpt lat="47.79577" lon="6.8312">
        <ele>669</ele>
        <time>2019-05-17T08:03:54Z</time>
      </trkpt>
      <trkpt lat="47.79567" lon="6.83113">
        <ele>668.4</ele>
        <time>2019-05-17T08:03:55Z</time>
      </trkpt>
      <trkpt lat="47.79555" lon="6.83112">
        <ele>667.6</ele>
        <time>2019-05-17T08:03:56Z</time>
      </trkpt>
      <trkpt lat="47.79543" lon="6.83112">
        <ele>666.8</ele>
        <time>2019-05-17T08:03:57Z</time>
      </trkpt>
      <trkpt lat="47.79531" lon="6.83117">
        <ele>666</ele>
        <time>2019-05-17T08:03:58Z</time>
      </trkpt>
      <trkpt lat="47.79518" lon="6.83121">
        <ele>665.2</ele>
        <time>2019-05-17T08:03:59Z</time>
      </trkpt>
      <trkpt lat="47.79507" lon="6.83124">
        <ele>664.2</ele>
        <time>2019-05-17T08:04:00Z</time>
      </trkpt>
      <trkpt lat="47.79495" lon="6.83127">
        <ele>663.4</ele>
        <time>2019-05-17T08:04:01Z</time>
      </trkpt>
      <trkpt lat="47.79484" lon="6.8313">
        <ele>662.4</ele>
        <time>2019-05-17T08:04:02Z</time>
      </trkpt>
      <trkpt lat="47.79473" lon="6.83133">
        <ele>661.4</ele>
        <time>2019-05-17T08:04:03Z</time>
      </trkpt>
      <trkpt lat="47.79461" lon="6.83131">
        <ele>660.6</ele>
        <time>2019-05-17T08:04:04Z</time>
      </trkpt>
      <trkpt lat="47.7945" lon="6.83124">
        <ele>660</ele>
        <time>2019-05-17T08:04:05Z</time>
      </trkpt>
      <trkpt lat="47.79439" lon="6.83116">
        <ele>659.2</ele>
        <time>2019-05-17T08:04:06Z</time>
      </trkpt>
      <trkpt lat="47.79429" lon="6.83107">
        <ele>658.6</ele>
        <time>2019-05-17T08:04:07Z</time>
      </trkpt>
      <trkpt lat="47.79419" lon="6.83096">
        <ele>657.8</ele>
        <time>2019-05-17T08:04:08Z</time>
      </trkpt>
      <trkpt lat="47.79409" lon="6.83088">
        <ele>657</ele>
        <time>2019-05-17T08:04:09Z</time>
      </trkpt>
      <trkpt lat="47.79398" lon="6.83081">
        <ele>656.2</ele>
        <time>2019-05-17T08:04:10Z</time>
      </trkpt>
      <trkpt lat="47.79386" lon="6.83078">
        <ele>655.6</ele>
        <time>2019-05-17T08:04:11Z</time>
      </trkpt>
      <trkpt lat="47.79374" lon="6.83075">
        <ele>655</ele>
        <time>2019-05-17T08:04:12Z</time>
      </trkpt>
      <trkpt lat="47.79362" lon="6.83071">
        <ele>653.6</ele>
        <time>2019-05-17T08:04:13Z</time>
      </trkpt>
      <trkpt lat="47.7935" lon="6.83069">
        <ele>652.8</ele>
        <time>2019-05-17T08:04:14Z</time>
      </trkpt>
      <trkpt lat="47.79338" lon="6.83067">
        <ele>652</ele>
        <time>2019-05-17T08:04:15Z</time>
      </trkpt>
      <trkpt lat="47.79326" lon="6.83065">
        <ele>651.4</ele>
        <time>2019-05-17T08:04:16Z</time>
      </trkpt>
      <trkpt lat="47.79315" lon="6.83059">
        <ele>650.8</ele>
        <time>2019-05-17T08:04:17Z</time>
      </trkpt>
      <trkpt lat="47.79304" lon="6.83051">
        <ele>650.2</ele>
        <time>2019-05-17T08:04:18Z</time>
      </trkpt>
      <trkpt lat="47.79295" lon="6.83037">
        <ele>649.6</ele>
        <time>2019-05-17T08:04:19Z</time>
      </trkpt>
      <trkpt lat="47.79286" lon="6.83023">
        <ele>648.8</ele>
        <time>2019-05-17T08:04:20Z</time>
      </trkpt>
      <trkpt lat="47.79277" lon="6.83007">
        <ele>648</ele>
        <time>2019-05-17T08:04:21Z</time>
      </trkpt>
      <trkpt lat="47.79268" lon="6.82993">
        <ele>647.2</ele>
        <time>2019-05-17T08:04:22Z</time>
      </trkpt>
      <trkpt lat="47.79259" lon="6.82979">
        <ele>646.4</ele>
        <time>2019-05-17T08:04:23Z</time>
      </trkpt>
      <trkpt lat="47.79251" lon="6.82966">
        <ele>645.6</ele>
        <time>2019-05-17T08:04:24Z</time>
      </trkpt>
      <trkpt lat="47.79242" lon="6.82953">
        <ele>645</ele>
        <time>2019-05-17T08:04:25Z</time>
      </trkpt>
      <trkpt lat="47.79235" lon="6.8294">
        <ele>644.2</ele>
        <time>2019-05-17T08:04:26Z</time>
      </trkpt>
      <trkpt lat="47.79227" lon="6.82927">
        <ele>643.6</ele>
        <time>2019-05-17T08:04:27Z</time>
      </trkpt>
      <trkpt lat="47.79219" lon="6.82914">
        <ele>643</ele>
        <time>2019-05-17T08:04:28Z</time>
      </trkpt>
      <trkpt lat="47.7921" lon="6.82903">
        <ele>642.4</ele>
        <time>2019-05-17T08:04:29Z</time>
      </trkpt>
      <trkpt lat="47.792" lon="6.82895">
        <ele>641.8</ele>
        <time>2019-05-17T08:04:30Z</time>
      </trkpt>
      <trkpt lat="47.79189" lon="6.82893">
        <ele>641.2</ele>
        <time>2019-05-17T08:04:31Z</time>
      </trkpt>
      <trkpt lat="47.79178" lon="6.82896">
        <ele>641.2</ele>
        <time>2019-05-17T08:04:32Z</time>
      </trkpt>
      <trkpt lat="47.79161" lon="6.82912">
        <ele>641.2</ele>
        <time>2019-05-17T08:04:34Z</time>
      </trkpt>
      <trkpt lat="47.79153" lon="6.82921">
        <ele>641.2</ele>
        <time>2019-05-17T08:04:35Z</time>
      </trkpt>
      <trkpt lat="47.79143" lon="6.82928">
        <ele>640.4</ele>
        <time>2019-05-17T08:04:36Z</time>
      </trkpt>
      <trkpt lat="47.79132" lon="6.82935">
        <ele>640</ele>
        <time>2019-05-17T08:04:37Z</time>
      </trkpt>
      <trkpt lat="47.79122" lon="6.82942">
        <ele>639.4</ele>
        <time>2019-05-17T08:04:38Z</time>
      </trkpt>
      <trkpt lat="47.79112" lon="6.82949">
        <ele>638.6</ele>
        <time>2019-05-17T08:04:39Z</time>
      </trkpt>
      <trkpt lat="47.79102" lon="6.82955">
        <ele>637.8</ele>
        <time>2019-05-17T08:04:40Z</time>
      </trkpt>
      <trkpt lat="47.79092" lon="6.82962">
        <ele>637</ele>
        <time>2019-05-17T08:04:41Z</time>
      </trkpt>
      <trkpt lat="47.79083" lon="6.82969">
        <ele>636.2</ele>
        <time>2019-05-17T08:04:42Z</time>
      </trkpt>
      <trkpt lat="47.79071" lon="6.8297">
        <ele>635.4</ele>
        <time>2019-05-17T08:04:43Z</time>
      </trkpt>
      <trkpt lat="47.7906" lon="6.82971">
        <ele>634.6</ele>
        <time>2019-05-17T08:04:44Z</time>
      </trkpt>
      <trkpt lat="47.79049" lon="6.82965">
        <ele>634</ele>
        <time>2019-05-17T08:04:45Z</time>
      </trkpt>
      <trkpt lat="47.7904" lon="6.82958">
        <ele>633.2</ele>
        <time>2019-05-17T08:04:46Z</time>
      </trkpt>
      <trkpt lat="47.79029" lon="6.82952">
        <ele>632.4</ele>
        <time>2019-05-17T08:04:47Z</time>
      </trkpt>
      <trkpt lat="47.79019" lon="6.82949">
        <ele>632</ele>
        <time>2019-05-17T08:04:48Z</time>
      </trkpt>
      <trkpt lat="47.79008" lon="6.82949">
        <ele>631.6</ele>
        <time>2019-05-17T08:04:49Z</time>
      </trkpt>
      <trkpt lat="47.78997" lon="6.82949">
        <ele>631.2</ele>
        <time>2019-05-17T08:04:50Z</time>
      </trkpt>
      <trkpt lat="47.78986" lon="6.8295">
        <ele>630.8</ele>
        <time>2019-05-17T08:04:51Z</time>
      </trkpt>
      <trkpt lat="47.78975" lon="6.82952">
        <ele>630.2</ele>
        <time>2019-05-17T08:04:52Z</time>
      </trkpt>
      <trkpt lat="47.78964" lon="6.82955">
        <ele>629.8</ele>
        <time>2019-05-17T08:04:53Z</time>
      </trkpt>
      <trkpt lat="47.78954" lon="6.82958">
        <ele>629.2</ele>
        <time>2019-05-17T08:04:54Z</time>
      </trkpt>
      <trkpt lat="47.78943" lon="6.82962">
        <ele>628.4</ele>
        <time>2019-05-17T08:04:55Z</time>
      </trkpt>
      <trkpt lat="47.78932" lon="6.82966">
        <ele>627.6</ele>
        <time>2019-05-17T08:04:56Z</time>
      </trkpt>
      <trkpt lat="47.78921" lon="6.8297">
        <ele>626.8</ele>
        <time>2019-05-17T08:04:57Z</time>
      </trkpt>
      <trkpt lat="47.78911" lon="6.82974">
        <ele>626</ele>
        <time>2019-05-17T08:04:58Z</time>
      </trkpt>
      <trkpt lat="47.789" lon="6.82979">
        <ele>625.4</ele>
        <time>2019-05-17T08:04:59Z</time>
      </trkpt>
      <trkpt lat="47.78889" lon="6.82985">
        <ele>624.6</ele>
        <time>2019-05-17T08:05:00Z</time>
      </trkpt>
      <trkpt lat="47.78879" lon="6.82991">
        <ele>624</ele>
        <time>2019-05-17T08:05:01Z</time>
      </trkpt>
      <trkpt lat="47.78868" lon="6.82997">
        <ele>622.6</ele>
        <time>2019-05-17T08:05:02Z</time>
      </trkpt>
      <trkpt lat="47.78858" lon="6.83004">
        <ele>622</ele>
        <time>2019-05-17T08:05:03Z</time>
      </trkpt>
      <trkpt lat="47.78848" lon="6.8301">
        <ele>621.4</ele>
        <time>2019-05-17T08:05:04Z</time>
      </trkpt>
      <trkpt lat="47.78838" lon="6.83017">
        <ele>620.8</ele>
        <time>2019-05-17T08:05:05Z</time>
      </trkpt>
      <trkpt lat="47.78828" lon="6.83024">
        <ele>620</ele>
        <time>2019-05-17T08:05:06Z</time>
      </trkpt>
      <trkpt lat="47.78817" lon="6.8303">
        <ele>619.4</ele>
        <time>2019-05-17T08:05:07Z</time>
      </trkpt>
      <trkpt lat="47.78807" lon="6.83037">
        <ele>618.8</ele>
        <time>2019-05-17T08:05:08Z</time>
      </trkpt>
      <trkpt lat="47.78797" lon="6.83045">
        <ele>618</ele>
        <time>2019-05-17T08:05:09Z</time>
      </trkpt>
      <trkpt lat="47.78786" lon="6.83053">
        <ele>617.4</ele>
        <time>2019-05-17T08:05:10Z</time>
      </trkpt>
      <trkpt lat="47.78776" lon="6.83061">
        <ele>616.8</ele>
        <time>2019-05-17T08:05:11Z</time>
      </trkpt>
      <trkpt lat="47.78766" lon="6.83069">
        <ele>616.2</ele>
        <time>2019-05-17T08:05:12Z</time>
      </trkpt>
      <trkpt lat="47.78756" lon="6.83078">
        <ele>615.6</ele>
        <time>2019-05-17T08:05:13Z</time>
      </trkpt>
      <trkpt lat="47.78746" lon="6.83086">
        <ele>614.8</ele>
        <time>2019-05-17T08:05:14Z</time>
      </trkpt>
      <trkpt lat="47.78736" lon="6.83096">
        <ele>614.2</ele>
        <time>2019-05-17T08:05:15Z</time>
      </trkpt>
      <trkpt lat="47.78727" lon="6.83106">
        <ele>613.4</ele>
        <time>2019-05-17T08:05:16Z</time>
      </trkpt>
      <trkpt lat="47.78717" lon="6.83115">
        <ele>612.8</ele>
        <time>2019-05-17T08:05:17Z</time>
      </trkpt>
      <trkpt lat="47.78707" lon="6.83124">
        <ele>612.2</ele>
        <time>2019-05-17T08:05:18Z</time>
      </trkpt>
      <trkpt lat="47.78697" lon="6.83133">
        <ele>611.8</ele>
        <time>2019-05-17T08:05:19Z</time>
      </trkpt>
      <trkpt lat="47.78688" lon="6.83143">
        <ele>611</ele>
        <time>2019-05-17T08:05:20Z</time>
      </trkpt>
      <trkpt lat="47.78678" lon="6.83152">
        <ele>610.2</ele>
        <time>2019-05-17T08:05:21Z</time>
      </trkpt>
      <trkpt lat="47.78668" lon="6.83162">
        <ele>609.4</ele>
        <time>2019-05-17T08:05:22Z</time>
      </trkpt>
      <trkpt lat="47.78658" lon="6.83171">
        <ele>608.8</ele>
        <time>2019-05-17T08:05:23Z</time>
      </trkpt>
      <trkpt lat="47.78648" lon="6.8318">
        <ele>608</ele>
        <time>2019-05-17T08:05:24Z</time>
      </trkpt>
      <trkpt lat="47.78629" lon="6.83199">
        <ele>607.6</ele>
        <time>2019-05-17T08:05:26Z</time>
      </trkpt>
      <trkpt lat="47.7862" lon="6.83209">
        <ele>606.6</ele>
        <time>2019-05-17T08:05:27Z</time>
      </trkpt>
      <trkpt lat="47.78611" lon="6.8322">
        <ele>606.2</ele>
        <time>2019-05-17T08:05:28Z</time>
      </trkpt>
      <trkpt lat="47.78601" lon="6.83231">
        <ele>605.6</ele>
        <time>2019-05-17T08:05:29Z</time>
      </trkpt>
      <trkpt lat="47.78593" lon="6.83243">
        <ele>605</ele>
        <time>2019-05-17T08:05:30Z</time>
      </trkpt>
      <trkpt lat="47.78585" lon="6.83256">
        <ele>604.2</ele>
        <time>2019-05-17T08:05:31Z</time>
      </trkpt>
      <trkpt lat="47.78576" lon="6.83269">
        <ele>603.2</ele>
        <time>2019-05-17T08:05:32Z</time>
      </trkpt>
      <trkpt lat="47.78568" lon="6.83281">
        <ele>602.4</ele>
        <time>2019-05-17T08:05:33Z</time>
      </trkpt>
      <trkpt lat="47.7856" lon="6.83294">
        <ele>601.4</ele>
        <time>2019-05-17T08:05:34Z</time>
      </trkpt>
      <trkpt lat="47.78552" lon="6.83306">
        <ele>600.6</ele>
        <time>2019-05-17T08:05:35Z</time>
      </trkpt>
      <trkpt lat="47.78544" lon="6.83319">
        <ele>599.6</ele>
        <time>2019-05-17T08:05:36Z</time>
      </trkpt>
      <trkpt lat="47.78537" lon="6.83331">
        <ele>598.8</ele>
        <time>2019-05-17T08:05:37Z</time>
      </trkpt>
      <trkpt lat="47.7853" lon="6.83343">
        <ele>597.8</ele>
        <time>2019-05-17T08:05:38Z</time>
      </trkpt>
      <trkpt lat="47.78523" lon="6.83354">
        <ele>596.8</ele>
        <time>2019-05-17T08:05:39Z</time>
      </trkpt>
      <trkpt lat="47.78516" lon="6.83366">
        <ele>595.6</ele>
        <time>2019-05-17T08:05:40Z</time>
      </trkpt>
      <trkpt lat="47.78509" lon="6.83377">
        <ele>594.6</ele>
        <time>2019-05-17T08:05:41Z</time>
      </trkpt>
      <trkpt lat="47.78499" lon="6.83389">
        <ele>593.6</ele>
        <time>2019-05-17T08:05:42Z</time>
      </trkpt>
      <trkpt lat="47.78488" lon="6.83398">
        <ele>593</ele>
        <time>2019-05-17T08:05:43Z</time>
      </trkpt>
      <trkpt lat="47.78476" lon="6.83405">
        <ele>592.2</ele>
        <time>2019-05-17T08:05:44Z</time>
      </trkpt>
      <trkpt lat="47.78465" lon="6.83409">
        <ele>591.4</ele>
        <time>2019-05-17T08:05:45Z</time>
      </trkpt>
      <trkpt lat="47.78452" lon="6.83409">
        <ele>590.4</ele>
        <time>2019-05-17T08:05:46Z</time>
      </trkpt>
      <trkpt lat="47.7844" lon="6.83409">
        <ele>589.4</ele>
        <time>2019-05-17T08:05:47Z</time>
      </trkpt>
      <trkpt lat="47.78429" lon="6.83411">
        <ele>588.6</ele>
        <time>2019-05-17T08:05:48Z</time>
      </trkpt>
      <trkpt lat="47.78417" lon="6.83412">
        <ele>588</ele>
        <time>2019-05-17T08:05:49Z</time>
      </trkpt>
      <trkpt lat="47.78406" lon="6.83414">
        <ele>587.4</ele>
        <time>2019-05-17T08:05:50Z</time>
      </trkpt>
      <trkpt lat="47.78394" lon="6.83415">
        <ele>586.8</ele>
        <time>2019-05-17T08:05:51Z</time>
      </trkpt>
      <trkpt lat="47.78383" lon="6.83416">
        <ele>585.6</ele>
        <time>2019-05-17T08:05:52Z</time>
      </trkpt>
      <trkpt lat="47.78372" lon="6.83417">
        <ele>585.2</ele>
        <time>2019-05-17T08:05:53Z</time>
      </trkpt>
      <trkpt lat="47.78361" lon="6.83418">
        <ele>584.6</ele>
        <time>2019-05-17T08:05:54Z</time>
      </trkpt>
      <trkpt lat="47.7835" lon="6.83419">
        <ele>584</ele>
        <time>2019-05-17T08:05:55Z</time>
      </trkpt>
      <trkpt lat="47.78339" lon="6.8342">
        <ele>583.4</ele>
        <time>2019-05-17T08:05:56Z</time>
      </trkpt>
      <trkpt lat="47.78317" lon="6.8342">
        <ele>583.4</ele>
        <time>2019-05-17T08:05:58Z</time>
      </trkpt>
      <trkpt lat="47.78307" lon="6.83417">
        <ele>583</ele>
        <time>2019-05-17T08:05:59Z</time>
      </trkpt>
      <trkpt lat="47.78297" lon="6.83412">
        <ele>582.6</ele>
        <time>2019-05-17T08:06:00Z</time>
      </trkpt>
      <trkpt lat="47.78288" lon="6.83406">
        <ele>582</ele>
        <time>2019-05-17T08:06:01Z</time>
      </trkpt>
      <trkpt lat="47.78279" lon="6.83399">
        <ele>581.6</ele>
        <time>2019-05-17T08:06:02Z</time>
      </trkpt>
      <trkpt lat="47.7827" lon="6.83393">
        <ele>581</ele>
        <time>2019-05-17T08:06:03Z</time>
      </trkpt>
      <trkpt lat="47.78234" lon="6.83366">
        <ele>580.6</ele>
        <time>2019-05-17T08:06:07Z</time>
      </trkpt>
      <trkpt lat="47.78225" lon="6.83359">
        <ele>580</ele>
        <time>2019-05-17T08:06:08Z</time>
      </trkpt>
      <trkpt lat="47.78216" lon="6.83351">
        <ele>579.6</ele>
        <time>2019-05-17T08:06:09Z</time>
      </trkpt>
      <trkpt lat="47.78207" lon="6.83342">
        <ele>578.8</ele>
        <time>2019-05-17T08:06:10Z</time>
      </trkpt>
      <trkpt lat="47.78197" lon="6.83333">
        <ele>578</ele>
        <time>2019-05-17T08:06:11Z</time>
      </trkpt>
      <trkpt lat="47.78188" lon="6.83325">
        <ele>577.4</ele>
        <time>2019-05-17T08:06:12Z</time>
      </trkpt>
      <trkpt lat="47.78177" lon="6.8332">
        <ele>576.6</ele>
        <time>2019-05-17T08:06:13Z</time>
      </trkpt>
      <trkpt lat="47.78166" lon="6.83318">
        <ele>576</ele>
        <time>2019-05-17T08:06:14Z</time>
      </trkpt>
      <trkpt lat="47.78154" lon="6.83318">
        <ele>575.4</ele>
        <time>2019-05-17T08:06:15Z</time>
      </trkpt>
      <trkpt lat="47.78143" lon="6.83322">
        <ele>574</ele>
        <time>2019-05-17T08:06:16Z</time>
      </trkpt>
      <trkpt lat="47.78132" lon="6.83329">
        <ele>573</ele>
        <time>2019-05-17T08:06:17Z</time>
      </trkpt>
      <trkpt lat="47.78121" lon="6.83336">
        <ele>572.2</ele>
        <time>2019-05-17T08:06:18Z</time>
      </trkpt>
      <trkpt lat="47.78111" lon="6.83343">
        <ele>571.6</ele>
        <time>2019-05-17T08:06:19Z</time>
      </trkpt>
      <trkpt lat="47.78101" lon="6.8335">
        <ele>570.8</ele>
        <time>2019-05-17T08:06:20Z</time>
      </trkpt>
      <trkpt lat="47.7809" lon="6.83356">
        <ele>570</ele>
        <time>2019-05-17T08:06:21Z</time>
      </trkpt>
      <trkpt lat="47.78079" lon="6.83363">
        <ele>569.2</ele>
        <time>2019-05-17T08:06:22Z</time>
      </trkpt>
      <trkpt lat="47.78068" lon="6.83368">
        <ele>568.6</ele>
        <time>2019-05-17T08:06:23Z</time>
      </trkpt>
      <trkpt lat="47.78058" lon="6.83373">
        <ele>567.8</ele>
        <time>2019-05-17T08:06:24Z</time>
      </trkpt>
      <trkpt lat="47.78047" lon="6.83378">
        <ele>567</ele>
        <time>2019-05-17T08:06:25Z</time>
      </trkpt>
      <trkpt lat="47.78036" lon="6.83383">
        <ele>566</ele>
        <time>2019-05-17T08:06:26Z</time>
      </trkpt>
      <trkpt lat="47.78025" lon="6.83387">
        <ele>565.2</ele>
        <time>2019-05-17T08:06:27Z</time>
      </trkpt>
      <trkpt lat="47.78014" lon="6.83391">
        <ele>564.4</ele>
        <time>2019-05-17T08:06:28Z</time>
      </trkpt>
      <trkpt lat="47.78003" lon="6.83393">
        <ele>563.6</ele>
        <time>2019-05-17T08:06:29Z</time>
      </trkpt>
      <trkpt lat="47.77971" lon="6.8339">
        <ele>563.2</ele>
        <time>2019-05-17T08:06:32Z</time>
      </trkpt>
      <trkpt lat="47.77961" lon="6.8339">
        <ele>562.8</ele>
        <time>2019-05-17T08:06:33Z</time>
      </trkpt>
      <trkpt lat="47.7795" lon="6.83391">
        <ele>562.4</ele>
        <time>2019-05-17T08:06:34Z</time>
      </trkpt>
      <trkpt lat="47.7794" lon="6.83392">
        <ele>561.8</ele>
        <time>2019-05-17T08:06:35Z</time>
      </trkpt>
      <trkpt lat="47.7793" lon="6.83396">
        <ele>561.4</ele>
        <time>2019-05-17T08:06:36Z</time>
      </trkpt>
      <trkpt lat="47.7792" lon="6.83399">
        <ele>560.8</ele>
        <time>2019-05-17T08:06:37Z</time>
      </trkpt>
      <trkpt lat="47.77911" lon="6.83403">
        <ele>560.4</ele>
        <time>2019-05-17T08:06:38Z</time>
      </trkpt>
      <trkpt lat="47.77902" lon="6.83407">
        <ele>559.8</ele>
        <time>2019-05-17T08:06:39Z</time>
      </trkpt>
      <trkpt lat="47.77893" lon="6.83411">
        <ele>559.4</ele>
        <time>2019-05-17T08:06:40Z</time>
      </trkpt>
      <trkpt lat="47.77885" lon="6.83415">
        <ele>559.4</ele>
        <time>2019-05-17T08:06:41Z</time>
      </trkpt>
      <trkpt lat="47.77862" lon="6.83429">
        <ele>559.4</ele>
        <time>2019-05-17T08:06:44Z</time>
      </trkpt>
      <trkpt lat="47.77855" lon="6.83436">
        <ele>559.4</ele>
        <time>2019-05-17T08:06:45Z</time>
      </trkpt>
      <trkpt lat="47.7784" lon="6.83461">
        <ele>559.4</ele>
        <time>2019-05-17T08:06:48Z</time>
      </trkpt>
      <trkpt lat="47.77836" lon="6.83472">
        <ele>559.4</ele>
        <time>2019-05-17T08:06:49Z</time>
      </trkpt>
      <trkpt lat="47.7783" lon="6.83496">
        <ele>559.8</ele>
        <time>2019-05-17T08:06:51Z</time>
      </trkpt>
      <trkpt lat="47.77828" lon="6.83508">
        <ele>560.2</ele>
        <time>2019-05-17T08:06:52Z</time>
      </trkpt>
      <trkpt lat="47.77826" lon="6.8352">
        <ele>560.6</ele>
        <time>2019-05-17T08:06:53Z</time>
      </trkpt>
      <trkpt lat="47.77824" lon="6.83531">
        <ele>561</ele>
        <time>2019-05-17T08:06:54Z</time>
      </trkpt>
      <trkpt lat="47.77823" lon="6.83543">
        <ele>561.4</ele>
        <time>2019-05-17T08:06:55Z</time>
      </trkpt>
      <trkpt lat="47.77819" lon="6.83564">
        <ele>561.4</ele>
        <time>2019-05-17T08:06:57Z</time>
      </trkpt>
      <trkpt lat="47.77816" lon="6.83574">
        <ele>561.4</ele>
        <time>2019-05-17T08:06:58Z</time>
      </trkpt>
      <trkpt lat="47.77806" lon="6.83595">
        <ele>561.4</ele>
        <time>2019-05-17T08:07:00Z</time>
      </trkpt>
      <trkpt lat="47.77798" lon="6.83605">
        <ele>561.4</ele>
        <time>2019-05-17T08:07:01Z</time>
      </trkpt>
      <trkpt lat="47.77788" lon="6.83616">
        <ele>561</ele>
        <time>2019-05-17T08:07:02Z</time>
      </trkpt>
      <trkpt lat="47.77778" lon="6.83628">
        <ele>560.6</ele>
        <time>2019-05-17T08:07:03Z</time>
      </trkpt>
      <trkpt lat="47.77767" lon="6.83619">
        <ele>560.2</ele>
        <time>2019-05-17T08:07:04Z</time>
      </trkpt>
      <trkpt lat="47.77757" lon="6.83624">
        <ele>559.4</ele>
        <time>2019-05-17T08:07:05Z</time>
      </trkpt>
      <trkpt lat="47.77746" lon="6.83606">
        <ele>558.6</ele>
        <time>2019-05-17T08:07:06Z</time>
      </trkpt>
      <trkpt lat="47.77735" lon="6.83588">
        <ele>556.8</ele>
        <time>2019-05-17T08:07:07Z</time>
      </trkpt>
      <trkpt lat="47.77724" lon="6.83567">
        <ele>555.8</ele>
        <time>2019-05-17T08:07:08Z</time>
      </trkpt>
      <trkpt lat="47.77713" lon="6.83553">
        <ele>554.8</ele>
        <time>2019-05-17T08:07:09Z</time>
      </trkpt>
      <trkpt lat="47.77704" lon="6.83534">
        <ele>553.8</ele>
        <time>2019-05-17T08:07:10Z</time>
      </trkpt>
      <trkpt lat="47.77695" lon="6.83518">
        <ele>552.8</ele>
        <time>2019-05-17T08:07:11Z</time>
      </trkpt>
      <trkpt lat="47.77687" lon="6.83502">
        <ele>551.8</ele>
        <time>2019-05-17T08:07:12Z</time>
      </trkpt>
      <trkpt lat="47.77679" lon="6.83488">
        <ele>551</ele>
        <time>2019-05-17T08:07:13Z</time>
      </trkpt>
      <trkpt lat="47.77671" lon="6.83475">
        <ele>550</ele>
        <time>2019-05-17T08:07:14Z</time>
      </trkpt>
      <trkpt lat="47.77663" lon="6.83463">
        <ele>549</ele>
        <time>2019-05-17T08:07:15Z</time>
      </trkpt>
      <trkpt lat="47.77654" lon="6.83451">
        <ele>548.2</ele>
        <time>2019-05-17T08:07:16Z</time>
      </trkpt>
      <trkpt lat="47.77645" lon="6.83438">
        <ele>547.4</ele>
        <time>2019-05-17T08:07:17Z</time>
      </trkpt>
      <trkpt lat="47.77637" lon="6.83426">
        <ele>546.6</ele>
        <time>2019-05-17T08:07:18Z</time>
      </trkpt>
      <trkpt lat="47.77628" lon="6.83415">
        <ele>545.8</ele>
        <time>2019-05-17T08:07:19Z</time>
      </trkpt>
      <trkpt lat="47.77619" lon="6.83404">
        <ele>545</ele>
        <time>2019-05-17T08:07:20Z</time>
      </trkpt>
      <trkpt lat="47.77611" lon="6.83392">
        <ele>544.4</ele>
        <time>2019-05-17T08:07:21Z</time>
      </trkpt>
      <trkpt lat="47.77602" lon="6.83382">
        <ele>543.8</ele>
        <time>2019-05-17T08:07:22Z</time>
      </trkpt>
      <trkpt lat="47.77592" lon="6.83371">
        <ele>543</ele>
        <time>2019-05-17T08:07:23Z</time>
      </trkpt>
      <trkpt lat="47.77584" lon="6.83361">
        <ele>542.4</ele>
        <time>2019-05-17T08:07:24Z</time>
      </trkpt>
      <trkpt lat="47.77575" lon="6.83351">
        <ele>541.8</ele>
        <time>2019-05-17T08:07:25Z</time>
      </trkpt>
      <trkpt lat="47.77558" lon="6.83331">
        <ele>541.4</ele>
        <time>2019-05-17T08:07:27Z</time>
      </trkpt>
      <trkpt lat="47.7755" lon="6.83322">
        <ele>540.8</ele>
        <time>2019-05-17T08:07:28Z</time>
      </trkpt>
      <trkpt lat="47.77542" lon="6.83312">
        <ele>540.4</ele>
        <time>2019-05-17T08:07:29Z</time>
      </trkpt>
      <trkpt lat="47.77535" lon="6.83302">
        <ele>540</ele>
        <time>2019-05-17T08:07:30Z</time>
      </trkpt>
      <trkpt lat="47.77527" lon="6.83291">
        <ele>539.6</ele>
        <time>2019-05-17T08:07:31Z</time>
      </trkpt>
      <trkpt lat="47.77521" lon="6.8328">
        <ele>539.2</ele>
        <time>2019-05-17T08:07:32Z</time>
      </trkpt>
      <trkpt lat="47.77515" lon="6.83269">
        <ele>538.8</ele>
        <time>2019-05-17T08:07:33Z</time>
      </trkpt>
      <trkpt lat="47.77509" lon="6.83257">
        <ele>538.4</ele>
        <time>2019-05-17T08:07:34Z</time>
      </trkpt>
      <trkpt lat="47.77504" lon="6.83245">
        <ele>538</ele>
        <time>2019-05-17T08:07:35Z</time>
      </trkpt>
      <trkpt lat="47.77499" lon="6.83233">
        <ele>537.6</ele>
        <time>2019-05-17T08:07:36Z</time>
      </trkpt>
      <trkpt lat="47.77481" lon="6.83183">
        <ele>537</ele>
        <time>2019-05-17T08:07:40Z</time>
      </trkpt>
      <trkpt lat="47.77476" lon="6.83172">
        <ele>536.6</ele>
        <time>2019-05-17T08:07:41Z</time>
      </trkpt>
      <trkpt lat="47.77471" lon="6.8316">
        <ele>536.2</ele>
        <time>2019-05-17T08:07:42Z</time>
      </trkpt>
      <trkpt lat="47.77467" lon="6.83148">
        <ele>535.6</ele>
        <time>2019-05-17T08:07:43Z</time>
      </trkpt>
      <trkpt lat="47.77463" lon="6.83137">
        <ele>535.2</ele>
        <time>2019-05-17T08:07:44Z</time>
      </trkpt>
      <trkpt lat="47.7745" lon="6.83102">
        <ele>535.2</ele>
        <time>2019-05-17T08:07:47Z</time>
      </trkpt>
      <trkpt lat="47.77427" lon="6.83048">
        <ele>534.6</ele>
        <time>2019-05-17T08:07:52Z</time>
      </trkpt>
      <trkpt lat="47.77422" lon="6.83037">
        <ele>534.2</ele>
        <time>2019-05-17T08:07:53Z</time>
      </trkpt>
      <trkpt lat="47.77417" lon="6.83027">
        <ele>533.6</ele>
        <time>2019-05-17T08:07:54Z</time>
      </trkpt>
      <trkpt lat="47.77412" lon="6.83017">
        <ele>533.2</ele>
        <time>2019-05-17T08:07:55Z</time>
      </trkpt>
      <trkpt lat="47.77407" lon="6.83007">
        <ele>532.6</ele>
        <time>2019-05-17T08:07:56Z</time>
      </trkpt>
      <trkpt lat="47.77392" lon="6.82977">
        <ele>532.6</ele>
        <time>2019-05-17T08:07:59Z</time>
      </trkpt>
      <trkpt lat="47.77361" lon="6.82937">
        <ele>532.6</ele>
        <time>2019-05-17T08:08:04Z</time>
      </trkpt>
      <trkpt lat="47.77325" lon="6.82911">
        <ele>532.6</ele>
        <time>2019-05-17T08:08:09Z</time>
      </trkpt>
      <trkpt lat="47.77287" lon="6.82901">
        <ele>532.6</ele>
        <time>2019-05-17T08:08:14Z</time>
      </trkpt>
      <trkpt lat="47.7728" lon="6.82901">
        <ele>532.6</ele>
        <time>2019-05-17T08:08:15Z</time>
      </trkpt>
      <trkpt lat="47.77248" lon="6.82903">
        <ele>532.6</ele>
        <time>2019-05-17T08:08:19Z</time>
      </trkpt>
      <trkpt lat="47.77232" lon="6.82904">
        <ele>532.2</ele>
        <time>2019-05-17T08:08:21Z</time>
      </trkpt>
      <trkpt lat="47.77224" lon="6.82904">
        <ele>531.8</ele>
        <time>2019-05-17T08:08:22Z</time>
      </trkpt>
      <trkpt lat="47.77217" lon="6.82904">
        <ele>531.4</ele>
        <time>2019-05-17T08:08:23Z</time>
      </trkpt>
      <trkpt lat="47.77209" lon="6.82903">
        <ele>531</ele>
        <time>2019-05-17T08:08:24Z</time>
      </trkpt>
      <trkpt lat="47.77201" lon="6.82901">
        <ele>530.6</ele>
        <time>2019-05-17T08:08:25Z</time>
      </trkpt>
      <trkpt lat="47.77194" lon="6.82899">
        <ele>530.6</ele>
        <time>2019-05-17T08:08:26Z</time>
      </trkpt>
      <trkpt lat="47.77172" lon="6.82888">
        <ele>530.6</ele>
        <time>2019-05-17T08:08:29Z</time>
      </trkpt>
      <trkpt lat="47.77131" lon="6.82862">
        <ele>530.6</ele>
        <time>2019-05-17T08:08:35Z</time>
      </trkpt>
      <trkpt lat="47.77125" lon="6.82859">
        <ele>530.6</ele>
        <time>2019-05-17T08:08:36Z</time>
      </trkpt>
      <trkpt lat="47.7709" lon="6.82843">
        <ele>530.6</ele>
        <time>2019-05-17T08:08:41Z</time>
      </trkpt>
      <trkpt lat="47.77082" lon="6.82841">
        <ele>530</ele>
        <time>2019-05-17T08:08:42Z</time>
      </trkpt>
      <trkpt lat="47.77074" lon="6.82838">
        <ele>529.6</ele>
        <time>2019-05-17T08:08:43Z</time>
      </trkpt>
      <trkpt lat="47.77066" lon="6.82836">
        <ele>529.2</ele>
        <time>2019-05-17T08:08:44Z</time>
      </trkpt>
      <trkpt lat="47.77058" lon="6.82833">
        <ele>528.6</ele>
        <time>2019-05-17T08:08:45Z</time>
      </trkpt>
      <trkpt lat="47.7705" lon="6.82831">
        <ele>527.4</ele>
        <time>2019-05-17T08:08:46Z</time>
      </trkpt>
      <trkpt lat="47.77042" lon="6.82828">
        <ele>526.8</ele>
        <time>2019-05-17T08:08:47Z</time>
      </trkpt>
      <trkpt lat="47.77034" lon="6.82826">
        <ele>526.4</ele>
        <time>2019-05-17T08:08:48Z</time>
      </trkpt>
      <trkpt lat="47.76979" lon="6.82809">
        <ele>526.4</ele>
        <time>2019-05-17T08:08:55Z</time>
      </trkpt>
      <trkpt lat="47.7697" lon="6.82806">
        <ele>526.4</ele>
        <time>2019-05-17T08:08:56Z</time>
      </trkpt>
      <trkpt lat="47.76962" lon="6.82803">
        <ele>525.8</ele>
        <time>2019-05-17T08:08:57Z</time>
      </trkpt>
      <trkpt lat="47.76954" lon="6.828">
        <ele>525.4</ele>
        <time>2019-05-17T08:08:58Z</time>
      </trkpt>
      <trkpt lat="47.76946" lon="6.82797">
        <ele>524.8</ele>
        <time>2019-05-17T08:08:59Z</time>
      </trkpt>
      <trkpt lat="47.76938" lon="6.82793">
        <ele>524.4</ele>
        <time>2019-05-17T08:09:00Z</time>
      </trkpt>
      <trkpt lat="47.7693" lon="6.82789">
        <ele>523.8</ele>
        <time>2019-05-17T08:09:01Z</time>
      </trkpt>
      <trkpt lat="47.76923" lon="6.82784">
        <ele>523.8</ele>
        <time>2019-05-17T08:09:02Z</time>
      </trkpt>
      <trkpt lat="47.76903" lon="6.82764">
        <ele>523.8</ele>
        <time>2019-05-17T08:09:05Z</time>
      </trkpt>
      <trkpt lat="47.76861" lon="6.82715">
        <ele>523.8</ele>
        <time>2019-05-17T08:09:12Z</time>
      </trkpt>
      <trkpt lat="47.76856" lon="6.82708">
        <ele>523.8</ele>
        <time>2019-05-17T08:09:13Z</time>
      </trkpt>
      <trkpt lat="47.76835" lon="6.82682">
        <ele>523.8</ele>
        <time>2019-05-17T08:09:17Z</time>
      </trkpt>
      <trkpt lat="47.7683" lon="6.82677">
        <ele>523.8</ele>
        <time>2019-05-17T08:09:18Z</time>
      </trkpt>
      <trkpt lat="47.76797" lon="6.8265">
        <ele>523.8</ele>
        <time>2019-05-17T08:09:24Z</time>
      </trkpt>
      <trkpt lat="47.76769" lon="6.82629">
        <ele>523.8</ele>
        <time>2019-05-17T08:09:29Z</time>
      </trkpt>
      <trkpt lat="47.76763" lon="6.82625">
        <ele>523.8</ele>
        <time>2019-05-17T08:09:30Z</time>
      </trkpt>
      <trkpt lat="47.76758" lon="6.82621">
        <ele>523.8</ele>
        <time>2019-05-17T08:09:31Z</time>
      </trkpt>
      <trkpt lat="47.76748" lon="6.82613">
        <ele>524.2</ele>
        <time>2019-05-17T08:09:33Z</time>
      </trkpt>
      <trkpt lat="47.76742" lon="6.8261">
        <ele>524.8</ele>
        <time>2019-05-17T08:09:34Z</time>
      </trkpt>
      <trkpt lat="47.76736" lon="6.82607">
        <ele>525.2</ele>
        <time>2019-05-17T08:09:35Z</time>
      </trkpt>
      <trkpt lat="47.7673" lon="6.82604">
        <ele>526.2</ele>
        <time>2019-05-17T08:09:36Z</time>
      </trkpt>
      <trkpt lat="47.76713" lon="6.82592">
        <ele>526.2</ele>
        <time>2019-05-17T08:09:39Z</time>
      </trkpt>
      <trkpt lat="47.76701" lon="6.82582">
        <ele>525.6</ele>
        <time>2019-05-17T08:09:41Z</time>
      </trkpt>
      <trkpt lat="47.76695" lon="6.82574">
        <ele>525.2</ele>
        <time>2019-05-17T08:09:42Z</time>
      </trkpt>
      <trkpt lat="47.76691" lon="6.82565">
        <ele>524.6</ele>
        <time>2019-05-17T08:09:43Z</time>
      </trkpt>
      <trkpt lat="47.76686" lon="6.82556">
        <ele>523.8</ele>
        <time>2019-05-17T08:09:44Z</time>
      </trkpt>
      <trkpt lat="47.7668" lon="6.82547">
        <ele>523.2</ele>
        <time>2019-05-17T08:09:45Z</time>
      </trkpt>
      <trkpt lat="47.76674" lon="6.82538">
        <ele>522.4</ele>
        <time>2019-05-17T08:09:46Z</time>
      </trkpt>
      <trkpt lat="47.76667" lon="6.82531">
        <ele>521.8</ele>
        <time>2019-05-17T08:09:47Z</time>
      </trkpt>
      <trkpt lat="47.76659" lon="6.82524">
        <ele>521.2</ele>
        <time>2019-05-17T08:09:48Z</time>
      </trkpt>
      <trkpt lat="47.76651" lon="6.82518">
        <ele>520.6</ele>
        <time>2019-05-17T08:09:49Z</time>
      </trkpt>
      <trkpt lat="47.76643" lon="6.82514">
        <ele>520</ele>
        <time>2019-05-17T08:09:50Z</time>
      </trkpt>
      <trkpt lat="47.76635" lon="6.82511">
        <ele>519.2</ele>
        <time>2019-05-17T08:09:51Z</time>
      </trkpt>
      <trkpt lat="47.76627" lon="6.82508">
        <ele>518.6</ele>
        <time>2019-05-17T08:09:52Z</time>
      </trkpt>
      <trkpt lat="47.76619" lon="6.82505">
        <ele>517.8</ele>
        <time>2019-05-17T08:09:53Z</time>
      </trkpt>
      <trkpt lat="47.7661" lon="6.82502">
        <ele>517</ele>
        <time>2019-05-17T08:09:54Z</time>
      </trkpt>
      <trkpt lat="47.76586" lon="6.82491">
        <ele>517</ele>
        <time>2019-05-17T08:09:57Z</time>
      </trkpt>
      <trkpt lat="47.7657" lon="6.82483">
        <ele>516.6</ele>
        <time>2019-05-17T08:09:59Z</time>
      </trkpt>
      <trkpt lat="47.76563" lon="6.82479">
        <ele>515.8</ele>
        <time>2019-05-17T08:10:00Z</time>
      </trkpt>
      <trkpt lat="47.76555" lon="6.82476">
        <ele>515.2</ele>
        <time>2019-05-17T08:10:01Z</time>
      </trkpt>
      <trkpt lat="47.76548" lon="6.82472">
        <ele>514.8</ele>
        <time>2019-05-17T08:10:02Z</time>
      </trkpt>
      <trkpt lat="47.76541" lon="6.82468">
        <ele>514.8</ele>
        <time>2019-05-17T08:10:03Z</time>
      </trkpt>
      <trkpt lat="47.76522" lon="6.82453">
        <ele>514.8</ele>
        <time>2019-05-17T08:10:06Z</time>
      </trkpt>
      <trkpt lat="47.76511" lon="6.8244">
        <ele>514.8</ele>
        <time>2019-05-17T08:10:08Z</time>
      </trkpt>
      <trkpt lat="47.76488" lon="6.82397">
        <ele>514.8</ele>
        <time>2019-05-17T08:10:13Z</time>
      </trkpt>
      <trkpt lat="47.76476" lon="6.82364">
        <ele>514.2</ele>
        <time>2019-05-17T08:10:16Z</time>
      </trkpt>
      <trkpt lat="47.76472" lon="6.82352">
        <ele>513.6</ele>
        <time>2019-05-17T08:10:17Z</time>
      </trkpt>
      <trkpt lat="47.76468" lon="6.82341">
        <ele>512.8</ele>
        <time>2019-05-17T08:10:18Z</time>
      </trkpt>
      <trkpt lat="47.76463" lon="6.82329">
        <ele>511.8</ele>
        <time>2019-05-17T08:10:19Z</time>
      </trkpt>
      <trkpt lat="47.76458" lon="6.82319">
        <ele>511</ele>
        <time>2019-05-17T08:10:20Z</time>
      </trkpt>
      <trkpt lat="47.76452" lon="6.8231">
        <ele>510.2</ele>
        <time>2019-05-17T08:10:21Z</time>
      </trkpt>
      <trkpt lat="47.76446" lon="6.82301">
        <ele>509.6</ele>
        <time>2019-05-17T08:10:22Z</time>
      </trkpt>
      <trkpt lat="47.76439" lon="6.82293">
        <ele>509</ele>
        <time>2019-05-17T08:10:23Z</time>
      </trkpt>
      <trkpt lat="47.76432" lon="6.82286">
        <ele>508.4</ele>
        <time>2019-05-17T08:10:24Z</time>
      </trkpt>
      <trkpt lat="47.76425" lon="6.82281">
        <ele>507</ele>
        <time>2019-05-17T08:10:25Z</time>
      </trkpt>
      <trkpt lat="47.76418" lon="6.82275">
        <ele>507</ele>
        <time>2019-05-17T08:10:26Z</time>
      </trkpt>
      <trkpt lat="47.76368" lon="6.82241">
        <ele>507</ele>
        <time>2019-05-17T08:10:33Z</time>
      </trkpt>
      <trkpt lat="47.76325" lon="6.82222">
        <ele>507</ele>
        <time>2019-05-17T08:10:39Z</time>
      </trkpt>
      <trkpt lat="47.76275" lon="6.82206">
        <ele>507</ele>
        <time>2019-05-17T08:10:46Z</time>
      </trkpt>
      <trkpt lat="47.76261" lon="6.82201">
        <ele>506.6</ele>
        <time>2019-05-17T08:10:48Z</time>
      </trkpt>
      <trkpt lat="47.76254" lon="6.82198">
        <ele>505.8</ele>
        <time>2019-05-17T08:10:49Z</time>
      </trkpt>
      <trkpt lat="47.76247" lon="6.82194">
        <ele>505.2</ele>
        <time>2019-05-17T08:10:50Z</time>
      </trkpt>
      <trkpt lat="47.7624" lon="6.8219">
        <ele>504.8</ele>
        <time>2019-05-17T08:10:51Z</time>
      </trkpt>
      <trkpt lat="47.76233" lon="6.82185">
        <ele>504.8</ele>
        <time>2019-05-17T08:10:52Z</time>
      </trkpt>
      <trkpt lat="47.76182" lon="6.82143">
        <ele>504.8</ele>
        <time>2019-05-17T08:11:00Z</time>
      </trkpt>
      <trkpt lat="47.76149" lon="6.82122">
        <ele>504.8</ele>
        <time>2019-05-17T08:11:05Z</time>
      </trkpt>
      <trkpt lat="47.76136" lon="6.82114">
        <ele>504.4</ele>
        <time>2019-05-17T08:11:07Z</time>
      </trkpt>
      <trkpt lat="47.76129" lon="6.82111">
        <ele>504</ele>
        <time>2019-05-17T08:11:08Z</time>
      </trkpt>
      <trkpt lat="47.76123" lon="6.82107">
        <ele>503.4</ele>
        <time>2019-05-17T08:11:09Z</time>
      </trkpt>
      <trkpt lat="47.76117" lon="6.82103">
        <ele>503</ele>
        <time>2019-05-17T08:11:10Z</time>
      </trkpt>
      <trkpt lat="47.7611" lon="6.82099">
        <ele>502.6</ele>
        <time>2019-05-17T08:11:11Z</time>
      </trkpt>
      <trkpt lat="47.76104" lon="6.82095">
        <ele>502.6</ele>
        <time>2019-05-17T08:11:12Z</time>
      </trkpt>
      <trkpt lat="47.76053" lon="6.82065">
        <ele>502.6</ele>
        <time>2019-05-17T08:11:20Z</time>
      </trkpt>
      <trkpt lat="47.76047" lon="6.8206">
        <ele>502.6</ele>
        <time>2019-05-17T08:11:21Z</time>
      </trkpt>
      <trkpt lat="47.76008" lon="6.82034">
        <ele>502.6</ele>
        <time>2019-05-17T08:11:27Z</time>
      </trkpt>
      <trkpt lat="47.75968" lon="6.82014">
        <ele>502.6</ele>
        <time>2019-05-17T08:11:33Z</time>
      </trkpt>
      <trkpt lat="47.75914" lon="6.81992">
        <ele>502.6</ele>
        <time>2019-05-17T08:11:41Z</time>
      </trkpt>
      <trkpt lat="47.759" lon="6.81984">
        <ele>502.2</ele>
        <time>2019-05-17T08:11:43Z</time>
      </trkpt>
      <trkpt lat="47.75894" lon="6.8198">
        <ele>501.8</ele>
        <time>2019-05-17T08:11:44Z</time>
      </trkpt>
      <trkpt lat="47.75888" lon="6.81976">
        <ele>501.4</ele>
        <time>2019-05-17T08:11:45Z</time>
      </trkpt>
      <trkpt lat="47.75883" lon="6.81971">
        <ele>500.8</ele>
        <time>2019-05-17T08:11:46Z</time>
      </trkpt>
      <trkpt lat="47.75877" lon="6.81966">
        <ele>500.4</ele>
        <time>2019-05-17T08:11:47Z</time>
      </trkpt>
      <trkpt lat="47.75845" lon="6.81936">
        <ele>500.4</ele>
        <time>2019-05-17T08:11:53Z</time>
      </trkpt>
      <trkpt lat="47.75839" lon="6.81933">
        <ele>500.4</ele>
        <time>2019-05-17T08:11:54Z</time>
      </trkpt>
      <trkpt lat="47.75819" lon="6.8193">
        <ele>500.4</ele>
        <time>2019-05-17T08:11:57Z</time>
      </trkpt>
      <trkpt lat="47.75804" lon="6.81927">
        <ele>500</ele>
        <time>2019-05-17T08:11:59Z</time>
      </trkpt>
      <trkpt lat="47.75797" lon="6.81925">
        <ele>499.6</ele>
        <time>2019-05-17T08:12:00Z</time>
      </trkpt>
      <trkpt lat="47.75791" lon="6.81923">
        <ele>499.2</ele>
        <time>2019-05-17T08:12:01Z</time>
      </trkpt>
      <trkpt lat="47.75784" lon="6.8192">
        <ele>498.8</ele>
        <time>2019-05-17T08:12:02Z</time>
      </trkpt>
      <trkpt lat="47.75777" lon="6.81917">
        <ele>498.4</ele>
        <time>2019-05-17T08:12:03Z</time>
      </trkpt>
      <trkpt lat="47.75745" lon="6.81906">
        <ele>498.4</ele>
        <time>2019-05-17T08:12:08Z</time>
      </trkpt>
      <trkpt lat="47.75701" lon="6.81897">
        <ele>498.4</ele>
        <time>2019-05-17T08:12:15Z</time>
      </trkpt>
      <trkpt lat="47.75654" lon="6.81895">
        <ele>498.4</ele>
        <time>2019-05-17T08:12:22Z</time>
      </trkpt>
      <trkpt lat="47.75606" lon="6.81904">
        <ele>498.4</ele>
        <time>2019-05-17T08:12:29Z</time>
      </trkpt>
      <trkpt lat="47.75566" lon="6.81916">
        <ele>498.4</ele>
        <time>2019-05-17T08:12:35Z</time>
      </trkpt>
      <trkpt lat="47.7556" lon="6.81919">
        <ele>498.4</ele>
        <time>2019-05-17T08:12:36Z</time>
      </trkpt>
      <trkpt lat="47.75506" lon="6.81934">
        <ele>498.4</ele>
        <time>2019-05-17T08:12:44Z</time>
      </trkpt>
      <trkpt lat="47.75486" lon="6.81935">
        <ele>497.8</ele>
        <time>2019-05-17T08:12:47Z</time>
      </trkpt>
      <trkpt lat="47.75479" lon="6.81934">
        <ele>497.4</ele>
        <time>2019-05-17T08:12:48Z</time>
      </trkpt>
      <trkpt lat="47.75472" lon="6.81931">
        <ele>497</ele>
        <time>2019-05-17T08:12:49Z</time>
      </trkpt>
      <trkpt lat="47.75465" lon="6.81928">
        <ele>496.6</ele>
        <time>2019-05-17T08:12:50Z</time>
      </trkpt>
      <trkpt lat="47.75459" lon="6.81923">
        <ele>496.2</ele>
        <time>2019-05-17T08:12:51Z</time>
      </trkpt>
      <trkpt lat="47.75447" lon="6.81912">
        <ele>496.2</ele>
        <time>2019-05-17T08:12:53Z</time>
      </trkpt>
      <trkpt lat="47.75424" lon="6.81891">
        <ele>496.2</ele>
        <time>2019-05-17T08:12:57Z</time>
      </trkpt>
      <trkpt lat="47.75412" lon="6.81886">
        <ele>496.2</ele>
        <time>2019-05-17T08:12:59Z</time>
      </trkpt>
      <trkpt lat="47.75392" lon="6.81883">
        <ele>496.2</ele>
        <time>2019-05-17T08:13:02Z</time>
      </trkpt>
      <trkpt lat="47.75378" lon="6.81884">
        <ele>496.2</ele>
        <time>2019-05-17T08:13:04Z</time>
      </trkpt>
      <trkpt lat="47.75344" lon="6.81885">
        <ele>496.2</ele>
        <time>2019-05-17T08:13:09Z</time>
      </trkpt>
      <trkpt lat="47.75338" lon="6.81887">
        <ele>496.2</ele>
        <time>2019-05-17T08:13:10Z</time>
      </trkpt>
      <trkpt lat="47.75324" lon="6.81892">
        <ele>496.2</ele>
        <time>2019-05-17T08:13:12Z</time>
      </trkpt>
      <trkpt lat="47.75305" lon="6.81901">
        <ele>496.2</ele>
        <time>2019-05-17T08:13:15Z</time>
      </trkpt>
      <trkpt lat="47.75259" lon="6.81925">
        <ele>496.2</ele>
        <time>2019-05-17T08:13:22Z</time>
      </trkpt>
      <trkpt lat="47.75234" lon="6.8194">
        <ele>495.6</ele>
        <time>2019-05-17T08:13:26Z</time>
      </trkpt>
      <trkpt lat="47.75227" lon="6.81943">
        <ele>495.2</ele>
        <time>2019-05-17T08:13:27Z</time>
      </trkpt>
      <trkpt lat="47.75221" lon="6.81947">
        <ele>494.8</ele>
        <time>2019-05-17T08:13:28Z</time>
      </trkpt>
      <trkpt lat="47.75214" lon="6.8195">
        <ele>494.2</ele>
        <time>2019-05-17T08:13:29Z</time>
      </trkpt>
      <trkpt lat="47.75207" lon="6.81954">
        <ele>493.8</ele>
        <time>2019-05-17T08:13:30Z</time>
      </trkpt>
      <trkpt lat="47.75175" lon="6.81968">
        <ele>494.2</ele>
        <time>2019-05-17T08:13:35Z</time>
      </trkpt>
      <trkpt lat="47.75168" lon="6.8197">
        <ele>494.8</ele>
        <time>2019-05-17T08:13:36Z</time>
      </trkpt>
      <trkpt lat="47.75161" lon="6.8197">
        <ele>495.4</ele>
        <time>2019-05-17T08:13:37Z</time>
      </trkpt>
      <trkpt lat="47.75155" lon="6.8197">
        <ele>496</ele>
        <time>2019-05-17T08:13:38Z</time>
      </trkpt>
      <trkpt lat="47.75148" lon="6.81968">
        <ele>496.6</ele>
        <time>2019-05-17T08:13:39Z</time>
      </trkpt>
      <trkpt lat="47.75141" lon="6.81966">
        <ele>496.6</ele>
        <time>2019-05-17T08:13:40Z</time>
      </trkpt>
      <trkpt lat="47.75129" lon="6.8196">
        <ele>496.6</ele>
        <time>2019-05-17T08:13:42Z</time>
      </trkpt>
      <trkpt lat="47.75117" lon="6.81954">
        <ele>496</ele>
        <time>2019-05-17T08:13:44Z</time>
      </trkpt>
      <trkpt lat="47.7511" lon="6.81952">
        <ele>495.6</ele>
        <time>2019-05-17T08:13:45Z</time>
      </trkpt>
      <trkpt lat="47.75105" lon="6.81949">
        <ele>495.2</ele>
        <time>2019-05-17T08:13:46Z</time>
      </trkpt>
      <trkpt lat="47.75099" lon="6.81947">
        <ele>494.8</ele>
        <time>2019-05-17T08:13:47Z</time>
      </trkpt>
      <trkpt lat="47.75092" lon="6.81945">
        <ele>494.2</ele>
        <time>2019-05-17T08:13:48Z</time>
      </trkpt>
      <trkpt lat="47.75067" lon="6.81941">
        <ele>494.2</ele>
        <time>2019-05-17T08:13:52Z</time>
      </trkpt>
      <trkpt lat="47.75029" lon="6.81948">
        <ele>494.2</ele>
        <time>2019-05-17T08:13:58Z</time>
      </trkpt>
      <trkpt lat="47.75018" lon="6.81954">
        <ele>494.2</ele>
        <time>2019-05-17T08:14:00Z</time>
      </trkpt>
      <trkpt lat="47.75003" lon="6.81967">
        <ele>494.2</ele>
        <time>2019-05-17T08:14:03Z</time>
      </trkpt>
      <trkpt lat="47.74982" lon="6.8198">
        <ele>494.2</ele>
        <time>2019-05-17T08:14:07Z</time>
      </trkpt>
      <trkpt lat="47.74971" lon="6.81981">
        <ele>494.2</ele>
        <time>2019-05-17T08:14:09Z</time>
      </trkpt>
      <trkpt lat="47.74962" lon="6.8198">
        <ele>494.8</ele>
        <time>2019-05-17T08:14:11Z</time>
      </trkpt>
      <trkpt lat="47.74957" lon="6.8198">
        <ele>495.2</ele>
        <time>2019-05-17T08:14:12Z</time>
      </trkpt>
      <trkpt lat="47.74951" lon="6.81981">
        <ele>495.6</ele>
        <time>2019-05-17T08:14:13Z</time>
      </trkpt>
      <trkpt lat="47.74946" lon="6.81981">
        <ele>496.2</ele>
        <time>2019-05-17T08:14:14Z</time>
      </trkpt>
      <trkpt lat="47.74941" lon="6.81981">
        <ele>496.6</ele>
        <time>2019-05-17T08:14:15Z</time>
      </trkpt>
      <trkpt lat="47.74918" lon="6.81983">
        <ele>496.6</ele>
        <time>2019-05-17T08:14:19Z</time>
      </trkpt>
      <trkpt lat="47.74913" lon="6.81981">
        <ele>496.6</ele>
        <time>2019-05-17T08:14:20Z</time>
      </trkpt>
      <trkpt lat="47.74904" lon="6.81962">
        <ele>496.6</ele>
        <time>2019-05-17T08:14:23Z</time>
      </trkpt>
      <trkpt lat="47.74908" lon="6.81951">
        <ele>497</ele>
        <time>2019-05-17T08:14:25Z</time>
      </trkpt>
      <trkpt lat="47.74911" lon="6.81945">
        <ele>497.6</ele>
        <time>2019-05-17T08:14:26Z</time>
      </trkpt>
      <trkpt lat="47.74915" lon="6.81939">
        <ele>498</ele>
        <time>2019-05-17T08:14:27Z</time>
      </trkpt>
      <trkpt lat="47.74917" lon="6.81931">
        <ele>498.4</ele>
        <time>2019-05-17T08:14:28Z</time>
      </trkpt>
      <trkpt lat="47.74917" lon="6.81923">
        <ele>499</ele>
        <time>2019-05-17T08:14:29Z</time>
      </trkpt>
      <trkpt lat="47.74912" lon="6.81907">
        <ele>499</ele>
        <time>2019-05-17T08:14:31Z</time>
      </trkpt>
      <trkpt lat="47.74908" lon="6.81891">
        <ele>499</ele>
        <time>2019-05-17T08:14:33Z</time>
      </trkpt>
      <trkpt lat="47.74903" lon="6.81876">
        <ele>499</ele>
        <time>2019-05-17T08:14:35Z</time>
      </trkpt>
      <trkpt lat="47.749" lon="6.81869">
        <ele>499</ele>
        <time>2019-05-17T08:14:36Z</time>
      </trkpt>
      <trkpt lat="47.74895" lon="6.81857">
        <ele>499.4</ele>
        <time>2019-05-17T08:14:38Z</time>
      </trkpt>
      <trkpt lat="47.74893" lon="6.81852">
        <ele>499.8</ele>
        <time>2019-05-17T08:14:39Z</time>
      </trkpt>
      <trkpt lat="47.74891" lon="6.81848">
        <ele>500.2</ele>
        <time>2019-05-17T08:14:40Z</time>
      </trkpt>
      <trkpt lat="47.7489" lon="6.81844">
        <ele>500.6</ele>
        <time>2019-05-17T08:14:41Z</time>
      </trkpt>
      <trkpt lat="47.74888" lon="6.8184">
        <ele>501</ele>
        <time>2019-05-17T08:14:42Z</time>
      </trkpt>
      <trkpt lat="47.74886" lon="6.81837">
        <ele>501</ele>
        <time>2019-05-17T08:14:43Z</time>
      </trkpt>
      <trkpt lat="47.74883" lon="6.81835">
        <ele>501</ele>
        <time>2019-05-17T08:14:44Z</time>
      </trkpt>
      <trkpt lat="47.7487" lon="6.81842">
        <ele>501</ele>
        <time>2019-05-17T08:14:47Z</time>
      </trkpt>
      <trkpt lat="47.74866" lon="6.81848">
        <ele>501</ele>
        <time>2019-05-17T08:14:48Z</time>
      </trkpt>
      <trkpt lat="47.74862" lon="6.81854">
        <ele>500.6</ele>
        <time>2019-05-17T08:14:49Z</time>
      </trkpt>
      <trkpt lat="47.74858" lon="6.81859">
        <ele>500.2</ele>
        <time>2019-05-17T08:14:50Z</time>
      </trkpt>
      <trkpt lat="47.74853" lon="6.81865">
        <ele>499.8</ele>
        <time>2019-05-17T08:14:51Z</time>
      </trkpt>
      <trkpt lat="47.74849" lon="6.81871">
        <ele>499.4</ele>
        <time>2019-05-17T08:14:52Z</time>
      </trkpt>
      <trkpt lat="47.74844" lon="6.81878">
        <ele>499</ele>
        <time>2019-05-17T08:14:53Z</time>
      </trkpt>
      <trkpt lat="47.74818" lon="6.81906">
        <ele>499</ele>
        <time>2019-05-17T08:14:58Z</time>
      </trkpt>
      <trkpt lat="47.74788" lon="6.81942">
        <ele>499</ele>
        <time>2019-05-17T08:15:04Z</time>
      </trkpt>
      <trkpt lat="47.74782" lon="6.81948">
        <ele>498.6</ele>
        <time>2019-05-17T08:15:05Z</time>
      </trkpt>
      <trkpt lat="47.74776" lon="6.81954">
        <ele>498.2</ele>
        <time>2019-05-17T08:15:06Z</time>
      </trkpt>
      <trkpt lat="47.74771" lon="6.81959">
        <ele>497.8</ele>
        <time>2019-05-17T08:15:07Z</time>
      </trkpt>
      <trkpt lat="47.74765" lon="6.81965">
        <ele>497.4</ele>
        <time>2019-05-17T08:15:08Z</time>
      </trkpt>
      <trkpt lat="47.7476" lon="6.8197">
        <ele>497</ele>
        <time>2019-05-17T08:15:09Z</time>
      </trkpt>
      <trkpt lat="47.74745" lon="6.81986">
        <ele>497</ele>
        <time>2019-05-17T08:15:12Z</time>
      </trkpt>
      <trkpt lat="47.74724" lon="6.82005">
        <ele>497</ele>
        <time>2019-05-17T08:15:16Z</time>
      </trkpt>
      <trkpt lat="47.74715" lon="6.82016">
        <ele>497</ele>
        <time>2019-05-17T08:15:18Z</time>
      </trkpt>
      <trkpt lat="47.74699" lon="6.82039">
        <ele>497</ele>
        <time>2019-05-17T08:15:22Z</time>
      </trkpt>
      <trkpt lat="47.74693" lon="6.82043">
        <ele>497</ele>
        <time>2019-05-17T08:15:23Z</time>
      </trkpt>
      <trkpt lat="47.74668" lon="6.82046">
        <ele>497</ele>
        <time>2019-05-17T08:15:27Z</time>
      </trkpt>
      <trkpt lat="47.74655" lon="6.82047">
        <ele>497</ele>
        <time>2019-05-17T08:15:29Z</time>
      </trkpt>
      <trkpt lat="47.74649" lon="6.82046">
        <ele>497</ele>
        <time>2019-05-17T08:15:30Z</time>
      </trkpt>
      <trkpt lat="47.74637" lon="6.82044">
        <ele>497</ele>
        <time>2019-05-17T08:15:32Z</time>
      </trkpt>
      <trkpt lat="47.74611" lon="6.82039">
        <ele>497</ele>
        <time>2019-05-17T08:15:37Z</time>
      </trkpt>
      <trkpt lat="47.74606" lon="6.82039">
        <ele>497</ele>
        <time>2019-05-17T08:15:38Z</time>
      </trkpt>
      <trkpt lat="47.74597" lon="6.82041">
        <ele>497</ele>
        <time>2019-05-17T08:15:40Z</time>
      </trkpt>
      <trkpt lat="47.74587" lon="6.82047">
        <ele>497</ele>
        <time>2019-05-17T08:15:42Z</time>
      </trkpt>
      <trkpt lat="47.7457" lon="6.82066">
        <ele>497</ele>
        <time>2019-05-17T08:15:46Z</time>
      </trkpt>
      <trkpt lat="47.74566" lon="6.82073">
        <ele>496.4</ele>
        <time>2019-05-17T08:15:47Z</time>
      </trkpt>
      <trkpt lat="47.74561" lon="6.8208">
        <ele>496</ele>
        <time>2019-05-17T08:15:48Z</time>
      </trkpt>
      <trkpt lat="47.74556" lon="6.82086">
        <ele>495.4</ele>
        <time>2019-05-17T08:15:49Z</time>
      </trkpt>
      <trkpt lat="47.7455" lon="6.82091">
        <ele>495</ele>
        <time>2019-05-17T08:15:50Z</time>
      </trkpt>
      <trkpt lat="47.74544" lon="6.82094">
        <ele>494.4</ele>
        <time>2019-05-17T08:15:51Z</time>
      </trkpt>
      <trkpt lat="47.74524" lon="6.82098">
        <ele>494.4</ele>
        <time>2019-05-17T08:15:54Z</time>
      </trkpt>
      <trkpt lat="47.74511" lon="6.821">
        <ele>494</ele>
        <time>2019-05-17T08:15:56Z</time>
      </trkpt>
      <trkpt lat="47.74504" lon="6.82102">
        <ele>493.4</ele>
        <time>2019-05-17T08:15:57Z</time>
      </trkpt>
      <trkpt lat="47.74498" lon="6.82104">
        <ele>493</ele>
        <time>2019-05-17T08:15:58Z</time>
      </trkpt>
      <trkpt lat="47.74493" lon="6.82106">
        <ele>492.4</ele>
        <time>2019-05-17T08:15:59Z</time>
      </trkpt>
      <trkpt lat="47.74488" lon="6.82108">
        <ele>492</ele>
        <time>2019-05-17T08:16:00Z</time>
      </trkpt>
      <trkpt lat="47.74483" lon="6.8211">
        <ele>492</ele>
        <time>2019-05-17T08:16:01Z</time>
      </trkpt>
      <trkpt lat="47.74475" lon="6.82115">
        <ele>492</ele>
        <time>2019-05-17T08:16:03Z</time>
      </trkpt>
      <trkpt lat="47.74465" lon="6.82124">
        <ele>492.6</ele>
        <time>2019-05-17T08:16:06Z</time>
      </trkpt>
      <trkpt lat="47.74462" lon="6.82126">
        <ele>493.2</ele>
        <time>2019-05-17T08:16:07Z</time>
      </trkpt>
      <trkpt lat="47.74459" lon="6.82128">
        <ele>493.8</ele>
        <time>2019-05-17T08:16:08Z</time>
      </trkpt>
      <trkpt lat="47.74456" lon="6.82129">
        <ele>494.6</ele>
        <time>2019-05-17T08:16:09Z</time>
      </trkpt>
      <trkpt lat="47.74453" lon="6.82131">
        <ele>495.2</ele>
        <time>2019-05-17T08:16:10Z</time>
      </trkpt>
      <trkpt lat="47.74442" lon="6.82135">
        <ele>495.2</ele>
        <time>2019-05-17T08:16:13Z</time>
      </trkpt>
      <trkpt lat="47.74426" lon="6.82131">
        <ele>495.2</ele>
        <time>2019-05-17T08:16:17Z</time>
      </trkpt>
      <trkpt lat="47.74422" lon="6.82128">
        <ele>495.2</ele>
        <time>2019-05-17T08:16:18Z</time>
      </trkpt>
      <trkpt lat="47.74407" lon="6.82119">
        <ele>495.2</ele>
        <time>2019-05-17T08:16:21Z</time>
      </trkpt>
      <trkpt lat="47.74402" lon="6.82116">
        <ele>495.2</ele>
        <time>2019-05-17T08:16:22Z</time>
      </trkpt>
      <trkpt lat="47.74382" lon="6.82107">
        <ele>495.2</ele>
        <time>2019-05-17T08:16:26Z</time>
      </trkpt>
      <trkpt lat="47.74376" lon="6.82107">
        <ele>494.8</ele>
        <time>2019-05-17T08:16:27Z</time>
      </trkpt>
      <trkpt lat="47.74369" lon="6.82108">
        <ele>494.2</ele>
        <time>2019-05-17T08:16:28Z</time>
      </trkpt>
      <trkpt lat="47.74362" lon="6.82108">
        <ele>493.2</ele>
        <time>2019-05-17T08:16:29Z</time>
      </trkpt>
      <trkpt lat="47.74356" lon="6.82109">
        <ele>492.2</ele>
        <time>2019-05-17T08:16:30Z</time>
      </trkpt>
      <trkpt lat="47.74349" lon="6.82108">
        <ele>491.2</ele>
        <time>2019-05-17T08:16:31Z</time>
      </trkpt>
      <trkpt lat="47.74344" lon="6.82104">
        <ele>490.2</ele>
        <time>2019-05-17T08:16:32Z</time>
      </trkpt>
      <trkpt lat="47.74339" lon="6.82098">
        <ele>489.2</ele>
        <time>2019-05-17T08:16:33Z</time>
      </trkpt>
      <trkpt lat="47.74332" lon="6.82073">
        <ele>489.2</ele>
        <time>2019-05-17T08:16:36Z</time>
      </trkpt>
      <trkpt lat="47.74318" lon="6.82042">
        <ele>489.2</ele>
        <time>2019-05-17T08:16:40Z</time>
      </trkpt>
      <trkpt lat="47.74307" lon="6.8202">
        <ele>489.2</ele>
        <time>2019-05-17T08:16:43Z</time>
      </trkpt>
      <trkpt lat="47.743" lon="6.82008">
        <ele>489.2</ele>
        <time>2019-05-17T08:16:45Z</time>
      </trkpt>
      <trkpt lat="47.74296" lon="6.82">
        <ele>489.8</ele>
        <time>2019-05-17T08:16:46Z</time>
      </trkpt>
      <trkpt lat="47.74293" lon="6.81993">
        <ele>490.4</ele>
        <time>2019-05-17T08:16:47Z</time>
      </trkpt>
      <trkpt lat="47.7429" lon="6.81985">
        <ele>490.8</ele>
        <time>2019-05-17T08:16:48Z</time>
      </trkpt>
      <trkpt lat="47.74288" lon="6.81978">
        <ele>491.4</ele>
        <time>2019-05-17T08:16:49Z</time>
      </trkpt>
      <trkpt lat="47.74286" lon="6.81971">
        <ele>492</ele>
        <time>2019-05-17T08:16:50Z</time>
      </trkpt>
      <trkpt lat="47.74273" lon="6.81929">
        <ele>492</ele>
        <time>2019-05-17T08:16:56Z</time>
      </trkpt>
      <trkpt lat="47.74271" lon="6.81923">
        <ele>492</ele>
        <time>2019-05-17T08:16:57Z</time>
      </trkpt>
      <trkpt lat="47.74269" lon="6.81917">
        <ele>492.4</ele>
        <time>2019-05-17T08:16:58Z</time>
      </trkpt>
      <trkpt lat="47.74267" lon="6.81911">
        <ele>493.4</ele>
        <time>2019-05-17T08:16:59Z</time>
      </trkpt>
      <trkpt lat="47.74264" lon="6.81906">
        <ele>494</ele>
        <time>2019-05-17T08:17:00Z</time>
      </trkpt>
      <trkpt lat="47.74262" lon="6.819">
        <ele>494.4</ele>
        <time>2019-05-17T08:17:01Z</time>
      </trkpt>
      <trkpt lat="47.74259" lon="6.81895">
        <ele>495</ele>
        <time>2019-05-17T08:17:02Z</time>
      </trkpt>
      <trkpt lat="47.74256" lon="6.81891">
        <ele>495.4</ele>
        <time>2019-05-17T08:17:03Z</time>
      </trkpt>
      <trkpt lat="47.74253" lon="6.81886">
        <ele>496</ele>
        <time>2019-05-17T08:17:04Z</time>
      </trkpt>
      <trkpt lat="47.7425" lon="6.81882">
        <ele>496.6</ele>
        <time>2019-05-17T08:17:05Z</time>
      </trkpt>
      <trkpt lat="47.74246" lon="6.81878">
        <ele>497</ele>
        <time>2019-05-17T08:17:06Z</time>
      </trkpt>
      <trkpt lat="47.74243" lon="6.81874">
        <ele>497</ele>
        <time>2019-05-17T08:17:07Z</time>
      </trkpt>
      <trkpt lat="47.74239" lon="6.81863">
        <ele>497</ele>
        <time>2019-05-17T08:17:09Z</time>
      </trkpt>
      <trkpt lat="47.74236" lon="6.81858">
        <ele>497</ele>
        <time>2019-05-17T08:17:10Z</time>
      </trkpt>
      <trkpt lat="47.74233" lon="6.81854">
        <ele>497.6</ele>
        <time>2019-05-17T08:17:11Z</time>
      </trkpt>
      <trkpt lat="47.7423" lon="6.81849">
        <ele>498</ele>
        <time>2019-05-17T08:17:12Z</time>
      </trkpt>
      <trkpt lat="47.74227" lon="6.81845">
        <ele>498.4</ele>
        <time>2019-05-17T08:17:13Z</time>
      </trkpt>
      <trkpt lat="47.74225" lon="6.81841">
        <ele>499</ele>
        <time>2019-05-17T08:17:14Z</time>
      </trkpt>
      <trkpt lat="47.74222" lon="6.81837">
        <ele>499.4</ele>
        <time>2019-05-17T08:17:15Z</time>
      </trkpt>
      <trkpt lat="47.74214" lon="6.81826">
        <ele>499.4</ele>
        <time>2019-05-17T08:17:18Z</time>
      </trkpt>
      <trkpt lat="47.74206" lon="6.81816">
        <ele>499.4</ele>
        <time>2019-05-17T08:17:21Z</time>
      </trkpt>
      <trkpt lat="47.742" lon="6.81811">
        <ele>499.8</ele>
        <time>2019-05-17T08:17:23Z</time>
      </trkpt>
      <trkpt lat="47.74197" lon="6.81809">
        <ele>500.2</ele>
        <time>2019-05-17T08:17:24Z</time>
      </trkpt>
      <trkpt lat="47.74194" lon="6.81807">
        <ele>500.8</ele>
        <time>2019-05-17T08:17:25Z</time>
      </trkpt>
      <trkpt lat="47.74191" lon="6.81805">
        <ele>501.6</ele>
        <time>2019-05-17T08:17:26Z</time>
      </trkpt>
      <trkpt lat="47.74189" lon="6.81802">
        <ele>501.6</ele>
        <time>2019-05-17T08:17:27Z</time>
      </trkpt>
      <trkpt lat="47.74183" lon="6.81796">
        <ele>502</ele>
        <time>2019-05-17T08:17:29Z</time>
      </trkpt>
      <trkpt lat="47.7418" lon="6.81793">
        <ele>502.6</ele>
        <time>2019-05-17T08:17:30Z</time>
      </trkpt>
      <trkpt lat="47.74178" lon="6.8179">
        <ele>503</ele>
        <time>2019-05-17T08:17:31Z</time>
      </trkpt>
      <trkpt lat="47.74176" lon="6.81788">
        <ele>503.4</ele>
        <time>2019-05-17T08:17:32Z</time>
      </trkpt>
      <trkpt lat="47.74174" lon="6.81785">
        <ele>503.8</ele>
        <time>2019-05-17T08:17:33Z</time>
      </trkpt>
      <trkpt lat="47.74164" lon="6.81762">
        <ele>503.8</ele>
        <time>2019-05-17T08:17:38Z</time>
      </trkpt>
      <trkpt lat="47.74153" lon="6.81739">
        <ele>504.4</ele>
        <time>2019-05-17T08:17:43Z</time>
      </trkpt>
      <trkpt lat="47.74152" lon="6.81735">
        <ele>504.8</ele>
        <time>2019-05-17T08:17:44Z</time>
      </trkpt>
      <trkpt lat="47.7415" lon="6.81731">
        <ele>505.2</ele>
        <time>2019-05-17T08:17:45Z</time>
      </trkpt>
      <trkpt lat="47.74148" lon="6.81727">
        <ele>505.6</ele>
        <time>2019-05-17T08:17:46Z</time>
      </trkpt>
      <trkpt lat="47.74146" lon="6.81722">
        <ele>506</ele>
        <time>2019-05-17T08:17:47Z</time>
      </trkpt>
      <trkpt lat="47.74139" lon="6.8171">
        <ele>506</ele>
        <time>2019-05-17T08:17:50Z</time>
      </trkpt>
      <trkpt lat="47.74137" lon="6.81705">
        <ele>506.6</ele>
        <time>2019-05-17T08:17:51Z</time>
      </trkpt>
      <trkpt lat="47.74135" lon="6.81701">
        <ele>507</ele>
        <time>2019-05-17T08:17:52Z</time>
      </trkpt>
      <trkpt lat="47.74133" lon="6.81696">
        <ele>507.4</ele>
        <time>2019-05-17T08:17:53Z</time>
      </trkpt>
      <trkpt lat="47.74131" lon="6.81692">
        <ele>507.8</ele>
        <time>2019-05-17T08:17:54Z</time>
      </trkpt>
      <trkpt lat="47.74129" lon="6.81687">
        <ele>508.2</ele>
        <time>2019-05-17T08:17:55Z</time>
      </trkpt>
      <trkpt lat="47.74125" lon="6.81678">
        <ele>508.2</ele>
        <time>2019-05-17T08:17:57Z</time>
      </trkpt>
      <trkpt lat="47.74111" lon="6.81652">
        <ele>508.8</ele>
        <time>2019-05-17T08:18:03Z</time>
      </trkpt>
      <trkpt lat="47.74109" lon="6.81648">
        <ele>509.2</ele>
        <time>2019-05-17T08:18:04Z</time>
      </trkpt>
      <trkpt lat="47.74107" lon="6.81644">
        <ele>509.6</ele>
        <time>2019-05-17T08:18:05Z</time>
      </trkpt>
      <trkpt lat="47.74105" lon="6.81638">
        <ele>510.2</ele>
        <time>2019-05-17T08:18:06Z</time>
      </trkpt>
      <trkpt lat="47.74103" lon="6.81633">
        <ele>510.6</ele>
        <time>2019-05-17T08:18:07Z</time>
      </trkpt>
      <trkpt lat="47.74098" lon="6.81623">
        <ele>510.6</ele>
        <time>2019-05-17T08:18:09Z</time>
      </trkpt>
      <trkpt lat="47.74086" lon="6.81597">
        <ele>510.6</ele>
        <time>2019-05-17T08:18:14Z</time>
      </trkpt>
      <trkpt lat="47.74084" lon="6.81591">
        <ele>511.2</ele>
        <time>2019-05-17T08:18:15Z</time>
      </trkpt>
      <trkpt lat="47.74082" lon="6.81586">
        <ele>511.6</ele>
        <time>2019-05-17T08:18:16Z</time>
      </trkpt>
      <trkpt lat="47.74081" lon="6.81582">
        <ele>512.4</ele>
        <time>2019-05-17T08:18:17Z</time>
      </trkpt>
      <trkpt lat="47.74081" lon="6.81577">
        <ele>512.8</ele>
        <time>2019-05-17T08:18:18Z</time>
      </trkpt>
      <trkpt lat="47.7408" lon="6.8157">
        <ele>512.8</ele>
        <time>2019-05-17T08:18:20Z</time>
      </trkpt>
      <trkpt lat="47.74078" lon="6.81566">
        <ele>513.2</ele>
        <time>2019-05-17T08:18:21Z</time>
      </trkpt>
      <trkpt lat="47.74074" lon="6.81565">
        <ele>513.6</ele>
        <time>2019-05-17T08:18:22Z</time>
      </trkpt>
      <trkpt lat="47.74071" lon="6.81562">
        <ele>514</ele>
        <time>2019-05-17T08:18:23Z</time>
      </trkpt>
      <trkpt lat="47.74067" lon="6.81559">
        <ele>514.4</ele>
        <time>2019-05-17T08:18:24Z</time>
      </trkpt>
      <trkpt lat="47.74063" lon="6.81555">
        <ele>514.8</ele>
        <time>2019-05-17T08:18:25Z</time>
      </trkpt>
      <trkpt lat="47.74055" lon="6.8154">
        <ele>514.8</ele>
        <time>2019-05-17T08:18:28Z</time>
      </trkpt>
      <trkpt lat="47.74039" lon="6.8151">
        <ele>514.8</ele>
        <time>2019-05-17T08:18:34Z</time>
      </trkpt>
      <trkpt lat="47.74026" lon="6.81477">
        <ele>514.8</ele>
        <time>2019-05-17T08:18:39Z</time>
      </trkpt>
      <trkpt lat="47.74011" lon="6.81443">
        <ele>514.4</ele>
        <time>2019-05-17T08:18:44Z</time>
      </trkpt>
      <trkpt lat="47.74008" lon="6.81435">
        <ele>514</ele>
        <time>2019-05-17T08:18:45Z</time>
      </trkpt>
      <trkpt lat="47.74005" lon="6.81428">
        <ele>513.4</ele>
        <time>2019-05-17T08:18:46Z</time>
      </trkpt>
      <trkpt lat="47.74002" lon="6.8142">
        <ele>513</ele>
        <time>2019-05-17T08:18:47Z</time>
      </trkpt>
      <trkpt lat="47.73998" lon="6.81413">
        <ele>512.6</ele>
        <time>2019-05-17T08:18:48Z</time>
      </trkpt>
      <trkpt lat="47.73991" lon="6.81397">
        <ele>512.6</ele>
        <time>2019-05-17T08:18:50Z</time>
      </trkpt>
      <trkpt lat="47.73988" lon="6.81389">
        <ele>512.2</ele>
        <time>2019-05-17T08:18:51Z</time>
      </trkpt>
      <trkpt lat="47.73983" lon="6.81381">
        <ele>511.8</ele>
        <time>2019-05-17T08:18:52Z</time>
      </trkpt>
      <trkpt lat="47.73975" lon="6.81365">
        <ele>510.8</ele>
        <time>2019-05-17T08:18:53Z</time>
      </trkpt>
      <trkpt lat="47.73971" lon="6.81357">
        <ele>510.4</ele>
        <time>2019-05-17T08:18:55Z</time>
      </trkpt>
      <trkpt lat="47.73962" lon="6.81341">
        <ele>510.4</ele>
        <time>2019-05-17T08:18:57Z</time>
      </trkpt>
      <trkpt lat="47.73956" lon="6.81336">
        <ele>510</ele>
        <time>2019-05-17T08:18:58Z</time>
      </trkpt>
      <trkpt lat="47.73949" lon="6.81331">
        <ele>509.4</ele>
        <time>2019-05-17T08:18:59Z</time>
      </trkpt>
      <trkpt lat="47.73942" lon="6.81327">
        <ele>509</ele>
        <time>2019-05-17T08:19:00Z</time>
      </trkpt>
      <trkpt lat="47.73935" lon="6.81324">
        <ele>508.4</ele>
        <time>2019-05-17T08:19:01Z</time>
      </trkpt>
      <trkpt lat="47.73928" lon="6.81322">
        <ele>508</ele>
        <time>2019-05-17T08:19:02Z</time>
      </trkpt>
      <trkpt lat="47.73921" lon="6.8132">
        <ele>508</ele>
        <time>2019-05-17T08:19:03Z</time>
      </trkpt>
      <trkpt lat="47.73914" lon="6.81317">
        <ele>507.6</ele>
        <time>2019-05-17T08:19:04Z</time>
      </trkpt>
      <trkpt lat="47.73907" lon="6.81314">
        <ele>506.8</ele>
        <time>2019-05-17T08:19:05Z</time>
      </trkpt>
      <trkpt lat="47.73899" lon="6.81311">
        <ele>506.4</ele>
        <time>2019-05-17T08:19:06Z</time>
      </trkpt>
      <trkpt lat="47.73893" lon="6.81308">
        <ele>506</ele>
        <time>2019-05-17T08:19:07Z</time>
      </trkpt>
      <trkpt lat="47.73886" lon="6.81303">
        <ele>505.4</ele>
        <time>2019-05-17T08:19:08Z</time>
      </trkpt>
      <trkpt lat="47.7388" lon="6.81298">
        <ele>505</ele>
        <time>2019-05-17T08:19:09Z</time>
      </trkpt>
      <trkpt lat="47.73874" lon="6.81294">
        <ele>504.4</ele>
        <time>2019-05-17T08:19:10Z</time>
      </trkpt>
      <trkpt lat="47.73869" lon="6.81292">
        <ele>504</ele>
        <time>2019-05-17T08:19:11Z</time>
      </trkpt>
      <trkpt lat="47.73865" lon="6.81291">
        <ele>503.6</ele>
        <time>2019-05-17T08:19:12Z</time>
      </trkpt>
      <trkpt lat="47.73861" lon="6.81292">
        <ele>503.6</ele>
        <time>2019-05-17T08:19:13Z</time>
      </trkpt>
      <trkpt lat="47.73856" lon="6.81302">
        <ele>503.6</ele>
        <time>2019-05-17T08:19:15Z</time>
      </trkpt>
      <trkpt lat="47.73849" lon="6.81322">
        <ele>503.6</ele>
        <time>2019-05-17T08:19:18Z</time>
      </trkpt>
      <trkpt lat="47.73846" lon="6.81338">
        <ele>503.6</ele>
        <time>2019-05-17T08:19:20Z</time>
      </trkpt>
      <trkpt lat="47.73845" lon="6.81354">
        <ele>503.6</ele>
        <time>2019-05-17T08:19:22Z</time>
      </trkpt>
      <trkpt lat="47.73846" lon="6.81379">
        <ele>503.6</ele>
        <time>2019-05-17T08:19:25Z</time>
      </trkpt>
      <trkpt lat="47.73846" lon="6.81404">
        <ele>504</ele>
        <time>2019-05-17T08:19:28Z</time>
      </trkpt>
      <trkpt lat="47.73845" lon="6.81412">
        <ele>505</ele>
        <time>2019-05-17T08:19:29Z</time>
      </trkpt>
      <trkpt lat="47.73845" lon="6.81421">
        <ele>505.6</ele>
        <time>2019-05-17T08:19:30Z</time>
      </trkpt>
      <trkpt lat="47.73844" lon="6.81429">
        <ele>506</ele>
        <time>2019-05-17T08:19:31Z</time>
      </trkpt>
      <trkpt lat="47.73843" lon="6.81462">
        <ele>506</ele>
        <time>2019-05-17T08:19:35Z</time>
      </trkpt>
      <trkpt lat="47.73841" lon="6.8147">
        <ele>506</ele>
        <time>2019-05-17T08:19:36Z</time>
      </trkpt>
      <trkpt lat="47.73837" lon="6.81508">
        <ele>506.6</ele>
        <time>2019-05-17T08:19:41Z</time>
      </trkpt>
      <trkpt lat="47.73837" lon="6.81515">
        <ele>507</ele>
        <time>2019-05-17T08:19:42Z</time>
      </trkpt>
      <trkpt lat="47.73836" lon="6.81522">
        <ele>507.4</ele>
        <time>2019-05-17T08:19:43Z</time>
      </trkpt>
      <trkpt lat="47.73836" lon="6.81529">
        <ele>507.8</ele>
        <time>2019-05-17T08:19:44Z</time>
      </trkpt>
      <trkpt lat="47.73835" lon="6.81535">
        <ele>508.4</ele>
        <time>2019-05-17T08:19:45Z</time>
      </trkpt>
      <trkpt lat="47.73835" lon="6.81556">
        <ele>508.4</ele>
        <time>2019-05-17T08:19:48Z</time>
      </trkpt>
      <trkpt lat="47.73836" lon="6.81563">
        <ele>508.4</ele>
        <time>2019-05-17T08:19:49Z</time>
      </trkpt>
      <trkpt lat="47.73842" lon="6.81586">
        <ele>508.4</ele>
        <time>2019-05-17T08:19:53Z</time>
      </trkpt>
      <trkpt lat="47.73843" lon="6.81593">
        <ele>508.4</ele>
        <time>2019-05-17T08:19:54Z</time>
      </trkpt>
      <trkpt lat="47.73844" lon="6.81614">
        <ele>508</ele>
        <time>2019-05-17T08:19:57Z</time>
      </trkpt>
      <trkpt lat="47.73844" lon="6.81619">
        <ele>507.4</ele>
        <time>2019-05-17T08:19:58Z</time>
      </trkpt>
      <trkpt lat="47.73845" lon="6.81625">
        <ele>507</ele>
        <time>2019-05-17T08:19:59Z</time>
      </trkpt>
      <trkpt lat="47.73846" lon="6.8163">
        <ele>506.6</ele>
        <time>2019-05-17T08:20:00Z</time>
      </trkpt>
      <trkpt lat="47.73847" lon="6.81638">
        <ele>506.2</ele>
        <time>2019-05-17T08:20:01Z</time>
      </trkpt>
      <trkpt lat="47.73848" lon="6.81649">
        <ele>505.6</ele>
        <time>2019-05-17T08:20:03Z</time>
      </trkpt>
      <trkpt lat="47.73849" lon="6.81653">
        <ele>505.2</ele>
        <time>2019-05-17T08:20:04Z</time>
      </trkpt>
      <trkpt lat="47.73851" lon="6.81658">
        <ele>504.8</ele>
        <time>2019-05-17T08:20:05Z</time>
      </trkpt>
      <trkpt lat="47.73853" lon="6.81665">
        <ele>504.2</ele>
        <time>2019-05-17T08:20:06Z</time>
      </trkpt>
      <trkpt lat="47.73854" lon="6.81671">
        <ele>503.8</ele>
        <time>2019-05-17T08:20:07Z</time>
      </trkpt>
      <trkpt lat="47.73858" lon="6.81684">
        <ele>503.4</ele>
        <time>2019-05-17T08:20:09Z</time>
      </trkpt>
      <trkpt lat="47.7386" lon="6.81689">
        <ele>502.8</ele>
        <time>2019-05-17T08:20:10Z</time>
      </trkpt>
      <trkpt lat="47.73862" lon="6.81695">
        <ele>502.4</ele>
        <time>2019-05-17T08:20:11Z</time>
      </trkpt>
      <trkpt lat="47.73864" lon="6.81701">
        <ele>502</ele>
        <time>2019-05-17T08:20:12Z</time>
      </trkpt>
      <trkpt lat="47.73865" lon="6.81708">
        <ele>501.4</ele>
        <time>2019-05-17T08:20:13Z</time>
      </trkpt>
      <trkpt lat="47.73869" lon="6.81728">
        <ele>501.4</ele>
        <time>2019-05-17T08:20:17Z</time>
      </trkpt>
      <trkpt lat="47.73873" lon="6.81737">
        <ele>501</ele>
        <time>2019-05-17T08:20:20Z</time>
      </trkpt>
      <trkpt lat="47.73874" lon="6.8174">
        <ele>500.6</ele>
        <time>2019-05-17T08:20:21Z</time>
      </trkpt>
      <trkpt lat="47.73874" lon="6.81743">
        <ele>500</ele>
        <time>2019-05-17T08:20:22Z</time>
      </trkpt>
      <trkpt lat="47.73875" lon="6.81746">
        <ele>499.6</ele>
        <time>2019-05-17T08:20:23Z</time>
      </trkpt>
      <trkpt lat="47.73876" lon="6.81749">
        <ele>499.2</ele>
        <time>2019-05-17T08:20:24Z</time>
      </trkpt>
      <trkpt lat="47.73878" lon="6.81767">
        <ele>499.2</ele>
        <time>2019-05-17T08:20:27Z</time>
      </trkpt>
      <trkpt lat="47.73878" lon="6.81772">
        <ele>498.8</ele>
        <time>2019-05-17T08:20:28Z</time>
      </trkpt>
      <trkpt lat="47.73877" lon="6.81778">
        <ele>498.2</ele>
        <time>2019-05-17T08:20:29Z</time>
      </trkpt>
      <trkpt lat="47.73875" lon="6.81783">
        <ele>497.8</ele>
        <time>2019-05-17T08:20:30Z</time>
      </trkpt>
      <trkpt lat="47.73873" lon="6.81787">
        <ele>497.4</ele>
        <time>2019-05-17T08:20:31Z</time>
      </trkpt>
      <trkpt lat="47.73872" lon="6.81792">
        <ele>496.8</ele>
        <time>2019-05-17T08:20:32Z</time>
      </trkpt>
      <trkpt lat="47.7387" lon="6.81795">
        <ele>496.2</ele>
        <time>2019-05-17T08:20:33Z</time>
      </trkpt>
      <trkpt lat="47.7387" lon="6.81797">
        <ele>495.8</ele>
        <time>2019-05-17T08:20:34Z</time>
      </trkpt>
      <trkpt lat="47.73869" lon="6.81801">
        <ele>495.2</ele>
        <time>2019-05-17T08:20:35Z</time>
      </trkpt>
      <trkpt lat="47.73867" lon="6.81804">
        <ele>494.6</ele>
        <time>2019-05-17T08:20:36Z</time>
      </trkpt>
      <trkpt lat="47.73863" lon="6.81816">
        <ele>494.6</ele>
        <time>2019-05-17T08:20:39Z</time>
      </trkpt>
      <trkpt lat="47.73858" lon="6.81824">
        <ele>494.2</ele>
        <time>2019-05-17T08:20:43Z</time>
      </trkpt>
      <trkpt lat="47.73857" lon="6.81828">
        <ele>493.8</ele>
        <time>2019-05-17T08:20:44Z</time>
      </trkpt>
      <trkpt lat="47.73855" lon="6.81831">
        <ele>493.4</ele>
        <time>2019-05-17T08:20:45Z</time>
      </trkpt>
      <trkpt lat="47.73853" lon="6.81835">
        <ele>493</ele>
        <time>2019-05-17T08:20:46Z</time>
      </trkpt>
      <trkpt lat="47.73851" lon="6.81839">
        <ele>492.6</ele>
        <time>2019-05-17T08:20:47Z</time>
      </trkpt>
      <trkpt lat="47.73849" lon="6.81842">
        <ele>492.6</ele>
        <time>2019-05-17T08:20:48Z</time>
      </trkpt>
      <trkpt lat="47.73842" lon="6.81862">
        <ele>492.6</ele>
        <time>2019-05-17T08:20:54Z</time>
      </trkpt>
      <trkpt lat="47.73836" lon="6.81877">
        <ele>492.2</ele>
        <time>2019-05-17T08:20:57Z</time>
      </trkpt>
      <trkpt lat="47.73835" lon="6.81882">
        <ele>491.8</ele>
        <time>2019-05-17T08:20:58Z</time>
      </trkpt>
      <trkpt lat="47.73834" lon="6.81889">
        <ele>491.4</ele>
        <time>2019-05-17T08:20:59Z</time>
      </trkpt>
      <trkpt lat="47.73832" lon="6.81896">
        <ele>491</ele>
        <time>2019-05-17T08:21:00Z</time>
      </trkpt>
      <trkpt lat="47.7383" lon="6.81903">
        <ele>490.6</ele>
        <time>2019-05-17T08:21:01Z</time>
      </trkpt>
      <trkpt lat="47.73829" lon="6.8191">
        <ele>490.6</ele>
        <time>2019-05-17T08:21:02Z</time>
      </trkpt>
      <trkpt lat="47.73826" lon="6.81927">
        <ele>490.2</ele>
        <time>2019-05-17T08:21:05Z</time>
      </trkpt>
      <trkpt lat="47.73825" lon="6.81933">
        <ele>489.8</ele>
        <time>2019-05-17T08:21:06Z</time>
      </trkpt>
      <trkpt lat="47.73823" lon="6.81939">
        <ele>489.4</ele>
        <time>2019-05-17T08:21:07Z</time>
      </trkpt>
      <trkpt lat="47.73823" lon="6.81942">
        <ele>488.4</ele>
        <time>2019-05-17T08:21:08Z</time>
      </trkpt>
      <trkpt lat="47.73821" lon="6.81954">
        <ele>488.4</ele>
        <time>2019-05-17T08:21:10Z</time>
      </trkpt>
      <trkpt lat="47.73819" lon="6.8196">
        <ele>488.4</ele>
        <time>2019-05-17T08:21:11Z</time>
      </trkpt>
      <trkpt lat="47.73819" lon="6.81977">
        <ele>488.4</ele>
        <time>2019-05-17T08:21:14Z</time>
      </trkpt>
      <trkpt lat="47.73817" lon="6.8199">
        <ele>488.4</ele>
        <time>2019-05-17T08:21:16Z</time>
      </trkpt>
      <trkpt lat="47.73813" lon="6.82005">
        <ele>488.4</ele>
        <time>2019-05-17T08:21:18Z</time>
      </trkpt>
      <trkpt lat="47.73811" lon="6.82019">
        <ele>488</ele>
        <time>2019-05-17T08:21:20Z</time>
      </trkpt>
      <trkpt lat="47.73811" lon="6.82026">
        <ele>487.4</ele>
        <time>2019-05-17T08:21:21Z</time>
      </trkpt>
      <trkpt lat="47.73811" lon="6.82033">
        <ele>487</ele>
        <time>2019-05-17T08:21:22Z</time>
      </trkpt>
      <trkpt lat="47.73808" lon="6.8204">
        <ele>486.6</ele>
        <time>2019-05-17T08:21:23Z</time>
      </trkpt>
      <trkpt lat="47.73806" lon="6.82047">
        <ele>486</ele>
        <time>2019-05-17T08:21:24Z</time>
      </trkpt>
      <trkpt lat="47.73803" lon="6.82056">
        <ele>486</ele>
        <time>2019-05-17T08:21:25Z</time>
      </trkpt>
      <trkpt lat="47.73802" lon="6.82065">
        <ele>485.6</ele>
        <time>2019-05-17T08:21:26Z</time>
      </trkpt>
      <trkpt lat="47.73804" lon="6.82073">
        <ele>485</ele>
        <time>2019-05-17T08:21:27Z</time>
      </trkpt>
      <trkpt lat="47.73807" lon="6.8208">
        <ele>484.6</ele>
        <time>2019-05-17T08:21:28Z</time>
      </trkpt>
      <trkpt lat="47.73809" lon="6.8209">
        <ele>484.2</ele>
        <time>2019-05-17T08:21:29Z</time>
      </trkpt>
      <trkpt lat="47.73812" lon="6.82099">
        <ele>483.6</ele>
        <time>2019-05-17T08:21:30Z</time>
      </trkpt>
      <trkpt lat="47.73814" lon="6.82107">
        <ele>483.2</ele>
        <time>2019-05-17T08:21:31Z</time>
      </trkpt>
      <trkpt lat="47.73813" lon="6.82118">
        <ele>482.6</ele>
        <time>2019-05-17T08:21:32Z</time>
      </trkpt>
      <trkpt lat="47.73811" lon="6.82128">
        <ele>481.6</ele>
        <time>2019-05-17T08:21:33Z</time>
      </trkpt>
      <trkpt lat="47.73808" lon="6.82137">
        <ele>481</ele>
        <time>2019-05-17T08:21:34Z</time>
      </trkpt>
      <trkpt lat="47.73805" lon="6.82146">
        <ele>480.6</ele>
        <time>2019-05-17T08:21:35Z</time>
      </trkpt>
      <trkpt lat="47.73801" lon="6.82155">
        <ele>480</ele>
        <time>2019-05-17T08:21:36Z</time>
      </trkpt>
      <trkpt lat="47.73796" lon="6.82163">
        <ele>479.6</ele>
        <time>2019-05-17T08:21:37Z</time>
      </trkpt>
      <trkpt lat="47.73792" lon="6.82171">
        <ele>479</ele>
        <time>2019-05-17T08:21:38Z</time>
      </trkpt>
      <trkpt lat="47.73788" lon="6.8218">
        <ele>478.4</ele>
        <time>2019-05-17T08:21:39Z</time>
      </trkpt>
      <trkpt lat="47.73785" lon="6.82189">
        <ele>478</ele>
        <time>2019-05-17T08:21:40Z</time>
      </trkpt>
      <trkpt lat="47.73783" lon="6.82199">
        <ele>477.4</ele>
        <time>2019-05-17T08:21:41Z</time>
      </trkpt>
      <trkpt lat="47.73785" lon="6.82209">
        <ele>476.8</ele>
        <time>2019-05-17T08:21:42Z</time>
      </trkpt>
      <trkpt lat="47.73795" lon="6.82238">
        <ele>476.8</ele>
        <time>2019-05-17T08:21:45Z</time>
      </trkpt>
      <trkpt lat="47.73801" lon="6.82258">
        <ele>476.8</ele>
        <time>2019-05-17T08:21:47Z</time>
      </trkpt>
      <trkpt lat="47.73804" lon="6.82267">
        <ele>476.4</ele>
        <time>2019-05-17T08:21:48Z</time>
      </trkpt>
      <trkpt lat="47.73807" lon="6.82277">
        <ele>476</ele>
        <time>2019-05-17T08:21:49Z</time>
      </trkpt>
      <trkpt lat="47.73809" lon="6.82287">
        <ele>475.4</ele>
        <time>2019-05-17T08:21:50Z</time>
      </trkpt>
      <trkpt lat="47.73811" lon="6.82296">
        <ele>475</ele>
        <time>2019-05-17T08:21:51Z</time>
      </trkpt>
      <trkpt lat="47.73814" lon="6.82306">
        <ele>474.6</ele>
        <time>2019-05-17T08:21:52Z</time>
      </trkpt>
      <trkpt lat="47.73826" lon="6.8235">
        <ele>474.6</ele>
        <time>2019-05-17T08:21:57Z</time>
      </trkpt>
      <trkpt lat="47.73843" lon="6.82376">
        <ele>474.6</ele>
        <time>2019-05-17T08:22:01Z</time>
      </trkpt>
      <trkpt lat="47.73854" lon="6.82383">
        <ele>474.6</ele>
        <time>2019-05-17T08:22:03Z</time>
      </trkpt>
      <trkpt lat="47.73871" lon="6.82394">
        <ele>474.6</ele>
        <time>2019-05-17T08:22:06Z</time>
      </trkpt>
      <trkpt lat="47.7388" lon="6.82412">
        <ele>474.6</ele>
        <time>2019-05-17T08:22:09Z</time>
      </trkpt>
      <trkpt lat="47.73879" lon="6.82438">
        <ele>474.6</ele>
        <time>2019-05-17T08:22:12Z</time>
      </trkpt>
      <trkpt lat="47.7387" lon="6.82493">
        <ele>474.6</ele>
        <time>2019-05-17T08:22:18Z</time>
      </trkpt>
      <trkpt lat="47.73863" lon="6.8254">
        <ele>473.8</ele>
        <time>2019-05-17T08:22:23Z</time>
      </trkpt>
      <trkpt lat="47.73862" lon="6.8255">
        <ele>473.4</ele>
        <time>2019-05-17T08:22:24Z</time>
      </trkpt>
      <trkpt lat="47.73861" lon="6.82559">
        <ele>473</ele>
        <time>2019-05-17T08:22:25Z</time>
      </trkpt>
      <trkpt lat="47.73863" lon="6.82566">
        <ele>472.6</ele>
        <time>2019-05-17T08:22:26Z</time>
      </trkpt>
      <trkpt lat="47.73864" lon="6.82572">
        <ele>472.6</ele>
        <time>2019-05-17T08:22:27Z</time>
      </trkpt>
      <trkpt lat="47.7387" lon="6.82598">
        <ele>472.6</ele>
        <time>2019-05-17T08:22:29Z</time>
      </trkpt>
      <trkpt lat="47.73878" lon="6.82634">
        <ele>473</ele>
        <time>2019-05-17T08:22:33Z</time>
      </trkpt>
      <trkpt lat="47.7388" lon="6.82643">
        <ele>473.6</ele>
        <time>2019-05-17T08:22:34Z</time>
      </trkpt>
      <trkpt lat="47.73883" lon="6.82651">
        <ele>474</ele>
        <time>2019-05-17T08:22:35Z</time>
      </trkpt>
      <trkpt lat="47.73886" lon="6.82659">
        <ele>474.6</ele>
        <time>2019-05-17T08:22:36Z</time>
      </trkpt>
      <trkpt lat="47.73888" lon="6.82667">
        <ele>475.2</ele>
        <time>2019-05-17T08:22:37Z</time>
      </trkpt>
      <trkpt lat="47.73896" lon="6.82692">
        <ele>474.8</ele>
        <time>2019-05-17T08:22:40Z</time>
      </trkpt>
      <trkpt lat="47.739" lon="6.827">
        <ele>474.2</ele>
        <time>2019-05-17T08:22:41Z</time>
      </trkpt>
      <trkpt lat="47.73903" lon="6.82708">
        <ele>473.8</ele>
        <time>2019-05-17T08:22:42Z</time>
      </trkpt>
      <trkpt lat="47.73907" lon="6.82715">
        <ele>473.4</ele>
        <time>2019-05-17T08:22:43Z</time>
      </trkpt>
      <trkpt lat="47.7391" lon="6.82723">
        <ele>473</ele>
        <time>2019-05-17T08:22:44Z</time>
      </trkpt>
      <trkpt lat="47.73926" lon="6.82755">
        <ele>473</ele>
        <time>2019-05-17T08:22:49Z</time>
      </trkpt>
      <trkpt lat="47.73927" lon="6.82761">
        <ele>473</ele>
        <time>2019-05-17T08:22:50Z</time>
      </trkpt>
      <trkpt lat="47.73923" lon="6.8277">
        <ele>473</ele>
        <time>2019-05-17T08:22:53Z</time>
      </trkpt>
      <trkpt lat="47.73908" lon="6.82776">
        <ele>473</ele>
        <time>2019-05-17T08:22:56Z</time>
      </trkpt>
      <trkpt lat="47.73904" lon="6.82779">
        <ele>473</ele>
        <time>2019-05-17T08:22:57Z</time>
      </trkpt>
      <trkpt lat="47.73885" lon="6.82794">
        <ele>473</ele>
        <time>2019-05-17T08:23:01Z</time>
      </trkpt>
      <trkpt lat="47.7388" lon="6.82798">
        <ele>472.6</ele>
        <time>2019-05-17T08:23:02Z</time>
      </trkpt>
      <trkpt lat="47.73874" lon="6.82802">
        <ele>472.2</ele>
        <time>2019-05-17T08:23:03Z</time>
      </trkpt>
      <trkpt lat="47.73869" lon="6.82806">
        <ele>471.8</ele>
        <time>2019-05-17T08:23:04Z</time>
      </trkpt>
      <trkpt lat="47.73863" lon="6.8281">
        <ele>471.4</ele>
        <time>2019-05-17T08:23:05Z</time>
      </trkpt>
      <trkpt lat="47.73858" lon="6.82814">
        <ele>471</ele>
        <time>2019-05-17T08:23:06Z</time>
      </trkpt>
      <trkpt lat="47.73852" lon="6.82818">
        <ele>471</ele>
        <time>2019-05-17T08:23:07Z</time>
      </trkpt>
      <trkpt lat="47.73846" lon="6.82821">
        <ele>471</ele>
        <time>2019-05-17T08:23:08Z</time>
      </trkpt>
      <trkpt lat="47.73822" lon="6.82838">
        <ele>470.6</ele>
        <time>2019-05-17T08:23:12Z</time>
      </trkpt>
      <trkpt lat="47.73816" lon="6.82842">
        <ele>469.6</ele>
        <time>2019-05-17T08:23:13Z</time>
      </trkpt>
      <trkpt lat="47.7381" lon="6.82846">
        <ele>469.2</ele>
        <time>2019-05-17T08:23:14Z</time>
      </trkpt>
      <trkpt lat="47.73805" lon="6.8285">
        <ele>468.8</ele>
        <time>2019-05-17T08:23:15Z</time>
      </trkpt>
      <trkpt lat="47.73763" lon="6.82875">
        <ele>468.8</ele>
        <time>2019-05-17T08:23:22Z</time>
      </trkpt>
      <trkpt lat="47.73733" lon="6.82891">
        <ele>468.4</ele>
        <time>2019-05-17T08:23:27Z</time>
      </trkpt>
      <trkpt lat="47.73727" lon="6.82895">
        <ele>468</ele>
        <time>2019-05-17T08:23:28Z</time>
      </trkpt>
      <trkpt lat="47.73721" lon="6.82898">
        <ele>467.6</ele>
        <time>2019-05-17T08:23:29Z</time>
      </trkpt>
      <trkpt lat="47.73714" lon="6.829">
        <ele>467.2</ele>
        <time>2019-05-17T08:23:30Z</time>
      </trkpt>
      <trkpt lat="47.73708" lon="6.82903">
        <ele>466.8</ele>
        <time>2019-05-17T08:23:31Z</time>
      </trkpt>
      <trkpt lat="47.73668" lon="6.82914">
        <ele>466.8</ele>
        <time>2019-05-17T08:23:37Z</time>
      </trkpt>
      <trkpt lat="47.73614" lon="6.82929">
        <ele>466.8</ele>
        <time>2019-05-17T08:23:45Z</time>
      </trkpt>
      <trkpt lat="47.73607" lon="6.82931">
        <ele>466.2</ele>
        <time>2019-05-17T08:23:46Z</time>
      </trkpt>
      <trkpt lat="47.73601" lon="6.82932">
        <ele>465.8</ele>
        <time>2019-05-17T08:23:47Z</time>
      </trkpt>
      <trkpt lat="47.73594" lon="6.82934">
        <ele>465.2</ele>
        <time>2019-05-17T08:23:48Z</time>
      </trkpt>
      <trkpt lat="47.73587" lon="6.82936">
        <ele>464.8</ele>
        <time>2019-05-17T08:23:49Z</time>
      </trkpt>
      <trkpt lat="47.73581" lon="6.82939">
        <ele>464.2</ele>
        <time>2019-05-17T08:23:50Z</time>
      </trkpt>
      <trkpt lat="47.73561" lon="6.82944">
        <ele>464.2</ele>
        <time>2019-05-17T08:23:53Z</time>
      </trkpt>
      <trkpt lat="47.73516" lon="6.82956">
        <ele>464.2</ele>
        <time>2019-05-17T08:24:00Z</time>
      </trkpt>
      <trkpt lat="47.73458" lon="6.82972">
        <ele>464.2</ele>
        <time>2019-05-17T08:24:09Z</time>
      </trkpt>
      <trkpt lat="47.73426" lon="6.8298">
        <ele>463.8</ele>
        <time>2019-05-17T08:24:14Z</time>
      </trkpt>
      <trkpt lat="47.73419" lon="6.82981">
        <ele>463.4</ele>
        <time>2019-05-17T08:24:15Z</time>
      </trkpt>
      <trkpt lat="47.73412" lon="6.82983">
        <ele>463</ele>
        <time>2019-05-17T08:24:16Z</time>
      </trkpt>
      <trkpt lat="47.73406" lon="6.82984">
        <ele>462.6</ele>
        <time>2019-05-17T08:24:17Z</time>
      </trkpt>
      <trkpt lat="47.73399" lon="6.82985">
        <ele>462.2</ele>
        <time>2019-05-17T08:24:18Z</time>
      </trkpt>
      <trkpt lat="47.73367" lon="6.82989">
        <ele>462.2</ele>
        <time>2019-05-17T08:24:23Z</time>
      </trkpt>
      <trkpt lat="47.73348" lon="6.8299">
        <ele>462.2</ele>
        <time>2019-05-17T08:24:26Z</time>
      </trkpt>
      <trkpt lat="47.73336" lon="6.8299">
        <ele>462.2</ele>
        <time>2019-05-17T08:24:28Z</time>
      </trkpt>
      <trkpt lat="47.73323" lon="6.82991">
        <ele>462.2</ele>
        <time>2019-05-17T08:24:30Z</time>
      </trkpt>
      <trkpt lat="47.73314" lon="6.83">
        <ele>462.2</ele>
        <time>2019-05-17T08:24:32Z</time>
      </trkpt>
      <trkpt lat="47.73296" lon="6.8301">
        <ele>462.2</ele>
        <time>2019-05-17T08:24:35Z</time>
      </trkpt>
      <trkpt lat="47.7329" lon="6.83012">
        <ele>462.2</ele>
        <time>2019-05-17T08:24:36Z</time>
      </trkpt>
      <trkpt lat="47.73257" lon="6.83015">
        <ele>462.2</ele>
        <time>2019-05-17T08:24:41Z</time>
      </trkpt>
      <trkpt lat="47.73201" lon="6.83011">
        <ele>462.2</ele>
        <time>2019-05-17T08:24:50Z</time>
      </trkpt>
      <trkpt lat="47.73195" lon="6.83011">
        <ele>462.2</ele>
        <time>2019-05-17T08:24:51Z</time>
      </trkpt>
      <trkpt lat="47.73182" lon="6.83011">
        <ele>462.2</ele>
        <time>2019-05-17T08:24:53Z</time>
      </trkpt>
      <trkpt lat="47.7317" lon="6.83017">
        <ele>461.8</ele>
        <time>2019-05-17T08:24:55Z</time>
      </trkpt>
      <trkpt lat="47.73164" lon="6.83021">
        <ele>461.4</ele>
        <time>2019-05-17T08:24:56Z</time>
      </trkpt>
      <trkpt lat="47.73158" lon="6.83025">
        <ele>460.8</ele>
        <time>2019-05-17T08:24:57Z</time>
      </trkpt>
      <trkpt lat="47.73153" lon="6.8303">
        <ele>460.4</ele>
        <time>2019-05-17T08:24:58Z</time>
      </trkpt>
      <trkpt lat="47.73148" lon="6.83035">
        <ele>460</ele>
        <time>2019-05-17T08:24:59Z</time>
      </trkpt>
      <trkpt lat="47.73143" lon="6.8304">
        <ele>460</ele>
        <time>2019-05-17T08:25:00Z</time>
      </trkpt>
      <trkpt lat="47.73128" lon="6.83061">
        <ele>460</ele>
        <time>2019-05-17T08:25:04Z</time>
      </trkpt>
      <trkpt lat="47.73121" lon="6.83077">
        <ele>460</ele>
        <time>2019-05-17T08:25:07Z</time>
      </trkpt>
      <trkpt lat="47.73102" lon="6.83084">
        <ele>460</ele>
        <time>2019-05-17T08:25:11Z</time>
      </trkpt>
    </trkseg>
  </trk>
</gpx>